Wetterdaten: Mittwoch, 20.09.2017
Datum Zeit Temp. A. Temp. A. max Feuchte A. Luftdruck Regen Wind Richtung Richtung Sonnenschein ET UV Solar Taupunkt Windchill Windböen
20.09.2017 00:00 6,3 °C 6,3 °C 93 % 1019,9 hPa 0,0 mm 0,1 km/h (0 Bft) S 184 ° 0 min 0,000 mm 0,0 UV-I 0 W/m² 5,3 °C 6,3 °C 1,6 km/h (1 Bft)
20.09.2017 00:01 6,3 °C 6,3 °C 93 % 1019,8 hPa 0,0 mm 0,0 km/h (0 Bft) S 184 ° 0 min 0,000 mm 0,0 UV-I 0 W/m² 5,3 °C 6,3 °C 0,0 km/h (0 Bft)
20.09.2017 00:02 6,3 °C 6,3 °C 93 % 1019,8 hPa 0,2 mm 1,7 km/h (1 Bft) S 184 ° 0 min 0,000 mm 0,0 UV-I 0 W/m² 5,3 °C 6,3 °C 4,8 km/h (1 Bft)
20.09.2017 00:03 6,3 °C 6,3 °C 93 % 1019,8 hPa 0,0 mm 1,9 km/h (1 Bft) S 184 ° 0 min 0,000 mm 0,0 UV-I 0 W/m² 5,3 °C 6,3 °C 4,8 km/h (1 Bft)
20.09.2017 00:04 6,3 °C 6,3 °C 93 % 1019,8 hPa 0,0 mm 1,7 km/h (1 Bft) S 184 ° 0 min 0,000 mm 0,0 UV-I 0 W/m² 5,3 °C 6,3 °C 3,2 km/h (1 Bft)
20.09.2017 00:05 6,3 °C 6,3 °C 93 % 1019,8 hPa 0,0 mm 1,6 km/h (1 Bft) S-SW 198 ° 0 min 0,000 mm 0,0 UV-I 0 W/m² 5,3 °C 6,3 °C 6,4 km/h (2 Bft)
20.09.2017 00:06 6,3 °C 6,3 °C 93 % 1019,8 hPa 0,0 mm 3,0 km/h (1 Bft) S-SW 198 ° 0 min 0,000 mm 0,0 UV-I 0 W/m² 5,3 °C 6,3 °C 4,8 km/h (1 Bft)
20.09.2017 00:07 6,3 °C 6,3 °C 93 % 1019,8 hPa 0,2 mm 4,1 km/h (1 Bft) S-SW 193 ° 0 min 0,000 mm 0,0 UV-I 0 W/m² 5,3 °C 6,3 °C 8,0 km/h (2 Bft)
20.09.2017 00:08 6,3 °C 6,3 °C 93 % 1019,8 hPa 0,0 mm 2,2 km/h (1 Bft) S-SW 193 ° 0 min 0,000 mm 0,0 UV-I 0 W/m² 5,3 °C 6,3 °C 3,2 km/h (1 Bft)
20.09.2017 00:09 6,3 °C 6,3 °C 93 % 1019,9 hPa 0,0 mm 0,7 km/h (0 Bft) SW 220 ° 0 min 0,000 mm 0,0 UV-I 0 W/m² 5,3 °C 6,3 °C 3,2 km/h (1 Bft)
20.09.2017 00:10 6,3 °C 6,3 °C 93 % 1019,9 hPa 0,0 mm 1,7 km/h (1 Bft) SW 220 ° 0 min 0,000 mm 0,0 UV-I 0 W/m² 5,3 °C 6,3 °C 3,2 km/h (1 Bft)
20.09.2017 00:11 6,3 °C 6,3 °C 93 % 1019,9 hPa 0,0 mm 0,2 km/h (0 Bft) SW 220 ° 0 min 0,000 mm 0,0 UV-I 0 W/m² 5,3 °C 6,3 °C 1,6 km/h (1 Bft)
20.09.2017 00:12 6,3 °C 6,3 °C 93 % 1019,9 hPa 0,2 mm 0,1 km/h (0 Bft) SW 220 ° 0 min 0,000 mm 0,0 UV-I 0 W/m² 5,3 °C 6,3 °C 1,6 km/h (1 Bft)
20.09.2017 00:13 6,3 °C 6,3 °C 93 % 1019,9 hPa 0,0 mm 2,3 km/h (1 Bft) S-SW 199 ° 0 min 0,000 mm 0,0 UV-I 0 W/m² 5,3 °C 6,3 °C 4,8 km/h (1 Bft)
20.09.2017 00:14 6,3 °C 6,3 °C 93 % 1019,9 hPa 0,0 mm 3,4 km/h (1 Bft) S-SW 199 ° 0 min 0,000 mm 0,0 UV-I 0 W/m² 5,3 °C 6,3 °C 4,8 km/h (1 Bft)
20.09.2017 00:15 6,3 °C 6,3 °C 93 % 1019,9 hPa 0,2 mm 1,7 km/h (1 Bft) S-SW 199 ° 0 min 0,000 mm 0,0 UV-I 0 W/m² 5,3 °C 6,3 °C 3,2 km/h (1 Bft)
20.09.2017 00:16 6,3 °C 6,3 °C 93 % 1019,9 hPa 0,0 mm 0,7 km/h (0 Bft) S-SW 199 ° 0 min 0,000 mm 0,0 UV-I 0 W/m² 5,3 °C 6,3 °C 1,6 km/h (1 Bft)
20.09.2017 00:17 6,3 °C 6,3 °C 93 % 1019,9 hPa 0,0 mm 0,2 km/h (0 Bft) S-SW 199 ° 0 min 0,000 mm 0,0 UV-I 0 W/m² 5,3 °C 6,3 °C 1,6 km/h (1 Bft)
20.09.2017 00:18 6,3 °C 6,3 °C 93 % 1020,0 hPa 0,0 mm 0,0 km/h (0 Bft) S-SW 199 ° 0 min 0,000 mm 0,0 UV-I 0 W/m² 5,3 °C 6,3 °C 0,0 km/h (0 Bft)
20.09.2017 00:19 6,3 °C 6,3 °C 93 % 1020,0 hPa 0,2 mm 0,0 km/h (0 Bft) S-SW 199 ° 0 min 0,000 mm 0,0 UV-I 0 W/m² 5,3 °C 6,3 °C 0,0 km/h (0 Bft)
20.09.2017 00:20 6,3 °C 6,3 °C 93 % 1020,0 hPa 0,0 mm 0,9 km/h (0 Bft) S-SW 199 ° 0 min 0,000 mm 0,0 UV-I 0 W/m² 5,3 °C 6,3 °C 3,2 km/h (1 Bft)
20.09.2017 00:21 6,3 °C 6,3 °C 93 % 1020,0 hPa 0,2 mm 0,3 km/h (0 Bft) S-SW 199 ° 0 min 0,000 mm 0,0 UV-I 0 W/m² 5,3 °C 6,3 °C 1,6 km/h (1 Bft)
20.09.2017 00:22 6,3 °C 6,3 °C 93 % 1020,0 hPa 0,0 mm 1,8 km/h (1 Bft) S-SW 199 ° 0 min 0,000 mm 0,0 UV-I 0 W/m² 5,3 °C 6,3 °C 3,2 km/h (1 Bft)
20.09.2017 00:23 6,3 °C 6,3 °C 93 % 1020,0 hPa 0,0 mm 2,0 km/h (1 Bft) S-SW 199 ° 0 min 0,000 mm 0,0 UV-I 0 W/m² 5,3 °C 6,3 °C 4,8 km/h (1 Bft)
20.09.2017 00:24 6,3 °C 6,3 °C 93 % 1020,0 hPa 0,2 mm 1,7 km/h (1 Bft) S-SW 199 ° 0 min 0,000 mm 0,0 UV-I 0 W/m² 5,3 °C 6,3 °C 3,2 km/h (1 Bft)
20.09.2017 00:25 6,3 °C 6,3 °C 93 % 1020,0 hPa 0,0 mm 3,4 km/h (1 Bft) S-SW 193 ° 0 min 0,000 mm 0,0 UV-I 0 W/m² 5,3 °C 6,3 °C 6,4 km/h (2 Bft)
20.09.2017 00:26 6,3 °C 6,3 °C 93 % 1020,0 hPa 0,0 mm 4,5 km/h (1 Bft) S 186 ° 0 min 0,000 mm 0,0 UV-I 0 W/m² 5,3 °C 6,3 °C 6,4 km/h (2 Bft)
20.09.2017 00:27 6,3 °C 6,3 °C 93 % 1020,0 hPa 0,2 mm 3,3 km/h (1 Bft) S 183 ° 0 min 0,000 mm 0,0 UV-I 0 W/m² 5,3 °C 6,3 °C 4,8 km/h (1 Bft)
20.09.2017 00:28 6,3 °C 6,3 °C 93 % 1020,0 hPa 0,0 mm 2,2 km/h (1 Bft) S 183 ° 0 min 0,000 mm 0,0 UV-I 0 W/m² 5,3 °C 6,3 °C 4,8 km/h (1 Bft)
20.09.2017 00:29 6,2 °C 6,3 °C 93 % 1019,9 hPa 0,0 mm 2,3 km/h (1 Bft) S 183 ° 0 min 0,000 mm 0,0 UV-I 0 W/m² 5,2 °C 6,2 °C 4,8 km/h (1 Bft)
20.09.2017 00:30 6,3 °C 6,3 °C 93 % 1020,0 hPa 0,0 mm 0,9 km/h (0 Bft) S 183 ° 0 min 0,000 mm 0,0 UV-I 0 W/m² 5,3 °C 6,3 °C 3,2 km/h (1 Bft)
20.09.2017 00:31 6,2 °C 6,3 °C 93 % 1020,0 hPa 0,0 mm 2,6 km/h (1 Bft) S 183 ° 0 min 0,000 mm 0,0 UV-I 0 W/m² 5,2 °C 6,2 °C 4,8 km/h (1 Bft)
20.09.2017 00:32 6,3 °C 6,3 °C 94 % 1020,0 hPa 0,0 mm 1,0 km/h (0 Bft) S 183 ° 0 min 0,000 mm 0,0 UV-I 0 W/m² 5,4 °C 6,3 °C 3,2 km/h (1 Bft)
20.09.2017 00:33 6,3 °C 6,3 °C 94 % 1020,0 hPa 0,0 mm 0,5 km/h (0 Bft) S 184 ° 0 min 0,000 mm 0,0 UV-I 0 W/m² 5,4 °C 6,3 °C 1,6 km/h (1 Bft)
20.09.2017 00:34 6,2 °C 6,3 °C 94 % 1020,0 hPa 0,0 mm 0,6 km/h (0 Bft) S 184 ° 0 min 0,000 mm 0,0 UV-I 0 W/m² 5,3 °C 6,2 °C 1,6 km/h (1 Bft)
20.09.2017 00:35 6,3 °C 6,3 °C 94 % 1019,9 hPa 0,0 mm 0,0 km/h (0 Bft) S 183 ° 0 min 0,000 mm 0,0 UV-I 0 W/m² 5,4 °C 6,3 °C 0,0 km/h (0 Bft)
20.09.2017 00:36 6,2 °C 6,3 °C 94 % 1019,9 hPa 0,0 mm 0,0 km/h (0 Bft) S 184 ° 0 min 0,000 mm 0,0 UV-I 0 W/m² 5,3 °C 6,2 °C 0,0 km/h (0 Bft)
20.09.2017 00:37 6,3 °C 6,3 °C 93 % 1020,0 hPa 0,0 mm 0,0 km/h (0 Bft) S 184 ° 0 min 0,000 mm 0,0 UV-I 0 W/m² 5,3 °C 6,3 °C 0,0 km/h (0 Bft)
20.09.2017 00:38 6,2 °C 6,3 °C 94 % 1020,0 hPa 0,2 mm 0,0 km/h (0 Bft) S 183 ° 0 min 0,000 mm 0,0 UV-I 0 W/m² 5,3 °C 6,2 °C 0,0 km/h (0 Bft)
20.09.2017 00:39 6,2 °C 6,2 °C 93 % 1019,9 hPa 0,0 mm 0,0 km/h (0 Bft) S 184 ° 0 min 0,000 mm 0,0 UV-I 0 W/m² 5,2 °C 6,2 °C 0,0 km/h (0 Bft)
20.09.2017 00:40 6,2 °C 6,2 °C 93 % 1019,9 hPa 0,0 mm 0,0 km/h (0 Bft) S 184 ° 0 min 0,000 mm 0,0 UV-I 0 W/m² 5,2 °C 6,2 °C 0,0 km/h (0 Bft)
20.09.2017 00:41 6,2 °C 6,2 °C 94 % 1019,9 hPa 0,0 mm 0,0 km/h (0 Bft) S 184 ° 0 min 0,000 mm 0,0 UV-I 0 W/m² 5,3 °C 6,2 °C 0,0 km/h (0 Bft)
20.09.2017 00:42 6,2 °C 6,2 °C 94 % 1020,0 hPa 0,0 mm 0,0 km/h (0 Bft) S 183 ° 0 min 0,000 mm 0,0 UV-I 0 W/m² 5,3 °C 6,2 °C 0,0 km/h (0 Bft)
20.09.2017 00:43 6,2 °C 6,2 °C 94 % 1020,0 hPa 0,0 mm 0,0 km/h (0 Bft) S 184 ° 0 min 0,000 mm 0,0 UV-I 0 W/m² 5,3 °C 6,2 °C 0,0 km/h (0 Bft)
20.09.2017 00:44 6,2 °C 6,2 °C 94 % 1020,0 hPa 0,0 mm 0,0 km/h (0 Bft) S 184 ° 0 min 0,000 mm 0,0 UV-I 0 W/m² 5,3 °C 6,2 °C 0,0 km/h (0 Bft)
20.09.2017 00:45 6,2 °C 6,2 °C 94 % 1019,9 hPa 0,0 mm 0,0 km/h (0 Bft) S 184 ° 0 min 0,000 mm 0,0 UV-I 0 W/m² 5,3 °C 6,2 °C 0,0 km/h (0 Bft)
20.09.2017 00:46 6,2 °C 6,2 °C 94 % 1020,0 hPa 0,0 mm 0,0 km/h (0 Bft) S 184 ° 0 min 0,000 mm 0,0 UV-I 0 W/m² 5,3 °C 6,2 °C 0,0 km/h (0 Bft)
20.09.2017 00:47 6,2 °C 6,2 °C 94 % 1020,0 hPa 0,0 mm 0,0 km/h (0 Bft) S 184 ° 0 min 0,000 mm 0,0 UV-I 0 W/m² 5,3 °C 6,2 °C 0,0 km/h (0 Bft)
20.09.2017 00:48 6,2 °C 6,2 °C 94 % 1020,0 hPa 0,0 mm 0,0 km/h (0 Bft) S 184 ° 0 min 0,000 mm 0,0 UV-I 0 W/m² 5,3 °C 6,2 °C 0,0 km/h (0 Bft)
20.09.2017 00:49 6,2 °C 6,2 °C 94 % 1019,9 hPa 0,0 mm 0,0 km/h (0 Bft) S 184 ° 0 min 0,000 mm 0,0 UV-I 0 W/m² 5,3 °C 6,2 °C 0,0 km/h (0 Bft)
20.09.2017 00:50 6,2 °C 6,2 °C 94 % 1019,9 hPa 0,0 mm 0,1 km/h (0 Bft) S 184 ° 0 min 0,000 mm 0,0 UV-I 0 W/m² 5,3 °C 6,2 °C 1,6 km/h (1 Bft)
20.09.2017 00:51 6,2 °C 6,2 °C 94 % 1020,0 hPa 0,0 mm 1,7 km/h (1 Bft) S 183 ° 0 min 0,000 mm 0,0 UV-I 0 W/m² 5,3 °C 6,2 °C 4,8 km/h (1 Bft)
20.09.2017 00:52 6,2 °C 6,2 °C 94 % 1020,0 hPa 0,0 mm 2,2 km/h (1 Bft) S-SW 213 ° 0 min 0,000 mm 0,0 UV-I 0 W/m² 5,3 °C 6,2 °C 4,8 km/h (1 Bft)
20.09.2017 00:53 6,2 °C 6,2 °C 94 % 1020,0 hPa 0,0 mm 1,8 km/h (1 Bft) S-SW 211 ° 0 min 0,000 mm 0,0 UV-I 0 W/m² 5,3 °C 6,2 °C 3,2 km/h (1 Bft)
20.09.2017 00:54 6,2 °C 6,2 °C 94 % 1019,9 hPa 0,0 mm 3,2 km/h (1 Bft) S 175 ° 0 min 0,000 mm 0,0 UV-I 0 W/m² 5,3 °C 6,2 °C 4,8 km/h (1 Bft)
20.09.2017 00:55 6,2 °C 6,2 °C 94 % 1020,0 hPa 0,0 mm 0,9 km/h (0 Bft) S 175 ° 0 min 0,000 mm 0,0 UV-I 0 W/m² 5,3 °C 6,2 °C 1,6 km/h (1 Bft)
20.09.2017 00:56 6,2 °C 6,2 °C 94 % 1020,0 hPa 0,0 mm 3,9 km/h (1 Bft) S-SW 211 ° 0 min 0,000 mm 0,0 UV-I 0 W/m² 5,3 °C 6,2 °C 8,0 km/h (2 Bft)
20.09.2017 00:57 6,2 °C 6,2 °C 94 % 1020,0 hPa 0,0 mm 1,5 km/h (1 Bft) S-SW 210 ° 0 min 0,000 mm 0,0 UV-I 0 W/m² 5,3 °C 6,2 °C 3,2 km/h (1 Bft)
20.09.2017 00:58 6,2 °C 6,2 °C 94 % 1020,0 hPa 0,0 mm 3,9 km/h (1 Bft) S-SW 197 ° 0 min 0,000 mm 0,0 UV-I 0 W/m² 5,3 °C 6,2 °C 8,0 km/h (2 Bft)
20.09.2017 00:59 6,2 °C 6,2 °C 94 % 1020,0 hPa 0,0 mm 0,8 km/h (0 Bft) S-SW 197 ° 0 min 0,000 mm 0,0 UV-I 0 W/m² 5,3 °C 6,2 °C 3,2 km/h (1 Bft)
20.09.2017 01:00 6,2 °C 6,2 °C 94 % 1020,0 hPa 0,0 mm 0,1 km/h (0 Bft) S-SW 197 ° 0 min 0,000 mm 0,0 UV-I 0 W/m² 5,3 °C 6,2 °C 1,6 km/h (1 Bft)
20.09.2017 01:01 6,2 °C 6,2 °C 94 % 1020,1 hPa 0,0 mm 2,4 km/h (1 Bft) S 186 ° 0 min 0,000 mm 0,0 UV-I 0 W/m² 5,3 °C 6,2 °C 4,8 km/h (1 Bft)
20.09.2017 01:02 6,2 °C 6,2 °C 94 % 1020,0 hPa 0,0 mm 1,9 km/h (1 Bft) S 186 ° 0 min 0,000 mm 0,0 UV-I 0 W/m² 5,3 °C 6,2 °C 4,8 km/h (1 Bft)
20.09.2017 01:03 6,2 °C 6,2 °C 94 % 1020,1 hPa 0,0 mm 3,8 km/h (1 Bft) S-SW 195 ° 0 min 0,000 mm 0,0 UV-I 0 W/m² 5,3 °C 6,2 °C 8,0 km/h (2 Bft)
20.09.2017 01:04 6,2 °C 6,2 °C 94 % 1020,0 hPa 0,0 mm 2,6 km/h (1 Bft) S-SW 192 ° 0 min 0,000 mm 0,0 UV-I 0 W/m² 5,3 °C 6,2 °C 8,0 km/h (2 Bft)
20.09.2017 01:05 6,2 °C 6,2 °C 94 % 1020,0 hPa 0,0 mm 4,0 km/h (1 Bft) S 188 ° 0 min 0,000 mm 0,0 UV-I 0 W/m² 5,3 °C 6,2 °C 6,4 km/h (2 Bft)
20.09.2017 01:06 6,2 °C 6,2 °C 94 % 1020,0 hPa 0,0 mm 4,6 km/h (1 Bft) S 184 ° 0 min 0,000 mm 0,0 UV-I 0 W/m² 5,3 °C 5,6 °C 6,4 km/h (2 Bft)
20.09.2017 01:07 6,2 °C 6,2 °C 94 % 1020,0 hPa 0,0 mm 2,7 km/h (1 Bft) SW 236 ° 0 min 0,000 mm 0,0 UV-I 0 W/m² 5,3 °C 6,2 °C 6,4 km/h (2 Bft)
20.09.2017 01:08 6,2 °C 6,2 °C 94 % 1020,0 hPa 0,0 mm 1,3 km/h (1 Bft) SW 236 ° 0 min 0,000 mm 0,0 UV-I 0 W/m² 5,3 °C 6,2 °C 3,2 km/h (1 Bft)
20.09.2017 01:09 6,2 °C 6,2 °C 94 % 1020,0 hPa 0,0 mm 1,9 km/h (1 Bft) W-SW 243 ° 0 min 0,000 mm 0,0 UV-I 0 W/m² 5,3 °C 6,2 °C 3,2 km/h (1 Bft)
20.09.2017 01:10 6,3 °C 6,3 °C 94 % 1020,0 hPa 0,0 mm 1,3 km/h (1 Bft) W-SW 243 ° 0 min 0,000 mm 0,0 UV-I 0 W/m² 5,4 °C 6,3 °C 3,2 km/h (1 Bft)
20.09.2017 01:11 6,3 °C 6,3 °C 94 % 1020,0 hPa 0,0 mm 1,9 km/h (1 Bft) SW 229 ° 0 min 0,000 mm 0,0 UV-I 0 W/m² 5,4 °C 6,3 °C 3,2 km/h (1 Bft)
20.09.2017 01:12 6,3 °C 6,3 °C 94 % 1020,0 hPa 0,0 mm 2,0 km/h (1 Bft) SW 232 ° 0 min 0,000 mm 0,0 UV-I 0 W/m² 5,4 °C 6,3 °C 3,2 km/h (1 Bft)
20.09.2017 01:13 6,3 °C 6,3 °C 94 % 1020,0 hPa 0,0 mm 3,1 km/h (1 Bft) SW 217 ° 0 min 0,000 mm 0,0 UV-I 0 W/m² 5,4 °C 6,3 °C 4,8 km/h (1 Bft)
20.09.2017 01:14 6,3 °C 6,3 °C 94 % 1020,0 hPa 0,0 mm 2,3 km/h (1 Bft) W-SW 258 ° 0 min 0,000 mm 0,0 UV-I 0 W/m² 5,4 °C 6,3 °C 3,2 km/h (1 Bft)
20.09.2017 01:15 6,3 °C 6,3 °C 94 % 1020,0 hPa 0,0 mm 1,4 km/h (1 Bft) W-SW 258 ° 0 min 0,000 mm 0,0 UV-I 0 W/m² 5,4 °C 6,3 °C 3,2 km/h (1 Bft)
20.09.2017 01:16 6,3 °C 6,3 °C 93 % 1020,0 hPa 0,0 mm 2,3 km/h (1 Bft) W 259 ° 0 min 0,000 mm 0,0 UV-I 0 W/m² 5,3 °C 6,3 °C 4,8 km/h (1 Bft)
20.09.2017 01:17 6,3 °C 6,3 °C 94 % 1020,1 hPa 0,0 mm 0,3 km/h (0 Bft) W-SW 258 ° 0 min 0,000 mm 0,0 UV-I 0 W/m² 5,4 °C 6,3 °C 1,6 km/h (1 Bft)
20.09.2017 01:18 6,3 °C 6,3 °C 93 % 1020,1 hPa 0,0 mm 1,5 km/h (1 Bft) W 259 ° 0 min 0,000 mm 0,0 UV-I 0 W/m² 5,3 °C 6,3 °C 3,2 km/h (1 Bft)
20.09.2017 01:19 6,3 °C 6,3 °C 94 % 1020,0 hPa 0,0 mm 1,3 km/h (1 Bft) W 259 ° 0 min 0,000 mm 0,0 UV-I 0 W/m² 5,4 °C 6,3 °C 3,2 km/h (1 Bft)
20.09.2017 01:20 6,3 °C 6,3 °C 94 % 1020,0 hPa 0,0 mm 0,9 km/h (0 Bft) W 259 ° 0 min 0,000 mm 0,0 UV-I 0 W/m² 5,4 °C 6,3 °C 3,2 km/h (1 Bft)
20.09.2017 01:21 6,3 °C 6,3 °C 93 % 1020,0 hPa 0,0 mm 2,4 km/h (1 Bft) W 259 ° 0 min 0,000 mm 0,0 UV-I 0 W/m² 5,3 °C 6,3 °C 4,8 km/h (1 Bft)
20.09.2017 01:22 6,3 °C 6,3 °C 94 % 1020,0 hPa 0,0 mm 2,1 km/h (1 Bft) W 259 ° 0 min 0,000 mm 0,0 UV-I 0 W/m² 5,4 °C 6,3 °C 3,2 km/h (1 Bft)
20.09.2017 01:23 6,3 °C 6,3 °C 94 % 1020,0 hPa 0,0 mm 0,5 km/h (0 Bft) W 259 ° 0 min 0,000 mm 0,0 UV-I 0 W/m² 5,4 °C 6,3 °C 1,6 km/h (1 Bft)
20.09.2017 01:24 6,3 °C 6,3 °C 94 % 1020,0 hPa 0,0 mm 1,4 km/h (1 Bft) SW 219 ° 0 min 0,000 mm 0,0 UV-I 0 W/m² 5,4 °C 6,3 °C 3,2 km/h (1 Bft)
20.09.2017 01:25 6,3 °C 6,3 °C 93 % 1020,0 hPa 0,0 mm 2,9 km/h (1 Bft) W 280 ° 0 min 0,000 mm 0,0 UV-I 0 W/m² 5,3 °C 6,3 °C 4,8 km/h (1 Bft)
20.09.2017 01:26 6,3 °C 6,3 °C 94 % 1020,0 hPa 0,0 mm 1,9 km/h (1 Bft) W-SW 257 ° 0 min 0,000 mm 0,0 UV-I 0 W/m² 5,4 °C 6,3 °C 3,2 km/h (1 Bft)
20.09.2017 01:27 6,3 °C 6,3 °C 94 % 1020,0 hPa 0,0 mm 1,7 km/h (1 Bft) W-SW 244 ° 0 min 0,000 mm 0,0 UV-I 0 W/m² 5,4 °C 6,3 °C 4,8 km/h (1 Bft)
20.09.2017 01:28 6,3 °C 6,3 °C 93 % 1020,0 hPa 0,0 mm 1,1 km/h (1 Bft) W-SW 245 ° 0 min 0,000 mm 0,0 UV-I 0 W/m² 5,3 °C 6,3 °C 1,6 km/h (1 Bft)
20.09.2017 01:29 6,3 °C 6,3 °C 93 % 1020,0 hPa 0,0 mm 0,5 km/h (0 Bft) W-SW 245 ° 0 min 0,000 mm 0,0 UV-I 0 W/m² 5,3 °C 6,3 °C 1,6 km/h (1 Bft)
20.09.2017 01:30 6,3 °C 6,3 °C 93 % 1020,0 hPa 0,0 mm 0,3 km/h (0 Bft) W-SW 245 ° 0 min 0,000 mm 0,0 UV-I 0 W/m² 5,3 °C 6,3 °C 1,6 km/h (1 Bft)
20.09.2017 01:31 6,3 °C 6,3 °C 94 % 1020,0 hPa 0,0 mm 0,5 km/h (0 Bft) W-SW 244 ° 0 min 0,000 mm 0,0 UV-I 0 W/m² 5,4 °C 6,3 °C 1,6 km/h (1 Bft)
20.09.2017 01:32 6,3 °C 6,3 °C 94 % 1020,0 hPa 0,0 mm 0,5 km/h (0 Bft) W-SW 244 ° 0 min 0,000 mm 0,0 UV-I 0 W/m² 5,4 °C 6,3 °C 3,2 km/h (1 Bft)
20.09.2017 01:33 6,3 °C 6,3 °C 93 % 1020,0 hPa 0,0 mm 3,2 km/h (1 Bft) W 261 ° 0 min 0,000 mm 0,0 UV-I 0 W/m² 5,3 °C 6,3 °C 6,4 km/h (2 Bft)
20.09.2017 01:34 6,3 °C 6,3 °C 94 % 1020,0 hPa 0,0 mm 1,7 km/h (1 Bft) W-SW 247 ° 0 min 0,000 mm 0,0 UV-I 0 W/m² 5,4 °C 6,3 °C 3,2 km/h (1 Bft)
20.09.2017 01:35 6,3 °C 6,3 °C 93 % 1020,0 hPa 0,0 mm 1,1 km/h (1 Bft) W-SW 246 ° 0 min 0,000 mm 0,0 UV-I 0 W/m² 5,3 °C 6,3 °C 4,8 km/h (1 Bft)
20.09.2017 01:36 6,3 °C 6,3 °C 93 % 1020,0 hPa 0,0 mm 0,4 km/h (0 Bft) W-SW 246 ° 0 min 0,000 mm 0,0 UV-I 0 W/m² 5,3 °C 6,3 °C 1,6 km/h (1 Bft)
20.09.2017 01:37 6,3 °C 6,3 °C 93 % 1020,0 hPa 0,0 mm 5,1 km/h (1 Bft) SW 222 ° 0 min 0,000 mm 0,0 UV-I 0 W/m² 5,3 °C 5,5 °C 11,3 km/h (2 Bft)
20.09.2017 01:38 6,3 °C 6,3 °C 94 % 1020,0 hPa 0,0 mm 2,1 km/h (1 Bft) SW 222 ° 0 min 0,000 mm 0,0 UV-I 0 W/m² 5,4 °C 6,3 °C 4,8 km/h (1 Bft)
20.09.2017 01:39 6,3 °C 6,3 °C 94 % 1020,0 hPa 0,0 mm 3,0 km/h (1 Bft) S-SW 196 ° 0 min 0,000 mm 0,0 UV-I 0 W/m² 5,4 °C 6,3 °C 6,4 km/h (2 Bft)
20.09.2017 01:40 6,3 °C 6,3 °C 94 % 1020,0 hPa 0,0 mm 3,8 km/h (1 Bft) S-SW 198 ° 0 min 0,000 mm 0,0 UV-I 0 W/m² 5,4 °C 6,3 °C 6,4 km/h (2 Bft)
20.09.2017 01:41 6,3 °C 6,3 °C 93 % 1020,0 hPa 0,0 mm 2,7 km/h (1 Bft) S-SW 196 ° 0 min 0,000 mm 0,0 UV-I 0 W/m² 5,3 °C 6,3 °C 4,8 km/h (1 Bft)
20.09.2017 01:42 6,3 °C 6,3 °C 93 % 1020,0 hPa 0,0 mm 0,5 km/h (0 Bft) S-SW 196 ° 0 min 0,000 mm 0,0 UV-I 0 W/m² 5,3 °C 6,3 °C 3,2 km/h (1 Bft)
20.09.2017 01:43 6,3 °C 6,3 °C 93 % 1020,0 hPa 0,0 mm 0,9 km/h (0 Bft) S-SW 196 ° 0 min 0,000 mm 0,0 UV-I 0 W/m² 5,3 °C 6,3 °C 3,2 km/h (1 Bft)
20.09.2017 01:44 6,3 °C 6,3 °C 93 % 1020,0 hPa 0,0 mm 2,2 km/h (1 Bft) S-SW 195 ° 0 min 0,000 mm 0,0 UV-I 0 W/m² 5,3 °C 6,3 °C 4,8 km/h (1 Bft)
20.09.2017 01:45 6,3 °C 6,4 °C 93 % 1020,0 hPa 0,0 mm 1,4 km/h (1 Bft) S-SW 196 ° 0 min 0,000 mm 0,0 UV-I 0 W/m² 5,3 °C 6,3 °C 3,2 km/h (1 Bft)
20.09.2017 01:46 6,3 °C 6,4 °C 93 % 1020,0 hPa 0,0 mm 2,3 km/h (1 Bft) S-SW 196 ° 0 min 0,000 mm 0,0 UV-I 0 W/m² 5,3 °C 6,3 °C 3,2 km/h (1 Bft)
20.09.2017 01:47 6,3 °C 6,4 °C 93 % 1020,0 hPa 0,0 mm 0,4 km/h (0 Bft) S-SW 196 ° 0 min 0,000 mm 0,0 UV-I 0 W/m² 5,3 °C 6,3 °C 1,6 km/h (1 Bft)
20.09.2017 01:48 6,4 °C 6,4 °C 93 % 1020,1 hPa 0,0 mm 0,1 km/h (0 Bft) S-SW 196 ° 0 min 0,000 mm 0,0 UV-I 0 W/m² 5,4 °C 6,4 °C 1,6 km/h (1 Bft)
20.09.2017 01:49 6,3 °C 6,4 °C 93 % 1020,0 hPa 0,0 mm 1,6 km/h (1 Bft) SW 231 ° 0 min 0,000 mm 0,0 UV-I 0 W/m² 5,3 °C 6,3 °C 4,8 km/h (1 Bft)
20.09.2017 01:50 6,4 °C 6,4 °C 93 % 1020,1 hPa 0,0 mm 3,0 km/h (1 Bft) W 260 ° 0 min 0,000 mm 0,0 UV-I 0 W/m² 5,4 °C 6,4 °C 6,4 km/h (2 Bft)
20.09.2017 01:51 6,4 °C 6,4 °C 93 % 1020,1 hPa 0,0 mm 3,5 km/h (1 Bft) S-SW 206 ° 0 min 0,000 mm 0,0 UV-I 0 W/m² 5,4 °C 6,4 °C 6,4 km/h (2 Bft)
20.09.2017 01:52 6,4 °C 6,4 °C 93 % 1020,1 hPa 0,0 mm 0,5 km/h (0 Bft) S-SW 206 ° 0 min 0,000 mm 0,0 UV-I 0 W/m² 5,4 °C 6,4 °C 1,6 km/h (1 Bft)
20.09.2017 01:53 6,4 °C 6,4 °C 93 % 1020,1 hPa 0,0 mm 1,0 km/h (0 Bft) S-SW 206 ° 0 min 0,000 mm 0,0 UV-I 0 W/m² 5,4 °C 6,4 °C 3,2 km/h (1 Bft)
20.09.2017 01:54 6,4 °C 6,4 °C 93 % 1020,1 hPa 0,0 mm 1,9 km/h (1 Bft) S-SW 206 ° 0 min 0,000 mm 0,0 UV-I 0 W/m² 5,4 °C 6,4 °C 3,2 km/h (1 Bft)
20.09.2017 01:55 6,3 °C 6,4 °C 93 % 1020,0 hPa 0,0 mm 1,5 km/h (1 Bft) S-SW 205 ° 0 min 0,000 mm 0,0 UV-I 0 W/m² 5,3 °C 6,3 °C 1,6 km/h (1 Bft)
20.09.2017 01:56 6,3 °C 6,4 °C 93 % 1020,0 hPa 0,0 mm 3,3 km/h (1 Bft) S-SW 202 ° 0 min 0,000 mm 0,0 UV-I 0 W/m² 5,3 °C 6,3 °C 8,0 km/h (2 Bft)
20.09.2017 01:57 6,4 °C 6,4 °C 93 % 1020,0 hPa 0,0 mm 2,3 km/h (1 Bft) S-SW 202 ° 0 min 0,000 mm 0,0 UV-I 0 W/m² 5,4 °C 6,4 °C 3,2 km/h (1 Bft)
20.09.2017 01:58 6,4 °C 6,4 °C 93 % 1020,0 hPa 0,0 mm 4,5 km/h (1 Bft) S 181 ° 0 min 0,000 mm 0,0 UV-I 0 W/m² 5,4 °C 6,4 °C 6,4 km/h (2 Bft)
20.09.2017 01:59 6,4 °C 6,4 °C 93 % 1020,0 hPa 0,0 mm 1,4 km/h (1 Bft) S 182 ° 0 min 0,000 mm 0,0 UV-I 0 W/m² 5,4 °C 6,4 °C 4,8 km/h (1 Bft)
20.09.2017 02:00 6,4 °C 6,4 °C 93 % 1020,0 hPa 0,0 mm 2,7 km/h (1 Bft) S 182 ° 0 min 0,000 mm 0,0 UV-I 0 W/m² 5,4 °C 6,4 °C 4,8 km/h (1 Bft)
20.09.2017 02:01 6,4 °C 6,4 °C 93 % 1020,0 hPa 0,0 mm 2,6 km/h (1 Bft) S 182 ° 0 min 0,000 mm 0,0 UV-I 0 W/m² 5,4 °C 6,4 °C 4,8 km/h (1 Bft)
20.09.2017 02:02 6,4 °C 6,4 °C 93 % 1020,0 hPa 0,0 mm 0,6 km/h (0 Bft) S 182 ° 0 min 0,000 mm 0,0 UV-I 0 W/m² 5,4 °C 6,4 °C 1,6 km/h (1 Bft)
20.09.2017 02:03 6,3 °C 6,4 °C 93 % 1020,0 hPa 0,0 mm 0,6 km/h (0 Bft) S 182 ° 0 min 0,000 mm 0,0 UV-I 0 W/m² 5,3 °C 6,3 °C 1,6 km/h (1 Bft)
20.09.2017 02:04 6,3 °C 6,4 °C 93 % 1020,0 hPa 0,0 mm 4,3 km/h (1 Bft) S-SW 196 ° 0 min 0,000 mm 0,0 UV-I 0 W/m² 5,3 °C 6,3 °C 6,4 km/h (2 Bft)
20.09.2017 02:05 6,4 °C 6,4 °C 93 % 1020,0 hPa 0,0 mm 3,7 km/h (1 Bft) S 182 ° 0 min 0,000 mm 0,0 UV-I 0 W/m² 5,4 °C 6,4 °C 6,4 km/h (2 Bft)
20.09.2017 02:06 6,3 °C 6,4 °C 93 % 1020,0 hPa 0,0 mm 1,9 km/h (1 Bft) SW 222 ° 0 min 0,000 mm 0,0 UV-I 0 W/m² 5,3 °C 6,3 °C 4,8 km/h (1 Bft)
20.09.2017 02:07 6,4 °C 6,4 °C 93 % 1020,0 hPa 0,0 mm 2,5 km/h (1 Bft) S-SW 213 ° 0 min 0,000 mm 0,0 UV-I 0 W/m² 5,4 °C 6,4 °C 4,8 km/h (1 Bft)
20.09.2017 02:08 6,3 °C 6,4 °C 93 % 1020,0 hPa 0,0 mm 2,7 km/h (1 Bft) SW 234 ° 0 min 0,000 mm 0,0 UV-I 0 W/m² 5,3 °C 6,3 °C 4,8 km/h (1 Bft)
20.09.2017 02:09 6,4 °C 6,4 °C 93 % 1020,0 hPa 0,0 mm 0,8 km/h (0 Bft) SW 234 ° 0 min 0,000 mm 0,0 UV-I 0 W/m² 5,4 °C 6,4 °C 1,6 km/h (1 Bft)
20.09.2017 02:10 6,4 °C 6,4 °C 93 % 1020,0 hPa 0,0 mm 2,4 km/h (1 Bft) W-SW 242 ° 0 min 0,000 mm 0,0 UV-I 0 W/m² 5,4 °C 6,4 °C 4,8 km/h (1 Bft)
20.09.2017 02:11 6,4 °C 6,4 °C 93 % 1020,0 hPa 0,0 mm 3,1 km/h (1 Bft) SW 232 ° 0 min 0,000 mm 0,0 UV-I 0 W/m² 5,4 °C 6,4 °C 4,8 km/h (1 Bft)
20.09.2017 02:12 6,4 °C 6,4 °C 93 % 1020,0 hPa 0,0 mm 1,0 km/h (0 Bft) SW 232 ° 0 min 0,000 mm 0,0 UV-I 0 W/m² 5,4 °C 6,4 °C 3,2 km/h (1 Bft)
20.09.2017 02:13 6,4 °C 6,4 °C 93 % 1020,0 hPa 0,0 mm 2,4 km/h (1 Bft) S-SW 211 ° 0 min 0,000 mm 0,0 UV-I 0 W/m² 5,4 °C 6,4 °C 3,2 km/h (1 Bft)
20.09.2017 02:14 6,4 °C 6,4 °C 93 % 1020,0 hPa 0,0 mm 3,7 km/h (1 Bft) W-SW 249 ° 0 min 0,000 mm 0,0 UV-I 0 W/m² 5,4 °C 6,4 °C 6,4 km/h (2 Bft)
20.09.2017 02:15 6,4 °C 6,4 °C 93 % 1020,0 hPa 0,0 mm 3,0 km/h (1 Bft) SW 218 ° 0 min 0,000 mm 0,0 UV-I 0 W/m² 5,4 °C 6,4 °C 3,2 km/h (1 Bft)
20.09.2017 02:16 6,4 °C 6,4 °C 93 % 1019,9 hPa 0,0 mm 1,7 km/h (1 Bft) SW 232 ° 0 min 0,000 mm 0,0 UV-I 0 W/m² 5,4 °C 6,4 °C 4,8 km/h (1 Bft)
20.09.2017 02:17 6,4 °C 6,4 °C 93 % 1019,9 hPa 0,0 mm 2,7 km/h (1 Bft) SW 234 ° 0 min 0,000 mm 0,0 UV-I 0 W/m² 5,4 °C 6,4 °C 4,8 km/h (1 Bft)
20.09.2017 02:18 6,4 °C 6,4 °C 93 % 1019,9 hPa 0,0 mm 1,7 km/h (1 Bft) SW 230 ° 0 min 0,000 mm 0,0 UV-I 0 W/m² 5,4 °C 6,4 °C 3,2 km/h (1 Bft)
20.09.2017 02:19 6,4 °C 6,4 °C 93 % 1020,0 hPa 0,0 mm 2,9 km/h (1 Bft) SW 229 ° 0 min 0,000 mm 0,0 UV-I 0 W/m² 5,4 °C 6,4 °C 6,4 km/h (2 Bft)
20.09.2017 02:20 6,4 °C 6,4 °C 93 % 1019,9 hPa 0,0 mm 2,7 km/h (1 Bft) S-SW 213 ° 0 min 0,000 mm 0,0 UV-I 0 W/m² 5,4 °C 6,4 °C 4,8 km/h (1 Bft)
20.09.2017 02:21 6,4 °C 6,4 °C 93 % 1020,0 hPa 0,0 mm 1,4 km/h (1 Bft) S-SW 213 ° 0 min 0,000 mm 0,0 UV-I 0 W/m² 5,4 °C 6,4 °C 4,8 km/h (1 Bft)
20.09.2017 02:22 6,4 °C 6,4 °C 93 % 1019,9 hPa 0,0 mm 2,3 km/h (1 Bft) S-SW 213 ° 0 min 0,000 mm 0,0 UV-I 0 W/m² 5,4 °C 6,4 °C 4,8 km/h (1 Bft)
20.09.2017 02:23 6,4 °C 6,4 °C 93 % 1020,0 hPa 0,0 mm 2,1 km/h (1 Bft) S-SW 213 ° 0 min 0,000 mm 0,0 UV-I 0 W/m² 5,4 °C 6,4 °C 3,2 km/h (1 Bft)
20.09.2017 02:24 6,4 °C 6,4 °C 93 % 1020,0 hPa 0,0 mm 0,4 km/h (0 Bft) S-SW 213 ° 0 min 0,000 mm 0,0 UV-I 0 W/m² 5,4 °C 6,4 °C 1,6 km/h (1 Bft)
20.09.2017 02:25 6,4 °C 6,4 °C 93 % 1019,9 hPa 0,0 mm 2,1 km/h (1 Bft) S-SW 211 ° 0 min 0,000 mm 0,0 UV-I 0 W/m² 5,4 °C 6,4 °C 3,2 km/h (1 Bft)
20.09.2017 02:26 6,4 °C 6,4 °C 93 % 1019,9 hPa 0,0 mm 2,7 km/h (1 Bft) S-SW 211 ° 0 min 0,000 mm 0,0 UV-I 0 W/m² 5,4 °C 6,4 °C 4,8 km/h (1 Bft)
20.09.2017 02:27 6,4 °C 6,4 °C 93 % 1019,9 hPa 0,0 mm 2,7 km/h (1 Bft) S-SW 211 ° 0 min 0,000 mm 0,0 UV-I 0 W/m² 5,4 °C 6,4 °C 4,8 km/h (1 Bft)
20.09.2017 02:28 6,4 °C 6,4 °C 93 % 1019,9 hPa 0,0 mm 0,7 km/h (0 Bft) S-SW 211 ° 0 min 0,000 mm 0,0 UV-I 0 W/m² 5,4 °C 6,4 °C 3,2 km/h (1 Bft)
20.09.2017 02:29 6,4 °C 6,4 °C 93 % 1019,8 hPa 0,0 mm 0,1 km/h (0 Bft) S-SW 211 ° 0 min 0,000 mm 0,0 UV-I 0 W/m² 5,4 °C 6,4 °C 1,6 km/h (1 Bft)
20.09.2017 02:30 6,4 °C 6,4 °C 93 % 1019,9 hPa 0,0 mm 1,2 km/h (1 Bft) S-SW 211 ° 0 min 0,000 mm 0,0 UV-I 0 W/m² 5,4 °C 6,4 °C 1,6 km/h (1 Bft)
20.09.2017 02:31 6,4 °C 6,4 °C 93 % 1019,9 hPa 0,0 mm 1,0 km/h (0 Bft) S-SW 206 ° 0 min 0,000 mm 0,0 UV-I 0 W/m² 5,4 °C 6,4 °C 3,2 km/h (1 Bft)
20.09.2017 02:32 6,4 °C 6,4 °C 93 % 1019,9 hPa 0,0 mm 1,5 km/h (1 Bft) W-SW 242 ° 0 min 0,000 mm 0,0 UV-I 0 W/m² 5,4 °C 6,4 °C 4,8 km/h (1 Bft)
20.09.2017 02:33 6,4 °C 6,4 °C 93 % 1019,9 hPa 0,0 mm 3,1 km/h (1 Bft) W 263 ° 0 min 0,000 mm 0,0 UV-I 0 W/m² 5,4 °C 6,4 °C 4,8 km/h (1 Bft)
20.09.2017 02:34 6,4 °C 6,5 °C 93 % 1019,9 hPa 0,0 mm 3,9 km/h (1 Bft) W-SW 258 ° 0 min 0,000 mm 0,0 UV-I 0 W/m² 5,4 °C 6,4 °C 4,8 km/h (1 Bft)
20.09.2017 02:35 6,5 °C 6,5 °C 93 % 1019,9 hPa 0,0 mm 5,3 km/h (1 Bft) W 261 ° 0 min 0,000 mm 0,0 UV-I 0 W/m² 5,5 °C 5,7 °C 9,7 km/h (2 Bft)
20.09.2017 02:36 6,5 °C 6,5 °C 93 % 1019,9 hPa 0,0 mm 2,8 km/h (1 Bft) W 261 ° 0 min 0,000 mm 0,0 UV-I 0 W/m² 5,5 °C 6,5 °C 4,8 km/h (1 Bft)
20.09.2017 02:37 6,5 °C 6,5 °C 93 % 1020,0 hPa 0,0 mm 0,4 km/h (0 Bft) W 261 ° 0 min 0,000 mm 0,0 UV-I 0 W/m² 5,5 °C 6,5 °C 1,6 km/h (1 Bft)
20.09.2017 02:38 6,5 °C 6,5 °C 93 % 1020,0 hPa 0,0 mm 0,9 km/h (0 Bft) W 261 ° 0 min 0,000 mm 0,0 UV-I 0 W/m² 5,5 °C 6,5 °C 3,2 km/h (1 Bft)
20.09.2017 02:39 6,5 °C 6,5 °C 93 % 1020,0 hPa 0,0 mm 1,6 km/h (1 Bft) W 261 ° 0 min 0,000 mm 0,0 UV-I 0 W/m² 5,5 °C 6,5 °C 3,2 km/h (1 Bft)
20.09.2017 02:40 6,5 °C 6,5 °C 93 % 1020,0 hPa 0,0 mm 1,7 km/h (1 Bft) W 261 ° 0 min 0,000 mm 0,0 UV-I 0 W/m² 5,5 °C 6,5 °C 3,2 km/h (1 Bft)
20.09.2017 02:41 6,5 °C 6,5 °C 93 % 1020,0 hPa 0,0 mm 2,0 km/h (1 Bft) W 261 ° 0 min 0,000 mm 0,0 UV-I 0 W/m² 5,5 °C 6,5 °C 4,8 km/h (1 Bft)
20.09.2017 02:42 6,5 °C 6,6 °C 93 % 1020,0 hPa 0,0 mm 3,9 km/h (1 Bft) W-SW 252 ° 0 min 0,000 mm 0,0 UV-I 0 W/m² 5,5 °C 6,5 °C 4,8 km/h (1 Bft)
20.09.2017 02:43 6,5 °C 6,6 °C 93 % 1020,0 hPa 0,0 mm 2,5 km/h (1 Bft) W 281 ° 0 min 0,000 mm 0,0 UV-I 0 W/m² 5,5 °C 6,5 °C 4,8 km/h (1 Bft)
20.09.2017 02:44 6,6 °C 6,6 °C 93 % 1020,0 hPa 0,0 mm 5,6 km/h (1 Bft) W-SW 251 ° 0 min 0,000 mm 0,0 UV-I 0 W/m² 5,6 °C 5,7 °C 8,0 km/h (2 Bft)
20.09.2017 02:45 6,6 °C 6,6 °C 93 % 1020,0 hPa 0,0 mm 4,8 km/h (1 Bft) W 263 ° 0 min 0,000 mm 0,0 UV-I 0 W/m² 5,6 °C 6,0 °C 6,4 km/h (2 Bft)
20.09.2017 02:46 6,6 °C 6,6 °C 94 % 1020,0 hPa 0,0 mm 1,9 km/h (1 Bft) W 263 ° 0 min 0,000 mm 0,0 UV-I 0 W/m² 5,7 °C 6,6 °C 3,2 km/h (1 Bft)
20.09.2017 02:47 6,5 °C 6,6 °C 93 % 1020,0 hPa 0,0 mm 4,2 km/h (1 Bft) W 269 ° 0 min 0,000 mm 0,0 UV-I 0 W/m² 5,5 °C 6,5 °C 6,4 km/h (2 Bft)
20.09.2017 02:48 6,5 °C 6,6 °C 93 % 1020,0 hPa 0,0 mm 6,2 km/h (2 Bft) W 268 ° 0 min 0,000 mm 0,0 UV-I 0 W/m² 5,5 °C 5,4 °C 11,3 km/h (2 Bft)
20.09.2017 02:49 6,6 °C 6,6 °C 94 % 1020,0 hPa 0,0 mm 4,8 km/h (1 Bft) W 271 ° 0 min 0,000 mm 0,0 UV-I 0 W/m² 5,7 °C 6,0 °C 11,3 km/h (2 Bft)
20.09.2017 02:50 6,5 °C 6,6 °C 93 % 1020,0 hPa 0,0 mm 4,0 km/h (1 Bft) W 267 ° 0 min 0,000 mm 0,0 UV-I 0 W/m² 5,5 °C 6,5 °C 6,4 km/h (2 Bft)
20.09.2017 02:51 6,5 °C 6,5 °C 93 % 1020,0 hPa 0,0 mm 3,5 km/h (1 Bft) W-SW 246 ° 0 min 0,000 mm 0,0 UV-I 0 W/m² 5,5 °C 6,5 °C 4,8 km/h (1 Bft)
20.09.2017 02:52 6,6 °C 6,6 °C 93 % 1020,0 hPa 0,0 mm 2,3 km/h (1 Bft) W 273 ° 0 min 0,000 mm 0,0 UV-I 0 W/m² 5,6 °C 6,6 °C 6,4 km/h (2 Bft)
20.09.2017 02:53 6,5 °C 6,6 °C 93 % 1020,0 hPa 0,0 mm 5,0 km/h (1 Bft) W-SW 250 ° 0 min 0,000 mm 0,0 UV-I 0 W/m² 5,5 °C 5,8 °C 9,7 km/h (2 Bft)
20.09.2017 02:54 6,5 °C 6,6 °C 93 % 1020,0 hPa 0,0 mm 5,7 km/h (1 Bft) W 267 ° 0 min 0,000 mm 0,0 UV-I 0 W/m² 5,5 °C 5,5 °C 9,7 km/h (2 Bft)
20.09.2017 02:55 6,5 °C 6,5 °C 93 % 1020,0 hPa 0,0 mm 5,6 km/h (1 Bft) W 265 ° 0 min 0,000 mm 0,0 UV-I 0 W/m² 5,5 °C 5,6 °C 9,7 km/h (2 Bft)
20.09.2017 02:56 6,5 °C 6,6 °C 93 % 1020,0 hPa 0,0 mm 6,1 km/h (2 Bft) W 271 ° 0 min 0,000 mm 0,0 UV-I 0 W/m² 5,5 °C 5,4 °C 11,3 km/h (2 Bft)
20.09.2017 02:57 6,5 °C 6,5 °C 93 % 1020,0 hPa 0,0 mm 2,1 km/h (1 Bft) W 264 ° 0 min 0,000 mm 0,0 UV-I 0 W/m² 5,5 °C 6,5 °C 4,8 km/h (1 Bft)
20.09.2017 02:58 6,5 °C 6,5 °C 93 % 1020,0 hPa 0,0 mm 5,0 km/h (1 Bft) W 259 ° 0 min 0,000 mm 0,0 UV-I 0 W/m² 5,5 °C 5,8 °C 9,7 km/h (2 Bft)
20.09.2017 02:59 6,5 °C 6,5 °C 93 % 1020,0 hPa 0,0 mm 3,1 km/h (1 Bft) W 259 ° 0 min 0,000 mm 0,0 UV-I 0 W/m² 5,5 °C 6,5 °C 4,8 km/h (1 Bft)
20.09.2017 03:00 6,4 °C 6,5 °C 93 % 1020,1 hPa 0,0 mm 5,2 km/h (1 Bft) W 266 ° 0 min 0,000 mm 0,0 UV-I 0 W/m² 5,4 °C 5,6 °C 9,7 km/h (2 Bft)
20.09.2017 03:01 6,4 °C 6,5 °C 93 % 1020,0 hPa 0,0 mm 3,1 km/h (1 Bft) W-SW 247 ° 0 min 0,000 mm 0,0 UV-I 0 W/m² 5,4 °C 6,4 °C 4,8 km/h (1 Bft)
20.09.2017 03:02 6,4 °C 6,5 °C 94 % 1020,0 hPa 0,0 mm 2,8 km/h (1 Bft) W 269 ° 0 min 0,000 mm 0,0 UV-I 0 W/m² 5,5 °C 6,4 °C 4,8 km/h (1 Bft)
20.09.2017 03:03 6,5 °C 6,5 °C 94 % 1020,0 hPa 0,0 mm 2,0 km/h (1 Bft) W 269 ° 0 min 0,000 mm 0,0 UV-I 0 W/m² 5,6 °C 6,5 °C 3,2 km/h (1 Bft)
20.09.2017 03:04 6,5 °C 6,5 °C 94 % 1020,0 hPa 0,0 mm 1,9 km/h (1 Bft) W 267 ° 0 min 0,000 mm 0,0 UV-I 0 W/m² 5,6 °C 6,5 °C 3,2 km/h (1 Bft)
20.09.2017 03:05 6,5 °C 6,6 °C 94 % 1020,1 hPa 0,0 mm 3,8 km/h (1 Bft) W 272 ° 0 min 0,000 mm 0,0 UV-I 0 W/m² 5,6 °C 6,5 °C 4,8 km/h (1 Bft)
20.09.2017 03:06 6,5 °C 6,5 °C 94 % 1020,1 hPa 0,0 mm 1,5 km/h (1 Bft) W-SW 247 ° 0 min 0,000 mm 0,0 UV-I 0 W/m² 5,6 °C 6,5 °C 6,4 km/h (2 Bft)
20.09.2017 03:07 6,5 °C 6,5 °C 94 % 1020,1 hPa 0,0 mm 3,2 km/h (1 Bft) W 281 ° 0 min 0,000 mm 0,0 UV-I 0 W/m² 5,6 °C 6,5 °C 6,4 km/h (2 Bft)
20.09.2017 03:08 6,5 °C 6,5 °C 94 % 1020,1 hPa 0,0 mm 1,7 km/h (1 Bft) W 271 ° 0 min 0,000 mm 0,0 UV-I 0 W/m² 5,6 °C 6,5 °C 4,8 km/h (1 Bft)
20.09.2017 03:09 6,5 °C 6,5 °C 94 % 1020,1 hPa 0,0 mm 4,8 km/h (1 Bft) W-NW 283 ° 0 min 0,000 mm 0,0 UV-I 0 W/m² 5,6 °C 5,9 °C 8,0 km/h (2 Bft)
20.09.2017 03:10 6,5 °C 6,5 °C 94 % 1020,1 hPa 0,0 mm 5,2 km/h (1 Bft) W-NW 285 ° 0 min 0,000 mm 0,0 UV-I 0 W/m² 5,6 °C 5,7 °C 11,3 km/h (2 Bft)
20.09.2017 03:11 6,5 °C 6,5 °C 94 % 1020,1 hPa 0,0 mm 6,2 km/h (2 Bft) W 265 ° 0 min 0,000 mm 0,0 UV-I 0 W/m² 5,6 °C 5,4 °C 11,3 km/h (2 Bft)
20.09.2017 03:12 6,5 °C 6,5 °C 94 % 1020,1 hPa 0,0 mm 2,2 km/h (1 Bft) W 277 ° 0 min 0,000 mm 0,0 UV-I 0 W/m² 5,6 °C 6,5 °C 3,2 km/h (1 Bft)
20.09.2017 03:13 6,5 °C 6,5 °C 93 % 1020,1 hPa 0,0 mm 4,8 km/h (1 Bft) W-SW 257 ° 0 min 0,000 mm 0,0 UV-I 0 W/m² 5,5 °C 5,9 °C 8,0 km/h (2 Bft)
20.09.2017 03:14 6,5 °C 6,5 °C 93 % 1020,0 hPa 0,0 mm 1,7 km/h (1 Bft) W-SW 244 ° 0 min 0,000 mm 0,0 UV-I 0 W/m² 5,5 °C 6,5 °C 3,2 km/h (1 Bft)
20.09.2017 03:15 6,5 °C 6,5 °C 93 % 1020,1 hPa 0,0 mm 3,6 km/h (1 Bft) W 264 ° 0 min 0,000 mm 0,0 UV-I 0 W/m² 5,5 °C 6,5 °C 6,4 km/h (2 Bft)
20.09.2017 03:16 6,5 °C 6,5 °C 93 % 1020,1 hPa 0,0 mm 6,5 km/h (2 Bft) W-SW 257 ° 0 min 0,000 mm 0,0 UV-I 0 W/m² 5,5 °C 5,3 °C 11,3 km/h (2 Bft)
20.09.2017 03:17 6,5 °C 6,5 °C 94 % 1020,0 hPa 0,0 mm 6,3 km/h (2 Bft) W 260 ° 0 min 0,000 mm 0,0 UV-I 0 W/m² 5,6 °C 5,4 °C 9,7 km/h (2 Bft)
20.09.2017 03:18 6,5 °C 6,5 °C 93 % 1020,1 hPa 0,0 mm 4,8 km/h (1 Bft) W-SW 240 ° 0 min 0,000 mm 0,0 UV-I 0 W/m² 5,5 °C 5,9 °C 8,0 km/h (2 Bft)
20.09.2017 03:19 6,5 °C 6,5 °C 94 % 1020,1 hPa 0,0 mm 4,6 km/h (1 Bft) W-NW 284 ° 0 min 0,000 mm 0,0 UV-I 0 W/m² 5,6 °C 5,9 °C 9,7 km/h (2 Bft)
20.09.2017 03:20 6,5 °C 6,5 °C 93 % 1020,1 hPa 0,0 mm 2,5 km/h (1 Bft) W 273 ° 0 min 0,000 mm 0,0 UV-I 0 W/m² 5,5 °C 6,5 °C 4,8 km/h (1 Bft)
20.09.2017 03:21 6,5 °C 6,5 °C 93 % 1020,1 hPa 0,0 mm 2,2 km/h (1 Bft) W 263 ° 0 min 0,000 mm 0,0 UV-I 0 W/m² 5,5 °C 6,5 °C 4,8 km/h (1 Bft)
20.09.2017 03:22 6,5 °C 6,5 °C 94 % 1020,1 hPa 0,0 mm 7,8 km/h (2 Bft) W-SW 246 ° 0 min 0,000 mm 0,0 UV-I 0 W/m² 5,6 °C 4,9 °C 11,3 km/h (2 Bft)
20.09.2017 03:23 6,5 °C 6,5 °C 93 % 1020,1 hPa 0,0 mm 3,8 km/h (1 Bft) SW 214 ° 0 min 0,000 mm 0,0 UV-I 0 W/m² 5,5 °C 6,5 °C 4,8 km/h (1 Bft)
20.09.2017 03:24 6,5 °C 6,5 °C 93 % 1020,1 hPa 0,0 mm 5,0 km/h (1 Bft) SW 236 ° 0 min 0,000 mm 0,0 UV-I 0 W/m² 5,5 °C 5,8 °C 9,7 km/h (2 Bft)
20.09.2017 03:25 6,4 °C 6,5 °C 93 % 1020,1 hPa 0,0 mm 3,3 km/h (1 Bft) W-SW 237 ° 0 min 0,000 mm 0,0 UV-I 0 W/m² 5,4 °C 6,4 °C 6,4 km/h (2 Bft)
20.09.2017 03:26 6,5 °C 6,5 °C 93 % 1020,1 hPa 0,0 mm 1,7 km/h (1 Bft) SW 235 ° 0 min 0,000 mm 0,0 UV-I 0 W/m² 5,5 °C 6,5 °C 3,2 km/h (1 Bft)
20.09.2017 03:27 6,4 °C 6,5 °C 93 % 1020,1 hPa 0,0 mm 0,4 km/h (0 Bft) SW 235 ° 0 min 0,000 mm 0,0 UV-I 0 W/m² 5,4 °C 6,4 °C 1,6 km/h (1 Bft)
20.09.2017 03:28 6,5 °C 6,5 °C 93 % 1020,1 hPa 0,0 mm 2,5 km/h (1 Bft) W-SW 248 ° 0 min 0,000 mm 0,0 UV-I 0 W/m² 5,5 °C 6,5 °C 4,8 km/h (1 Bft)
20.09.2017 03:29 6,4 °C 6,5 °C 93 % 1020,1 hPa 0,0 mm 3,0 km/h (1 Bft) W-SW 240 ° 0 min 0,000 mm 0,0 UV-I 0 W/m² 5,4 °C 6,4 °C 4,8 km/h (1 Bft)
20.09.2017 03:30 6,4 °C 6,4 °C 93 % 1020,1 hPa 0,0 mm 2,2 km/h (1 Bft) SW 215 ° 0 min 0,000 mm 0,0 UV-I 0 W/m² 5,4 °C 6,4 °C 4,8 km/h (1 Bft)
20.09.2017 03:31 6,4 °C 6,5 °C 93 % 1020,1 hPa 0,0 mm 5,4 km/h (1 Bft) S-SW 198 ° 0 min 0,000 mm 0,0 UV-I 0 W/m² 5,4 °C 5,5 °C 12,9 km/h (3 Bft)
20.09.2017 03:32 6,5 °C 6,5 °C 93 % 1020,1 hPa 0,0 mm 3,7 km/h (1 Bft) W 267 ° 0 min 0,000 mm 0,0 UV-I 0 W/m² 5,5 °C 6,5 °C 6,4 km/h (2 Bft)
20.09.2017 03:33 6,4 °C 6,5 °C 93 % 1020,1 hPa 0,0 mm 2,1 km/h (1 Bft) SW 234 ° 0 min 0,000 mm 0,0 UV-I 0 W/m² 5,4 °C 6,4 °C 4,8 km/h (1 Bft)
20.09.2017 03:34 6,5 °C 6,5 °C 93 % 1020,1 hPa 0,0 mm 0,0 km/h (0 Bft) SW 234 ° 0 min 0,000 mm 0,0 UV-I 0 W/m² 5,5 °C 6,5 °C 0,0 km/h (0 Bft)
20.09.2017 03:35 6,4 °C 6,5 °C 93 % 1020,1 hPa 0,0 mm 5,6 km/h (1 Bft) W 270 ° 0 min 0,000 mm 0,0 UV-I 0 W/m² 5,4 °C 5,5 °C 11,3 km/h (2 Bft)
20.09.2017 03:36 6,4 °C 6,4 °C 93 % 1020,1 hPa 0,0 mm 2,3 km/h (1 Bft) SW 225 ° 0 min 0,000 mm 0,0 UV-I 0 W/m² 5,4 °C 6,4 °C 3,2 km/h (1 Bft)
20.09.2017 03:37 6,4 °C 6,4 °C 93 % 1020,1 hPa 0,0 mm 3,4 km/h (1 Bft) W-SW 251 ° 0 min 0,000 mm 0,0 UV-I 0 W/m² 5,4 °C 6,4 °C 9,7 km/h (2 Bft)
20.09.2017 03:38 6,4 °C 6,4 °C 93 % 1020,1 hPa 0,0 mm 4,0 km/h (1 Bft) SW 221 ° 0 min 0,000 mm 0,0 UV-I 0 W/m² 5,4 °C 6,4 °C 9,7 km/h (2 Bft)
20.09.2017 03:39 6,4 °C 6,4 °C 93 % 1020,1 hPa 0,0 mm 5,7 km/h (1 Bft) W-SW 248 ° 0 min 0,000 mm 0,0 UV-I 0 W/m² 5,4 °C 5,4 °C 12,9 km/h (3 Bft)
20.09.2017 03:40 6,4 °C 6,4 °C 93 % 1020,1 hPa 0,0 mm 3,1 km/h (1 Bft) SW 225 ° 0 min 0,000 mm 0,0 UV-I 0 W/m² 5,4 °C 6,4 °C 4,8 km/h (1 Bft)
20.09.2017 03:41 6,4 °C 6,4 °C 93 % 1020,1 hPa 0,0 mm 4,4 km/h (1 Bft) W-SW 252 ° 0 min 0,000 mm 0,0 UV-I 0 W/m² 5,4 °C 6,4 °C 6,4 km/h (2 Bft)
20.09.2017 03:42 6,4 °C 6,4 °C 93 % 1020,1 hPa 0,0 mm 2,5 km/h (1 Bft) SW 234 ° 0 min 0,000 mm 0,0 UV-I 0 W/m² 5,4 °C 6,4 °C 6,4 km/h (2 Bft)
20.09.2017 03:43 6,4 °C 6,4 °C 93 % 1020,1 hPa 0,0 mm 5,8 km/h (2 Bft) W 273 ° 0 min 0,000 mm 0,0 UV-I 0 W/m² 5,4 °C 5,4 °C 11,3 km/h (2 Bft)
20.09.2017 03:44 6,4 °C 6,4 °C 93 % 1020,1 hPa 0,0 mm 4,0 km/h (1 Bft) SW 229 ° 0 min 0,000 mm 0,0 UV-I 0 W/m² 5,4 °C 6,4 °C 6,4 km/h (2 Bft)
20.09.2017 03:45 6,4 °C 6,4 °C 93 % 1020,1 hPa 0,0 mm 2,1 km/h (1 Bft) W-SW 238 ° 0 min 0,000 mm 0,0 UV-I 0 W/m² 5,4 °C 6,4 °C 6,4 km/h (2 Bft)
20.09.2017 03:46 6,4 °C 6,4 °C 93 % 1020,1 hPa 0,0 mm 3,4 km/h (1 Bft) W-SW 238 ° 0 min 0,000 mm 0,0 UV-I 0 W/m² 5,4 °C 6,4 °C 6,4 km/h (2 Bft)
20.09.2017 03:47 6,4 °C 6,4 °C 93 % 1020,1 hPa 0,0 mm 3,6 km/h (1 Bft) W 267 ° 0 min 0,000 mm 0,0 UV-I 0 W/m² 5,4 °C 6,4 °C 6,4 km/h (2 Bft)
20.09.2017 03:48 6,4 °C 6,4 °C 93 % 1020,1 hPa 0,0 mm 0,5 km/h (0 Bft) W 265 ° 0 min 0,000 mm 0,0 UV-I 0 W/m² 5,4 °C 6,4 °C 1,6 km/h (1 Bft)
20.09.2017 03:49 6,4 °C 6,4 °C 93 % 1020,1 hPa 0,0 mm 4,8 km/h (1 Bft) W-NW 285 ° 0 min 0,000 mm 0,0 UV-I 0 W/m² 5,4 °C 5,7 °C 12,9 km/h (3 Bft)
20.09.2017 03:50 6,4 °C 6,4 °C 94 % 1020,2 hPa 0,0 mm 3,1 km/h (1 Bft) W-NW 282 ° 0 min 0,000 mm 0,0 UV-I 0 W/m² 5,5 °C 6,4 °C 4,8 km/h (1 Bft)
20.09.2017 03:51 6,4 °C 6,4 °C 94 % 1020,1 hPa 0,0 mm 7,2 km/h (2 Bft) W-SW 253 ° 0 min 0,000 mm 0,0 UV-I 0 W/m² 5,5 °C 5,0 °C 11,3 km/h (2 Bft)
20.09.2017 03:52 6,4 °C 6,4 °C 94 % 1020,1 hPa 0,0 mm 5,4 km/h (1 Bft) S 182 ° 0 min 0,000 mm 0,0 UV-I 0 W/m² 5,5 °C 5,5 °C 6,4 km/h (2 Bft)
20.09.2017 03:53 6,4 °C 6,4 °C 94 % 1020,1 hPa 0,0 mm 5,8 km/h (2 Bft) W 271 ° 0 min 0,000 mm 0,0 UV-I 0 W/m² 5,5 °C 5,4 °C 14,5 km/h (3 Bft)
20.09.2017 03:54 6,4 °C 6,4 °C 94 % 1020,1 hPa 0,0 mm 6,3 km/h (2 Bft) W-SW 252 ° 0 min 0,000 mm 0,0 UV-I 0 W/m² 5,5 °C 5,2 °C 12,9 km/h (3 Bft)
20.09.2017 03:55 6,4 °C 6,4 °C 94 % 1020,1 hPa 0,0 mm 6,5 km/h (2 Bft) W 265 ° 0 min 0,000 mm 0,0 UV-I 0 W/m² 5,5 °C 5,2 °C 11,3 km/h (2 Bft)
20.09.2017 03:56 6,4 °C 6,4 °C 94 % 1020,1 hPa 0,0 mm 1,5 km/h (1 Bft) W 265 ° 0 min 0,000 mm 0,0 UV-I 0 W/m² 5,5 °C 6,4 °C 3,2 km/h (1 Bft)
20.09.2017 03:57 6,4 °C 6,4 °C 94 % 1020,1 hPa 0,0 mm 4,3 km/h (1 Bft) W-SW 246 ° 0 min 0,000 mm 0,0 UV-I 0 W/m² 5,5 °C 6,4 °C 9,7 km/h (2 Bft)
20.09.2017 03:58 6,4 °C 6,4 °C 94 % 1020,1 hPa 0,0 mm 1,2 km/h (1 Bft) W-NW 284 ° 0 min 0,000 mm 0,0 UV-I 0 W/m² 5,5 °C 6,4 °C 4,8 km/h (1 Bft)
20.09.2017 03:59 6,4 °C 6,4 °C 94 % 1020,2 hPa 0,0 mm 5,0 km/h (1 Bft) W-SW 243 ° 0 min 0,000 mm 0,0 UV-I 0 W/m² 5,5 °C 5,7 °C 9,7 km/h (2 Bft)
20.09.2017 04:00 6,4 °C 6,4 °C 94 % 1020,2 hPa 0,0 mm 4,0 km/h (1 Bft) W 275 ° 0 min 0,000 mm 0,0 UV-I 0 W/m² 5,5 °C 6,4 °C 8,0 km/h (2 Bft)
20.09.2017 04:01 6,4 °C 6,4 °C 94 % 1020,2 hPa 0,0 mm 3,6 km/h (1 Bft) W 271 ° 0 min 0,000 mm 0,0 UV-I 0 W/m² 5,5 °C 6,4 °C 4,8 km/h (1 Bft)
20.09.2017 04:02 6,4 °C 6,4 °C 94 % 1020,1 hPa 0,0 mm 7,3 km/h (2 Bft) W-SW 248 ° 0 min 0,000 mm 0,0 UV-I 0 W/m² 5,5 °C 5,0 °C 11,3 km/h (2 Bft)
20.09.2017 04:03 6,4 °C 6,4 °C 94 % 1020,2 hPa 0,0 mm 5,4 km/h (1 Bft) SW 223 ° 0 min 0,000 mm 0,0 UV-I 0 W/m² 5,5 °C 5,5 °C 11,3 km/h (2 Bft)
20.09.2017 04:04 6,4 °C 6,4 °C 94 % 1020,1 hPa 0,0 mm 6,0 km/h (2 Bft) S-SW 204 ° 0 min 0,000 mm 0,0 UV-I 0 W/m² 5,5 °C 5,3 °C 11,3 km/h (2 Bft)
20.09.2017 04:05 6,4 °C 6,4 °C 94 % 1020,1 hPa 0,0 mm 6,4 km/h (2 Bft) W 263 ° 0 min 0,000 mm 0,0 UV-I 0 W/m² 5,5 °C 5,2 °C 14,5 km/h (3 Bft)
20.09.2017 04:06 6,4 °C 6,4 °C 94 % 1020,1 hPa 0,0 mm 4,2 km/h (1 Bft) SW 236 ° 0 min 0,000 mm 0,0 UV-I 0 W/m² 5,5 °C 6,4 °C 11,3 km/h (2 Bft)
20.09.2017 04:07 6,4 °C 6,4 °C 94 % 1020,1 hPa 0,0 mm 4,4 km/h (1 Bft) W-SW 254 ° 0 min 0,000 mm 0,0 UV-I 0 W/m² 5,5 °C 6,4 °C 9,7 km/h (2 Bft)
20.09.2017 04:08 6,4 °C 6,4 °C 94 % 1020,1 hPa 0,0 mm 3,0 km/h (1 Bft) W 261 ° 0 min 0,000 mm 0,0 UV-I 0 W/m² 5,5 °C 6,4 °C 4,8 km/h (1 Bft)
20.09.2017 04:09 6,4 °C 6,4 °C 94 % 1020,1 hPa 0,0 mm 4,7 km/h (1 Bft) W 263 ° 0 min 0,000 mm 0,0 UV-I 0 W/m² 5,5 °C 5,8 °C 6,4 km/h (2 Bft)
20.09.2017 04:10 6,4 °C 6,4 °C 94 % 1020,1 hPa 0,0 mm 8,2 km/h (2 Bft) SW 221 ° 0 min 0,000 mm 0,0 UV-I 0 W/m² 5,5 °C 4,7 °C 11,3 km/h (2 Bft)
20.09.2017 04:11 6,4 °C 6,4 °C 94 % 1020,1 hPa 0,0 mm 6,4 km/h (2 Bft) W-SW 246 ° 0 min 0,000 mm 0,0 UV-I 0 W/m² 5,5 °C 5,2 °C 11,3 km/h (2 Bft)
20.09.2017 04:12 6,4 °C 6,4 °C 94 % 1020,1 hPa 0,0 mm 8,0 km/h (2 Bft) SW 234 ° 0 min 0,000 mm 0,0 UV-I 0 W/m² 5,5 °C 4,8 °C 11,3 km/h (2 Bft)
20.09.2017 04:13 6,4 °C 6,4 °C 94 % 1020,1 hPa 0,0 mm 5,1 km/h (1 Bft) W 265 ° 0 min 0,000 mm 0,0 UV-I 0 W/m² 5,5 °C 5,6 °C 9,7 km/h (2 Bft)
20.09.2017 04:14 6,4 °C 6,4 °C 94 % 1020,1 hPa 0,0 mm 9,7 km/h (2 Bft) W-SW 252 ° 0 min 0,000 mm 0,0 UV-I 0 W/m² 5,5 °C 4,4 °C 16,1 km/h (3 Bft)
20.09.2017 04:15 6,4 °C 6,4 °C 94 % 1020,1 hPa 0,0 mm 3,4 km/h (1 Bft) SW 228 ° 0 min 0,000 mm 0,0 UV-I 0 W/m² 5,5 °C 6,4 °C 4,8 km/h (1 Bft)
20.09.2017 04:16 6,4 °C 6,4 °C 94 % 1020,2 hPa 0,0 mm 4,1 km/h (1 Bft) W-SW 247 ° 0 min 0,000 mm 0,0 UV-I 0 W/m² 5,5 °C 6,4 °C 6,4 km/h (2 Bft)
20.09.2017 04:17 6,4 °C 6,4 °C 94 % 1020,1 hPa 0,0 mm 4,1 km/h (1 Bft) W-SW 237 ° 0 min 0,000 mm 0,0 UV-I 0 W/m² 5,5 °C 6,4 °C 11,3 km/h (2 Bft)
20.09.2017 04:18 6,4 °C 6,4 °C 94 % 1020,1 hPa 0,0 mm 3,5 km/h (1 Bft) SW 216 ° 0 min 0,000 mm 0,0 UV-I 0 W/m² 5,5 °C 6,4 °C 6,4 km/h (2 Bft)
20.09.2017 04:19 6,4 °C 6,4 °C 94 % 1020,1 hPa 0,0 mm 2,0 km/h (1 Bft) SW 216 ° 0 min 0,000 mm 0,0 UV-I 0 W/m² 5,5 °C 6,4 °C 3,2 km/h (1 Bft)
20.09.2017 04:20 6,4 °C 6,4 °C 94 % 1020,1 hPa 0,0 mm 3,5 km/h (1 Bft) SW 227 ° 0 min 0,000 mm 0,0 UV-I 0 W/m² 5,5 °C 6,4 °C 6,4 km/h (2 Bft)
20.09.2017 04:21 6,4 °C 6,4 °C 94 % 1020,1 hPa 0,0 mm 4,4 km/h (1 Bft) W-SW 257 ° 0 min 0,000 mm 0,0 UV-I 0 W/m² 5,5 °C 6,4 °C 8,0 km/h (2 Bft)
20.09.2017 04:22 6,4 °C 6,4 °C 94 % 1020,1 hPa 0,0 mm 5,0 km/h (1 Bft) W 263 ° 0 min 0,000 mm 0,0 UV-I 0 W/m² 5,5 °C 5,7 °C 9,7 km/h (2 Bft)
20.09.2017 04:23 6,4 °C 6,4 °C 94 % 1020,1 hPa 0,0 mm 4,4 km/h (1 Bft) W-SW 246 ° 0 min 0,000 mm 0,0 UV-I 0 W/m² 5,5 °C 6,4 °C 9,7 km/h (2 Bft)
20.09.2017 04:24 6,4 °C 6,4 °C 94 % 1020,1 hPa 0,0 mm 3,5 km/h (1 Bft) W-SW 249 ° 0 min 0,000 mm 0,0 UV-I 0 W/m² 5,5 °C 6,4 °C 6,4 km/h (2 Bft)
20.09.2017 04:25 6,3 °C 6,4 °C 94 % 1020,1 hPa 0,0 mm 4,0 km/h (1 Bft) SW 215 ° 0 min 0,000 mm 0,0 UV-I 0 W/m² 5,4 °C 6,3 °C 6,4 km/h (2 Bft)
20.09.2017 04:26 6,4 °C 6,4 °C 94 % 1020,1 hPa 0,0 mm 3,4 km/h (1 Bft) W 259 ° 0 min 0,000 mm 0,0 UV-I 0 W/m² 5,5 °C 6,4 °C 11,3 km/h (2 Bft)
20.09.2017 04:27 6,4 °C 6,4 °C 94 % 1020,2 hPa 0,0 mm 8,4 km/h (2 Bft) W-SW 245 ° 0 min 0,000 mm 0,0 UV-I 0 W/m² 5,5 °C 4,7 °C 11,3 km/h (2 Bft)
20.09.2017 04:28 6,4 °C 6,4 °C 94 % 1020,2 hPa 0,0 mm 4,7 km/h (1 Bft) W 267 ° 0 min 0,000 mm 0,0 UV-I 0 W/m² 5,5 °C 5,8 °C 9,7 km/h (2 Bft)
20.09.2017 04:29 6,4 °C 6,4 °C 94 % 1020,2 hPa 0,0 mm 2,7 km/h (1 Bft) W-NW 288 ° 0 min 0,000 mm 0,0 UV-I 0 W/m² 5,5 °C 6,4 °C 8,0 km/h (2 Bft)
20.09.2017 04:30 6,4 °C 6,4 °C 94 % 1020,2 hPa 0,0 mm 4,1 km/h (1 Bft) W-SW 241 ° 0 min 0,000 mm 0,0 UV-I 0 W/m² 5,5 °C 6,4 °C 8,0 km/h (2 Bft)
20.09.2017 04:31 6,4 °C 6,4 °C 94 % 1020,2 hPa 0,0 mm 5,0 km/h (1 Bft) W 273 ° 0 min 0,000 mm 0,0 UV-I 0 W/m² 5,5 °C 5,7 °C 6,4 km/h (2 Bft)
20.09.2017 04:32 6,4 °C 6,4 °C 94 % 1020,2 hPa 0,0 mm 6,4 km/h (2 Bft) W-SW 258 ° 0 min 0,000 mm 0,0 UV-I 0 W/m² 5,5 °C 5,2 °C 11,3 km/h (2 Bft)
20.09.2017 04:33 6,4 °C 6,4 °C 94 % 1020,2 hPa 0,0 mm 2,2 km/h (1 Bft) W-SW 255 ° 0 min 0,000 mm 0,0 UV-I 0 W/m² 5,5 °C 6,4 °C 4,8 km/h (1 Bft)
20.09.2017 04:34 6,5 °C 6,5 °C 94 % 1020,2 hPa 0,0 mm 1,3 km/h (1 Bft) W-SW 255 ° 0 min 0,000 mm 0,0 UV-I 0 W/m² 5,6 °C 6,5 °C 1,6 km/h (1 Bft)
20.09.2017 04:35 6,4 °C 6,5 °C 94 % 1020,3 hPa 0,0 mm 0,9 km/h (0 Bft) W-SW 242 ° 0 min 0,000 mm 0,0 UV-I 0 W/m² 5,5 °C 6,4 °C 3,2 km/h (1 Bft)
20.09.2017 04:36 6,5 °C 6,5 °C 94 % 1020,2 hPa 0,0 mm 1,3 km/h (1 Bft) W-SW 251 ° 0 min 0,000 mm 0,0 UV-I 0 W/m² 5,6 °C 6,5 °C 3,2 km/h (1 Bft)
20.09.2017 04:37 6,5 °C 6,5 °C 94 % 1020,3 hPa 0,0 mm 4,1 km/h (1 Bft) W-SW 252 ° 0 min 0,000 mm 0,0 UV-I 0 W/m² 5,6 °C 6,5 °C 8,0 km/h (2 Bft)
20.09.2017 04:38 6,5 °C 6,5 °C 94 % 1020,2 hPa 0,0 mm 1,2 km/h (1 Bft) W 263 ° 0 min 0,000 mm 0,0 UV-I 0 W/m² 5,6 °C 6,5 °C 3,2 km/h (1 Bft)
20.09.2017 04:39 6,6 °C 6,6 °C 94 % 1020,2 hPa 0,0 mm 2,7 km/h (1 Bft) SW 219 ° 0 min 0,000 mm 0,0 UV-I 0 W/m² 5,7 °C 6,6 °C 6,4 km/h (2 Bft)
20.09.2017 04:40 6,5 °C 6,6 °C 94 % 1020,2 hPa 0,0 mm 3,8 km/h (1 Bft) S 184 ° 0 min 0,000 mm 0,0 UV-I 0 W/m² 5,6 °C 6,5 °C 8,0 km/h (2 Bft)
20.09.2017 04:41 6,5 °C 6,5 °C 94 % 1020,2 hPa 0,0 mm 2,2 km/h (1 Bft) SW 216 ° 0 min 0,000 mm 0,0 UV-I 0 W/m² 5,6 °C 6,5 °C 3,2 km/h (1 Bft)
20.09.2017 04:42 6,6 °C 6,6 °C 94 % 1020,2 hPa 0,0 mm 3,1 km/h (1 Bft) W-SW 240 ° 0 min 0,000 mm 0,0 UV-I 0 W/m² 5,7 °C 6,6 °C 6,4 km/h (2 Bft)
20.09.2017 04:43 6,5 °C 6,6 °C 94 % 1020,3 hPa 0,0 mm 2,1 km/h (1 Bft) SW 225 ° 0 min 0,000 mm 0,0 UV-I 0 W/m² 5,6 °C 6,5 °C 3,2 km/h (1 Bft)
20.09.2017 04:44 6,5 °C 6,6 °C 93 % 1020,2 hPa 0,0 mm 0,6 km/h (0 Bft) SW 225 ° 0 min 0,000 mm 0,0 UV-I 0 W/m² 5,5 °C 6,5 °C 1,6 km/h (1 Bft)
20.09.2017 04:45 6,6 °C 6,6 °C 93 % 1020,2 hPa 0,0 mm 1,3 km/h (1 Bft) SW 227 ° 0 min 0,000 mm 0,0 UV-I 0 W/m² 5,6 °C 6,6 °C 4,8 km/h (1 Bft)
20.09.2017 04:46 6,6 °C 6,6 °C 93 % 1020,3 hPa 0,0 mm 4,2 km/h (1 Bft) W 264 ° 0 min 0,000 mm 0,0 UV-I 0 W/m² 5,6 °C 6,6 °C 6,4 km/h (2 Bft)
20.09.2017 04:47 6,6 °C 6,6 °C 93 % 1020,3 hPa 0,0 mm 4,5 km/h (1 Bft) W 265 ° 0 min 0,000 mm 0,0 UV-I 0 W/m² 5,6 °C 6,6 °C 6,4 km/h (2 Bft)
20.09.2017 04:48 6,6 °C 6,6 °C 94 % 1020,3 hPa 0,0 mm 3,4 km/h (1 Bft) W 265 ° 0 min 0,000 mm 0,0 UV-I 0 W/m² 5,7 °C 6,6 °C 4,8 km/h (1 Bft)
20.09.2017 04:49 6,6 °C 6,6 °C 94 % 1020,3 hPa 0,0 mm 3,5 km/h (1 Bft) W-SW 252 ° 0 min 0,000 mm 0,0 UV-I 0 W/m² 5,7 °C 6,6 °C 6,4 km/h (2 Bft)
20.09.2017 04:50 6,6 °C 6,6 °C 93 % 1020,3 hPa 0,0 mm 0,4 km/h (0 Bft) W-SW 252 ° 0 min 0,000 mm 0,0 UV-I 0 W/m² 5,6 °C 6,6 °C 1,6 km/h (1 Bft)
20.09.2017 04:51 6,5 °C 6,6 °C 93 % 1020,3 hPa 0,0 mm 0,1 km/h (0 Bft) W-SW 252 ° 0 min 0,000 mm 0,0 UV-I 0 W/m² 5,5 °C 6,5 °C 1,6 km/h (1 Bft)
20.09.2017 04:52 6,5 °C 6,6 °C 93 % 1020,3 hPa 0,0 mm 0,1 km/h (0 Bft) W-SW 252 ° 0 min 0,000 mm 0,0 UV-I 0 W/m² 5,5 °C 6,5 °C 1,6 km/h (1 Bft)
20.09.2017 04:53 6,6 °C 6,6 °C 93 % 1020,2 hPa 0,0 mm 3,1 km/h (1 Bft) W-NW 285 ° 0 min 0,000 mm 0,0 UV-I 0 W/m² 5,6 °C 6,6 °C 8,0 km/h (2 Bft)
20.09.2017 04:54 6,5 °C 6,6 °C 93 % 1020,3 hPa 0,0 mm 2,7 km/h (1 Bft) W-NW 285 ° 0 min 0,000 mm 0,0 UV-I 0 W/m² 5,5 °C 6,5 °C 6,4 km/h (2 Bft)
20.09.2017 04:55 6,5 °C 6,6 °C 93 % 1020,2 hPa 0,0 mm 1,5 km/h (1 Bft) W-NW 285 ° 0 min 0,000 mm 0,0 UV-I 0 W/m² 5,5 °C 6,5 °C 3,2 km/h (1 Bft)
20.09.2017 04:56 6,5 °C 6,5 °C 93 % 1020,3 hPa 0,0 mm 1,5 km/h (1 Bft) W 267 ° 0 min 0,000 mm 0,0 UV-I 0 W/m² 5,5 °C 6,5 °C 3,2 km/h (1 Bft)
20.09.2017 04:57 6,5 °C 6,5 °C 93 % 1020,3 hPa 0,0 mm 2,2 km/h (1 Bft) W 261 ° 0 min 0,000 mm 0,0 UV-I 0 W/m² 5,5 °C 6,5 °C 4,8 km/h (1 Bft)
20.09.2017 04:58 6,5 °C 6,6 °C 93 % 1020,3 hPa 0,0 mm 0,8 km/h (0 Bft) W 261 ° 0 min 0,000 mm 0,0 UV-I 0 W/m² 5,5 °C 6,5 °C 3,2 km/h (1 Bft)
20.09.2017 04:59 6,5 °C 6,6 °C 93 % 1020,3 hPa 0,0 mm 0,5 km/h (0 Bft) W 261 ° 0 min 0,000 mm 0,0 UV-I 0 W/m² 5,5 °C 6,5 °C 1,6 km/h (1 Bft)
20.09.2017 05:00 6,5 °C 6,5 °C 93 % 1020,3 hPa 0,0 mm 0,0 km/h (0 Bft) W 261 ° 0 min 0,000 mm 0,0 UV-I 0 W/m² 5,5 °C 6,5 °C 0,0 km/h (0 Bft)
20.09.2017 05:01 6,5 °C 6,5 °C 93 % 1020,3 hPa 0,0 mm 1,0 km/h (0 Bft) W-SW 247 ° 0 min 0,000 mm 0,0 UV-I 0 W/m² 5,5 °C 6,5 °C 3,2 km/h (1 Bft)
20.09.2017 05:02 6,5 °C 6,5 °C 93 % 1020,3 hPa 0,0 mm 0,4 km/h (0 Bft) W-SW 247 ° 0 min 0,000 mm 0,0 UV-I 0 W/m² 5,5 °C 6,5 °C 1,6 km/h (1 Bft)
20.09.2017 05:03 6,5 °C 6,5 °C 93 % 1020,3 hPa 0,0 mm 0,0 km/h (0 Bft) W-SW 247 ° 0 min 0,000 mm 0,0 UV-I 0 W/m² 5,5 °C 6,5 °C 0,0 km/h (0 Bft)
20.09.2017 05:04 6,5 °C 6,5 °C 93 % 1020,3 hPa 0,0 mm 1,5 km/h (1 Bft) W-SW 247 ° 0 min 0,000 mm 0,0 UV-I 0 W/m² 5,5 °C 6,5 °C 4,8 km/h (1 Bft)
20.09.2017 05:05 6,5 °C 6,5 °C 93 % 1020,3 hPa 0,0 mm 1,4 km/h (1 Bft) W-SW 247 ° 0 min 0,000 mm 0,0 UV-I 0 W/m² 5,5 °C 6,5 °C 3,2 km/h (1 Bft)
20.09.2017 05:06 6,5 °C 6,5 °C 94 % 1020,3 hPa 0,0 mm 0,8 km/h (0 Bft) W-SW 247 ° 0 min 0,000 mm 0,0 UV-I 0 W/m² 5,6 °C 6,5 °C 1,6 km/h (1 Bft)
20.09.2017 05:07 6,5 °C 6,5 °C 94 % 1020,3 hPa 0,0 mm 3,9 km/h (1 Bft) W-SW 258 ° 0 min 0,000 mm 0,0 UV-I 0 W/m² 5,6 °C 6,5 °C 6,4 km/h (2 Bft)
20.09.2017 05:08 6,5 °C 6,5 °C 94 % 1020,3 hPa 0,0 mm 4,2 km/h (1 Bft) SW 229 ° 0 min 0,000 mm 0,0 UV-I 0 W/m² 5,6 °C 6,5 °C 4,8 km/h (1 Bft)
20.09.2017 05:09 6,5 °C 6,5 °C 94 % 1020,4 hPa 0,0 mm 0,9 km/h (0 Bft) SW 229 ° 0 min 0,000 mm 0,0 UV-I 0 W/m² 5,6 °C 6,5 °C 3,2 km/h (1 Bft)
20.09.2017 05:10 6,5 °C 6,5 °C 93 % 1020,4 hPa 0,0 mm 3,0 km/h (1 Bft) W 263 ° 0 min 0,000 mm 0,0 UV-I 0 W/m² 5,5 °C 6,5 °C 4,8 km/h (1 Bft)
20.09.2017 05:11 6,5 °C 6,5 °C 94 % 1020,4 hPa 0,0 mm 1,7 km/h (1 Bft) W 263 ° 0 min 0,000 mm 0,0 UV-I 0 W/m² 5,6 °C 6,5 °C 3,2 km/h (1 Bft)
20.09.2017 05:12 6,5 °C 6,5 °C 94 % 1020,4 hPa 0,0 mm 2,4 km/h (1 Bft) W 263 ° 0 min 0,000 mm 0,0 UV-I 0 W/m² 5,6 °C 6,5 °C 3,2 km/h (1 Bft)
20.09.2017 05:13 6,6 °C 6,6 °C 94 % 1020,4 hPa 0,0 mm 4,8 km/h (1 Bft) W 270 ° 0 min 0,000 mm 0,0 UV-I 0 W/m² 5,7 °C 6,0 °C 6,4 km/h (2 Bft)
20.09.2017 05:14 6,6 °C 6,6 °C 94 % 1020,3 hPa 0,0 mm 3,2 km/h (1 Bft) W 270 ° 0 min 0,000 mm 0,0 UV-I 0 W/m² 5,7 °C 6,6 °C 4,8 km/h (1 Bft)
20.09.2017 05:15 6,5 °C 6,6 °C 93 % 1020,4 hPa 0,0 mm 0,0 km/h (0 Bft) W 270 ° 0 min 0,000 mm 0,0 UV-I 0 W/m² 5,5 °C 6,5 °C 1,6 km/h (1 Bft)
20.09.2017 05:16 6,5 °C 6,5 °C 93 % 1020,4 hPa 0,0 mm 3,2 km/h (1 Bft) W 270 ° 0 min 0,000 mm 0,0 UV-I 0 W/m² 5,5 °C 6,5 °C 4,8 km/h (1 Bft)
20.09.2017 05:17 6,4 °C 6,5 °C 93 % 1020,4 hPa 0,0 mm 1,6 km/h (1 Bft) W 270 ° 0 min 0,000 mm 0,0 UV-I 0 W/m² 5,4 °C 6,4 °C 3,2 km/h (1 Bft)
20.09.2017 05:18 6,4 °C 6,5 °C 93 % 1020,3 hPa 0,0 mm 1,6 km/h (1 Bft) W-SW 247 ° 0 min 0,000 mm 0,0 UV-I 0 W/m² 5,4 °C 6,4 °C 4,8 km/h (1 Bft)
20.09.2017 05:19 6,4 °C 6,5 °C 94 % 1020,3 hPa 0,0 mm 3,2 km/h (1 Bft) W-SW 247 ° 0 min 0,000 mm 0,0 UV-I 0 W/m² 5,5 °C 6,4 °C 4,8 km/h (1 Bft)
20.09.2017 05:20 6,4 °C 6,4 °C 94 % 1020,4 hPa 0,0 mm 0,0 km/h (0 Bft) W-SW 247 ° 0 min 0,000 mm 0,0 UV-I 0 W/m² 5,5 °C 6,4 °C 3,2 km/h (1 Bft)
20.09.2017 05:21 6,4 °C 6,4 °C 94 % 1020,3 hPa 0,0 mm 1,6 km/h (1 Bft) W-SW 247 ° 0 min 0,000 mm 0,0 UV-I 0 W/m² 5,5 °C 6,4 °C 4,8 km/h (1 Bft)
20.09.2017 05:22 6,4 °C 6,4 °C 93 % 1020,3 hPa 0,0 mm 1,6 km/h (1 Bft) W-SW 247 ° 0 min 0,000 mm 0,0 UV-I 0 W/m² 5,4 °C 6,4 °C 4,8 km/h (1 Bft)
20.09.2017 05:24 6,4 °C 6,4 °C 94 % 1020,3 hPa 0,0 mm 2,2 km/h (1 Bft) W 268 ° 0 min 0,000 mm 0,0 UV-I 0 W/m² 5,5 °C 6,4 °C 4,8 km/h (1 Bft)
20.09.2017 05:26 6,4 °C 6,4 °C 94 % 1020,3 hPa 0,0 mm 2,2 km/h (1 Bft) W 269 ° 0 min 0,000 mm 0,0 UV-I 0 W/m² 5,5 °C 6,4 °C 9,7 km/h (2 Bft)
20.09.2017 05:27 6,4 °C 6,4 °C 94 % 1020,3 hPa 0,0 mm 1,8 km/h (1 Bft) W 269 ° 0 min 0,000 mm 0,0 UV-I 0 W/m² 5,5 °C 6,4 °C 4,8 km/h (1 Bft)
20.09.2017 05:28 6,4 °C 6,4 °C 94 % 1020,3 hPa 0,0 mm 2,2 km/h (1 Bft) W 269 ° 0 min 0,000 mm 0,0 UV-I 0 W/m² 5,5 °C 6,4 °C 4,8 km/h (1 Bft)
20.09.2017 05:29 6,4 °C 6,4 °C 94 % 1020,4 hPa 0,0 mm 0,7 km/h (0 Bft) W 276 ° 0 min 0,000 mm 0,0 UV-I 0 W/m² 5,5 °C 6,4 °C 3,2 km/h (1 Bft)
20.09.2017 05:30 6,4 °C 6,4 °C 94 % 1020,3 hPa 0,0 mm 2,7 km/h (1 Bft) W 276 ° 0 min 0,000 mm 0,0 UV-I 0 W/m² 5,5 °C 6,4 °C 6,4 km/h (2 Bft)
20.09.2017 05:31 6,4 °C 6,4 °C 94 % 1020,3 hPa 0,0 mm 0,8 km/h (0 Bft) W 276 ° 0 min 0,000 mm 0,0 UV-I 0 W/m² 5,5 °C 6,4 °C 3,2 km/h (1 Bft)
20.09.2017 05:32 6,4 °C 6,4 °C 93 % 1020,4 hPa 0,0 mm 0,4 km/h (0 Bft) W 276 ° 0 min 0,000 mm 0,0 UV-I 0 W/m² 5,4 °C 6,4 °C 3,2 km/h (1 Bft)
20.09.2017 05:33 6,4 °C 6,4 °C 93 % 1020,4 hPa 0,0 mm 1,6 km/h (1 Bft) W 277 ° 0 min 0,000 mm 0,0 UV-I 0 W/m² 5,4 °C 6,4 °C 4,8 km/h (1 Bft)
20.09.2017 05:34 6,4 °C 6,4 °C 94 % 1020,4 hPa 0,0 mm 1,1 km/h (1 Bft) W 277 ° 0 min 0,000 mm 0,0 UV-I 0 W/m² 5,5 °C 6,4 °C 3,2 km/h (1 Bft)
20.09.2017 05:35 6,4 °C 6,4 °C 94 % 1020,4 hPa 0,0 mm 0,4 km/h (0 Bft) W 277 ° 0 min 0,000 mm 0,0 UV-I 0 W/m² 5,5 °C 6,4 °C 1,6 km/h (1 Bft)
20.09.2017 05:36 6,4 °C 6,4 °C 94 % 1020,4 hPa 0,0 mm 1,3 km/h (1 Bft) W 277 ° 0 min 0,000 mm 0,0 UV-I 0 W/m² 5,5 °C 6,4 °C 3,2 km/h (1 Bft)
20.09.2017 05:37 6,4 °C 6,4 °C 94 % 1020,4 hPa 0,0 mm 1,5 km/h (1 Bft) W 277 ° 0 min 0,000 mm 0,0 UV-I 0 W/m² 5,5 °C 6,4 °C 3,2 km/h (1 Bft)
20.09.2017 05:38 6,4 °C 6,4 °C 94 % 1020,4 hPa 0,0 mm 0,1 km/h (0 Bft) W 277 ° 0 min 0,000 mm 0,0 UV-I 0 W/m² 5,5 °C 6,4 °C 1,6 km/h (1 Bft)
20.09.2017 05:39 6,4 °C 6,4 °C 94 % 1020,4 hPa 0,0 mm 0,3 km/h (0 Bft) W 277 ° 0 min 0,000 mm 0,0 UV-I 0 W/m² 5,5 °C 6,4 °C 3,2 km/h (1 Bft)
20.09.2017 05:40 6,4 °C 6,4 °C 94 % 1020,4 hPa 0,0 mm 4,6 km/h (1 Bft) W 268 ° 0 min 0,000 mm 0,0 UV-I 0 W/m² 5,5 °C 5,8 °C 11,3 km/h (2 Bft)
20.09.2017 05:41 6,4 °C 6,4 °C 94 % 1020,4 hPa 0,0 mm 1,3 km/h (1 Bft) W 267 ° 0 min 0,000 mm 0,0 UV-I 0 W/m² 5,5 °C 6,4 °C 3,2 km/h (1 Bft)
20.09.2017 05:42 6,4 °C 6,4 °C 94 % 1020,4 hPa 0,0 mm 2,7 km/h (1 Bft) W-SW 258 ° 0 min 0,000 mm 0,0 UV-I 0 W/m² 5,5 °C 6,4 °C 4,8 km/h (1 Bft)
20.09.2017 05:43 6,4 °C 6,4 °C 94 % 1020,4 hPa 0,0 mm 2,4 km/h (1 Bft) W 275 ° 0 min 0,000 mm 0,0 UV-I 0 W/m² 5,5 °C 6,4 °C 6,4 km/h (2 Bft)
20.09.2017 05:44 6,4 °C 6,4 °C 93 % 1020,4 hPa 0,0 mm 2,2 km/h (1 Bft) W-SW 241 ° 0 min 0,000 mm 0,0 UV-I 0 W/m² 5,4 °C 6,4 °C 6,4 km/h (2 Bft)
20.09.2017 05:45 6,4 °C 6,4 °C 94 % 1020,5 hPa 0,0 mm 0,3 km/h (0 Bft) W-SW 242 ° 0 min 0,000 mm 0,0 UV-I 0 W/m² 5,5 °C 6,4 °C 1,6 km/h (1 Bft)
20.09.2017 05:46 6,4 °C 6,5 °C 93 % 1020,5 hPa 0,0 mm 0,0 km/h (0 Bft) W-SW 242 ° 0 min 0,000 mm 0,0 UV-I 0 W/m² 5,4 °C 6,4 °C 0,0 km/h (0 Bft)
20.09.2017 05:47 6,4 °C 6,4 °C 93 % 1020,5 hPa 0,0 mm 4,3 km/h (1 Bft) W-SW 239 ° 0 min 0,000 mm 0,0 UV-I 0 W/m² 5,4 °C 6,4 °C 8,0 km/h (2 Bft)
20.09.2017 05:48 6,5 °C 6,5 °C 93 % 1020,4 hPa 0,0 mm 4,0 km/h (1 Bft) W-SW 254 ° 0 min 0,000 mm 0,0 UV-I 0 W/m² 5,5 °C 6,5 °C 6,4 km/h (2 Bft)
20.09.2017 05:49 6,5 °C 6,5 °C 93 % 1020,4 hPa 0,0 mm 1,7 km/h (1 Bft) SW 233 ° 0 min 0,000 mm 0,0 UV-I 0 W/m² 5,5 °C 6,5 °C 3,2 km/h (1 Bft)
20.09.2017 05:50 6,4 °C 6,5 °C 93 % 1020,4 hPa 0,0 mm 0,8 km/h (0 Bft) SW 233 ° 0 min 0,000 mm 0,0 UV-I 0 W/m² 5,4 °C 6,4 °C 3,2 km/h (1 Bft)
20.09.2017 05:51 6,5 °C 6,5 °C 93 % 1020,4 hPa 0,0 mm 2,3 km/h (1 Bft) W-SW 258 ° 0 min 0,000 mm 0,0 UV-I 0 W/m² 5,5 °C 6,5 °C 4,8 km/h (1 Bft)
20.09.2017 05:52 6,5 °C 6,5 °C 93 % 1020,5 hPa 0,0 mm 2,1 km/h (1 Bft) SW 236 ° 0 min 0,000 mm 0,0 UV-I 0 W/m² 5,5 °C 6,5 °C 4,8 km/h (1 Bft)
20.09.2017 05:53 6,5 °C 6,5 °C 93 % 1020,5 hPa 0,0 mm 2,1 km/h (1 Bft) W 263 ° 0 min 0,000 mm 0,0 UV-I 0 W/m² 5,5 °C 6,5 °C 4,8 km/h (1 Bft)
20.09.2017 05:54 6,5 °C 6,5 °C 93 % 1020,5 hPa 0,0 mm 3,0 km/h (1 Bft) W 263 ° 0 min 0,000 mm 0,0 UV-I 0 W/m² 5,5 °C 6,5 °C 4,8 km/h (1 Bft)
20.09.2017 05:55 6,5 °C 6,5 °C 93 % 1020,5 hPa 0,0 mm 2,1 km/h (1 Bft) W 263 ° 0 min 0,000 mm 0,0 UV-I 0 W/m² 5,5 °C 6,5 °C 3,2 km/h (1 Bft)
20.09.2017 05:56 6,5 °C 6,6 °C 93 % 1020,5 hPa 0,0 mm 1,7 km/h (1 Bft) W 263 ° 0 min 0,000 mm 0,0 UV-I 0 W/m² 5,5 °C 6,5 °C 3,2 km/h (1 Bft)
20.09.2017 05:57 6,5 °C 6,6 °C 93 % 1020,5 hPa 0,0 mm 3,1 km/h (1 Bft) W 264 ° 0 min 0,000 mm 0,0 UV-I 0 W/m² 5,5 °C 6,5 °C 6,4 km/h (2 Bft)
20.09.2017 05:58 6,6 °C 6,6 °C 93 % 1020,5 hPa 0,0 mm 5,0 km/h (1 Bft) W 260 ° 0 min 0,000 mm 0,0 UV-I 0 W/m² 5,6 °C 5,9 °C 6,4 km/h (2 Bft)
20.09.2017 05:59 6,6 °C 6,6 °C 93 % 1020,5 hPa 0,0 mm 2,5 km/h (1 Bft) W-SW 253 ° 0 min 0,000 mm 0,0 UV-I 0 W/m² 5,6 °C 6,6 °C 4,8 km/h (1 Bft)
20.09.2017 06:00 6,6 °C 6,6 °C 93 % 1020,5 hPa 0,0 mm 3,8 km/h (1 Bft) W 263 ° 0 min 0,000 mm 0,0 UV-I 0 W/m² 5,6 °C 6,6 °C 6,4 km/h (2 Bft)
20.09.2017 06:01 6,6 °C 6,6 °C 93 % 1020,5 hPa 0,0 mm 2,5 km/h (1 Bft) W 269 ° 0 min 0,000 mm 0,0 UV-I 0 W/m² 5,6 °C 6,6 °C 6,4 km/h (2 Bft)
20.09.2017 06:02 6,6 °C 6,6 °C 94 % 1020,5 hPa 0,0 mm 1,0 km/h (0 Bft) W 269 ° 0 min 0,000 mm 0,0 UV-I 0 W/m² 5,7 °C 6,6 °C 3,2 km/h (1 Bft)
20.09.2017 06:03 6,6 °C 6,6 °C 94 % 1020,5 hPa 0,0 mm 1,5 km/h (1 Bft) W-SW 258 ° 0 min 0,000 mm 0,0 UV-I 0 W/m² 5,7 °C 6,6 °C 4,8 km/h (1 Bft)
20.09.2017 06:04 6,6 °C 6,6 °C 94 % 1020,6 hPa 0,0 mm 4,4 km/h (1 Bft) W-SW 240 ° 0 min 0,000 mm 0,0 UV-I 0 W/m² 5,7 °C 6,6 °C 6,4 km/h (2 Bft)
20.09.2017 06:05 6,6 °C 6,6 °C 94 % 1020,6 hPa 0,0 mm 3,0 km/h (1 Bft) W 268 ° 0 min 0,000 mm 0,0 UV-I 0 W/m² 5,7 °C 6,6 °C 4,8 km/h (1 Bft)
20.09.2017 06:06 6,6 °C 6,6 °C 94 % 1020,5 hPa 0,0 mm 4,5 km/h (1 Bft) W-SW 249 ° 0 min 0,000 mm 0,0 UV-I 0 W/m² 5,7 °C 6,6 °C 9,7 km/h (2 Bft)
20.09.2017 06:07 6,7 °C 6,7 °C 94 % 1020,5 hPa 0,0 mm 4,5 km/h (1 Bft) W 275 ° 0 min 0,000 mm 0,0 UV-I 0 W/m² 5,8 °C 6,7 °C 6,4 km/h (2 Bft)
20.09.2017 06:08 6,6 °C 6,7 °C 93 % 1020,5 hPa 0,0 mm 0,7 km/h (0 Bft) W 275 ° 0 min 0,000 mm 0,0 UV-I 0 W/m² 5,6 °C 6,6 °C 3,2 km/h (1 Bft)
20.09.2017 06:09 6,6 °C 6,7 °C 93 % 1020,5 hPa 0,0 mm 0,9 km/h (0 Bft) W 275 ° 0 min 0,000 mm 0,0 UV-I 0 W/m² 5,6 °C 6,6 °C 3,2 km/h (1 Bft)
20.09.2017 06:10 6,7 °C 6,7 °C 93 % 1020,5 hPa 0,0 mm 1,7 km/h (1 Bft) W 276 ° 0 min 0,000 mm 0,0 UV-I 0 W/m² 5,6 °C 6,7 °C 4,8 km/h (1 Bft)
20.09.2017 06:11 6,6 °C 6,7 °C 94 % 1020,5 hPa 0,0 mm 4,4 km/h (1 Bft) W-SW 246 ° 0 min 0,000 mm 0,0 UV-I 0 W/m² 5,7 °C 6,6 °C 6,4 km/h (2 Bft)
20.09.2017 06:12 6,7 °C 6,7 °C 93 % 1020,6 hPa 0,0 mm 2,1 km/h (1 Bft) SW 234 ° 0 min 0,000 mm 0,0 UV-I 0 W/m² 5,6 °C 6,7 °C 3,2 km/h (1 Bft)
20.09.2017 06:13 6,7 °C 6,7 °C 93 % 1020,5 hPa 0,0 mm 0,2 km/h (0 Bft) SW 234 ° 0 min 0,000 mm 0,0 UV-I 0 W/m² 5,6 °C 6,7 °C 1,6 km/h (1 Bft)
20.09.2017 06:14 6,7 °C 6,7 °C 93 % 1020,6 hPa 0,0 mm 0,0 km/h (0 Bft) SW 234 ° 0 min 0,000 mm 0,0 UV-I 0 W/m² 5,6 °C 6,7 °C 0,0 km/h (0 Bft)
20.09.2017 06:15 6,7 °C 6,7 °C 93 % 1020,6 hPa 0,0 mm 0,1 km/h (0 Bft) SW 234 ° 0 min 0,000 mm 0,0 UV-I 0 W/m² 5,6 °C 6,7 °C 1,6 km/h (1 Bft)
20.09.2017 06:16 6,7 °C 6,7 °C 93 % 1020,5 hPa 0,0 mm 1,5 km/h (1 Bft) SW 234 ° 0 min 0,000 mm 0,0 UV-I 0 W/m² 5,6 °C 6,7 °C 3,2 km/h (1 Bft)
20.09.2017 06:17 6,7 °C 6,7 °C 93 % 1020,6 hPa 0,0 mm 1,4 km/h (1 Bft) SW 234 ° 0 min 0,000 mm 0,0 UV-I 0 W/m² 5,6 °C 6,7 °C 3,2 km/h (1 Bft)
20.09.2017 06:18 6,7 °C 6,7 °C 93 % 1020,5 hPa 0,0 mm 2,1 km/h (1 Bft) W-SW 242 ° 0 min 0,000 mm 0,0 UV-I 0 W/m² 5,6 °C 6,7 °C 4,8 km/h (1 Bft)
20.09.2017 06:19 6,7 °C 6,7 °C 93 % 1020,5 hPa 0,0 mm 0,9 km/h (0 Bft) W-SW 242 ° 0 min 0,000 mm 0,0 UV-I 0 W/m² 5,6 °C 6,7 °C 1,6 km/h (1 Bft)
20.09.2017 06:20 6,7 °C 6,7 °C 93 % 1020,5 hPa 0,0 mm 0,1 km/h (0 Bft) W-SW 242 ° 0 min 0,000 mm 0,0 UV-I 0 W/m² 5,6 °C 6,7 °C 1,6 km/h (1 Bft)
20.09.2017 06:21 6,7 °C 6,7 °C 93 % 1020,5 hPa 0,0 mm 2,5 km/h (1 Bft) W-SW 254 ° 0 min 0,000 mm 0,0 UV-I 0 W/m² 5,6 °C 6,7 °C 4,8 km/h (1 Bft)
20.09.2017 06:22 6,7 °C 6,7 °C 93 % 1020,5 hPa 0,0 mm 2,9 km/h (1 Bft) W-SW 251 ° 0 min 0,000 mm 0,0 UV-I 0 W/m² 5,6 °C 6,7 °C 4,8 km/h (1 Bft)
20.09.2017 06:23 6,7 °C 6,7 °C 93 % 1020,5 hPa 0,0 mm 0,2 km/h (0 Bft) W-SW 251 ° 0 min 0,000 mm 0,0 UV-I 0 W/m² 5,6 °C 6,7 °C 1,6 km/h (1 Bft)
20.09.2017 06:24 6,7 °C 6,7 °C 93 % 1020,5 hPa 0,0 mm 0,0 km/h (0 Bft) W-SW 251 ° 0 min 0,000 mm 0,0 UV-I 0 W/m² 5,6 °C 6,7 °C 0,0 km/h (0 Bft)
20.09.2017 06:25 6,7 °C 6,7 °C 93 % 1020,6 hPa 0,0 mm 0,0 km/h (0 Bft) W-SW 251 ° 0 min 0,000 mm 0,0 UV-I 0 W/m² 5,6 °C 6,7 °C 0,0 km/h (0 Bft)
20.09.2017 06:26 6,7 °C 6,7 °C 93 % 1020,6 hPa 0,0 mm 2,2 km/h (1 Bft) W-SW 251 ° 0 min 0,000 mm 0,0 UV-I 0 W/m² 5,6 °C 6,7 °C 4,8 km/h (1 Bft)
20.09.2017 06:27 6,7 °C 6,7 °C 93 % 1020,6 hPa 0,0 mm 0,6 km/h (0 Bft) W-SW 251 ° 0 min 0,000 mm 0,0 UV-I 0 W/m² 5,6 °C 6,7 °C 1,6 km/h (1 Bft)
20.09.2017 06:28 6,7 °C 6,7 °C 93 % 1020,6 hPa 0,0 mm 1,5 km/h (1 Bft) W-SW 251 ° 0 min 0,000 mm 0,0 UV-I 0 W/m² 5,6 °C 6,7 °C 4,8 km/h (1 Bft)
20.09.2017 06:29 6,7 °C 6,7 °C 93 % 1020,6 hPa 0,0 mm 2,1 km/h (1 Bft) W-SW 251 ° 0 min 0,000 mm 0,0 UV-I 0 W/m² 5,6 °C 6,7 °C 3,2 km/h (1 Bft)
20.09.2017 06:30 6,7 °C 6,7 °C 93 % 1020,6 hPa 0,0 mm 1,2 km/h (1 Bft) W-SW 250 ° 0 min 0,000 mm 0,0 UV-I 0 W/m² 5,6 °C 6,7 °C 4,8 km/h (1 Bft)
20.09.2017 06:31 6,7 °C 6,7 °C 93 % 1020,6 hPa 0,0 mm 6,4 km/h (2 Bft) W 271 ° 0 min 0,000 mm 0,0 UV-I 0 W/m² 5,6 °C 5,6 °C 11,3 km/h (2 Bft)
20.09.2017 06:32 6,7 °C 6,7 °C 93 % 1020,7 hPa 0,0 mm 1,3 km/h (1 Bft) W 263 ° 0 min 0,000 mm 0,0 UV-I 0 W/m² 5,6 °C 6,7 °C 3,2 km/h (1 Bft)
20.09.2017 06:33 6,7 °C 6,7 °C 93 % 1020,7 hPa 0,0 mm 0,1 km/h (0 Bft) W 263 ° 0 min 0,000 mm 0,0 UV-I 0 W/m² 5,6 °C 6,7 °C 1,6 km/h (1 Bft)
20.09.2017 06:34 6,7 °C 6,7 °C 93 % 1020,7 hPa 0,0 mm 1,1 km/h (1 Bft) W 267 ° 0 min 0,000 mm 0,0 UV-I 0 W/m² 5,6 °C 6,7 °C 4,8 km/h (1 Bft)
20.09.2017 06:35 6,7 °C 6,7 °C 93 % 1020,7 hPa 0,0 mm 4,1 km/h (1 Bft) W 266 ° 0 min 0,000 mm 0,0 UV-I 0 W/m² 5,6 °C 6,7 °C 6,4 km/h (2 Bft)
20.09.2017 06:36 6,7 °C 6,7 °C 93 % 1020,7 hPa 0,0 mm 3,4 km/h (1 Bft) W 263 ° 0 min 0,000 mm 0,0 UV-I 0 W/m² 5,6 °C 6,7 °C 6,4 km/h (2 Bft)
20.09.2017 06:37 6,7 °C 6,7 °C 93 % 1020,7 hPa 0,0 mm 3,9 km/h (1 Bft) W 263 ° 0 min 0,000 mm 0,0 UV-I 0 W/m² 5,6 °C 6,7 °C 6,4 km/h (2 Bft)
20.09.2017 06:38 6,7 °C 6,7 °C 93 % 1020,7 hPa 0,0 mm 2,5 km/h (1 Bft) W 269 ° 0 min 0,000 mm 0,0 UV-I 0 W/m² 5,6 °C 6,7 °C 4,8 km/h (1 Bft)
20.09.2017 06:39 6,7 °C 6,7 °C 93 % 1020,7 hPa 0,0 mm 0,0 km/h (0 Bft) W 269 ° 0 min 0,000 mm 0,0 UV-I 0 W/m² 5,6 °C 6,7 °C 0,0 km/h (0 Bft)
20.09.2017 06:40 6,7 °C 6,7 °C 93 % 1020,7 hPa 0,0 mm 0,9 km/h (0 Bft) W 269 ° 0 min 0,000 mm 0,0 UV-I 0 W/m² 5,6 °C 6,7 °C 3,2 km/h (1 Bft)
20.09.2017 06:41 6,7 °C 6,7 °C 93 % 1020,7 hPa 0,0 mm 2,9 km/h (1 Bft) W 259 ° 0 min 0,000 mm 0,0 UV-I 0 W/m² 5,6 °C 6,7 °C 6,4 km/h (2 Bft)
20.09.2017 06:42 6,7 °C 6,7 °C 93 % 1020,7 hPa 0,0 mm 1,3 km/h (1 Bft) W 259 ° 0 min 0,000 mm 0,0 UV-I 0 W/m² 5,6 °C 6,7 °C 3,2 km/h (1 Bft)
20.09.2017 06:43 6,7 °C 6,7 °C 93 % 1020,7 hPa 0,0 mm 0,9 km/h (0 Bft) W-SW 246 ° 0 min 0,000 mm 0,0 UV-I 0 W/m² 5,6 °C 6,7 °C 3,2 km/h (1 Bft)
20.09.2017 06:44 6,7 °C 6,7 °C 93 % 1020,7 hPa 0,0 mm 0,0 km/h (0 Bft) W-SW 240 ° 0 min 0,000 mm 0,0 UV-I 0 W/m² 5,6 °C 6,7 °C 0,0 km/h (0 Bft)
20.09.2017 06:45 6,7 °C 6,7 °C 93 % 1020,7 hPa 0,0 mm 1,2 km/h (1 Bft) W 261 ° 0 min 0,000 mm 0,0 UV-I 0 W/m² 5,6 °C 6,7 °C 4,8 km/h (1 Bft)
20.09.2017 06:46 6,7 °C 6,7 °C 93 % 1020,7 hPa 0,0 mm 3,2 km/h (1 Bft) SW 231 ° 0 min 0,000 mm 0,0 UV-I 0 W/m² 5,6 °C 6,7 °C 4,8 km/h (1 Bft)
20.09.2017 06:47 6,7 °C 6,7 °C 93 % 1020,7 hPa 0,0 mm 2,7 km/h (1 Bft) S-SW 209 ° 0 min 0,000 mm 0,0 UV-I 0 W/m² 5,6 °C 6,7 °C 4,8 km/h (1 Bft)
20.09.2017 06:48 6,7 °C 6,7 °C 93 % 1020,7 hPa 0,0 mm 2,1 km/h (1 Bft) S-SW 207 ° 0 min 0,000 mm 0,0 UV-I 0 W/m² 5,6 °C 6,7 °C 6,4 km/h (2 Bft)
20.09.2017 06:49 6,7 °C 6,7 °C 93 % 1020,7 hPa 0,0 mm 4,2 km/h (1 Bft) S-SW 192 ° 0 min 0,000 mm 0,0 UV-I 0 W/m² 5,6 °C 6,7 °C 4,8 km/h (1 Bft)
20.09.2017 06:50 6,7 °C 6,7 °C 93 % 1020,7 hPa 0,0 mm 4,0 km/h (1 Bft) S-SW 197 ° 0 min 0,000 mm 0,0 UV-I 0 W/m² 5,6 °C 6,7 °C 6,4 km/h (2 Bft)
20.09.2017 06:51 6,7 °C 6,7 °C 93 % 1020,7 hPa 0,0 mm 2,5 km/h (1 Bft) S-SW 197 ° 0 min 0,000 mm 0,0 UV-I 0 W/m² 5,6 °C 6,7 °C 4,8 km/h (1 Bft)
20.09.2017 06:52 6,8 °C 6,8 °C 93 % 1020,7 hPa 0,0 mm 4,3 km/h (1 Bft) S 177 ° 0 min 0,000 mm 0,0 UV-I 0 W/m² 5,7 °C 6,8 °C 6,4 km/h (2 Bft)
20.09.2017 06:53 6,8 °C 6,8 °C 93 % 1020,7 hPa 0,0 mm 2,6 km/h (1 Bft) S-SW 199 ° 0 min 0,000 mm 0,0 UV-I 0 W/m² 5,7 °C 6,8 °C 6,4 km/h (2 Bft)
20.09.2017 06:54 6,8 °C 6,8 °C 93 % 1020,7 hPa 0,0 mm 1,9 km/h (1 Bft) W 261 ° 0 min 0,000 mm 0,0 UV-I 0 W/m² 5,7 °C 6,8 °C 4,8 km/h (1 Bft)
20.09.2017 06:55 6,8 °C 6,8 °C 93 % 1020,7 hPa 0,0 mm 0,4 km/h (0 Bft) W 261 ° 0 min 0,000 mm 0,0 UV-I 0 W/m² 5,7 °C 6,8 °C 3,2 km/h (1 Bft)
20.09.2017 06:56 6,8 °C 6,8 °C 93 % 1020,7 hPa 0,0 mm 1,5 km/h (1 Bft) SW 221 ° 0 min 0,000 mm 0,0 UV-I 0 W/m² 5,7 °C 6,8 °C 3,2 km/h (1 Bft)
20.09.2017 06:57 6,8 °C 6,8 °C 93 % 1020,7 hPa 0,0 mm 0,4 km/h (0 Bft) SW 221 ° 0 min 0,000 mm 0,0 UV-I 0 W/m² 5,7 °C 6,8 °C 1,6 km/h (1 Bft)
20.09.2017 06:58 6,8 °C 6,8 °C 93 % 1020,7 hPa 0,0 mm 2,1 km/h (1 Bft) S-SW 209 ° 0 min 0,000 mm 0,0 UV-I 0 W/m² 5,7 °C 6,8 °C 4,8 km/h (1 Bft)
20.09.2017 06:59 6,8 °C 6,8 °C 93 % 1020,7 hPa 0,0 mm 4,8 km/h (1 Bft) SW 234 ° 0 min 0,000 mm 0,0 UV-I 0 W/m² 5,7 °C 6,2 °C 11,3 km/h (2 Bft)
20.09.2017 07:00 6,8 °C 6,8 °C 93 % 1020,7 hPa 0,0 mm 4,7 km/h (1 Bft) S-SW 209 ° 0 min 0,000 mm 0,0 UV-I 0 W/m² 5,7 °C 6,2 °C 12,9 km/h (3 Bft)
20.09.2017 07:01 6,8 °C 6,8 °C 93 % 1020,7 hPa 0,0 mm 2,7 km/h (1 Bft) W-SW 242 ° 0 min 0,000 mm 0,0 UV-I 0 W/m² 5,7 °C 6,8 °C 6,4 km/h (2 Bft)
20.09.2017 07:02 6,8 °C 6,8 °C 93 % 1020,7 hPa 0,0 mm 2,5 km/h (1 Bft) S-SW 200 ° 0 min 0,000 mm 0,0 UV-I 0 W/m² 5,7 °C 6,8 °C 4,8 km/h (1 Bft)
20.09.2017 07:03 6,7 °C 6,8 °C 93 % 1020,7 hPa 0,0 mm 3,2 km/h (1 Bft) SW 215 ° 0 min 0,000 mm 0,0 UV-I 0 W/m² 5,6 °C 6,7 °C 4,8 km/h (1 Bft)
20.09.2017 07:04 6,8 °C 6,8 °C 93 % 1020,7 hPa 0,0 mm 2,2 km/h (1 Bft) SW 225 ° 0 min 0,000 mm 0,0 UV-I 0 W/m² 5,7 °C 6,8 °C 6,4 km/h (2 Bft)
20.09.2017 07:05 6,8 °C 6,8 °C 92 % 1020,7 hPa 0,0 mm 2,4 km/h (1 Bft) S-SW 202 ° 0 min 0,000 mm 0,0 UV-I 0 W/m² 5,6 °C 6,8 °C 3,2 km/h (1 Bft)
20.09.2017 07:06 6,8 °C 6,8 °C 92 % 1020,7 hPa 0,0 mm 0,6 km/h (0 Bft) S-SW 204 ° 0 min 0,000 mm 0,0 UV-I 0 W/m² 5,6 °C 6,8 °C 3,2 km/h (1 Bft)
20.09.2017 07:07 6,8 °C 6,8 °C 92 % 1020,7 hPa 0,0 mm 3,2 km/h (1 Bft) W-SW 244 ° 0 min 0,000 mm 0,0 UV-I 0 W/m² 5,6 °C 6,8 °C 4,8 km/h (1 Bft)
20.09.2017 07:08 6,8 °C 6,8 °C 92 % 1020,7 hPa 0,0 mm 2,5 km/h (1 Bft) SW 216 ° 0 min 0,000 mm 0,0 UV-I 0 W/m² 5,6 °C 6,8 °C 3,2 km/h (1 Bft)
20.09.2017 07:09 6,8 °C 6,8 °C 92 % 1020,8 hPa 0,0 mm 2,3 km/h (1 Bft) SW 224 ° 0 min 0,000 mm 0,0 UV-I 0 W/m² 5,6 °C 6,8 °C 3,2 km/h (1 Bft)
20.09.2017 07:10 6,8 °C 6,8 °C 92 % 1020,8 hPa 0,0 mm 1,0 km/h (0 Bft) SW 224 ° 0 min 0,000 mm 0,0 UV-I 0 W/m² 5,6 °C 6,8 °C 3,2 km/h (1 Bft)
20.09.2017 07:11 6,8 °C 6,8 °C 92 % 1020,8 hPa 0,0 mm 3,4 km/h (1 Bft) S-SW 205 ° 0 min 0,000 mm 0,0 UV-I 0 W/m² 5,6 °C 6,8 °C 9,7 km/h (2 Bft)
20.09.2017 07:12 6,8 °C 6,8 °C 92 % 1020,8 hPa 0,0 mm 2,7 km/h (1 Bft) SW 230 ° 0 min 0,000 mm 0,0 UV-I 0 W/m² 5,6 °C 6,8 °C 6,4 km/h (2 Bft)
20.09.2017 07:13 6,8 °C 6,8 °C 92 % 1020,8 hPa 0,0 mm 4,3 km/h (1 Bft) SW 217 ° 0 min 0,000 mm 0,0 UV-I 0 W/m² 5,6 °C 6,8 °C 8,0 km/h (2 Bft)
20.09.2017 07:14 6,8 °C 6,8 °C 92 % 1020,8 hPa 0,0 mm 2,7 km/h (1 Bft) SW 214 ° 0 min 0,000 mm 0,0 UV-I 0 W/m² 5,6 °C 6,8 °C 4,8 km/h (1 Bft)
20.09.2017 07:15 6,8 °C 6,8 °C 92 % 1020,8 hPa 0,0 mm 3,1 km/h (1 Bft) W 275 ° 0 min 0,000 mm 0,0 UV-I 0 W/m² 5,6 °C 6,8 °C 6,4 km/h (2 Bft)
20.09.2017 07:16 6,8 °C 6,8 °C 92 % 1020,8 hPa 0,0 mm 4,0 km/h (1 Bft) W 275 ° 0 min 0,000 mm 0,0 UV-I 5 W/m² 5,6 °C 6,8 °C 9,7 km/h (2 Bft)
20.09.2017 07:17 6,8 °C 6,8 °C 92 % 1020,8 hPa 0,0 mm 1,7 km/h (1 Bft) W 269 ° 0 min 0,000 mm 0,0 UV-I 5 W/m² 5,6 °C 6,8 °C 4,8 km/h (1 Bft)
20.09.2017 07:18 6,8 °C 6,8 °C 92 % 1020,8 hPa 0,0 mm 3,4 km/h (1 Bft) S-SW 201 ° 0 min 0,000 mm 0,0 UV-I 5 W/m² 5,6 °C 6,8 °C 6,4 km/h (2 Bft)
20.09.2017 07:19 6,7 °C 6,8 °C 92 % 1020,8 hPa 0,0 mm 2,7 km/h (1 Bft) S-SW 200 ° 0 min 0,000 mm 0,0 UV-I 5 W/m² 5,5 °C 6,7 °C 6,4 km/h (2 Bft)
20.09.2017 07:20 6,7 °C 6,7 °C 92 % 1020,8 hPa 0,0 mm 1,1 km/h (1 Bft) S-SW 200 ° 0 min 0,000 mm 0,0 UV-I 5 W/m² 5,5 °C 6,7 °C 3,2 km/h (1 Bft)
20.09.2017 07:21 6,8 °C 6,8 °C 93 % 1020,8 hPa 0,0 mm 2,3 km/h (1 Bft) S-SW 200 ° 0 min 0,000 mm 0,0 UV-I 5 W/m² 5,7 °C 6,8 °C 3,2 km/h (1 Bft)
20.09.2017 07:22 6,7 °C 6,8 °C 93 % 1020,8 hPa 0,0 mm 1,6 km/h (1 Bft) W 274 ° 0 min 0,000 mm 0,0 UV-I 7 W/m² 5,6 °C 6,7 °C 6,4 km/h (2 Bft)
20.09.2017 07:23 6,8 °C 6,8 °C 93 % 1020,8 hPa 0,0 mm 6,2 km/h (2 Bft) W-SW 252 ° 0 min 0,000 mm 0,0 UV-I 7 W/m² 5,7 °C 5,7 °C 12,9 km/h (3 Bft)
20.09.2017 07:24 6,8 °C 6,8 °C 92 % 1020,8 hPa 0,0 mm 1,1 km/h (1 Bft) W-SW 252 ° 0 min 0,000 mm 0,0 UV-I 9 W/m² 5,6 °C 6,8 °C 3,2 km/h (1 Bft)
20.09.2017 07:25 6,8 °C 6,8 °C 92 % 1020,9 hPa 0,0 mm 0,1 km/h (0 Bft) W-SW 251 ° 0 min 0,000 mm 0,0 UV-I 11 W/m² 5,6 °C 6,8 °C 1,6 km/h (1 Bft)
20.09.2017 07:26 6,8 °C 6,8 °C 92 % 1020,8 hPa 0,0 mm 4,2 km/h (1 Bft) W-SW 244 ° 0 min 0,000 mm 0,0 UV-I 11 W/m² 5,6 °C 6,8 °C 8,0 km/h (2 Bft)
20.09.2017 07:27 6,8 °C 6,8 °C 92 % 1020,9 hPa 0,0 mm 3,3 km/h (1 Bft) W-SW 254 ° 0 min 0,000 mm 0,0 UV-I 11 W/m² 5,6 °C 6,8 °C 6,4 km/h (2 Bft)
20.09.2017 07:28 6,8 °C 6,8 °C 92 % 1020,8 hPa 0,0 mm 1,6 km/h (1 Bft) W-SW 254 ° 0 min 0,000 mm 0,0 UV-I 12 W/m² 5,6 °C 6,8 °C 3,2 km/h (1 Bft)
20.09.2017 07:29 6,8 °C 6,8 °C 92 % 1020,8 hPa 0,0 mm 2,6 km/h (1 Bft) S-SW 203 ° 0 min 0,000 mm 0,0 UV-I 12 W/m² 5,6 °C 6,8 °C 6,4 km/h (2 Bft)
20.09.2017 07:30 6,8 °C 6,8 °C 92 % 1020,8 hPa 0,0 mm 4,4 km/h (1 Bft) S-SW 205 ° 0 min 0,000 mm 0,0 UV-I 12 W/m² 5,6 °C 6,8 °C 8,0 km/h (2 Bft)
20.09.2017 07:31 6,8 °C 6,8 °C 92 % 1020,8 hPa 0,0 mm 4,0 km/h (1 Bft) W-SW 248 ° 0 min 0,000 mm 0,0 UV-I 12 W/m² 5,6 °C 6,8 °C 6,4 km/h (2 Bft)
20.09.2017 07:32 6,8 °C 6,8 °C 92 % 1020,8 hPa 0,0 mm 1,3 km/h (1 Bft) W-SW 238 ° 0 min 0,000 mm 0,0 UV-I 12 W/m² 5,6 °C 6,8 °C 3,2 km/h (1 Bft)
20.09.2017 07:33 6,8 °C 6,8 °C 92 % 1020,8 hPa 0,0 mm 0,8 km/h (0 Bft) W-SW 238 ° 0 min 0,000 mm 0,0 UV-I 12 W/m² 5,6 °C 6,8 °C 3,2 km/h (1 Bft)
20.09.2017 07:34 6,8 °C 6,9 °C 92 % 1020,8 hPa 0,0 mm 0,0 km/h (0 Bft) SW 219 ° 0 min 0,000 mm 0,0 UV-I 14 W/m² 5,6 °C 6,8 °C 0,0 km/h (0 Bft)
20.09.2017 07:35 6,9 °C 6,9 °C 92 % 1020,8 hPa 0,0 mm 5,9 km/h (2 Bft) W 267 ° 0 min 0,000 mm 0,0 UV-I 14 W/m² 5,7 °C 5,9 °C 11,3 km/h (2 Bft)
20.09.2017 07:36 6,9 °C 6,9 °C 92 % 1020,9 hPa 0,0 mm 2,2 km/h (1 Bft) W 267 ° 0 min 0,000 mm 0,0 UV-I 14 W/m² 5,7 °C 6,9 °C 3,2 km/h (1 Bft)
20.09.2017 07:37 6,9 °C 6,9 °C 92 % 1020,9 hPa 0,0 mm 5,0 km/h (1 Bft) W-SW 237 ° 0 min 0,000 mm 0,0 UV-I 16 W/m² 5,7 °C 6,2 °C 9,7 km/h (2 Bft)
20.09.2017 07:38 6,9 °C 6,9 °C 92 % 1020,8 hPa 0,0 mm 3,0 km/h (1 Bft) W-SW 238 ° 0 min 0,000 mm 0,0 UV-I 16 W/m² 5,7 °C 6,9 °C 6,4 km/h (2 Bft)
20.09.2017 07:39 6,9 °C 6,9 °C 92 % 1020,8 hPa 0,0 mm 3,1 km/h (1 Bft) W-SW 238 ° 0 min 0,000 mm 0,0 UV-I 16 W/m² 5,7 °C 6,9 °C 4,8 km/h (1 Bft)
20.09.2017 07:40 6,9 °C 6,9 °C 92 % 1020,9 hPa 0,0 mm 0,5 km/h (0 Bft) W-SW 238 ° 0 min 0,000 mm 0,0 UV-I 18 W/m² 5,7 °C 6,9 °C 1,6 km/h (1 Bft)
20.09.2017 07:41 6,9 °C 6,9 °C 92 % 1020,8 hPa 0,0 mm 0,6 km/h (0 Bft) W-SW 238 ° 0 min 0,000 mm 0,0 UV-I 18 W/m² 5,7 °C 6,9 °C 3,2 km/h (1 Bft)
20.09.2017 07:42 6,9 °C 6,9 °C 92 % 1020,9 hPa 0,0 mm 0,1 km/h (0 Bft) W-SW 238 ° 0 min 0,000 mm 0,0 UV-I 18 W/m² 5,7 °C 6,9 °C 1,6 km/h (1 Bft)
20.09.2017 07:43 6,9 °C 6,9 °C 92 % 1020,9 hPa 0,0 mm 0,1 km/h (0 Bft) W-SW 238 ° 0 min 0,000 mm 0,0 UV-I 18 W/m² 5,7 °C 6,9 °C 1,6 km/h (1 Bft)
20.09.2017 07:44 6,9 °C 6,9 °C 92 % 1020,9 hPa 0,0 mm 0,2 km/h (0 Bft) W-SW 238 ° 0 min 0,000 mm 0,0 UV-I 19 W/m² 5,7 °C 6,9 °C 1,6 km/h (1 Bft)
20.09.2017 07:45 6,9 °C 6,9 °C 92 % 1020,9 hPa 0,0 mm 0,0 km/h (0 Bft) W-SW 238 ° 0 min 0,000 mm 0,0 UV-I 19 W/m² 5,7 °C 6,9 °C 0,0 km/h (0 Bft)
20.09.2017 07:46 6,9 °C 6,9 °C 92 % 1020,9 hPa 0,0 mm 0,3 km/h (0 Bft) W-SW 238 ° 0 min 0,000 mm 0,0 UV-I 19 W/m² 5,7 °C 6,9 °C 1,6 km/h (1 Bft)
20.09.2017 07:47 6,9 °C 6,9 °C 92 % 1020,9 hPa 0,0 mm 0,2 km/h (0 Bft) W-SW 238 ° 0 min 0,000 mm 0,0 UV-I 21 W/m² 5,7 °C 6,9 °C 1,6 km/h (1 Bft)
20.09.2017 07:48 6,9 °C 6,9 °C 92 % 1020,9 hPa 0,0 mm 0,2 km/h (0 Bft) W-SW 238 ° 0 min 0,000 mm 0,0 UV-I 21 W/m² 5,7 °C 6,9 °C 1,6 km/h (1 Bft)
20.09.2017 07:49 6,9 °C 6,9 °C 92 % 1020,9 hPa 0,0 mm 3,0 km/h (1 Bft) W-SW 240 ° 0 min 0,000 mm 0,0 UV-I 23 W/m² 5,7 °C 6,9 °C 4,8 km/h (1 Bft)
20.09.2017 07:50 6,9 °C 6,9 °C 92 % 1020,9 hPa 0,0 mm 2,7 km/h (1 Bft) W-SW 254 ° 0 min 0,000 mm 0,0 UV-I 23 W/m² 5,7 °C 6,9 °C 4,8 km/h (1 Bft)
20.09.2017 07:51 6,9 °C 6,9 °C 92 % 1020,9 hPa 0,0 mm 1,7 km/h (1 Bft) W-SW 254 ° 0 min 0,000 mm 0,0 UV-I 23 W/m² 5,7 °C 6,9 °C 3,2 km/h (1 Bft)
20.09.2017 07:52 6,9 °C 6,9 °C 92 % 1021,0 hPa 0,0 mm 0,3 km/h (0 Bft) W-SW 254 ° 0 min 0,000 mm 0,0 UV-I 23 W/m² 5,7 °C 6,9 °C 1,6 km/h (1 Bft)
20.09.2017 07:53 6,9 °C 6,9 °C 92 % 1021,0 hPa 0,0 mm 0,7 km/h (0 Bft) W-SW 255 ° 0 min 0,000 mm 0,0 UV-I 23 W/m² 5,7 °C 6,9 °C 3,2 km/h (1 Bft)
20.09.2017 07:54 6,9 °C 6,9 °C 92 % 1020,9 hPa 0,0 mm 0,0 km/h (0 Bft) W-SW 255 ° 0 min 0,000 mm 0,0 UV-I 23 W/m² 5,7 °C 6,9 °C 0,0 km/h (0 Bft)
20.09.2017 07:55 6,9 °C 6,9 °C 92 % 1021,0 hPa 0,0 mm 0,3 km/h (0 Bft) W-SW 255 ° 0 min 0,000 mm 0,0 UV-I 23 W/m² 5,7 °C 6,9 °C 1,6 km/h (1 Bft)
20.09.2017 07:56 6,9 °C 6,9 °C 92 % 1021,0 hPa 0,0 mm 0,1 km/h (0 Bft) W-SW 255 ° 0 min 0,000 mm 0,0 UV-I 23 W/m² 5,7 °C 6,9 °C 1,6 km/h (1 Bft)
20.09.2017 07:57 6,9 °C 6,9 °C 92 % 1021,0 hPa 0,0 mm 0,0 km/h (0 Bft) W-SW 255 ° 0 min 0,000 mm 0,0 UV-I 23 W/m² 5,7 °C 6,9 °C 0,0 km/h (0 Bft)
20.09.2017 07:58 6,9 °C 6,9 °C 92 % 1021,0 hPa 0,0 mm 0,0 km/h (0 Bft) W-SW 255 ° 0 min 0,000 mm 0,0 UV-I 21 W/m² 5,7 °C 6,9 °C 0,0 km/h (0 Bft)
20.09.2017 07:59 6,9 °C 6,9 °C 92 % 1021,0 hPa 0,0 mm 0,6 km/h (0 Bft) W-SW 255 ° 0 min 0,000 mm 0,0 UV-I 21 W/m² 5,7 °C 6,9 °C 1,6 km/h (1 Bft)
20.09.2017 08:00 6,9 °C 6,9 °C 93 % 1021,0 hPa 0,0 mm 0,0 km/h (0 Bft) W-SW 255 ° 0 min 0,000 mm 0,0 UV-I 19 W/m² 5,8 °C 6,9 °C 0,0 km/h (0 Bft)
20.09.2017 08:01 6,9 °C 6,9 °C 93 % 1021,0 hPa 0,0 mm 0,0 km/h (0 Bft) W-SW 255 ° 0 min 0,000 mm 0,0 UV-I 19 W/m² 5,8 °C 6,9 °C 0,0 km/h (0 Bft)
20.09.2017 08:02 6,9 °C 6,9 °C 93 % 1021,0 hPa 0,0 mm 0,0 km/h (0 Bft) W-SW 255 ° 0 min 0,000 mm 0,0 UV-I 19 W/m² 5,8 °C 6,9 °C 0,0 km/h (0 Bft)
20.09.2017 08:03 6,9 °C 6,9 °C 93 % 1021,0 hPa 0,0 mm 0,0 km/h (0 Bft) W-SW 255 ° 0 min 0,000 mm 0,0 UV-I 19 W/m² 5,8 °C 6,9 °C 0,0 km/h (0 Bft)
20.09.2017 08:04 6,9 °C 6,9 °C 93 % 1021,0 hPa 0,0 mm 0,9 km/h (0 Bft) SW 236 ° 0 min 0,000 mm 0,0 UV-I 19 W/m² 5,8 °C 6,9 °C 3,2 km/h (1 Bft)
20.09.2017 08:05 6,8 °C 6,9 °C 93 % 1021,0 hPa 0,0 mm 1,5 km/h (1 Bft) SW 236 ° 0 min 0,000 mm 0,0 UV-I 21 W/m² 5,7 °C 6,8 °C 3,2 km/h (1 Bft)
20.09.2017 08:06 6,9 °C 6,9 °C 93 % 1021,0 hPa 0,0 mm 0,9 km/h (0 Bft) SW 236 ° 0 min 0,000 mm 0,0 UV-I 21 W/m² 5,8 °C 6,9 °C 1,6 km/h (1 Bft)
20.09.2017 08:07 6,9 °C 6,9 °C 93 % 1021,0 hPa 0,0 mm 0,0 km/h (0 Bft) SW 236 ° 0 min 0,000 mm 0,0 UV-I 21 W/m² 5,8 °C 6,9 °C 0,0 km/h (0 Bft)
20.09.2017 08:08 6,9 °C 6,9 °C 93 % 1021,1 hPa 0,0 mm 0,0 km/h (0 Bft) SW 236 ° 0 min 0,000 mm 0,0 UV-I 21 W/m² 5,8 °C 6,9 °C 0,0 km/h (0 Bft)
20.09.2017 08:09 6,9 °C 6,9 °C 93 % 1021,1 hPa 0,0 mm 0,0 km/h (0 Bft) SW 236 ° 0 min 0,000 mm 0,0 UV-I 23 W/m² 5,8 °C 6,9 °C 0,0 km/h (0 Bft)
20.09.2017 08:10 6,9 °C 6,9 °C 93 % 1021,1 hPa 0,0 mm 1,1 km/h (1 Bft) SW 236 ° 0 min 0,000 mm 0,0 UV-I 25 W/m² 5,8 °C 6,9 °C 3,2 km/h (1 Bft)
20.09.2017 08:11 6,9 °C 6,9 °C 93 % 1021,1 hPa 0,0 mm 0,0 km/h (0 Bft) SW 236 ° 0 min 0,000 mm 0,0 UV-I 28 W/m² 5,8 °C 6,9 °C 0,0 km/h (0 Bft)
20.09.2017 08:12 6,9 °C 6,9 °C 93 % 1021,1 hPa 0,0 mm 0,5 km/h (0 Bft) SW 236 ° 0 min 0,000 mm 0,0 UV-I 28 W/m² 5,8 °C 6,9 °C 3,2 km/h (1 Bft)
20.09.2017 08:13 6,9 °C 7,0 °C 93 % 1021,1 hPa 0,0 mm 1,7 km/h (1 Bft) SW 236 ° 0 min 0,000 mm 0,0 UV-I 30 W/m² 5,8 °C 6,9 °C 3,2 km/h (1 Bft)
20.09.2017 08:14 7,0 °C 7,0 °C 93 % 1021,0 hPa 0,0 mm 3,0 km/h (1 Bft) SW 236 ° 0 min 0,000 mm 0,0 UV-I 28 W/m² 5,9 °C 7,0 °C 4,8 km/h (1 Bft)
20.09.2017 08:15 7,0 °C 7,0 °C 93 % 1021,1 hPa 0,0 mm 0,6 km/h (0 Bft) SW 236 ° 0 min 0,000 mm 0,0 UV-I 28 W/m² 5,9 °C 7,0 °C 3,2 km/h (1 Bft)
20.09.2017 08:16 7,0 °C 7,0 °C 93 % 1021,1 hPa 0,0 mm 2,5 km/h (1 Bft) W 261 ° 0 min 0,000 mm 0,0 UV-I 28 W/m² 5,9 °C 7,0 °C 4,8 km/h (1 Bft)
20.09.2017 08:17 7,0 °C 7,1 °C 93 % 1021,1 hPa 0,0 mm 1,9 km/h (1 Bft) W-SW 248 ° 0 min 0,000 mm 0,0 UV-I 28 W/m² 5,9 °C 7,0 °C 3,2 km/h (1 Bft)
20.09.2017 08:18 7,1 °C 7,1 °C 93 % 1021,1 hPa 0,0 mm 0,0 km/h (0 Bft) W-SW 248 ° 0 min 0,000 mm 0,0 UV-I 30 W/m² 6,0 °C 7,1 °C 0,0 km/h (0 Bft)
20.09.2017 08:19 7,1 °C 7,1 °C 93 % 1021,1 hPa 0,0 mm 0,0 km/h (0 Bft) W-SW 248 ° 0 min 0,000 mm 0,0 UV-I 32 W/m² 6,0 °C 7,1 °C 0,0 km/h (0 Bft)
20.09.2017 08:20 7,1 °C 7,1 °C 93 % 1021,1 hPa 0,0 mm 0,0 km/h (0 Bft) W-SW 248 ° 0 min 0,000 mm 0,0 UV-I 32 W/m² 6,0 °C 7,1 °C 0,0 km/h (0 Bft)
20.09.2017 08:21 7,1 °C 7,1 °C 93 % 1021,0 hPa 0,0 mm 1,1 km/h (1 Bft) W-SW 248 ° 0 min 0,000 mm 0,0 UV-I 32 W/m² 6,0 °C 7,1 °C 3,2 km/h (1 Bft)
20.09.2017 08:22 7,1 °C 7,1 °C 92 % 1021,1 hPa 0,0 mm 3,5 km/h (1 Bft) W-NW 285 ° 0 min 0,000 mm 0,0 UV-I 32 W/m² 5,9 °C 7,1 °C 6,4 km/h (2 Bft)
20.09.2017 08:23 7,1 °C 7,1 °C 92 % 1021,1 hPa 0,0 mm 2,0 km/h (1 Bft) W 264 ° 0 min 0,000 mm 0,0 UV-I 33 W/m² 5,9 °C 7,1 °C 4,8 km/h (1 Bft)
20.09.2017 08:24 7,1 °C 7,1 °C 92 % 1021,1 hPa 0,0 mm 0,3 km/h (0 Bft) W 264 ° 0 min 0,000 mm 0,0 UV-I 33 W/m² 5,9 °C 7,1 °C 1,6 km/h (1 Bft)
20.09.2017 08:25 7,1 °C 7,1 °C 92 % 1021,1 hPa 0,0 mm 0,0 km/h (0 Bft) W 264 ° 0 min 0,000 mm 0,0 UV-I 33 W/m² 5,9 °C 7,1 °C 0,0 km/h (0 Bft)
20.09.2017 08:26 7,2 °C 7,2 °C 92 % 1021,0 hPa 0,0 mm 0,3 km/h (0 Bft) W 264 ° 0 min 0,000 mm 0,0 UV-I 33 W/m² 6,0 °C 7,2 °C 1,6 km/h (1 Bft)
20.09.2017 08:27 7,2 °C 7,2 °C 92 % 1021,1 hPa 0,0 mm 0,0 km/h (0 Bft) W 264 ° 0 min 0,000 mm 0,0 UV-I 37 W/m² 6,0 °C 7,2 °C 0,0 km/h (0 Bft)
20.09.2017 08:28 7,1 °C 7,2 °C 93 % 1021,1 hPa 0,0 mm 0,0 km/h (0 Bft) W 264 ° 0 min 0,000 mm 0,0 UV-I 42 W/m² 6,0 °C 7,1 °C 0,0 km/h (0 Bft)
20.09.2017 08:29 7,2 °C 7,2 °C 93 % 1021,1 hPa 0,0 mm 0,0 km/h (0 Bft) W 264 ° 0 min 0,000 mm 0,0 UV-I 46 W/m² 6,1 °C 7,2 °C 0,0 km/h (0 Bft)
20.09.2017 08:30 7,2 °C 7,2 °C 93 % 1021,1 hPa 0,0 mm 1,4 km/h (1 Bft) W 264 ° 0 min 0,000 mm 0,0 UV-I 46 W/m² 6,1 °C 7,2 °C 3,2 km/h (1 Bft)
20.09.2017 08:31 7,2 °C 7,2 °C 93 % 1021,1 hPa 0,0 mm 0,3 km/h (0 Bft) W 264 ° 0 min 0,000 mm 0,0 UV-I 47 W/m² 6,1 °C 7,2 °C 1,6 km/h (1 Bft)
20.09.2017 08:32 7,2 °C 7,2 °C 93 % 1021,1 hPa 0,0 mm 0,0 km/h (0 Bft) W 264 ° 0 min 0,000 mm 0,0 UV-I 49 W/m² 6,1 °C 7,2 °C 0,0 km/h (0 Bft)
20.09.2017 08:33 7,2 °C 7,2 °C 93 % 1021,1 hPa 0,0 mm 0,0 km/h (0 Bft) W 264 ° 0 min 0,000 mm 0,0 UV-I 51 W/m² 6,1 °C 7,2 °C 0,0 km/h (0 Bft)
20.09.2017 08:34 7,2 °C 7,2 °C 93 % 1021,1 hPa 0,0 mm 0,0 km/h (0 Bft) W 264 ° 0 min 0,000 mm 0,0 UV-I 53 W/m² 6,1 °C 7,2 °C 0,0 km/h (0 Bft)
20.09.2017 08:35 7,2 °C 7,2 °C 92 % 1021,1 hPa 0,0 mm 0,0 km/h (0 Bft) W 264 ° 0 min 0,000 mm 0,0 UV-I 51 W/m² 6,0 °C 7,2 °C 0,0 km/h (0 Bft)
20.09.2017 08:36 7,2 °C 7,2 °C 92 % 1021,1 hPa 0,0 mm 0,0 km/h (0 Bft) W 264 ° 0 min 0,000 mm 0,0 UV-I 49 W/m² 6,0 °C 7,2 °C 0,0 km/h (0 Bft)
20.09.2017 08:37 7,3 °C 7,3 °C 93 % 1021,1 hPa 0,0 mm 0,0 km/h (0 Bft) W 264 ° 0 min 0,000 mm 0,0 UV-I 49 W/m² 6,2 °C 7,3 °C 0,0 km/h (0 Bft)
20.09.2017 08:38 7,3 °C 7,3 °C 93 % 1021,1 hPa 0,0 mm 1,4 km/h (1 Bft) W-NW 282 ° 0 min 0,000 mm 0,0 UV-I 49 W/m² 6,2 °C 7,3 °C 4,8 km/h (1 Bft)
20.09.2017 08:39 7,3 °C 7,3 °C 93 % 1021,1 hPa 0,0 mm 2,7 km/h (1 Bft) W-SW 240 ° 0 min 0,000 mm 0,0 UV-I 49 W/m² 6,2 °C 7,3 °C 4,8 km/h (1 Bft)
20.09.2017 08:40 7,3 °C 7,3 °C 93 % 1021,2 hPa 0,0 mm 3,2 km/h (1 Bft) W 272 ° 0 min 0,000 mm 0,0 UV-I 49 W/m² 6,2 °C 7,3 °C 6,4 km/h (2 Bft)
20.09.2017 08:41 7,3 °C 7,3 °C 92 % 1021,2 hPa 0,0 mm 6,3 km/h (2 Bft) W 259 ° 0 min 0,000 mm 0,0 UV-I 51 W/m² 6,1 °C 6,3 °C 9,7 km/h (2 Bft)
20.09.2017 08:42 7,3 °C 7,3 °C 92 % 1021,2 hPa 0,0 mm 2,1 km/h (1 Bft) W-SW 250 ° 0 min 0,000 mm 0,0 UV-I 53 W/m² 6,1 °C 7,3 °C 3,2 km/h (1 Bft)
20.09.2017 08:43 7,3 °C 7,3 °C 92 % 1021,2 hPa 0,0 mm 1,3 km/h (1 Bft) W-SW 250 ° 0 min 0,000 mm 0,0 UV-I 53 W/m² 6,1 °C 7,3 °C 3,2 km/h (1 Bft)
20.09.2017 08:44 7,3 °C 7,3 °C 92 % 1021,2 hPa 0,0 mm 0,5 km/h (0 Bft) W-SW 250 ° 0 min 0,000 mm 0,0 UV-I 53 W/m² 6,1 °C 7,3 °C 3,2 km/h (1 Bft)
20.09.2017 08:45 7,3 °C 7,3 °C 92 % 1021,2 hPa 0,0 mm 1,7 km/h (1 Bft) W-SW 250 ° 0 min 0,000 mm 0,0 UV-I 56 W/m² 6,1 °C 7,3 °C 3,2 km/h (1 Bft)
20.09.2017 08:46 7,4 °C 7,4 °C 92 % 1021,2 hPa 0,0 mm 1,9 km/h (1 Bft) W-SW 250 ° 0 min 0,000 mm 0,0 UV-I 63 W/m² 6,2 °C 7,4 °C 3,2 km/h (1 Bft)
20.09.2017 08:47 7,4 °C 7,4 °C 92 % 1021,2 hPa 0,0 mm 2,4 km/h (1 Bft) W-SW 246 ° 0 min 0,000 mm 0,5 UV-I 67 W/m² 6,2 °C 7,4 °C 4,8 km/h (1 Bft)
20.09.2017 08:48 7,4 °C 7,4 °C 92 % 1021,2 hPa 0,0 mm 2,9 km/h (1 Bft) W-SW 244 ° 0 min 0,000 mm 0,5 UV-I 69 W/m² 6,2 °C 7,4 °C 6,4 km/h (2 Bft)
20.09.2017 08:49 7,4 °C 7,4 °C 92 % 1021,2 hPa 0,0 mm 2,5 km/h (1 Bft) W 263 ° 0 min 0,000 mm 0,5 UV-I 72 W/m² 6,2 °C 7,4 °C 4,8 km/h (1 Bft)
20.09.2017 08:50 7,4 °C 7,4 °C 92 % 1021,2 hPa 0,0 mm 3,1 km/h (1 Bft) W-SW 249 ° 0 min 0,000 mm 0,5 UV-I 76 W/m² 6,2 °C 7,4 °C 4,8 km/h (1 Bft)
20.09.2017 08:51 7,4 °C 7,4 °C 92 % 1021,2 hPa 0,0 mm 1,8 km/h (1 Bft) W-SW 249 ° 0 min 0,000 mm 0,5 UV-I 77 W/m² 6,2 °C 7,4 °C 3,2 km/h (1 Bft)
20.09.2017 08:52 7,4 °C 7,4 °C 92 % 1021,2 hPa 0,0 mm 0,0 km/h (0 Bft) W-SW 249 ° 0 min 0,000 mm 0,5 UV-I 83 W/m² 6,2 °C 7,4 °C 0,0 km/h (0 Bft)
20.09.2017 08:53 7,4 °C 7,4 °C 92 % 1021,2 hPa 0,0 mm 1,2 km/h (1 Bft) W-SW 249 ° 0 min 0,000 mm 0,6 UV-I 84 W/m² 6,2 °C 7,4 °C 3,2 km/h (1 Bft)
20.09.2017 08:54 7,5 °C 7,5 °C 92 % 1021,1 hPa 0,0 mm 1,2 km/h (1 Bft) W-SW 250 ° 0 min 0,000 mm 0,6 UV-I 86 W/m² 6,3 °C 7,5 °C 1,6 km/h (1 Bft)
20.09.2017 08:55 7,6 °C 7,6 °C 92 % 1021,1 hPa 0,0 mm 3,5 km/h (1 Bft) W-NW 289 ° 0 min 0,000 mm 0,6 UV-I 86 W/m² 6,4 °C 7,6 °C 4,8 km/h (1 Bft)
20.09.2017 08:56 7,6 °C 7,6 °C 92 % 1021,1 hPa 0,0 mm 3,4 km/h (1 Bft) W 277 ° 0 min 0,000 mm 0,6 UV-I 86 W/m² 6,4 °C 7,6 °C 4,8 km/h (1 Bft)
20.09.2017 08:57 7,6 °C 7,6 °C 92 % 1021,2 hPa 0,0 mm 2,9 km/h (1 Bft) W 277 ° 0 min 0,000 mm 0,5 UV-I 81 W/m² 6,4 °C 7,6 °C 4,8 km/h (1 Bft)
20.09.2017 08:58 7,6 °C 7,6 °C 92 % 1021,2 hPa 0,0 mm 3,4 km/h (1 Bft) W-NW 283 ° 0 min 0,000 mm 0,5 UV-I 77 W/m² 6,4 °C 7,6 °C 4,8 km/h (1 Bft)
20.09.2017 08:59 7,6 °C 7,6 °C 92 % 1021,2 hPa 0,0 mm 2,2 km/h (1 Bft) W-NW 283 ° 0 min 0,000 mm 0,5 UV-I 74 W/m² 6,4 °C 7,6 °C 3,2 km/h (1 Bft)
20.09.2017 09:00 7,6 °C 7,7 °C 92 % 1021,2 hPa 0,0 mm 1,7 km/h (1 Bft) W-NW 292 ° 0 min 0,000 mm 0,5 UV-I 74 W/m² 6,4 °C 7,6 °C 6,4 km/h (2 Bft)
20.09.2017 09:01 7,6 °C 7,7 °C 92 % 1021,3 hPa 0,0 mm 3,3 km/h (1 Bft) W-NW 286 ° 0 min 0,025 mm 0,5 UV-I 76 W/m² 6,4 °C 7,6 °C 4,8 km/h (1 Bft)
20.09.2017 09:02 7,7 °C 7,7 °C 91 % 1021,3 hPa 0,0 mm 7,2 km/h (2 Bft) W 263 ° 0 min 0,000 mm 0,5 UV-I 81 W/m² 6,3 °C 6,5 °C 11,3 km/h (2 Bft)
20.09.2017 09:03 7,6 °C 7,7 °C 91 % 1021,3 hPa 0,0 mm 1,5 km/h (1 Bft) W 263 ° 0 min 0,000 mm 0,6 UV-I 90 W/m² 6,2 °C 7,6 °C 3,2 km/h (1 Bft)
20.09.2017 09:04 7,7 °C 7,7 °C 91 % 1021,3 hPa 0,0 mm 3,3 km/h (1 Bft) W 259 ° 0 min 0,000 mm 0,6 UV-I 93 W/m² 6,3 °C 7,7 °C 4,8 km/h (1 Bft)
20.09.2017 09:05 7,7 °C 7,7 °C 91 % 1021,3 hPa 0,0 mm 5,2 km/h (1 Bft) W-NW 284 ° 0 min 0,000 mm 0,6 UV-I 95 W/m² 6,3 °C 7,1 °C 6,4 km/h (2 Bft)
20.09.2017 09:06 7,7 °C 7,7 °C 91 % 1021,2 hPa 0,0 mm 6,4 km/h (2 Bft) W 278 ° 0 min 0,000 mm 0,7 UV-I 97 W/m² 6,3 °C 6,7 °C 11,3 km/h (2 Bft)
20.09.2017 09:07 7,7 °C 7,7 °C 91 % 1021,3 hPa 0,0 mm 4,6 km/h (1 Bft) W-NW 286 ° 0 min 0,000 mm 0,7 UV-I 97 W/m² 6,3 °C 7,3 °C 6,4 km/h (2 Bft)
20.09.2017 09:08 7,7 °C 7,7 °C 91 % 1021,3 hPa 0,0 mm 6,1 km/h (2 Bft) W 271 ° 0 min 0,000 mm 0,7 UV-I 98 W/m² 6,3 °C 6,8 °C 9,7 km/h (2 Bft)
20.09.2017 09:09 7,7 °C 7,7 °C 91 % 1021,3 hPa 0,0 mm 9,3 km/h (2 Bft) W 266 ° 0 min 0,000 mm 0,7 UV-I 95 W/m² 6,3 °C 6,0 °C 12,9 km/h (3 Bft)
20.09.2017 09:10 7,7 °C 7,7 °C 91 % 1021,3 hPa 0,0 mm 4,9 km/h (1 Bft) W 259 ° 0 min 0,000 mm 0,6 UV-I 93 W/m² 6,3 °C 7,2 °C 9,7 km/h (2 Bft)
20.09.2017 09:11 7,7 °C 7,7 °C 91 % 1021,3 hPa 0,0 mm 7,2 km/h (2 Bft) W 270 ° 0 min 0,000 mm 0,6 UV-I 91 W/m² 6,3 °C 6,5 °C 11,3 km/h (2 Bft)
20.09.2017 09:12 7,7 °C 7,7 °C 91 % 1021,3 hPa 0,0 mm 5,4 km/h (1 Bft) W 277 ° 0 min 0,000 mm 0,6 UV-I 90 W/m² 6,3 °C 7,0 °C 6,4 km/h (2 Bft)
20.09.2017 09:13 7,7 °C 7,8 °C 91 % 1021,4 hPa 0,0 mm 2,3 km/h (1 Bft) W 267 ° 0 min 0,000 mm 0,6 UV-I 90 W/m² 6,3 °C 7,7 °C 4,8 km/h (1 Bft)
20.09.2017 09:14 7,8 °C 7,8 °C 91 % 1021,4 hPa 0,0 mm 5,1 km/h (1 Bft) W 259 ° 0 min 0,000 mm 0,6 UV-I 86 W/m² 6,4 °C 7,2 °C 6,4 km/h (2 Bft)
20.09.2017 09:15 7,8 °C 7,8 °C 91 % 1021,4 hPa 0,0 mm 7,2 km/h (2 Bft) W-NW 289 ° 0 min 0,000 mm 0,6 UV-I 84 W/m² 6,4 °C 6,6 °C 11,3 km/h (2 Bft)
20.09.2017 09:16 7,8 °C 7,8 °C 91 % 1021,4 hPa 0,0 mm 4,6 km/h (1 Bft) W 266 ° 0 min 0,000 mm 0,6 UV-I 86 W/m² 6,4 °C 7,4 °C 6,4 km/h (2 Bft)
20.09.2017 09:17 7,8 °C 7,8 °C 91 % 1021,4 hPa 0,0 mm 5,2 km/h (1 Bft) W 261 ° 0 min 0,000 mm 0,6 UV-I 86 W/m² 6,4 °C 7,2 °C 9,7 km/h (2 Bft)
20.09.2017 09:18 7,8 °C 7,8 °C 91 % 1021,4 hPa 0,0 mm 4,6 km/h (1 Bft) SW 219 ° 0 min 0,000 mm 0,6 UV-I 88 W/m² 6,4 °C 7,4 °C 9,7 km/h (2 Bft)
20.09.2017 09:19 7,8 °C 7,8 °C 91 % 1021,4 hPa 0,0 mm 3,2 km/h (1 Bft) SW 235 ° 0 min 0,000 mm 0,6 UV-I 90 W/m² 6,4 °C 7,8 °C 4,8 km/h (1 Bft)
20.09.2017 09:20 7,8 °C 7,8 °C 91 % 1021,4 hPa 0,0 mm 3,8 km/h (1 Bft) W-SW 246 ° 0 min 0,000 mm 0,6 UV-I 90 W/m² 6,4 °C 7,8 °C 4,8 km/h (1 Bft)
20.09.2017 09:21 7,8 °C 7,8 °C 91 % 1021,4 hPa 0,0 mm 8,1 km/h (2 Bft) W-SW 250 ° 0 min 0,000 mm 0,6 UV-I 90 W/m² 6,4 °C 6,4 °C 12,9 km/h (3 Bft)
20.09.2017 09:22 7,8 °C 7,8 °C 91 % 1021,4 hPa 0,0 mm 4,3 km/h (1 Bft) W-NW 285 ° 0 min 0,000 mm 0,6 UV-I 90 W/m² 6,4 °C 7,8 °C 6,4 km/h (2 Bft)
20.09.2017 09:23 7,8 °C 7,8 °C 91 % 1021,4 hPa 0,0 mm 4,5 km/h (1 Bft) W-SW 254 ° 0 min 0,000 mm 0,6 UV-I 90 W/m² 6,4 °C 7,8 °C 9,7 km/h (2 Bft)
20.09.2017 09:24 7,8 °C 7,9 °C 91 % 1021,4 hPa 0,0 mm 3,2 km/h (1 Bft) SW 236 ° 0 min 0,000 mm 0,6 UV-I 88 W/m² 6,4 °C 7,8 °C 6,4 km/h (2 Bft)
20.09.2017 09:25 7,8 °C 7,9 °C 90 % 1021,4 hPa 0,0 mm 3,8 km/h (1 Bft) W 259 ° 0 min 0,000 mm 0,6 UV-I 88 W/m² 6,3 °C 7,8 °C 11,3 km/h (2 Bft)
20.09.2017 09:26 7,8 °C 7,8 °C 90 % 1021,4 hPa 0,0 mm 6,2 km/h (2 Bft) W 261 ° 0 min 0,000 mm 0,6 UV-I 86 W/m² 6,3 °C 6,9 °C 11,3 km/h (2 Bft)
20.09.2017 09:27 7,8 °C 7,8 °C 90 % 1021,5 hPa 0,0 mm 3,6 km/h (1 Bft) W 268 ° 0 min 0,000 mm 0,6 UV-I 90 W/m² 6,3 °C 7,8 °C 6,4 km/h (2 Bft)
20.09.2017 09:28 7,8 °C 7,8 °C 90 % 1021,5 hPa 0,0 mm 3,6 km/h (1 Bft) NW 306 ° 0 min 0,000 mm 0,6 UV-I 93 W/m² 6,3 °C 7,8 °C 4,8 km/h (1 Bft)
20.09.2017 09:29 7,9 °C 7,9 °C 90 % 1021,5 hPa 0,0 mm 4,9 km/h (1 Bft) W 273 ° 0 min 0,000 mm 0,7 UV-I 95 W/m² 6,4 °C 7,4 °C 9,7 km/h (2 Bft)
20.09.2017 09:30 7,8 °C 7,9 °C 90 % 1021,4 hPa 0,0 mm 8,2 km/h (2 Bft) W-SW 243 ° 0 min 0,000 mm 0,7 UV-I 97 W/m² 6,3 °C 6,4 °C 12,9 km/h (3 Bft)
20.09.2017 09:31 7,9 °C 7,9 °C 90 % 1021,4 hPa 0,0 mm 0,5 km/h (0 Bft) W-SW 243 ° 0 min 0,000 mm 0,6 UV-I 97 W/m² 6,4 °C 7,9 °C 3,2 km/h (1 Bft)
20.09.2017 09:32 7,9 °C 7,9 °C 91 % 1021,5 hPa 0,0 mm 4,6 km/h (1 Bft) W 268 ° 0 min 0,000 mm 0,6 UV-I 95 W/m² 6,5 °C 7,5 °C 9,7 km/h (2 Bft)
20.09.2017 09:33 7,9 °C 7,9 °C 91 % 1021,5 hPa 0,0 mm 4,7 km/h (1 Bft) SW 220 ° 0 min 0,000 mm 0,6 UV-I 91 W/m² 6,5 °C 7,5 °C 6,4 km/h (2 Bft)
20.09.2017 09:34 7,9 °C 7,9 °C 91 % 1021,5 hPa 0,0 mm 3,5 km/h (1 Bft) W-SW 249 ° 0 min 0,000 mm 0,6 UV-I 90 W/m² 6,5 °C 7,9 °C 6,4 km/h (2 Bft)
20.09.2017 09:35 7,9 °C 7,9 °C 90 % 1021,5 hPa 0,0 mm 2,3 km/h (1 Bft) W 281 ° 0 min 0,000 mm 0,6 UV-I 86 W/m² 6,4 °C 7,9 °C 11,3 km/h (2 Bft)
20.09.2017 09:36 7,9 °C 7,9 °C 91 % 1021,5 hPa 0,0 mm 4,4 km/h (1 Bft) W 278 ° 0 min 0,000 mm 0,6 UV-I 83 W/m² 6,5 °C 7,9 °C 8,0 km/h (2 Bft)
20.09.2017 09:37 7,9 °C 7,9 °C 90 % 1021,5 hPa 0,0 mm 4,6 km/h (1 Bft) W 261 ° 0 min 0,000 mm 0,5 UV-I 79 W/m² 6,4 °C 7,5 °C 6,4 km/h (2 Bft)
20.09.2017 09:38 7,9 °C 7,9 °C 90 % 1021,5 hPa 0,0 mm 5,1 km/h (1 Bft) W-SW 254 ° 0 min 0,000 mm 0,5 UV-I 77 W/m² 6,4 °C 7,3 °C 6,4 km/h (2 Bft)
20.09.2017 09:39 7,9 °C 7,9 °C 90 % 1021,5 hPa 0,0 mm 4,8 km/h (1 Bft) W-NW 286 ° 0 min 0,000 mm 0,5 UV-I 70 W/m² 6,4 °C 7,4 °C 6,4 km/h (2 Bft)
20.09.2017 09:40 7,8 °C 7,9 °C 90 % 1021,5 hPa 0,0 mm 2,4 km/h (1 Bft) W-NW 286 ° 0 min 0,000 mm 0,5 UV-I 69 W/m² 6,3 °C 7,8 °C 4,8 km/h (1 Bft)
20.09.2017 09:41 7,9 °C 7,9 °C 90 % 1021,6 hPa 0,0 mm 2,6 km/h (1 Bft) W-NW 286 ° 0 min 0,000 mm 0,5 UV-I 69 W/m² 6,4 °C 7,9 °C 4,8 km/h (1 Bft)
20.09.2017 09:42 7,9 °C 7,9 °C 91 % 1021,6 hPa 0,0 mm 2,9 km/h (1 Bft) W-NW 284 ° 0 min 0,000 mm 0,5 UV-I 70 W/m² 6,5 °C 7,9 °C 6,4 km/h (2 Bft)
20.09.2017 09:43 7,9 °C 7,9 °C 91 % 1021,5 hPa 0,0 mm 4,2 km/h (1 Bft) W 259 ° 0 min 0,000 mm 0,5 UV-I 72 W/m² 6,5 °C 7,9 °C 9,7 km/h (2 Bft)
20.09.2017 09:44 7,9 °C 7,9 °C 90 % 1021,5 hPa 0,0 mm 2,3 km/h (1 Bft) W 259 ° 0 min 0,000 mm 0,5 UV-I 76 W/m² 6,4 °C 7,9 °C 4,8 km/h (1 Bft)
20.09.2017 09:45 7,8 °C 7,9 °C 90 % 1021,6 hPa 0,0 mm 2,9 km/h (1 Bft) W 275 ° 0 min 0,000 mm 0,5 UV-I 76 W/m² 6,3 °C 7,8 °C 4,8 km/h (1 Bft)
20.09.2017 09:46 7,9 °C 7,9 °C 90 % 1021,5 hPa 0,0 mm 7,1 km/h (2 Bft) W-NW 302 ° 0 min 0,000 mm 0,5 UV-I 74 W/m² 6,4 °C 6,8 °C 11,3 km/h (2 Bft)
20.09.2017 09:47 7,8 °C 7,9 °C 90 % 1021,5 hPa 0,0 mm 7,8 km/h (2 Bft) W 263 ° 0 min 0,000 mm 0,5 UV-I 72 W/m² 6,3 °C 6,5 °C 12,9 km/h (3 Bft)
20.09.2017 09:48 7,9 °C 7,9 °C 90 % 1021,5 hPa 0,0 mm 2,4 km/h (1 Bft) W 265 ° 0 min 0,000 mm 0,5 UV-I 72 W/m² 6,4 °C 7,9 °C 3,2 km/h (1 Bft)
20.09.2017 09:49 7,8 °C 7,9 °C 90 % 1021,5 hPa 0,0 mm 3,2 km/h (1 Bft) W 263 ° 0 min 0,000 mm 0,5 UV-I 72 W/m² 6,3 °C 7,8 °C 4,8 km/h (1 Bft)
20.09.2017 09:50 7,8 °C 7,9 °C 90 % 1021,6 hPa 0,0 mm 1,5 km/h (1 Bft) W 263 ° 0 min 0,000 mm 0,5 UV-I 76 W/m² 6,3 °C 7,8 °C 1,6 km/h (1 Bft)
20.09.2017 09:51 7,9 °C 7,9 °C 90 % 1021,5 hPa 0,0 mm 1,1 km/h (1 Bft) W 263 ° 0 min 0,000 mm 0,6 UV-I 79 W/m² 6,4 °C 7,9 °C 3,2 km/h (1 Bft)
20.09.2017 09:52 7,9 °C 7,9 °C 90 % 1021,5 hPa 0,0 mm 4,4 km/h (1 Bft) W 272 ° 0 min 0,000 mm 0,6 UV-I 83 W/m² 6,4 °C 7,9 °C 6,4 km/h (2 Bft)
20.09.2017 09:53 7,9 °C 7,9 °C 90 % 1021,5 hPa 0,0 mm 8,8 km/h (2 Bft) W-NW 294 ° 0 min 0,000 mm 0,6 UV-I 84 W/m² 6,4 °C 6,4 °C 12,9 km/h (3 Bft)
20.09.2017 09:54 7,9 °C 7,9 °C 90 % 1021,5 hPa 0,0 mm 5,1 km/h (1 Bft) W 267 ° 0 min 0,000 mm 0,6 UV-I 86 W/m² 6,4 °C 7,3 °C 9,7 km/h (2 Bft)
20.09.2017 09:55 7,9 °C 7,9 °C 90 % 1021,5 hPa 0,0 mm 2,2 km/h (1 Bft) W 263 ° 0 min 0,000 mm 0,6 UV-I 86 W/m² 6,4 °C 7,9 °C 4,8 km/h (1 Bft)
20.09.2017 09:56 7,9 °C 7,9 °C 90 % 1021,5 hPa 0,0 mm 2,4 km/h (1 Bft) W 263 ° 0 min 0,000 mm 0,6 UV-I 90 W/m² 6,4 °C 7,9 °C 4,8 km/h (1 Bft)
20.09.2017 09:57 7,9 °C 7,9 °C 90 % 1021,5 hPa 0,0 mm 3,8 km/h (1 Bft) W 262 ° 0 min 0,000 mm 0,7 UV-I 95 W/m² 6,4 °C 7,9 °C 6,4 km/h (2 Bft)
20.09.2017 09:58 7,9 °C 7,9 °C 90 % 1021,5 hPa 0,0 mm 3,8 km/h (1 Bft) W 273 ° 0 min 0,000 mm 0,7 UV-I 100 W/m² 6,4 °C 7,9 °C 6,4 km/h (2 Bft)
20.09.2017 09:59 7,9 °C 7,9 °C 90 % 1021,4 hPa 0,0 mm 4,0 km/h (1 Bft) W 259 ° 0 min 0,000 mm 0,7 UV-I 105 W/m² 6,4 °C 7,9 °C 6,4 km/h (2 Bft)
20.09.2017 10:00 7,9 °C 7,9 °C 90 % 1021,5 hPa 0,0 mm 2,1 km/h (1 Bft) W 259 ° 0 min 0,000 mm 0,8 UV-I 105 W/m² 6,4 °C 7,9 °C 3,2 km/h (1 Bft)
20.09.2017 10:01 8,0 °C 8,0 °C 90 % 1021,5 hPa 0,0 mm 7,3 km/h (2 Bft) W-SW 257 ° 0 min 0,051 mm 0,8 UV-I 109 W/m² 6,5 °C 6,8 °C 9,7 km/h (2 Bft)
20.09.2017 10:02 8,0 °C 8,0 °C 90 % 1021,5 hPa 0,0 mm 2,3 km/h (1 Bft) W 278 ° 0 min 0,000 mm 0,8 UV-I 113 W/m² 6,5 °C 8,0 °C 8,0 km/h (2 Bft)
20.09.2017 10:03 8,1 °C 8,1 °C 90 % 1021,4 hPa 0,0 mm 0,2 km/h (0 Bft) W 278 ° 0 min 0,000 mm 0,8 UV-I 114 W/m² 6,6 °C 8,1 °C 1,6 km/h (1 Bft)
20.09.2017 10:04 8,0 °C 8,1 °C 90 % 1021,4 hPa 0,0 mm 0,9 km/h (0 Bft) W 278 ° 0 min 0,000 mm 0,8 UV-I 118 W/m² 6,5 °C 8,0 °C 3,2 km/h (1 Bft)
20.09.2017 10:05 8,1 °C 8,1 °C 90 % 1021,5 hPa 0,0 mm 5,3 km/h (1 Bft) W-SW 254 ° 0 min 0,000 mm 0,9 UV-I 120 W/m² 6,6 °C 7,5 °C 9,7 km/h (2 Bft)
20.09.2017 10:06 8,1 °C 8,1 °C 91 % 1021,5 hPa 0,0 mm 3,9 km/h (1 Bft) W 269 ° 0 min 0,000 mm 0,9 UV-I 120 W/m² 6,7 °C 8,1 °C 8,0 km/h (2 Bft)
20.09.2017 10:07 8,1 °C 8,1 °C 90 % 1021,4 hPa 0,0 mm 1,7 km/h (1 Bft) W 261 ° 0 min 0,000 mm 0,9 UV-I 123 W/m² 6,6 °C 8,1 °C 4,8 km/h (1 Bft)
20.09.2017 10:08 8,1 °C 8,1 °C 90 % 1021,4 hPa 0,0 mm 3,4 km/h (1 Bft) W 279 ° 0 min 0,000 mm 0,9 UV-I 128 W/m² 6,6 °C 8,1 °C 6,4 km/h (2 Bft)
20.09.2017 10:09 8,2 °C 8,2 °C 91 % 1021,4 hPa 0,0 mm 3,8 km/h (1 Bft) W 265 ° 0 min 0,000 mm 0,9 UV-I 130 W/m² 6,8 °C 8,2 °C 6,4 km/h (2 Bft)
20.09.2017 10:10 8,2 °C 8,2 °C 91 % 1021,4 hPa 0,0 mm 3,3 km/h (1 Bft) NW 306 ° 0 min 0,000 mm 0,9 UV-I 134 W/m² 6,8 °C 8,2 °C 6,4 km/h (2 Bft)
20.09.2017 10:11 8,2 °C 8,2 °C 90 % 1021,4 hPa 0,0 mm 2,1 km/h (1 Bft) NW 306 ° 0 min 0,000 mm 1,0 UV-I 137 W/m² 6,7 °C 8,2 °C 4,8 km/h (1 Bft)
20.09.2017 10:12 8,2 °C 8,2 °C 90 % 1021,4 hPa 0,0 mm 6,0 km/h (2 Bft) W-NW 284 ° 0 min 0,000 mm 1,0 UV-I 139 W/m² 6,7 °C 7,4 °C 11,3 km/h (2 Bft)
20.09.2017 10:13 8,2 °C 8,2 °C 90 % 1021,4 hPa 0,0 mm 8,3 km/h (2 Bft) W 273 ° 0 min 0,000 mm 1,0 UV-I 132 W/m² 6,7 °C 6,8 °C 12,9 km/h (3 Bft)
20.09.2017 10:14 8,2 °C 8,3 °C 90 % 1021,4 hPa 0,0 mm 7,8 km/h (2 Bft) W-SW 246 ° 0 min 0,000 mm 0,9 UV-I 123 W/m² 6,7 °C 6,9 °C 11,3 km/h (2 Bft)
20.09.2017 10:15 8,2 °C 8,2 °C 90 % 1021,4 hPa 0,0 mm 5,6 km/h (1 Bft) W 263 ° 0 min 0,000 mm 0,8 UV-I 114 W/m² 6,7 °C 7,5 °C 9,7 km/h (2 Bft)
20.09.2017 10:16 8,3 °C 8,3 °C 90 % 1021,4 hPa 0,0 mm 4,4 km/h (1 Bft) W 269 ° 0 min 0,000 mm 0,8 UV-I 109 W/m² 6,8 °C 8,3 °C 6,4 km/h (2 Bft)
20.09.2017 10:17 8,3 °C 8,3 °C 90 % 1021,4 hPa 0,0 mm 3,4 km/h (1 Bft) W 275 ° 0 min 0,000 mm 0,7 UV-I 105 W/m² 6,8 °C 8,3 °C 4,8 km/h (1 Bft)
20.09.2017 10:18 8,2 °C 8,3 °C 90 % 1021,4 hPa 0,0 mm 5,0 km/h (1 Bft) W 271 ° 0 min 0,000 mm 0,7 UV-I 100 W/m² 6,7 °C 7,7 °C 6,4 km/h (2 Bft)
20.09.2017 10:19 8,3 °C 8,3 °C 90 % 1021,4 hPa 0,0 mm 4,5 km/h (1 Bft) W 264 ° 0 min 0,000 mm 0,7 UV-I 97 W/m² 6,8 °C 8,3 °C 9,7 km/h (2 Bft)
20.09.2017 10:20 8,2 °C 8,3 °C 90 % 1021,4 hPa 0,0 mm 4,2 km/h (1 Bft) W-NW 286 ° 0 min 0,000 mm 0,7 UV-I 104 W/m² 6,7 °C 8,2 °C 8,0 km/h (2 Bft)
20.09.2017 10:21 8,2 °C 8,2 °C 90 % 1021,4 hPa 0,0 mm 4,2 km/h (1 Bft) W 281 ° 0 min 0,000 mm 0,8 UV-I 109 W/m² 6,7 °C 8,2 °C 6,4 km/h (2 Bft)
20.09.2017 10:22 8,2 °C 8,2 °C 90 % 1021,4 hPa 0,0 mm 3,1 km/h (1 Bft) W 271 ° 0 min 0,000 mm 0,8 UV-I 113 W/m² 6,7 °C 8,2 °C 4,8 km/h (1 Bft)
20.09.2017 10:23 8,2 °C 8,2 °C 89 % 1021,4 hPa 0,0 mm 6,6 km/h (2 Bft) W-SW 256 ° 0 min 0,000 mm 0,8 UV-I 116 W/m² 6,5 °C 7,2 °C 11,3 km/h (2 Bft)
20.09.2017 10:24 8,2 °C 8,2 °C 89 % 1021,4 hPa 0,0 mm 6,8 km/h (2 Bft) W 265 ° 0 min 0,000 mm 0,8 UV-I 116 W/m² 6,5 °C 7,2 °C 9,7 km/h (2 Bft)
20.09.2017 10:25 8,2 °C 8,2 °C 90 % 1021,4 hPa 0,0 mm 4,9 km/h (1 Bft) W 263 ° 0 min 0,000 mm 0,9 UV-I 125 W/m² 6,7 °C 7,7 °C 9,7 km/h (2 Bft)
20.09.2017 10:26 8,2 °C 8,2 °C 90 % 1021,4 hPa 0,0 mm 3,0 km/h (1 Bft) W-NW 283 ° 0 min 0,000 mm 0,9 UV-I 130 W/m² 6,7 °C 8,2 °C 4,8 km/h (1 Bft)
20.09.2017 10:27 8,2 °C 8,3 °C 90 % 1021,4 hPa 0,0 mm 4,0 km/h (1 Bft) W 281 ° 0 min 0,000 mm 1,0 UV-I 137 W/m² 6,7 °C 8,2 °C 8,0 km/h (2 Bft)
20.09.2017 10:28 8,3 °C 8,3 °C 90 % 1021,4 hPa 0,0 mm 7,3 km/h (2 Bft) W 261 ° 0 min 0,000 mm 1,1 UV-I 146 W/m² 6,8 °C 7,2 °C 11,3 km/h (2 Bft)
20.09.2017 10:29 8,3 °C 8,3 °C 90 % 1021,4 hPa 0,0 mm 4,5 km/h (1 Bft) W-NW 286 ° 0 min 0,000 mm 1,1 UV-I 153 W/m² 6,8 °C 8,3 °C 6,4 km/h (2 Bft)
20.09.2017 10:30 8,3 °C 8,3 °C 90 % 1021,3 hPa 0,0 mm 7,0 km/h (2 Bft) W 279 ° 0 min 0,000 mm 1,2 UV-I 158 W/m² 6,8 °C 7,2 °C 11,3 km/h (2 Bft)
20.09.2017 10:31 8,3 °C 8,3 °C 90 % 1021,4 hPa 0,0 mm 5,0 km/h (1 Bft) W 277 ° 0 min 0,000 mm 1,2 UV-I 160 W/m² 6,8 °C 7,8 °C 6,4 km/h (2 Bft)
20.09.2017 10:32 8,4 °C 8,4 °C 90 % 1021,4 hPa 0,0 mm 4,8 km/h (1 Bft) W-NW 300 ° 0 min 0,000 mm 1,2 UV-I 156 W/m² 6,9 °C 8,0 °C 8,0 km/h (2 Bft)
20.09.2017 10:33 8,4 °C 8,4 °C 90 % 1021,4 hPa 0,0 mm 4,9 km/h (1 Bft) W-NW 301 ° 0 min 0,000 mm 1,1 UV-I 149 W/m² 6,9 °C 8,0 °C 9,7 km/h (2 Bft)
20.09.2017 10:34 8,4 °C 8,4 °C 90 % 1021,4 hPa 0,0 mm 6,6 km/h (2 Bft) W-NW 297 ° 0 min 0,000 mm 1,0 UV-I 137 W/m² 6,9 °C 7,5 °C 11,3 km/h (2 Bft)
20.09.2017 10:35 8,4 °C 8,4 °C 89 % 1021,4 hPa 0,0 mm 4,1 km/h (1 Bft) W-NW 303 ° 0 min 0,000 mm 0,9 UV-I 120 W/m² 6,7 °C 8,4 °C 6,4 km/h (2 Bft)
20.09.2017 10:36 8,4 °C 8,4 °C 89 % 1021,4 hPa 0,0 mm 5,6 km/h (1 Bft) W 259 ° 0 min 0,000 mm 0,8 UV-I 105 W/m² 6,7 °C 7,7 °C 8,0 km/h (2 Bft)
20.09.2017 10:37 8,4 °C 8,4 °C 89 % 1021,4 hPa 0,0 mm 9,6 km/h (2 Bft) W 264 ° 0 min 0,000 mm 0,7 UV-I 91 W/m² 6,7 °C 6,8 °C 12,9 km/h (3 Bft)
20.09.2017 10:38 8,4 °C 8,4 °C 89 % 1021,4 hPa 0,0 mm 7,0 km/h (2 Bft) W-SW 242 ° 0 min 0,000 mm 0,6 UV-I 88 W/m² 6,7 °C 7,4 °C 12,9 km/h (3 Bft)
20.09.2017 10:39 8,4 °C 8,4 °C 89 % 1021,4 hPa 0,0 mm 5,9 km/h (2 Bft) W-NW 298 ° 0 min 0,000 mm 0,6 UV-I 88 W/m² 6,7 °C 7,7 °C 9,7 km/h (2 Bft)
20.09.2017 10:40 8,4 °C 8,4 °C 88 % 1021,4 hPa 0,0 mm 6,2 km/h (2 Bft) W 260 ° 0 min 0,000 mm 0,6 UV-I 88 W/m² 6,5 °C 7,6 °C 11,3 km/h (2 Bft)
20.09.2017 10:41 8,3 °C 8,4 °C 89 % 1021,4 hPa 0,0 mm 6,8 km/h (2 Bft) W-NW 297 ° 0 min 0,000 mm 0,7 UV-I 93 W/m² 6,6 °C 7,3 °C 12,9 km/h (3 Bft)
20.09.2017 10:42 8,3 °C 8,3 °C 89 % 1021,4 hPa 0,0 mm 3,2 km/h (1 Bft) W 273 ° 0 min 0,000 mm 0,7 UV-I 100 W/m² 6,6 °C 8,3 °C 6,4 km/h (2 Bft)
20.09.2017 10:43 8,3 °C 8,3 °C 89 % 1021,4 hPa 0,0 mm 5,0 km/h (1 Bft) W 260 ° 0 min 0,000 mm 0,8 UV-I 120 W/m² 6,6 °C 7,8 °C 11,3 km/h (2 Bft)
20.09.2017 10:44 8,3 °C 8,3 °C 89 % 1021,4 hPa 0,0 mm 5,6 km/h (1 Bft) W 281 ° 0 min 0,000 mm 0,9 UV-I 128 W/m² 6,6 °C 7,6 °C 6,4 km/h (2 Bft)
20.09.2017 10:45 8,3 °C 8,4 °C 89 % 1021,4 hPa 0,0 mm 7,1 km/h (2 Bft) W-SW 257 ° 0 min 0,000 mm 1,0 UV-I 139 W/m² 6,6 °C 7,2 °C 16,1 km/h (3 Bft)
20.09.2017 10:46 8,3 °C 8,3 °C 89 % 1021,4 hPa 0,0 mm 9,6 km/h (2 Bft) W-NW 296 ° 0 min 0,000 mm 1,1 UV-I 151 W/m² 6,6 °C 6,7 °C 16,1 km/h (3 Bft)
20.09.2017 10:47 8,3 °C 8,3 °C 88 % 1021,5 hPa 0,0 mm 9,1 km/h (2 Bft) W 262 ° 0 min 0,000 mm 1,1 UV-I 155 W/m² 6,4 °C 6,8 °C 14,5 km/h (3 Bft)
20.09.2017 10:48 8,3 °C 8,3 °C 89 % 1021,4 hPa 0,0 mm 8,8 km/h (2 Bft) W-SW 237 ° 0 min 0,000 mm 1,1 UV-I 148 W/m² 6,6 °C 6,8 °C 12,9 km/h (3 Bft)
20.09.2017 10:49 8,3 °C 8,4 °C 89 % 1021,4 hPa 0,0 mm 9,4 km/h (2 Bft) W-NW 287 ° 0 min 0,000 mm 1,0 UV-I 123 W/m² 6,6 °C 6,7 °C 12,9 km/h (3 Bft)
20.09.2017 10:50 8,3 °C 8,4 °C 88 % 1021,5 hPa 0,0 mm 9,0 km/h (2 Bft) W-NW 284 ° 0 min 0,000 mm 0,8 UV-I 111 W/m² 6,4 °C 6,8 °C 11,3 km/h (2 Bft)
20.09.2017 10:51 8,4 °C 8,4 °C 88 % 1021,5 hPa 0,0 mm 7,2 km/h (2 Bft) W-SW 249 ° 0 min 0,000 mm 0,7 UV-I 104 W/m² 6,5 °C 7,3 °C 14,5 km/h (3 Bft)
20.09.2017 10:52 8,3 °C 8,4 °C 88 % 1021,5 hPa 0,0 mm 8,8 km/h (2 Bft) W 277 ° 0 min 0,000 mm 0,7 UV-I 97 W/m² 6,4 °C 6,8 °C 14,5 km/h (3 Bft)
20.09.2017 10:53 8,3 °C 8,3 °C 88 % 1021,5 hPa 0,0 mm 2,3 km/h (1 Bft) W 261 ° 0 min 0,000 mm 0,6 UV-I 91 W/m² 6,4 °C 8,3 °C 4,8 km/h (1 Bft)
20.09.2017 10:54 8,3 °C 8,3 °C 88 % 1021,4 hPa 0,0 mm 4,5 km/h (1 Bft) W-SW 253 ° 0 min 0,000 mm 0,6 UV-I 90 W/m² 6,4 °C 8,3 °C 8,0 km/h (2 Bft)
20.09.2017 10:55 8,3 °C 8,3 °C 88 % 1021,5 hPa 0,0 mm 5,2 km/h (1 Bft) W-SW 251 ° 0 min 0,000 mm 0,6 UV-I 95 W/m² 6,4 °C 7,8 °C 9,7 km/h (2 Bft)
20.09.2017 10:56 8,3 °C 8,3 °C 88 % 1021,5 hPa 0,0 mm 6,5 km/h (2 Bft) W 259 ° 0 min 0,000 mm 0,7 UV-I 102 W/m² 6,4 °C 7,4 °C 14,5 km/h (3 Bft)
20.09.2017 10:57 8,3 °C 8,3 °C 89 % 1021,5 hPa 0,0 mm 11,8 km/h (2 Bft) W-SW 257 ° 0 min 0,000 mm 0,8 UV-I 111 W/m² 6,6 °C 6,3 °C 16,1 km/h (3 Bft)
20.09.2017 10:58 8,3 °C 8,3 °C 88 % 1021,5 hPa 0,0 mm 11,3 km/h (2 Bft) SW 232 ° 0 min 0,000 mm 0,9 UV-I 125 W/m² 6,4 °C 6,4 °C 17,7 km/h (3 Bft)
20.09.2017 10:59 8,3 °C 8,3 °C 88 % 1021,4 hPa 0,0 mm 8,0 km/h (2 Bft) W 259 ° 0 min 0,000 mm 1,0 UV-I 135 W/m² 6,4 °C 7,0 °C 11,3 km/h (2 Bft)
20.09.2017 11:00 8,3 °C 8,3 °C 88 % 1021,5 hPa 0,0 mm 8,0 km/h (2 Bft) W 263 ° 0 min 0,000 mm 1,1 UV-I 144 W/m² 6,4 °C 7,0 °C 12,9 km/h (3 Bft)
20.09.2017 11:01 8,3 °C 8,3 °C 88 % 1021,5 hPa 0,0 mm 5,9 km/h (2 Bft) NW 312 ° 0 min 0,051 mm 1,1 UV-I 141 W/m² 6,4 °C 7,5 °C 8,0 km/h (2 Bft)
20.09.2017 11:02 8,3 °C 8,3 °C 88 % 1021,5 hPa 0,0 mm 4,2 km/h (1 Bft) S 182 ° 0 min 0,000 mm 1,1 UV-I 142 W/m² 6,4 °C 8,3 °C 6,4 km/h (2 Bft)
20.09.2017 11:03 8,3 °C 8,4 °C 88 % 1021,5 hPa 0,0 mm 8,7 km/h (2 Bft) W 264 ° 0 min 0,000 mm 1,1 UV-I 144 W/m² 6,4 °C 6,9 °C 14,5 km/h (3 Bft)
20.09.2017 11:04 8,4 °C 8,4 °C 88 % 1021,5 hPa 0,0 mm 8,9 km/h (2 Bft) SW 221 ° 0 min 0,000 mm 1,1 UV-I 146 W/m² 6,5 °C 6,9 °C 12,9 km/h (3 Bft)
20.09.2017 11:05 8,4 °C 8,4 °C 88 % 1021,5 hPa 0,0 mm 4,4 km/h (1 Bft) W 261 ° 0 min 0,000 mm 1,0 UV-I 141 W/m² 6,5 °C 8,4 °C 9,7 km/h (2 Bft)
20.09.2017 11:06 8,4 °C 8,4 °C 89 % 1021,5 hPa 0,0 mm 7,6 km/h (2 Bft) W-SW 254 ° 0 min 0,000 mm 1,0 UV-I 118 W/m² 6,7 °C 7,2 °C 9,7 km/h (2 Bft)
20.09.2017 11:07 8,4 °C 8,4 °C 89 % 1021,6 hPa 0,0 mm 4,8 km/h (1 Bft) W-SW 254 ° 0 min 0,000 mm 0,9 UV-I 105 W/m² 6,7 °C 8,0 °C 11,3 km/h (2 Bft)
20.09.2017 11:08 8,5 °C 8,5 °C 89 % 1021,6 hPa 0,0 mm 9,1 km/h (2 Bft) NW 309 ° 0 min 0,000 mm 0,7 UV-I 91 W/m² 6,8 °C 7,0 °C 12,9 km/h (3 Bft)
20.09.2017 11:09 8,4 °C 8,5 °C 89 % 1021,6 hPa 0,0 mm 7,0 km/h (2 Bft) W 268 ° 0 min 0,000 mm 0,6 UV-I 84 W/m² 6,7 °C 7,4 °C 11,3 km/h (2 Bft)
20.09.2017 11:10 8,4 °C 8,5 °C 89 % 1021,6 hPa 0,0 mm 6,2 km/h (2 Bft) W-SW 252 ° 0 min 0,000 mm 0,6 UV-I 79 W/m² 6,7 °C 7,6 °C 9,7 km/h (2 Bft)
20.09.2017 11:11 8,4 °C 8,4 °C 88 % 1021,6 hPa 0,0 mm 10,7 km/h (2 Bft) W 265 ° 0 min 0,000 mm 0,6 UV-I 81 W/m² 6,5 °C 6,6 °C 14,5 km/h (3 Bft)
20.09.2017 11:12 8,4 °C 8,4 °C 88 % 1021,6 hPa 0,0 mm 7,2 km/h (2 Bft) W 279 ° 0 min 0,000 mm 0,6 UV-I 88 W/m² 6,5 °C 7,3 °C 11,3 km/h (2 Bft)
20.09.2017 11:13 8,3 °C 8,4 °C 88 % 1021,6 hPa 0,0 mm 6,1 km/h (2 Bft) W 271 ° 0 min 0,000 mm 0,7 UV-I 91 W/m² 6,4 °C 7,5 °C 12,9 km/h (3 Bft)
20.09.2017 11:14 8,3 °C 8,3 °C 88 % 1021,7 hPa 0,0 mm 11,3 km/h (2 Bft) W 268 ° 0 min 0,000 mm 0,7 UV-I 91 W/m² 6,4 °C 6,4 °C 12,9 km/h (3 Bft)
20.09.2017 11:15 8,3 °C 8,3 °C 88 % 1021,7 hPa 0,0 mm 7,1 km/h (2 Bft) W 270 ° 0 min 0,000 mm 0,6 UV-I 90 W/m² 6,4 °C 7,2 °C 11,3 km/h (2 Bft)
20.09.2017 11:16 8,3 °C 8,3 °C 88 % 1021,7 hPa 0,0 mm 8,7 km/h (2 Bft) W-NW 290 ° 0 min 0,000 mm 0,6 UV-I 88 W/m² 6,4 °C 6,9 °C 14,5 km/h (3 Bft)
20.09.2017 11:17 8,2 °C 8,3 °C 88 % 1021,7 hPa 0,0 mm 10,1 km/h (2 Bft) W-SW 244 ° 0 min 0,000 mm 0,7 UV-I 90 W/m² 6,3 °C 6,5 °C 16,1 km/h (3 Bft)
20.09.2017 11:18 8,2 °C 8,3 °C 88 % 1021,7 hPa 0,0 mm 8,3 km/h (2 Bft) W-SW 250 ° 0 min 0,000 mm 0,7 UV-I 113 W/m² 6,3 °C 6,8 °C 11,3 km/h (2 Bft)
20.09.2017 11:19 8,2 °C 8,2 °C 89 % 1021,7 hPa 0,0 mm 4,4 km/h (1 Bft) NW 308 ° 0 min 0,000 mm 1,0 UV-I 128 W/m² 6,5 °C 8,2 °C 8,0 km/h (2 Bft)
20.09.2017 11:20 8,2 °C 8,2 °C 89 % 1021,8 hPa 0,0 mm 4,3 km/h (1 Bft) W 272 ° 0 min 0,000 mm 1,1 UV-I 142 W/m² 6,5 °C 8,2 °C 11,3 km/h (2 Bft)
20.09.2017 11:21 8,2 °C 8,2 °C 90 % 1021,7 hPa 0,0 mm 9,3 km/h (2 Bft) W-NW 292 ° 0 min 0,000 mm 1,2 UV-I 142 W/m² 6,7 °C 6,6 °C 16,1 km/h (3 Bft)
20.09.2017 11:22 8,2 °C 8,2 °C 89 % 1021,7 hPa 0,0 mm 10,7 km/h (2 Bft) W-NW 292 ° 0 min 0,000 mm 1,2 UV-I 142 W/m² 6,5 °C 6,4 °C 14,5 km/h (3 Bft)
20.09.2017 11:23 8,2 °C 8,2 °C 89 % 1021,7 hPa 0,0 mm 7,1 km/h (2 Bft) W 273 ° 0 min 0,000 mm 1,3 UV-I 163 W/m² 6,5 °C 7,1 °C 12,9 km/h (3 Bft)
20.09.2017 11:24 8,2 °C 8,2 °C 90 % 1021,7 hPa 0,0 mm 9,5 km/h (2 Bft) W-NW 289 ° 0 min 0,000 mm 1,3 UV-I 165 W/m² 6,7 °C 6,6 °C 14,5 km/h (3 Bft)
20.09.2017 11:25 8,2 °C 8,2 °C 90 % 1021,7 hPa 0,0 mm 12,3 km/h (3 Bft) W 264 ° 0 min 0,000 mm 1,3 UV-I 169 W/m² 6,7 °C 6,1 °C 16,1 km/h (3 Bft)
20.09.2017 11:26 8,2 °C 8,2 °C 90 % 1021,7 hPa 0,0 mm 7,7 km/h (2 Bft) W-NW 284 ° 0 min 0,000 mm 1,3 UV-I 171 W/m² 6,7 °C 7,0 °C 12,9 km/h (3 Bft)
20.09.2017 11:27 8,2 °C 8,2 °C 90 % 1021,7 hPa 0,0 mm 4,1 km/h (1 Bft) NW 312 ° 0 min 0,000 mm 1,3 UV-I 172 W/m² 6,7 °C 8,2 °C 6,4 km/h (2 Bft)
20.09.2017 11:28 8,2 °C 8,2 °C 90 % 1021,7 hPa 0,0 mm 2,9 km/h (1 Bft) W-NW 298 ° 0 min 0,000 mm 1,3 UV-I 172 W/m² 6,7 °C 8,2 °C 3,2 km/h (1 Bft)
20.09.2017 11:29 8,3 °C 8,3 °C 90 % 1021,7 hPa 0,0 mm 5,6 km/h (1 Bft) W-NW 294 ° 0 min 0,000 mm 1,3 UV-I 171 W/m² 6,8 °C 7,6 °C 11,3 km/h (2 Bft)
20.09.2017 11:30 8,3 °C 8,3 °C 90 % 1021,8 hPa 0,0 mm 8,9 km/h (2 Bft) W-SW 250 ° 0 min 0,000 mm 1,3 UV-I 160 W/m² 6,8 °C 6,8 °C 14,5 km/h (3 Bft)
20.09.2017 11:31 8,3 °C 8,3 °C 90 % 1021,8 hPa 0,0 mm 5,5 km/h (1 Bft) SW 236 ° 0 min 0,000 mm 1,2 UV-I 155 W/m² 6,8 °C 7,7 °C 9,7 km/h (2 Bft)
20.09.2017 11:32 8,3 °C 8,3 °C 90 % 1021,8 hPa 0,0 mm 5,4 km/h (1 Bft) SW 232 ° 0 min 0,000 mm 1,1 UV-I 146 W/m² 6,8 °C 7,7 °C 8,0 km/h (2 Bft)
20.09.2017 11:33 8,3 °C 8,3 °C 90 % 1021,7 hPa 0,0 mm 6,0 km/h (2 Bft) W-SW 256 ° 0 min 0,000 mm 1,2 UV-I 149 W/m² 6,8 °C 7,5 °C 14,5 km/h (3 Bft)
20.09.2017 11:34 8,3 °C 8,3 °C 90 % 1021,8 hPa 0,0 mm 9,9 km/h (2 Bft) W-SW 242 ° 0 min 0,000 mm 1,3 UV-I 167 W/m² 6,8 °C 6,6 °C 17,7 km/h (3 Bft)
20.09.2017 11:35 8,3 °C 8,3 °C 90 % 1021,8 hPa 0,0 mm 6,5 km/h (2 Bft) W 267 ° 0 min 0,000 mm 1,5 UV-I 186 W/m² 6,8 °C 7,4 °C 11,3 km/h (2 Bft)
20.09.2017 11:36 8,3 °C 8,3 °C 90 % 1021,8 hPa 0,0 mm 8,4 km/h (2 Bft) W 269 ° 0 min 0,000 mm 1,6 UV-I 206 W/m² 6,8 °C 6,9 °C 12,9 km/h (3 Bft)
20.09.2017 11:37 8,3 °C 8,3 °C 90 % 1021,8 hPa 0,0 mm 6,3 km/h (2 Bft) SW 224 ° 0 min 0,000 mm 1,7 UV-I 209 W/m² 6,8 °C 7,4 °C 12,9 km/h (3 Bft)
20.09.2017 11:38 8,4 °C 8,4 °C 90 % 1021,8 hPa 0,0 mm 8,3 km/h (2 Bft) W-NW 303 ° 0 min 0,000 mm 1,7 UV-I 213 W/m² 6,9 °C 7,1 °C 17,7 km/h (3 Bft)
20.09.2017 11:39 8,4 °C 8,4 °C 90 % 1021,8 hPa 0,0 mm 7,8 km/h (2 Bft) W-NW 290 ° 0 min 0,000 mm 1,7 UV-I 218 W/m² 6,9 °C 7,2 °C 12,9 km/h (3 Bft)
20.09.2017 11:40 8,4 °C 8,4 °C 90 % 1021,7 hPa 0,0 mm 4,4 km/h (1 Bft) W 263 ° 0 min 0,000 mm 1,8 UV-I 225 W/m² 6,9 °C 8,4 °C 6,4 km/h (2 Bft)
20.09.2017 11:41 8,4 °C 8,4 °C 90 % 1021,8 hPa 0,0 mm 10,9 km/h (2 Bft) W-SW 250 ° 0 min 0,000 mm 1,8 UV-I 234 W/m² 6,9 °C 6,6 °C 16,1 km/h (3 Bft)
20.09.2017 11:42 8,3 °C 8,4 °C 89 % 1021,7 hPa 0,0 mm 6,0 km/h (2 Bft) W 271 ° 0 min 0,000 mm 1,8 UV-I 234 W/m² 6,6 °C 7,5 °C 9,7 km/h (2 Bft)
20.09.2017 11:43 8,4 °C 8,4 °C 90 % 1021,8 hPa 0,0 mm 8,9 km/h (2 Bft) W 280 ° 0 min 0,000 mm 1,7 UV-I 230 W/m² 6,9 °C 6,9 °C 12,9 km/h (3 Bft)
20.09.2017 11:44 8,4 °C 8,4 °C 90 % 1021,8 hPa 0,0 mm 10,2 km/h (2 Bft) W 275 ° 0 min 0,000 mm 1,7 UV-I 225 W/m² 6,9 °C 6,7 °C 16,1 km/h (3 Bft)
20.09.2017 11:45 8,4 °C 8,4 °C 89 % 1021,8 hPa 0,0 mm 7,8 km/h (2 Bft) W 279 ° 0 min 0,000 mm 1,6 UV-I 218 W/m² 6,7 °C 7,2 °C 12,9 km/h (3 Bft)
20.09.2017 11:46 8,4 °C 8,4 °C 90 % 1021,8 hPa 0,0 mm 6,7 km/h (2 Bft) W 259 ° 0 min 0,000 mm 1,6 UV-I 213 W/m² 6,9 °C 7,4 °C 11,3 km/h (2 Bft)
20.09.2017 11:47 8,4 °C 8,4 °C 90 % 1021,8 hPa 0,0 mm 7,1 km/h (2 Bft) W 265 ° 0 min 0,000 mm 1,5 UV-I 199 W/m² 6,9 °C 7,3 °C 9,7 km/h (2 Bft)
20.09.2017 11:48 8,6 °C 8,6 °C 91 % 1021,8 hPa 0,0 mm 6,9 km/h (2 Bft) W-NW 300 ° 0 min 0,000 mm 1,4 UV-I 193 W/m² 7,2 °C 7,6 °C 12,9 km/h (3 Bft)
20.09.2017 11:49 8,6 °C 8,6 °C 90 % 1021,7 hPa 0,0 mm 5,3 km/h (1 Bft) W 261 ° 0 min 0,000 mm 1,4 UV-I 188 W/m² 7,1 °C 8,1 °C 8,0 km/h (2 Bft)
20.09.2017 11:50 8,6 °C 8,6 °C 90 % 1021,8 hPa 0,0 mm 7,0 km/h (2 Bft) W-SW 250 ° 0 min 0,000 mm 1,4 UV-I 183 W/m² 7,1 °C 7,6 °C 11,3 km/h (2 Bft)
20.09.2017 11:51 8,6 °C 8,6 °C 90 % 1021,8 hPa 0,0 mm 3,1 km/h (1 Bft) W-SW 250 ° 0 min 0,000 mm 1,3 UV-I 178 W/m² 7,1 °C 8,6 °C 6,4 km/h (2 Bft)
20.09.2017 11:52 8,6 °C 8,6 °C 90 % 1021,7 hPa 0,0 mm 3,6 km/h (1 Bft) W 281 ° 0 min 0,000 mm 1,3 UV-I 172 W/m² 7,1 °C 8,6 °C 9,7 km/h (2 Bft)
20.09.2017 11:53 8,6 °C 8,6 °C 90 % 1021,7 hPa 0,0 mm 1,5 km/h (1 Bft) W 281 ° 0 min 0,000 mm 1,3 UV-I 165 W/m² 7,1 °C 8,6 °C 3,2 km/h (1 Bft)
20.09.2017 11:54 8,6 °C 8,6 °C 90 % 1021,7 hPa 0,0 mm 6,6 km/h (2 Bft) NW 305 ° 0 min 0,000 mm 1,2 UV-I 162 W/m² 7,1 °C 7,7 °C 11,3 km/h (2 Bft)
20.09.2017 11:55 8,6 °C 8,6 °C 90 % 1021,7 hPa 0,0 mm 5,6 km/h (1 Bft) W 275 ° 0 min 0,000 mm 1,2 UV-I 158 W/m² 7,1 °C 8,0 °C 9,7 km/h (2 Bft)
20.09.2017 11:56 8,6 °C 8,6 °C 90 % 1021,7 hPa 0,0 mm 6,0 km/h (2 Bft) W-NW 303 ° 0 min 0,000 mm 1,2 UV-I 155 W/m² 7,1 °C 7,9 °C 8,0 km/h (2 Bft)
20.09.2017 11:57 8,6 °C 8,6 °C 90 % 1021,7 hPa 0,0 mm 1,5 km/h (1 Bft) W-NW 303 ° 0 min 0,000 mm 1,1 UV-I 153 W/m² 7,1 °C 8,6 °C 3,2 km/h (1 Bft)
20.09.2017 11:58 8,7 °C 8,7 °C 90 % 1021,8 hPa 0,0 mm 3,2 km/h (1 Bft) W-SW 243 ° 0 min 0,000 mm 1,1 UV-I 151 W/m² 7,2 °C 8,7 °C 4,8 km/h (1 Bft)
20.09.2017 11:59 8,7 °C 8,7 °C 90 % 1021,8 hPa 0,0 mm 6,8 km/h (2 Bft) W 275 ° 0 min 0,000 mm 1,1 UV-I 151 W/m² 7,2 °C 7,8 °C 12,9 km/h (3 Bft)
20.09.2017 12:00 8,6 °C 8,7 °C 89 % 1021,7 hPa 0,0 mm 6,9 km/h (2 Bft) W-NW 286 ° 0 min 0,000 mm 1,1 UV-I 153 W/m² 6,9 °C 7,6 °C 12,9 km/h (3 Bft)
20.09.2017 12:01 8,6 °C 8,6 °C 89 % 1021,7 hPa 0,0 mm 4,1 km/h (1 Bft) W 268 ° 0 min 0,076 mm 1,1 UV-I 153 W/m² 6,9 °C 8,6 °C 6,4 km/h (2 Bft)
20.09.2017 12:02 8,6 °C 8,6 °C 89 % 1021,8 hPa 0,0 mm 3,7 km/h (1 Bft) W-NW 298 ° 0 min 0,000 mm 1,1 UV-I 153 W/m² 6,9 °C 8,6 °C 11,3 km/h (2 Bft)
20.09.2017 12:03 8,6 °C 8,6 °C 89 % 1021,8 hPa 0,0 mm 5,1 km/h (1 Bft) W-SW 249 ° 0 min 0,000 mm 1,1 UV-I 155 W/m² 6,9 °C 8,1 °C 8,0 km/h (2 Bft)
20.09.2017 12:04 8,6 °C 8,6 °C 89 % 1021,8 hPa 0,0 mm 6,2 km/h (2 Bft) W-SW 254 ° 0 min 0,000 mm 1,2 UV-I 155 W/m² 6,9 °C 7,8 °C 11,3 km/h (2 Bft)
20.09.2017 12:05 8,6 °C 8,6 °C 88 % 1021,8 hPa 0,0 mm 6,5 km/h (2 Bft) NW 304 ° 0 min 0,000 mm 1,2 UV-I 160 W/m² 6,7 °C 7,7 °C 11,3 km/h (2 Bft)
20.09.2017 12:06 8,6 °C 8,6 °C 88 % 1021,8 hPa 0,0 mm 7,8 km/h (2 Bft) W-SW 246 ° 0 min 0,000 mm 1,2 UV-I 163 W/m² 6,7 °C 7,4 °C 11,3 km/h (2 Bft)
20.09.2017 12:07 8,6 °C 8,6 °C 88 % 1021,8 hPa 0,0 mm 7,9 km/h (2 Bft) W 259 ° 0 min 0,000 mm 1,2 UV-I 169 W/m² 6,7 °C 7,4 °C 11,3 km/h (2 Bft)
20.09.2017 12:08 8,6 °C 8,6 °C 88 % 1021,8 hPa 0,0 mm 12,2 km/h (2 Bft) W 269 ° 0 min 0,000 mm 1,3 UV-I 174 W/m² 6,7 °C 6,6 °C 17,7 km/h (3 Bft)
20.09.2017 12:09 8,6 °C 8,6 °C 88 % 1021,7 hPa 0,0 mm 6,6 km/h (2 Bft) NW 315 ° 0 min 0,000 mm 1,3 UV-I 179 W/m² 6,7 °C 7,7 °C 12,9 km/h (3 Bft)
20.09.2017 12:10 8,6 °C 8,6 °C 89 % 1021,7 hPa 0,0 mm 4,4 km/h (1 Bft) W 276 ° 0 min 0,000 mm 1,4 UV-I 186 W/m² 6,9 °C 8,6 °C 6,4 km/h (2 Bft)
20.09.2017 12:11 8,7 °C 8,7 °C 89 % 1021,8 hPa 0,0 mm 10,3 km/h (2 Bft) W 271 ° 0 min 0,000 mm 1,4 UV-I 199 W/m² 7,0 °C 7,0 °C 17,7 km/h (3 Bft)
20.09.2017 12:12 8,7 °C 8,7 °C 89 % 1021,8 hPa 0,0 mm 9,7 km/h (2 Bft) W-NW 300 ° 0 min 0,000 mm 1,5 UV-I 204 W/m² 7,0 °C 7,1 °C 12,9 km/h (3 Bft)
20.09.2017 12:13 8,7 °C 8,7 °C 88 % 1021,7 hPa 0,0 mm 4,4 km/h (1 Bft) W-NW 290 ° 0 min 0,000 mm 1,6 UV-I 209 W/m² 6,8 °C 8,7 °C 11,3 km/h (2 Bft)
20.09.2017 12:14 8,7 °C 8,7 °C 89 % 1021,8 hPa 0,0 mm 7,7 km/h (2 Bft) W-NW 284 ° 0 min 0,000 mm 1,6 UV-I 209 W/m² 7,0 °C 7,5 °C 12,9 km/h (3 Bft)
20.09.2017 12:15 8,7 °C 8,8 °C 88 % 1021,8 hPa 0,0 mm 2,6 km/h (1 Bft) NW 318 ° 0 min 0,000 mm 1,7 UV-I 218 W/m² 6,8 °C 8,7 °C 6,4 km/h (2 Bft)
20.09.2017 12:16 8,8 °C 8,8 °C 87 % 1021,8 hPa 0,0 mm 6,2 km/h (2 Bft) W-SW 238 ° 0 min 0,000 mm 1,7 UV-I 223 W/m² 6,8 °C 8,0 °C 16,1 km/h (3 Bft)
20.09.2017 12:17 8,8 °C 8,8 °C 88 % 1021,7 hPa 0,0 mm 5,4 km/h (1 Bft) S-SW 212 ° 0 min 0,000 mm 1,7 UV-I 230 W/m² 6,9 °C 8,3 °C 9,7 km/h (2 Bft)
20.09.2017 12:18 8,8 °C 8,8 °C 87 % 1021,8 hPa 0,0 mm 8,0 km/h (2 Bft) W 277 ° 0 min 0,000 mm 1,8 UV-I 234 W/m² 6,8 °C 7,6 °C 12,9 km/h (3 Bft)
20.09.2017 12:19 8,8 °C 8,8 °C 87 % 1021,8 hPa 0,0 mm 12,0 km/h (2 Bft) W 259 ° 0 min 0,000 mm 1,8 UV-I 236 W/m² 6,8 °C 6,9 °C 17,7 km/h (3 Bft)
20.09.2017 12:20 8,8 °C 8,8 °C 88 % 1021,8 hPa 0,0 mm 9,3 km/h (2 Bft) W 271 ° 0 min 0,000 mm 1,8 UV-I 237 W/m² 6,9 °C 7,3 °C 14,5 km/h (3 Bft)
20.09.2017 12:21 8,8 °C 8,8 °C 87 % 1021,8 hPa 0,0 mm 6,2 km/h (2 Bft) SW 226 ° 0 min 0,000 mm 1,8 UV-I 237 W/m² 6,8 °C 8,0 °C 11,3 km/h (2 Bft)
20.09.2017 12:22 8,8 °C 8,8 °C 88 % 1021,8 hPa 0,0 mm 9,7 km/h (2 Bft) W 259 ° 0 min 0,000 mm 1,8 UV-I 241 W/m² 6,9 °C 7,3 °C 16,1 km/h (3 Bft)
20.09.2017 12:23 8,8 °C 8,9 °C 88 % 1021,8 hPa 0,0 mm 9,2 km/h (2 Bft) W-SW 250 ° 0 min 0,000 mm 1,8 UV-I 243 W/m² 6,9 °C 7,3 °C 12,9 km/h (3 Bft)
20.09.2017 12:24 8,9 °C 8,9 °C 89 % 1021,8 hPa 0,0 mm 10,2 km/h (2 Bft) W 271 ° 0 min 0,000 mm 1,8 UV-I 243 W/m² 7,2 °C 7,3 °C 17,7 km/h (3 Bft)
20.09.2017 12:25 9,0 °C 9,0 °C 88 % 1021,8 hPa 0,0 mm 12,3 km/h (3 Bft) W 270 ° 0 min 0,000 mm 1,8 UV-I 243 W/m² 7,1 °C 7,1 °C 19,3 km/h (3 Bft)
20.09.2017 12:26 8,9 °C 9,0 °C 87 % 1021,8 hPa 0,0 mm 8,5 km/h (2 Bft) SW 218 ° 0 min 0,000 mm 1,9 UV-I 243 W/m² 6,9 °C 7,6 °C 14,5 km/h (3 Bft)
20.09.2017 12:27 8,9 °C 9,0 °C 87 % 1021,8 hPa 0,0 mm 9,1 km/h (2 Bft) W 271 ° 0 min 0,000 mm 1,8 UV-I 243 W/m² 6,9 °C 7,5 °C 16,1 km/h (3 Bft)
20.09.2017 12:28 8,9 °C 9,0 °C 87 % 1021,8 hPa 0,0 mm 13,4 km/h (3 Bft) W 264 ° 0 min 0,000 mm 1,8 UV-I 243 W/m² 6,9 °C 6,8 °C 16,1 km/h (3 Bft)
20.09.2017 12:29 8,9 °C 8,9 °C 87 % 1021,8 hPa 0,0 mm 9,0 km/h (2 Bft) W-SW 255 ° 0 min 0,000 mm 1,9 UV-I 244 W/m² 6,9 °C 7,5 °C 12,9 km/h (3 Bft)
20.09.2017 12:30 8,9 °C 8,9 °C 87 % 1021,7 hPa 0,0 mm 8,5 km/h (2 Bft) NW 304 ° 0 min 0,000 mm 1,9 UV-I 244 W/m² 6,9 °C 7,6 °C 11,3 km/h (2 Bft)
20.09.2017 12:31 8,9 °C 8,9 °C 87 % 1021,8 hPa 0,0 mm 12,2 km/h (2 Bft) W 265 ° 0 min 0,000 mm 1,9 UV-I 244 W/m² 6,9 °C 7,0 °C 17,7 km/h (3 Bft)
20.09.2017 12:32 8,9 °C 8,9 °C 88 % 1021,8 hPa 0,0 mm 8,6 km/h (2 Bft) W 273 ° 0 min 0,000 mm 1,9 UV-I 246 W/m² 7,0 °C 7,6 °C 14,5 km/h (3 Bft)
20.09.2017 12:33 8,9 °C 9,0 °C 87 % 1021,8 hPa 0,0 mm 8,8 km/h (2 Bft) W-NW 284 ° 0 min 0,000 mm 1,9 UV-I 246 W/m² 6,9 °C 7,5 °C 12,9 km/h (3 Bft)
20.09.2017 12:34 9,0 °C 9,0 °C 87 % 1021,8 hPa 0,0 mm 6,6 km/h (2 Bft) W 265 ° 0 min 0,000 mm 1,9 UV-I 244 W/m² 7,0 °C 8,2 °C 9,7 km/h (2 Bft)
20.09.2017 12:35 9,0 °C 9,1 °C 87 % 1021,8 hPa 0,0 mm 6,2 km/h (2 Bft) W 269 ° 0 min 0,000 mm 1,9 UV-I 244 W/m² 7,0 °C 8,3 °C 11,3 km/h (2 Bft)
20.09.2017 12:36 9,1 °C 9,1 °C 87 % 1021,8 hPa 0,0 mm 5,1 km/h (1 Bft) W-NW 284 ° 0 min 0,000 mm 1,9 UV-I 243 W/m² 7,1 °C 8,7 °C 6,4 km/h (2 Bft)
20.09.2017 12:37 9,1 °C 9,1 °C 87 % 1021,8 hPa 0,0 mm 4,9 km/h (1 Bft) W 259 ° 0 min 0,000 mm 1,9 UV-I 241 W/m² 7,1 °C 8,8 °C 6,4 km/h (2 Bft)
20.09.2017 12:38 9,1 °C 9,1 °C 87 % 1021,7 hPa 0,0 mm 4,4 km/h (1 Bft) W 277 ° 0 min 0,000 mm 1,8 UV-I 236 W/m² 7,1 °C 9,1 °C 9,7 km/h (2 Bft)
20.09.2017 12:39 9,1 °C 9,2 °C 87 % 1021,8 hPa 0,0 mm 4,6 km/h (1 Bft) W 264 ° 0 min 0,000 mm 1,8 UV-I 230 W/m² 7,1 °C 8,9 °C 11,3 km/h (2 Bft)
20.09.2017 12:40 9,1 °C 9,1 °C 85 % 1021,8 hPa 0,0 mm 3,7 km/h (1 Bft) W-NW 285 ° 0 min 0,000 mm 1,7 UV-I 220 W/m² 6,7 °C 9,1 °C 8,0 km/h (2 Bft)
20.09.2017 12:41 9,1 °C 9,1 °C 86 % 1021,8 hPa 0,0 mm 4,5 km/h (1 Bft) W 275 ° 0 min 0,000 mm 1,7 UV-I 214 W/m² 6,9 °C 9,1 °C 6,4 km/h (2 Bft)
20.09.2017 12:42 9,2 °C 9,2 °C 87 % 1021,8 hPa 0,0 mm 8,2 km/h (2 Bft) W 261 ° 0 min 0,000 mm 1,6 UV-I 211 W/m² 7,2 °C 8,0 °C 14,5 km/h (3 Bft)
20.09.2017 12:43 9,2 °C 9,2 °C 86 % 1021,8 hPa 0,0 mm 13,7 km/h (3 Bft) W-NW 282 ° 0 min 0,000 mm 1,6 UV-I 209 W/m² 7,0 °C 7,1 °C 17,7 km/h (3 Bft)
20.09.2017 12:44 9,1 °C 9,2 °C 86 % 1021,8 hPa 0,0 mm 8,9 km/h (2 Bft) W 263 ° 0 min 0,000 mm 1,6 UV-I 211 W/m² 6,9 °C 7,8 °C 14,5 km/h (3 Bft)
20.09.2017 12:45 9,1 °C 9,1 °C 86 % 1021,8 hPa 0,0 mm 7,0 km/h (2 Bft) W 280 ° 0 min 0,000 mm 1,6 UV-I 211 W/m² 6,9 °C 8,2 °C 11,3 km/h (2 Bft)
20.09.2017 12:46 9,1 °C 9,1 °C 85 % 1021,8 hPa 0,0 mm 8,9 km/h (2 Bft) W 267 ° 0 min 0,000 mm 1,7 UV-I 218 W/m² 6,7 °C 7,8 °C 16,1 km/h (3 Bft)
20.09.2017 12:47 9,0 °C 9,1 °C 86 % 1021,8 hPa 0,0 mm 7,4 km/h (2 Bft) W-NW 289 ° 0 min 0,000 mm 1,7 UV-I 221 W/m² 6,8 °C 8,0 °C 16,1 km/h (3 Bft)
20.09.2017 12:48 9,0 °C 9,0 °C 86 % 1021,8 hPa 0,0 mm 8,2 km/h (2 Bft) NW 315 ° 0 min 0,000 mm 1,8 UV-I 229 W/m² 6,8 °C 7,8 °C 11,3 km/h (2 Bft)
20.09.2017 12:49 9,0 °C 9,1 °C 86 % 1021,8 hPa 0,0 mm 7,2 km/h (2 Bft) W-SW 245 ° 0 min 0,000 mm 1,8 UV-I 236 W/m² 6,8 °C 8,0 °C 12,9 km/h (3 Bft)
20.09.2017 12:50 9,1 °C 9,1 °C 86 % 1021,7 hPa 0,0 mm 7,2 km/h (2 Bft) W-SW 250 ° 0 min 0,000 mm 1,9 UV-I 241 W/m² 6,9 °C 8,1 °C 12,9 km/h (3 Bft)
20.09.2017 12:51 9,1 °C 9,1 °C 87 % 1021,8 hPa 0,0 mm 7,0 km/h (2 Bft) W-NW 285 ° 0 min 0,000 mm 1,9 UV-I 243 W/m² 7,1 °C 8,2 °C 11,3 km/h (2 Bft)
20.09.2017 12:52 9,2 °C 9,2 °C 87 % 1021,7 hPa 0,0 mm 4,4 km/h (1 Bft) W 260 ° 0 min 0,000 mm 1,9 UV-I 244 W/m² 7,2 °C 9,2 °C 6,4 km/h (2 Bft)
20.09.2017 12:53 9,1 °C 9,2 °C 85 % 1021,7 hPa 0,0 mm 4,3 km/h (1 Bft) W-NW 295 ° 0 min 0,000 mm 1,9 UV-I 246 W/m² 6,7 °C 9,1 °C 11,3 km/h (2 Bft)
20.09.2017 12:54 9,2 °C 9,2 °C 86 % 1021,7 hPa 0,0 mm 8,0 km/h (2 Bft) W 273 ° 0 min 0,000 mm 1,9 UV-I 248 W/m² 7,0 °C 8,1 °C 11,3 km/h (2 Bft)
20.09.2017 12:55 9,2 °C 9,2 °C 86 % 1021,7 hPa 0,0 mm 6,8 km/h (2 Bft) W-NW 296 ° 0 min 0,000 mm 2,0 UV-I 251 W/m² 7,0 °C 8,3 °C 11,3 km/h (2 Bft)
20.09.2017 12:56 9,3 °C 9,3 °C 86 % 1021,7 hPa 0,0 mm 6,8 km/h (2 Bft) W-NW 283 ° 0 min 0,000 mm 2,0 UV-I 253 W/m² 7,1 °C 8,5 °C 11,3 km/h (2 Bft)
20.09.2017 12:57 9,3 °C 9,3 °C 85 % 1021,7 hPa 0,0 mm 10,6 km/h (2 Bft) W 265 ° 0 min 0,000 mm 2,0 UV-I 257 W/m² 6,9 °C 7,7 °C 16,1 km/h (3 Bft)
20.09.2017 12:58 9,2 °C 9,3 °C 84 % 1021,7 hPa 0,0 mm 10,4 km/h (2 Bft) W 276 ° 0 min 0,000 mm 2,0 UV-I 264 W/m² 6,6 °C 7,6 °C 14,5 km/h (3 Bft)
20.09.2017 12:59 9,2 °C 9,3 °C 83 % 1021,6 hPa 0,0 mm 6,6 km/h (2 Bft) W-NW 286 ° 0 min 0,000 mm 2,1 UV-I 269 W/m² 6,5 °C 8,4 °C 11,3 km/h (2 Bft)
20.09.2017 13:00 9,3 °C 9,3 °C 84 % 1021,7 hPa 0,0 mm 7,8 km/h (2 Bft) W-SW 257 ° 0 min 0,000 mm 2,1 UV-I 272 W/m² 6,7 °C 8,2 °C 14,5 km/h (3 Bft)
20.09.2017 13:01 9,3 °C 9,3 °C 84 % 1021,6 hPa 0,0 mm 10,7 km/h (2 Bft) W 259 ° 0 min 0,102 mm 2,2 UV-I 278 W/m² 6,7 °C 7,7 °C 16,1 km/h (3 Bft)
20.09.2017 13:02 9,3 °C 9,3 °C 86 % 1021,7 hPa 0,0 mm 8,5 km/h (2 Bft) W-NW 286 ° 0 min 0,000 mm 2,2 UV-I 281 W/m² 7,1 °C 8,1 °C 12,9 km/h (3 Bft)
20.09.2017 13:03 9,4 °C 9,4 °C 85 % 1021,7 hPa 0,0 mm 5,5 km/h (1 Bft) W 262 ° 0 min 0,000 mm 2,2 UV-I 288 W/m² 7,0 °C 8,9 °C 12,9 km/h (3 Bft)
20.09.2017 13:04 9,5 °C 9,5 °C 84 % 1021,7 hPa 0,0 mm 6,7 km/h (2 Bft) W-NW 282 ° 1 min 0,000 mm 2,2 UV-I 290 W/m² 6,9 °C 8,7 °C 12,9 km/h (3 Bft)
20.09.2017 13:05 9,6 °C 9,6 °C 84 % 1021,6 hPa 0,0 mm 7,5 km/h (2 Bft) W-SW 249 ° 1 min 0,000 mm 2,2 UV-I 292 W/m² 7,0 °C 8,6 °C 11,3 km/h (2 Bft)
20.09.2017 13:06 9,6 °C 9,6 °C 84 % 1021,6 hPa 0,0 mm 9,7 km/h (2 Bft) W-NW 298 ° 1 min 0,000 mm 2,2 UV-I 294 W/m² 7,0 °C 8,2 °C 14,5 km/h (3 Bft)
20.09.2017 13:07 9,6 °C 9,6 °C 85 % 1021,6 hPa 0,0 mm 6,4 km/h (2 Bft) SW 232 ° 1 min 0,000 mm 2,2 UV-I 292 W/m² 7,2 °C 8,9 °C 11,3 km/h (2 Bft)
20.09.2017 13:08 9,6 °C 9,6 °C 83 % 1021,6 hPa 0,0 mm 9,7 km/h (2 Bft) W-NW 290 ° 0 min 0,000 mm 2,2 UV-I 288 W/m² 6,9 °C 8,2 °C 16,1 km/h (3 Bft)
20.09.2017 13:09 9,6 °C 9,6 °C 82 % 1021,6 hPa 0,0 mm 6,9 km/h (2 Bft) W 269 ° 0 min 0,000 mm 2,1 UV-I 279 W/m² 6,7 °C 8,8 °C 11,3 km/h (2 Bft)
20.09.2017 13:10 9,6 °C 9,6 °C 84 % 1021,6 hPa 0,0 mm 11,3 km/h (2 Bft) W 261 ° 0 min 0,000 mm 2,1 UV-I 276 W/m² 7,0 °C 7,9 °C 16,1 km/h (3 Bft)
20.09.2017 13:11 9,6 °C 9,6 °C 83 % 1021,6 hPa 0,0 mm 10,4 km/h (2 Bft) W 259 ° 0 min 0,000 mm 2,1 UV-I 272 W/m² 6,9 °C 8,1 °C 16,1 km/h (3 Bft)
20.09.2017 13:12 9,6 °C 9,6 °C 83 % 1021,6 hPa 0,0 mm 5,1 km/h (1 Bft) W-SW 240 ° 0 min 0,000 mm 2,1 UV-I 272 W/m² 6,9 °C 9,3 °C 8,0 km/h (2 Bft)
20.09.2017 13:13 9,7 °C 9,7 °C 84 % 1021,6 hPa 0,0 mm 6,9 km/h (2 Bft) W 271 ° 0 min 0,000 mm 2,1 UV-I 274 W/m² 7,1 °C 8,9 °C 11,3 km/h (2 Bft)
20.09.2017 13:14 9,8 °C 9,8 °C 84 % 1021,6 hPa 0,0 mm 4,7 km/h (1 Bft) W-NW 292 ° 0 min 0,000 mm 2,1 UV-I 274 W/m² 7,2 °C 9,6 °C 8,0 km/h (2 Bft)
20.09.2017 13:15 9,8 °C 9,8 °C 83 % 1021,6 hPa 0,0 mm 8,8 km/h (2 Bft) W 269 ° 0 min 0,000 mm 2,1 UV-I 269 W/m² 7,1 °C 8,6 °C 12,9 km/h (3 Bft)
20.09.2017 13:16 9,7 °C 9,8 °C 83 % 1021,6 hPa 0,0 mm 10,2 km/h (2 Bft) W-NW 294 ° 0 min 0,000 mm 2,1 UV-I 269 W/m² 7,0 °C 8,2 °C 14,5 km/h (3 Bft)
20.09.2017 13:17 9,7 °C 9,8 °C 83 % 1021,6 hPa 0,0 mm 9,5 km/h (2 Bft) W 276 ° 0 min 0,000 mm 2,0 UV-I 253 W/m² 7,0 °C 8,4 °C 14,5 km/h (3 Bft)
20.09.2017 13:18 9,7 °C 9,7 °C 82 % 1021,6 hPa 0,0 mm 9,7 km/h (2 Bft) W-NW 298 ° 0 min 0,000 mm 2,0 UV-I 243 W/m² 6,8 °C 8,3 °C 16,1 km/h (3 Bft)
20.09.2017 13:19 9,6 °C 9,7 °C 82 % 1021,6 hPa 0,0 mm 9,8 km/h (2 Bft) W 279 ° 0 min 0,000 mm 2,0 UV-I 237 W/m² 6,7 °C 8,2 °C 14,5 km/h (3 Bft)
20.09.2017 13:20 9,5 °C 9,6 °C 83 % 1021,5 hPa 0,0 mm 6,3 km/h (2 Bft) W-NW 285 ° 0 min 0,000 mm 2,0 UV-I 237 W/m² 6,8 °C 8,8 °C 9,7 km/h (2 Bft)
20.09.2017 13:21 9,4 °C 9,6 °C 83 % 1021,5 hPa 0,0 mm 8,0 km/h (2 Bft) W 267 ° 0 min 0,000 mm 2,2 UV-I 267 W/m² 6,7 °C 8,3 °C 11,3 km/h (2 Bft)
20.09.2017 13:22 9,4 °C 9,4 °C 85 % 1021,5 hPa 0,0 mm 8,6 km/h (2 Bft) W-NW 288 ° 1 min 0,000 mm 2,6 UV-I 364 W/m² 7,0 °C 8,2 °C 16,1 km/h (3 Bft)
20.09.2017 13:23 9,5 °C 9,5 °C 85 % 1021,5 hPa 0,0 mm 11,1 km/h (2 Bft) SW 236 ° 1 min 0,000 mm 2,8 UV-I 392 W/m² 7,1 °C 7,8 °C 17,7 km/h (3 Bft)
20.09.2017 13:24 9,6 °C 9,6 °C 85 % 1021,5 hPa 0,0 mm 11,1 km/h (2 Bft) W 263 ° 1 min 0,000 mm 3,2 UV-I 434 W/m² 7,2 °C 8,0 °C 16,1 km/h (3 Bft)
20.09.2017 13:25 9,6 °C 9,6 °C 84 % 1021,5 hPa 0,0 mm 9,8 km/h (2 Bft) W 267 ° 1 min 0,000 mm 2,9 UV-I 355 W/m² 7,0 °C 8,2 °C 14,5 km/h (3 Bft)
20.09.2017 13:26 9,6 °C 9,6 °C 84 % 1021,5 hPa 0,0 mm 7,2 km/h (2 Bft) W 265 ° 1 min 0,000 mm 3,1 UV-I 385 W/m² 7,0 °C 8,7 °C 12,9 km/h (3 Bft)
20.09.2017 13:27 9,6 °C 9,6 °C 84 % 1021,5 hPa 0,0 mm 9,2 km/h (2 Bft) W-SW 240 ° 1 min 0,000 mm 3,3 UV-I 373 W/m² 7,0 °C 8,3 °C 16,1 km/h (3 Bft)
20.09.2017 13:28 9,7 °C 9,7 °C 84 % 1021,5 hPa 0,0 mm 14,1 km/h (3 Bft) W 263 ° 1 min 0,000 mm 3,1 UV-I 373 W/m² 7,1 °C 7,7 °C 25,7 km/h (4 Bft)
20.09.2017 13:29 9,7 °C 9,7 °C 84 % 1021,5 hPa 0,0 mm 7,8 km/h (2 Bft) W 268 ° 1 min 0,000 mm 3,1 UV-I 441 W/m² 7,1 °C 8,7 °C 12,9 km/h (3 Bft)
20.09.2017 13:30 9,7 °C 9,7 °C 83 % 1021,5 hPa 0,0 mm 13,3 km/h (3 Bft) W 277 ° 1 min 0,000 mm 2,7 UV-I 441 W/m² 7,0 °C 7,8 °C 19,3 km/h (3 Bft)
20.09.2017 13:31 9,6 °C 9,7 °C 82 % 1021,5 hPa 0,0 mm 9,7 km/h (2 Bft) W 261 ° 0 min 0,000 mm 2,7 UV-I 251 W/m² 6,7 °C 8,2 °C 16,1 km/h (3 Bft)
20.09.2017 13:32 9,4 °C 9,6 °C 82 % 1021,4 hPa 0,0 mm 6,5 km/h (2 Bft) W 259 ° 1 min 0,000 mm 3,2 UV-I 327 W/m² 6,5 °C 8,7 °C 11,3 km/h (2 Bft)
20.09.2017 13:33 9,4 °C 9,5 °C 83 % 1021,5 hPa 0,0 mm 9,1 km/h (2 Bft) W 278 ° 1 min 0,000 mm 3,6 UV-I 327 W/m² 6,7 °C 8,1 °C 16,1 km/h (3 Bft)
20.09.2017 13:34 9,6 °C 9,6 °C 83 % 1021,5 hPa 0,0 mm 9,6 km/h (2 Bft) W-NW 288 ° 1 min 0,000 mm 4,2 UV-I 728 W/m² 6,9 °C 8,2 °C 12,9 km/h (3 Bft)
20.09.2017 13:35 9,7 °C 9,7 °C 85 % 1021,5 hPa 0,0 mm 5,0 km/h (1 Bft) W-NW 285 ° 1 min 0,000 mm 4,5 UV-I 763 W/m² 7,3 °C 9,4 °C 6,4 km/h (2 Bft)
20.09.2017 13:36 9,9 °C 9,9 °C 84 % 1021,5 hPa 0,0 mm 7,6 km/h (2 Bft) W 259 ° 1 min 0,000 mm 4,5 UV-I 770 W/m² 7,3 °C 9,0 °C 14,5 km/h (3 Bft)
20.09.2017 13:37 10,1 °C 10,1 °C 84 % 1021,4 hPa 0,0 mm 12,4 km/h (3 Bft) W 269 ° 1 min 0,000 mm 4,4 UV-I 733 W/m² 7,5 °C 10,1 °C 19,3 km/h (3 Bft)
20.09.2017 13:38 10,3 °C 10,3 °C 85 % 1021,5 hPa 0,0 mm 8,4 km/h (2 Bft) W-NW 292 ° 1 min 0,000 mm 4,8 UV-I 733 W/m² 7,9 °C 10,3 °C 14,5 km/h (3 Bft)
20.09.2017 13:39 10,5 °C 10,5 °C 84 % 1021,5 hPa 0,0 mm 12,5 km/h (3 Bft) W 263 ° 1 min 0,000 mm 4,9 UV-I 960 W/m² 7,9 °C 10,5 °C 17,7 km/h (3 Bft)
20.09.2017 13:40 10,6 °C 10,6 °C 82 % 1021,5 hPa 0,0 mm 13,5 km/h (3 Bft) W-SW 255 ° 1 min 0,000 mm 3,3 UV-I 960 W/m² 7,7 °C 10,6 °C 22,5 km/h (4 Bft)
20.09.2017 13:41 10,6 °C 10,6 °C 80 % 1021,5 hPa 0,0 mm 9,5 km/h (2 Bft) W-SW 238 ° 1 min 0,000 mm 3,0 UV-I 387 W/m² 7,3 °C 10,6 °C 19,3 km/h (3 Bft)
20.09.2017 13:42 10,6 °C 10,6 °C 80 % 1021,5 hPa 0,0 mm 11,3 km/h (2 Bft) W-SW 252 ° 1 min 0,000 mm 2,9 UV-I 373 W/m² 7,3 °C 10,6 °C 17,7 km/h (3 Bft)
20.09.2017 13:43 10,6 °C 10,6 °C 81 % 1021,6 hPa 0,0 mm 11,9 km/h (2 Bft) W 270 ° 1 min 0,000 mm 2,8 UV-I 348 W/m² 7,5 °C 10,6 °C 19,3 km/h (3 Bft)
20.09.2017 13:44 10,4 °C 10,6 °C 80 % 1021,5 hPa 0,0 mm 9,1 km/h (2 Bft) W-NW 284 ° 1 min 0,000 mm 2,7 UV-I 322 W/m² 7,1 °C 10,4 °C 17,7 km/h (3 Bft)
20.09.2017 13:45 10,4 °C 10,4 °C 82 % 1021,6 hPa 0,0 mm 8,9 km/h (2 Bft) NW 310 ° 1 min 0,000 mm 2,5 UV-I 323 W/m² 7,5 °C 10,4 °C 12,9 km/h (3 Bft)
20.09.2017 13:46 10,3 °C 10,4 °C 80 % 1021,6 hPa 0,0 mm 11,4 km/h (2 Bft) W 261 ° 1 min 0,000 mm 2,4 UV-I 330 W/m² 7,0 °C 10,3 °C 16,1 km/h (3 Bft)
20.09.2017 13:47 10,3 °C 10,3 °C 81 % 1021,5 hPa 0,0 mm 3,4 km/h (1 Bft) W-NW 300 ° 1 min 0,000 mm 2,4 UV-I 336 W/m² 7,2 °C 10,3 °C 4,8 km/h (1 Bft)
20.09.2017 13:48 10,3 °C 10,3 °C 81 % 1021,5 hPa 0,0 mm 7,1 km/h (2 Bft) W-NW 288 ° 1 min 0,000 mm 2,3 UV-I 336 W/m² 7,2 °C 10,3 °C 12,9 km/h (3 Bft)
20.09.2017 13:49 10,3 °C 10,3 °C 80 % 1021,6 hPa 0,0 mm 12,7 km/h (3 Bft) W-NW 301 ° 1 min 0,000 mm 2,8 UV-I 397 W/m² 7,0 °C 10,3 °C 17,7 km/h (3 Bft)
20.09.2017 13:50 10,3 °C 10,3 °C 79 % 1021,5 hPa 0,0 mm 12,4 km/h (3 Bft) W-SW 244 ° 1 min 0,000 mm 2,4 UV-I 418 W/m² 6,8 °C 10,3 °C 17,7 km/h (3 Bft)
20.09.2017 13:51 10,2 °C 10,3 °C 80 % 1021,5 hPa 0,0 mm 6,9 km/h (2 Bft) W-SW 243 ° 1 min 0,000 mm 2,0 UV-I 294 W/m² 6,9 °C 10,2 °C 11,3 km/h (2 Bft)
20.09.2017 13:52 10,2 °C 10,2 °C 79 % 1021,5 hPa 0,0 mm 11,9 km/h (2 Bft) W 273 ° 1 min 0,000 mm 1,9 UV-I 294 W/m² 6,7 °C 10,2 °C 19,3 km/h (3 Bft)
20.09.2017 13:53 10,1 °C 10,2 °C 80 % 1021,5 hPa 0,0 mm 9,9 km/h (2 Bft) W-NW 290 ° 0 min 0,000 mm 1,6 UV-I 241 W/m² 6,8 °C 10,1 °C 14,5 km/h (3 Bft)
20.09.2017 13:54 10,1 °C 10,1 °C 81 % 1021,4 hPa 0,0 mm 8,5 km/h (2 Bft) W-SW 255 ° 0 min 0,000 mm 1,6 UV-I 237 W/m² 7,0 °C 10,1 °C 12,9 km/h (3 Bft)
20.09.2017 13:55 10,1 °C 10,1 °C 81 % 1021,5 hPa 0,0 mm 7,9 km/h (2 Bft) W 262 ° 0 min 0,000 mm 1,7 UV-I 244 W/m² 7,0 °C 10,1 °C 12,9 km/h (3 Bft)
20.09.2017 13:56 10,1 °C 10,1 °C 82 % 1021,5 hPa 0,0 mm 11,8 km/h (2 Bft) W-SW 245 ° 0 min 0,000 mm 1,8 UV-I 271 W/m² 7,2 °C 10,1 °C 17,7 km/h (3 Bft)
20.09.2017 13:57 10,1 °C 10,1 °C 81 % 1021,5 hPa 0,0 mm 7,5 km/h (2 Bft) W 265 ° 0 min 0,000 mm 1,9 UV-I 281 W/m² 7,0 °C 10,1 °C 12,9 km/h (3 Bft)
20.09.2017 13:58 10,1 °C 10,1 °C 81 % 1021,6 hPa 0,0 mm 12,8 km/h (3 Bft) W 278 ° 0 min 0,000 mm 1,9 UV-I 287 W/m² 7,0 °C 10,1 °C 19,3 km/h (3 Bft)
20.09.2017 13:59 10,1 °C 10,1 °C 80 % 1021,5 hPa 0,0 mm 8,2 km/h (2 Bft) W 270 ° 0 min 0,000 mm 1,8 UV-I 271 W/m² 6,8 °C 10,1 °C 16,1 km/h (3 Bft)
20.09.2017 14:00 10,1 °C 10,1 °C 81 % 1021,5 hPa 0,0 mm 13,0 km/h (3 Bft) W-NW 282 ° 0 min 0,178 mm 1,7 UV-I 253 W/m² 7,0 °C 10,1 °C 19,3 km/h (3 Bft)
20.09.2017 14:01 10,0 °C 10,1 °C 81 % 1021,5 hPa 0,0 mm 4,8 km/h (1 Bft) W-SW 250 ° 0 min 0,000 mm 1,7 UV-I 244 W/m² 6,9 °C 9,8 °C 11,3 km/h (2 Bft)
20.09.2017 14:02 10,0 °C 10,0 °C 81 % 1021,6 hPa 0,0 mm 7,3 km/h (2 Bft) W-SW 257 ° 0 min 0,000 mm 1,7 UV-I 234 W/m² 6,9 °C 9,2 °C 12,9 km/h (3 Bft)
20.09.2017 14:03 10,0 °C 10,1 °C 81 % 1021,6 hPa 0,0 mm 8,9 km/h (2 Bft) W-NW 296 ° 0 min 0,000 mm 1,6 UV-I 221 W/m² 6,9 °C 8,8 °C 14,5 km/h (3 Bft)
20.09.2017 14:04 10,0 °C 10,0 °C 80 % 1021,6 hPa 0,0 mm 6,4 km/h (2 Bft) W-SW 255 ° 0 min 0,000 mm 1,3 UV-I 195 W/m² 6,7 °C 9,4 °C 11,3 km/h (2 Bft)
20.09.2017 14:05 10,0 °C 10,0 °C 82 % 1021,6 hPa 0,0 mm 5,3 km/h (1 Bft) NW 318 ° 0 min 0,000 mm 1,0 UV-I 153 W/m² 7,1 °C 9,7 °C 11,3 km/h (2 Bft)
20.09.2017 14:06 9,9 °C 10,0 °C 81 % 1021,7 hPa 0,0 mm 11,3 km/h (2 Bft) W-NW 299 ° 0 min 0,000 mm 0,7 UV-I 114 W/m² 6,8 °C 8,3 °C 24,1 km/h (4 Bft)
20.09.2017 14:07 9,9 °C 10,0 °C 80 % 1022,0 hPa 0,0 mm 21,3 km/h (4 Bft) W 275 ° 0 min 0,000 mm 0,5 UV-I 84 W/m² 6,6 °C 7,1 °C 29,0 km/h (5 Bft)
20.09.2017 14:08 9,7 °C 9,9 °C 76 % 1022,0 hPa 0,0 mm 17,9 km/h (3 Bft) NW 324 ° 0 min 0,000 mm 0,0 UV-I 51 W/m² 5,7 °C 7,2 °C 25,7 km/h (4 Bft)
20.09.2017 14:09 9,5 °C 9,7 °C 76 % 1022,1 hPa 0,0 mm 16,1 km/h (3 Bft) NW 316 ° 0 min 0,000 mm 0,0 UV-I 46 W/m² 5,5 °C 7,2 °C 20,9 km/h (4 Bft)
20.09.2017 14:10 9,2 °C 9,5 °C 76 % 1022,1 hPa 0,0 mm 12,4 km/h (3 Bft) NW 319 ° 0 min 0,000 mm 0,0 UV-I 44 W/m² 5,2 °C 7,3 °C 16,1 km/h (3 Bft)
20.09.2017 14:11 8,7 °C 9,2 °C 78 % 1022,2 hPa 0,0 mm 13,2 km/h (3 Bft) NW 318 ° 0 min 0,000 mm 0,0 UV-I 42 W/m² 5,1 °C 6,6 °C 19,3 km/h (3 Bft)
20.09.2017 14:12 8,3 °C 8,7 °C 79 % 1022,2 hPa 0,0 mm 6,1 km/h (2 Bft) NW 313 ° 0 min 0,000 mm 0,0 UV-I 40 W/m² 4,9 °C 7,5 °C 9,7 km/h (2 Bft)
20.09.2017 14:13 8,0 °C 8,3 °C 81 % 1022,1 hPa 0,2 mm 5,8 km/h (2 Bft) NW 326 ° 0 min 0,000 mm 0,0 UV-I 39 W/m² 4,9 °C 7,2 °C 9,7 km/h (2 Bft)
20.09.2017 14:14 7,7 °C 8,0 °C 82 % 1022,1 hPa 0,0 mm 8,0 km/h (2 Bft) NW 324 ° 0 min 0,000 mm 0,0 UV-I 37 W/m² 4,8 °C 6,3 °C 14,5 km/h (3 Bft)
20.09.2017 14:15 7,4 °C 7,7 °C 82 % 1022,2 hPa 0,0 mm 7,2 km/h (2 Bft) W-NW 298 ° 0 min 0,000 mm 0,0 UV-I 40 W/m² 4,5 °C 6,1 °C 12,9 km/h (3 Bft)
20.09.2017 14:16 7,2 °C 7,4 °C 83 % 1022,2 hPa 0,0 mm 7,9 km/h (2 Bft) W-NW 298 ° 0 min 0,000 mm 0,0 UV-I 46 W/m² 4,5 °C 5,7 °C 14,5 km/h (3 Bft)
20.09.2017 14:17 7,0 °C 7,2 °C 85 % 1022,1 hPa 0,0 mm 4,7 km/h (1 Bft) W 272 ° 0 min 0,000 mm 0,0 UV-I 51 W/m² 4,7 °C 6,5 °C 11,3 km/h (2 Bft)
20.09.2017 14:18 6,8 °C 7,0 °C 85 % 1022,2 hPa 0,2 mm 4,8 km/h (1 Bft) N-NW 332 ° 0 min 0,000 mm 0,5 UV-I 60 W/m² 4,5 °C 6,2 °C 6,4 km/h (2 Bft)
20.09.2017 14:19 6,7 °C 6,8 °C 85 % 1022,1 hPa 0,0 mm 2,3 km/h (1 Bft) N-NW 331 ° 0 min 0,000 mm 0,5 UV-I 76 W/m² 4,4 °C 6,7 °C 4,8 km/h (1 Bft)
20.09.2017 14:20 6,6 °C 6,7 °C 86 % 1022,2 hPa 0,2 mm 1,9 km/h (1 Bft) N-NW 331 ° 0 min 0,000 mm 0,6 UV-I 84 W/m² 4,4 °C 6,6 °C 3,2 km/h (1 Bft)
20.09.2017 14:21 6,4 °C 6,6 °C 87 % 1022,2 hPa 0,0 mm 2,1 km/h (1 Bft) N-NW 331 ° 0 min 0,000 mm 0,6 UV-I 90 W/m² 4,4 °C 6,4 °C 3,2 km/h (1 Bft)
20.09.2017 14:22 6,3 °C 6,4 °C 87 % 1022,2 hPa 0,2 mm 4,0 km/h (1 Bft) W 275 ° 0 min 0,000 mm 0,7 UV-I 97 W/m² 4,3 °C 6,3 °C 4,8 km/h (1 Bft)
20.09.2017 14:23 6,3 °C 6,3 °C 88 % 1022,1 hPa 0,0 mm 4,3 km/h (1 Bft) W-SW 252 ° 0 min 0,000 mm 0,7 UV-I 102 W/m² 4,5 °C 6,3 °C 6,4 km/h (2 Bft)
20.09.2017 14:24 6,2 °C 6,3 °C 88 % 1022,2 hPa 0,0 mm 5,0 km/h (1 Bft) W-SW 251 ° 0 min 0,000 mm 0,8 UV-I 105 W/m² 4,4 °C 5,4 °C 6,4 km/h (2 Bft)
20.09.2017 14:25 6,2 °C 6,2 °C 88 % 1022,1 hPa 0,2 mm 4,9 km/h (1 Bft) W-SW 248 ° 0 min 0,000 mm 0,8 UV-I 105 W/m² 4,4 °C 5,5 °C 6,4 km/h (2 Bft)
20.09.2017 14:26 6,2 °C 6,2 °C 89 % 1022,1 hPa 0,0 mm 0,8 km/h (0 Bft) W-SW 248 ° 0 min 0,000 mm 0,8 UV-I 104 W/m² 4,5 °C 6,2 °C 3,2 km/h (1 Bft)
20.09.2017 14:27 6,2 °C 6,2 °C 90 % 1022,2 hPa 0,0 mm 3,6 km/h (1 Bft) W 267 ° 0 min 0,000 mm 0,7 UV-I 100 W/m² 4,7 °C 6,2 °C 4,8 km/h (1 Bft)
20.09.2017 14:28 6,2 °C 6,2 °C 89 % 1022,1 hPa 0,0 mm 2,7 km/h (1 Bft) W 269 ° 0 min 0,000 mm 0,7 UV-I 104 W/m² 4,5 °C 6,2 °C 4,8 km/h (1 Bft)
20.09.2017 14:29 6,2 °C 6,2 °C 90 % 1022,2 hPa 0,0 mm 0,7 km/h (0 Bft) W 269 ° 0 min 0,000 mm 0,8 UV-I 116 W/m² 4,7 °C 6,2 °C 3,2 km/h (1 Bft)
20.09.2017 14:30 6,2 °C 6,2 °C 90 % 1022,1 hPa 0,2 mm 1,6 km/h (1 Bft) W-SW 238 ° 0 min 0,000 mm 0,9 UV-I 130 W/m² 4,7 °C 6,2 °C 3,2 km/h (1 Bft)
20.09.2017 14:31 6,1 °C 6,2 °C 90 % 1022,0 hPa 0,0 mm 1,7 km/h (1 Bft) SW 227 ° 0 min 0,000 mm 0,9 UV-I 142 W/m² 4,6 °C 6,1 °C 3,2 km/h (1 Bft)
20.09.2017 14:32 6,1 °C 6,1 °C 90 % 1022,0 hPa 0,0 mm 2,2 km/h (1 Bft) SW 227 ° 0 min 0,000 mm 1,0 UV-I 146 W/m² 4,6 °C 6,1 °C 3,2 km/h (1 Bft)
20.09.2017 14:33 6,1 °C 6,1 °C 90 % 1022,0 hPa 0,0 mm 1,3 km/h (1 Bft) SW 227 ° 0 min 0,000 mm 1,0 UV-I 151 W/m² 4,6 °C 6,1 °C 3,2 km/h (1 Bft)
20.09.2017 14:34 6,2 °C 6,2 °C 91 % 1022,0 hPa 0,0 mm 1,6 km/h (1 Bft) SW 227 ° 0 min 0,000 mm 1,1 UV-I 155 W/m² 4,8 °C 6,2 °C 1,6 km/h (1 Bft)
20.09.2017 14:35 6,2 °C 6,2 °C 91 % 1021,9 hPa 0,0 mm 1,7 km/h (1 Bft) SW 227 ° 0 min 0,000 mm 1,1 UV-I 155 W/m² 4,8 °C 6,2 °C 3,2 km/h (1 Bft)
20.09.2017 14:36 6,2 °C 6,2 °C 91 % 1021,9 hPa 0,0 mm 1,0 km/h (0 Bft) SW 227 ° 0 min 0,000 mm 1,1 UV-I 153 W/m² 4,8 °C 6,2 °C 3,2 km/h (1 Bft)
20.09.2017 14:37 6,2 °C 6,2 °C 91 % 1021,9 hPa 0,0 mm 3,5 km/h (1 Bft) S-SW 201 ° 0 min 0,000 mm 1,1 UV-I 153 W/m² 4,8 °C 6,2 °C 4,8 km/h (1 Bft)
20.09.2017 14:38 6,2 °C 6,2 °C 91 % 1021,9 hPa 0,2 mm 2,0 km/h (1 Bft) S-SW 201 ° 0 min 0,000 mm 1,2 UV-I 155 W/m² 4,8 °C 6,2 °C 3,2 km/h (1 Bft)
20.09.2017 14:39 6,3 °C 6,3 °C 91 % 1021,9 hPa 0,0 mm 1,5 km/h (1 Bft) S-SW 201 ° 0 min 0,000 mm 1,2 UV-I 156 W/m² 4,9 °C 6,3 °C 3,2 km/h (1 Bft)
20.09.2017 14:40 6,3 °C 6,3 °C 91 % 1021,9 hPa 0,0 mm 0,1 km/h (0 Bft) S-SW 201 ° 0 min 0,000 mm 1,2 UV-I 155 W/m² 4,9 °C 6,3 °C 1,6 km/h (1 Bft)
20.09.2017 14:41 6,4 °C 6,4 °C 90 % 1021,9 hPa 0,0 mm 0,0 km/h (0 Bft) S-SW 201 ° 0 min 0,000 mm 1,3 UV-I 155 W/m² 4,9 °C 6,4 °C 0,0 km/h (0 Bft)
20.09.2017 14:42 6,4 °C 6,4 °C 90 % 1021,9 hPa 0,0 mm 0,0 km/h (0 Bft) S-SW 201 ° 0 min 0,000 mm 1,3 UV-I 162 W/m² 4,9 °C 6,4 °C 0,0 km/h (0 Bft)
20.09.2017 14:43 6,6 °C 6,6 °C 90 % 1021,9 hPa 0,0 mm 0,0 km/h (0 Bft) S-SW 201 ° 0 min 0,000 mm 1,4 UV-I 185 W/m² 5,1 °C 6,6 °C 0,0 km/h (0 Bft)
20.09.2017 14:44 6,7 °C 6,7 °C 91 % 1021,8 hPa 0,0 mm 0,0 km/h (0 Bft) S-SW 201 ° 0 min 0,000 mm 1,6 UV-I 195 W/m² 5,3 °C 6,7 °C 0,0 km/h (0 Bft)
20.09.2017 14:45 6,7 °C 6,7 °C 91 % 1021,8 hPa 0,0 mm 0,2 km/h (0 Bft) S-SW 201 ° 0 min 0,000 mm 1,7 UV-I 209 W/m² 5,3 °C 6,7 °C 1,6 km/h (1 Bft)
20.09.2017 14:46 6,8 °C 6,8 °C 90 % 1021,8 hPa 0,0 mm 0,0 km/h (0 Bft) S-SW 201 ° 0 min 0,000 mm 1,8 UV-I 229 W/m² 5,3 °C 6,8 °C 0,0 km/h (0 Bft)
20.09.2017 14:47 6,8 °C 6,8 °C 90 % 1021,8 hPa 0,0 mm 0,0 km/h (0 Bft) S-SW 201 ° 0 min 0,000 mm 1,9 UV-I 244 W/m² 5,3 °C 6,8 °C 0,0 km/h (0 Bft)
20.09.2017 14:48 7,0 °C 7,0 °C 91 % 1021,8 hPa 0,0 mm 0,0 km/h (0 Bft) S-SW 201 ° 0 min 0,000 mm 2,0 UV-I 253 W/m² 5,6 °C 7,0 °C 0,0 km/h (0 Bft)
20.09.2017 14:49 7,2 °C 7,2 °C 92 % 1021,8 hPa 0,0 mm 0,0 km/h (0 Bft) S-SW 201 ° 0 min 0,000 mm 2,0 UV-I 264 W/m² 6,0 °C 7,2 °C 0,0 km/h (0 Bft)
20.09.2017 14:50 7,3 °C 7,3 °C 92 % 1021,7 hPa 0,0 mm 0,1 km/h (0 Bft) S-SW 201 ° 0 min 0,000 mm 2,0 UV-I 269 W/m² 6,1 °C 7,3 °C 1,6 km/h (1 Bft)
20.09.2017 14:51 7,3 °C 7,3 °C 90 % 1021,7 hPa 0,0 mm 0,6 km/h (0 Bft) S-SW 201 ° 0 min 0,000 mm 2,0 UV-I 271 W/m² 5,8 °C 7,3 °C 1,6 km/h (1 Bft)
20.09.2017 14:52 7,4 °C 7,4 °C 90 % 1021,7 hPa 0,0 mm 0,0 km/h (0 Bft) S-SW 201 ° 0 min 0,000 mm 2,0 UV-I 264 W/m² 5,9 °C 7,4 °C 0,0 km/h (0 Bft)
20.09.2017 14:53 7,6 °C 7,6 °C 90 % 1021,7 hPa 0,0 mm 0,3 km/h (0 Bft) S-SW 201 ° 0 min 0,000 mm 1,9 UV-I 255 W/m² 6,1 °C 7,6 °C 1,6 km/h (1 Bft)
20.09.2017 14:54 7,7 °C 7,7 °C 90 % 1021,7 hPa 0,0 mm 1,2 km/h (1 Bft) S-SW 201 ° 0 min 0,000 mm 1,9 UV-I 243 W/m² 6,2 °C 7,7 °C 3,2 km/h (1 Bft)
20.09.2017 14:55 7,8 °C 7,8 °C 91 % 1021,7 hPa 0,0 mm 0,3 km/h (0 Bft) SW 221 ° 0 min 0,000 mm 1,7 UV-I 211 W/m² 6,4 °C 7,8 °C 3,2 km/h (1 Bft)
20.09.2017 14:56 7,8 °C 7,8 °C 91 % 1021,6 hPa 0,0 mm 0,6 km/h (0 Bft) SW 221 ° 0 min 0,000 mm 1,6 UV-I 206 W/m² 6,4 °C 7,8 °C 1,6 km/h (1 Bft)
20.09.2017 14:57 7,8 °C 7,8 °C 91 % 1021,6 hPa 0,0 mm 1,5 km/h (1 Bft) SW 215 ° 0 min 0,000 mm 1,5 UV-I 199 W/m² 6,4 °C 7,8 °C 3,2 km/h (1 Bft)
20.09.2017 14:58 7,8 °C 7,9 °C 91 % 1021,5 hPa 0,0 mm 0,6 km/h (0 Bft) SW 215 ° 0 min 0,000 mm 1,4 UV-I 188 W/m² 6,4 °C 7,8 °C 3,2 km/h (1 Bft)
20.09.2017 14:59 8,1 °C 8,1 °C 92 % 1021,6 hPa 0,0 mm 1,1 km/h (1 Bft) SW 214 ° 0 min 0,000 mm 1,3 UV-I 176 W/m² 6,9 °C 8,1 °C 3,2 km/h (1 Bft)
20.09.2017 15:00 8,1 °C 8,1 °C 91 % 1021,6 hPa 0,0 mm 0,1 km/h (0 Bft) SW 214 ° 0 min 0,000 mm 1,2 UV-I 163 W/m² 6,7 °C 8,1 °C 1,6 km/h (1 Bft)
20.09.2017 15:01 8,1 °C 8,1 °C 91 % 1021,5 hPa 0,0 mm 0,7 km/h (0 Bft) SW 229 ° 0 min 0,076 mm 1,2 UV-I 149 W/m² 6,7 °C 8,1 °C 3,2 km/h (1 Bft)
20.09.2017 15:02 8,2 °C 8,2 °C 91 % 1021,5 hPa 0,0 mm 2,0 km/h (1 Bft) SW 229 ° 0 min 0,000 mm 1,2 UV-I 146 W/m² 6,8 °C 8,2 °C 3,2 km/h (1 Bft)
20.09.2017 15:03 8,2 °C 8,2 °C 91 % 1021,6 hPa 0,0 mm 0,4 km/h (0 Bft) SW 229 ° 0 min 0,000 mm 1,2 UV-I 142 W/m² 6,8 °C 8,2 °C 1,6 km/h (1 Bft)
20.09.2017 15:04 8,3 °C 8,3 °C 91 % 1021,5 hPa 0,0 mm 0,0 km/h (0 Bft) SW 229 ° 0 min 0,000 mm 1,2 UV-I 141 W/m² 6,9 °C 8,3 °C 0,0 km/h (0 Bft)
20.09.2017 15:05 8,3 °C 8,3 °C 91 % 1021,5 hPa 0,0 mm 0,1 km/h (0 Bft) SW 229 ° 0 min 0,000 mm 1,2 UV-I 137 W/m² 6,9 °C 8,3 °C 1,6 km/h (1 Bft)
20.09.2017 15:06 8,3 °C 8,3 °C 91 % 1021,5 hPa 0,0 mm 0,0 km/h (0 Bft) SW 229 ° 0 min 0,000 mm 1,2 UV-I 137 W/m² 6,9 °C 8,3 °C 0,0 km/h (0 Bft)
20.09.2017 15:07 8,3 °C 8,3 °C 92 % 1021,5 hPa 0,0 mm 0,1 km/h (0 Bft) SW 229 ° 0 min 0,000 mm 1,2 UV-I 141 W/m² 7,1 °C 8,3 °C 1,6 km/h (1 Bft)
20.09.2017 15:08 8,3 °C 8,3 °C 92 % 1021,5 hPa 0,0 mm 0,8 km/h (0 Bft) SW 229 ° 0 min 0,000 mm 1,3 UV-I 146 W/m² 7,1 °C 8,3 °C 3,2 km/h (1 Bft)
20.09.2017 15:09 8,3 °C 8,3 °C 92 % 1021,5 hPa 0,0 mm 2,7 km/h (1 Bft) W-SW 241 ° 0 min 0,000 mm 1,3 UV-I 153 W/m² 7,1 °C 8,3 °C 4,8 km/h (1 Bft)
20.09.2017 15:10 8,4 °C 8,4 °C 92 % 1021,5 hPa 0,0 mm 2,7 km/h (1 Bft) S-SW 209 ° 0 min 0,000 mm 1,4 UV-I 160 W/m² 7,2 °C 8,4 °C 4,8 km/h (1 Bft)
20.09.2017 15:11 8,5 °C 8,5 °C 91 % 1021,5 hPa 0,0 mm 2,3 km/h (1 Bft) W-NW 284 ° 0 min 0,000 mm 1,4 UV-I 163 W/m² 7,1 °C 8,5 °C 3,2 km/h (1 Bft)
20.09.2017 15:12 8,6 °C 8,6 °C 91 % 1021,5 hPa 0,0 mm 3,5 km/h (1 Bft) W-NW 284 ° 0 min 0,000 mm 1,4 UV-I 174 W/m² 7,2 °C 8,6 °C 4,8 km/h (1 Bft)
20.09.2017 15:13 8,7 °C 8,7 °C 91 % 1021,5 hPa 0,0 mm 4,3 km/h (1 Bft) W-NW 296 ° 0 min 0,000 mm 1,5 UV-I 181 W/m² 7,3 °C 8,7 °C 6,4 km/h (2 Bft)
20.09.2017 15:14 8,7 °C 8,7 °C 90 % 1021,5 hPa 0,0 mm 2,1 km/h (1 Bft) W-NW 296 ° 0 min 0,000 mm 1,6 UV-I 190 W/m² 7,2 °C 8,7 °C 4,8 km/h (1 Bft)
20.09.2017 15:15 8,8 °C 8,8 °C 90 % 1021,5 hPa 0,0 mm 1,6 km/h (1 Bft) W-NW 296 ° 0 min 0,000 mm 1,6 UV-I 197 W/m² 7,3 °C 8,8 °C 3,2 km/h (1 Bft)
20.09.2017 15:16 8,8 °C 8,8 °C 91 % 1021,5 hPa 0,0 mm 3,4 km/h (1 Bft) W-NW 296 ° 0 min 0,000 mm 1,6 UV-I 202 W/m² 7,4 °C 8,8 °C 4,8 km/h (1 Bft)
20.09.2017 15:17 8,9 °C 8,9 °C 90 % 1021,5 hPa 0,0 mm 3,1 km/h (1 Bft) W-NW 296 ° 0 min 0,000 mm 1,6 UV-I 206 W/m² 7,4 °C 8,9 °C 4,8 km/h (1 Bft)
20.09.2017 15:18 9,0 °C 9,0 °C 91 % 1021,5 hPa 0,0 mm 2,1 km/h (1 Bft) W-NW 296 ° 0 min 0,000 mm 1,6 UV-I 204 W/m² 7,6 °C 9,0 °C 4,8 km/h (1 Bft)
20.09.2017 15:19 9,0 °C 9,0 °C 90 % 1021,5 hPa 0,0 mm 2,7 km/h (1 Bft) W-NW 296 ° 0 min 0,000 mm 1,6 UV-I 200 W/m² 7,4 °C 9,0 °C 3,2 km/h (1 Bft)
20.09.2017 15:20 8,9 °C 9,0 °C 90 % 1021,5 hPa 0,0 mm 1,9 km/h (1 Bft) W-NW 284 ° 0 min 0,000 mm 1,6 UV-I 197 W/m² 7,4 °C 8,9 °C 6,4 km/h (2 Bft)
20.09.2017 15:21 8,9 °C 8,9 °C 89 % 1021,5 hPa 0,0 mm 4,1 km/h (1 Bft) W 278 ° 0 min 0,000 mm 1,6 UV-I 195 W/m² 7,2 °C 8,9 °C 6,4 km/h (2 Bft)
20.09.2017 15:22 8,9 °C 8,9 °C 89 % 1021,5 hPa 0,0 mm 3,7 km/h (1 Bft) W 265 ° 0 min 0,000 mm 1,6 UV-I 199 W/m² 7,2 °C 8,9 °C 4,8 km/h (1 Bft)
20.09.2017 15:23 8,9 °C 8,9 °C 90 % 1021,5 hPa 0,0 mm 2,9 km/h (1 Bft) W 265 ° 0 min 0,000 mm 1,6 UV-I 204 W/m² 7,4 °C 8,9 °C 4,8 km/h (1 Bft)
20.09.2017 15:24 8,9 °C 8,9 °C 90 % 1021,4 hPa 0,0 mm 1,9 km/h (1 Bft) W-NW 298 ° 0 min 0,000 mm 1,6 UV-I 213 W/m² 7,4 °C 8,9 °C 4,8 km/h (1 Bft)
20.09.2017 15:25 9,0 °C 9,0 °C 90 % 1021,5 hPa 0,0 mm 2,7 km/h (1 Bft) W-NW 298 ° 0 min 0,000 mm 1,6 UV-I 214 W/m² 7,4 °C 9,0 °C 3,2 km/h (1 Bft)
20.09.2017 15:26 9,1 °C 9,1 °C 90 % 1021,5 hPa 0,0 mm 0,8 km/h (0 Bft) W-NW 298 ° 0 min 0,000 mm 1,6 UV-I 216 W/m² 7,5 °C 9,1 °C 1,6 km/h (1 Bft)
20.09.2017 15:27 9,1 °C 9,1 °C 90 % 1021,5 hPa 0,0 mm 2,2 km/h (1 Bft) W-NW 298 ° 0 min 0,000 mm 1,6 UV-I 216 W/m² 7,5 °C 9,1 °C 4,8 km/h (1 Bft)
20.09.2017 15:28 9,2 °C 9,2 °C 90 % 1021,5 hPa 0,0 mm 1,4 km/h (1 Bft) W-NW 298 ° 0 min 0,000 mm 1,6 UV-I 214 W/m² 7,6 °C 9,2 °C 3,2 km/h (1 Bft)
20.09.2017 15:29 9,2 °C 9,2 °C 89 % 1021,4 hPa 0,0 mm 2,1 km/h (1 Bft) W-NW 298 ° 0 min 0,000 mm 1,6 UV-I 213 W/m² 7,5 °C 9,2 °C 4,8 km/h (1 Bft)
20.09.2017 15:30 9,2 °C 9,2 °C 89 % 1021,5 hPa 0,0 mm 4,2 km/h (1 Bft) W-NW 286 ° 0 min 0,000 mm 1,6 UV-I 202 W/m² 7,5 °C 9,2 °C 6,4 km/h (2 Bft)
20.09.2017 15:31 9,2 °C 9,2 °C 88 % 1021,5 hPa 0,0 mm 5,9 km/h (2 Bft) W-NW 285 ° 0 min 0,000 mm 1,5 UV-I 195 W/m² 7,3 °C 8,6 °C 8,0 km/h (2 Bft)
20.09.2017 15:32 9,1 °C 9,2 °C 87 % 1021,5 hPa 0,0 mm 2,8 km/h (1 Bft) W-NW 283 ° 0 min 0,000 mm 1,5 UV-I 188 W/m² 7,1 °C 9,1 °C 4,8 km/h (1 Bft)
20.09.2017 15:33 9,2 °C 9,2 °C 89 % 1021,4 hPa 0,0 mm 2,0 km/h (1 Bft) W 260 ° 0 min 0,000 mm 1,4 UV-I 183 W/m² 7,5 °C 9,2 °C 6,4 km/h (2 Bft)
20.09.2017 15:34 9,2 °C 9,2 °C 88 % 1021,5 hPa 0,0 mm 5,9 km/h (2 Bft) W-SW 256 ° 0 min 0,000 mm 1,4 UV-I 179 W/m² 7,3 °C 8,6 °C 9,7 km/h (2 Bft)
20.09.2017 15:35 9,2 °C 9,2 °C 89 % 1021,6 hPa 0,0 mm 6,6 km/h (2 Bft) W 259 ° 0 min 0,000 mm 1,4 UV-I 174 W/m² 7,5 °C 8,4 °C 9,7 km/h (2 Bft)
20.09.2017 15:36 9,2 °C 9,2 °C 87 % 1021,5 hPa 0,0 mm 3,0 km/h (1 Bft) W 264 ° 0 min 0,000 mm 1,4 UV-I 162 W/m² 7,2 °C 9,2 °C 6,4 km/h (2 Bft)
20.09.2017 15:37 9,2 °C 9,2 °C 87 % 1021,5 hPa 0,0 mm 3,0 km/h (1 Bft) W-SW 255 ° 0 min 0,000 mm 1,3 UV-I 153 W/m² 7,2 °C 9,2 °C 4,8 km/h (1 Bft)
20.09.2017 15:38 9,2 °C 9,2 °C 88 % 1021,5 hPa 0,0 mm 5,8 km/h (2 Bft) W 271 ° 0 min 0,000 mm 1,3 UV-I 144 W/m² 7,3 °C 8,6 °C 9,7 km/h (2 Bft)
20.09.2017 15:39 9,2 °C 9,2 °C 88 % 1021,5 hPa 0,0 mm 4,9 km/h (1 Bft) W 275 ° 0 min 0,000 mm 1,2 UV-I 137 W/m² 7,3 °C 8,9 °C 9,7 km/h (2 Bft)
20.09.2017 15:40 9,2 °C 9,2 °C 89 % 1021,5 hPa 0,0 mm 4,2 km/h (1 Bft) W-SW 249 ° 0 min 0,000 mm 1,2 UV-I 130 W/m² 7,5 °C 9,2 °C 8,0 km/h (2 Bft)
20.09.2017 15:41 9,2 °C 9,2 °C 89 % 1021,4 hPa 0,0 mm 6,4 km/h (2 Bft) W 261 ° 0 min 0,000 mm 1,1 UV-I 123 W/m² 7,5 °C 8,4 °C 9,7 km/h (2 Bft)
20.09.2017 15:42 9,2 °C 9,2 °C 88 % 1021,4 hPa 0,0 mm 3,7 km/h (1 Bft) W-SW 251 ° 0 min 0,000 mm 1,0 UV-I 113 W/m² 7,3 °C 9,2 °C 6,4 km/h (2 Bft)
20.09.2017 15:43 9,2 °C 9,2 °C 88 % 1021,4 hPa 0,0 mm 1,1 km/h (1 Bft) W-SW 251 ° 0 min 0,000 mm 0,9 UV-I 107 W/m² 7,3 °C 9,2 °C 3,2 km/h (1 Bft)
20.09.2017 15:44 9,2 °C 9,2 °C 89 % 1021,5 hPa 0,0 mm 1,9 km/h (1 Bft) W-SW 248 ° 0 min 0,000 mm 0,8 UV-I 100 W/m² 7,5 °C 9,2 °C 3,2 km/h (1 Bft)
20.09.2017 15:45 9,2 °C 9,2 °C 89 % 1021,5 hPa 0,0 mm 3,5 km/h (1 Bft) W 277 ° 0 min 0,000 mm 0,8 UV-I 95 W/m² 7,5 °C 9,2 °C 6,4 km/h (2 Bft)
20.09.2017 15:46 9,1 °C 9,2 °C 88 % 1021,4 hPa 0,0 mm 5,1 km/h (1 Bft) SW 234 ° 0 min 0,000 mm 0,7 UV-I 90 W/m² 7,2 °C 8,7 °C 6,4 km/h (2 Bft)
20.09.2017 15:47 9,1 °C 9,1 °C 88 % 1021,4 hPa 0,0 mm 4,6 km/h (1 Bft) SW 227 ° 0 min 0,000 mm 0,6 UV-I 76 W/m² 7,2 °C 8,9 °C 6,4 km/h (2 Bft)
20.09.2017 15:48 9,1 °C 9,1 °C 89 % 1021,4 hPa 0,0 mm 2,5 km/h (1 Bft) W 275 ° 0 min 0,000 mm 0,6 UV-I 69 W/m² 7,4 °C 9,1 °C 4,8 km/h (1 Bft)
20.09.2017 15:49 9,1 °C 9,1 °C 87 % 1021,4 hPa 0,0 mm 3,9 km/h (1 Bft) NW 307 ° 0 min 0,000 mm 0,5 UV-I 63 W/m² 7,1 °C 9,1 °C 8,0 km/h (2 Bft)
20.09.2017 15:50 9,0 °C 9,1 °C 87 % 1021,4 hPa 0,0 mm 4,1 km/h (1 Bft) W-NW 284 ° 0 min 0,000 mm 0,0 UV-I 63 W/m² 7,0 °C 9,0 °C 8,0 km/h (2 Bft)
20.09.2017 15:51 9,0 °C 9,0 °C 87 % 1021,4 hPa 0,0 mm 1,1 km/h (1 Bft) W-SW 254 ° 0 min 0,000 mm 0,0 UV-I 56 W/m² 7,0 °C 9,0 °C 3,2 km/h (1 Bft)
20.09.2017 15:52 8,9 °C 9,0 °C 87 % 1021,4 hPa 0,0 mm 1,2 km/h (1 Bft) W-SW 250 ° 0 min 0,000 mm 0,0 UV-I 54 W/m² 6,9 °C 8,9 °C 3,2 km/h (1 Bft)
20.09.2017 15:53 8,9 °C 8,9 °C 87 % 1021,5 hPa 0,0 mm 1,7 km/h (1 Bft) W-SW 255 ° 0 min 0,000 mm 0,0 UV-I 54 W/m² 6,9 °C 8,9 °C 3,2 km/h (1 Bft)
20.09.2017 15:54 8,9 °C 8,9 °C 87 % 1021,5 hPa 0,0 mm 4,2 km/h (1 Bft) W-SW 244 ° 0 min 0,000 mm 0,0 UV-I 54 W/m² 6,9 °C 8,9 °C 6,4 km/h (2 Bft)
20.09.2017 15:55 8,9 °C 8,9 °C 88 % 1021,5 hPa 0,0 mm 3,5 km/h (1 Bft) W-NW 299 ° 0 min 0,000 mm 0,0 UV-I 54 W/m² 7,0 °C 8,9 °C 6,4 km/h (2 Bft)
20.09.2017 15:56 8,9 °C 8,9 °C 88 % 1021,5 hPa 0,0 mm 0,1 km/h (0 Bft) W-NW 298 ° 0 min 0,000 mm 0,0 UV-I 56 W/m² 7,0 °C 8,9 °C 1,6 km/h (1 Bft)
20.09.2017 15:57 8,8 °C 8,9 °C 89 % 1021,4 hPa 0,0 mm 0,1 km/h (0 Bft) W-NW 298 ° 0 min 0,000 mm 0,0 UV-I 60 W/m² 7,1 °C 8,8 °C 1,6 km/h (1 Bft)
20.09.2017 15:58 8,8 °C 8,8 °C 89 % 1021,4 hPa 0,0 mm 4,7 km/h (1 Bft) W-SW 237 ° 0 min 0,000 mm 0,5 UV-I 63 W/m² 7,1 °C 8,5 °C 8,0 km/h (2 Bft)
20.09.2017 15:59 8,7 °C 8,8 °C 89 % 1021,4 hPa 0,0 mm 0,4 km/h (0 Bft) W-SW 237 ° 0 min 0,000 mm 0,5 UV-I 72 W/m² 7,0 °C 8,7 °C 3,2 km/h (1 Bft)
20.09.2017 16:00 8,7 °C 8,7 °C 89 % 1021,4 hPa 0,0 mm 2,6 km/h (1 Bft) W-SW 254 ° 0 min 0,076 mm 0,6 UV-I 77 W/m² 7,0 °C 8,7 °C 4,8 km/h (1 Bft)
20.09.2017 16:01 8,7 °C 8,7 °C 89 % 1021,4 hPa 0,0 mm 2,8 km/h (1 Bft) W-SW 252 ° 0 min 0,000 mm 0,6 UV-I 81 W/m² 7,0 °C 8,7 °C 4,8 km/h (1 Bft)
20.09.2017 16:02 8,7 °C 8,7 °C 89 % 1021,5 hPa 0,0 mm 1,6 km/h (1 Bft) W-SW 252 ° 0 min 0,000 mm 0,6 UV-I 86 W/m² 7,0 °C 8,7 °C 3,2 km/h (1 Bft)
20.09.2017 16:03 8,7 °C 8,7 °C 89 % 1021,5 hPa 0,0 mm 0,2 km/h (0 Bft) W-SW 252 ° 0 min 0,000 mm 0,6 UV-I 90 W/m² 7,0 °C 8,7 °C 1,6 km/h (1 Bft)
20.09.2017 16:04 8,8 °C 8,8 °C 89 % 1021,4 hPa 0,0 mm 3,4 km/h (1 Bft) W-SW 252 ° 0 min 0,000 mm 0,6 UV-I 91 W/m² 7,1 °C 8,8 °C 4,8 km/h (1 Bft)
20.09.2017 16:05 8,8 °C 8,8 °C 89 % 1021,5 hPa 0,0 mm 4,8 km/h (1 Bft) W-NW 283 ° 0 min 0,000 mm 0,7 UV-I 93 W/m² 7,1 °C 8,5 °C 9,7 km/h (2 Bft)
20.09.2017 16:06 8,8 °C 8,8 °C 87 % 1021,4 hPa 0,0 mm 3,7 km/h (1 Bft) SW 233 ° 0 min 0,000 mm 0,6 UV-I 91 W/m² 6,8 °C 8,8 °C 4,8 km/h (1 Bft)
20.09.2017 16:07 8,8 °C 8,8 °C 87 % 1021,5 hPa 0,0 mm 4,4 km/h (1 Bft) W 267 ° 0 min 0,000 mm 0,6 UV-I 90 W/m² 6,8 °C 8,8 °C 6,4 km/h (2 Bft)
20.09.2017 16:08 8,8 °C 8,8 °C 88 % 1021,5 hPa 0,0 mm 3,4 km/h (1 Bft) W-SW 258 ° 0 min 0,000 mm 0,6 UV-I 88 W/m² 6,9 °C 8,8 °C 4,8 km/h (1 Bft)
20.09.2017 16:09 8,7 °C 8,8 °C 89 % 1021,5 hPa 0,0 mm 0,9 km/h (0 Bft) W-SW 258 ° 0 min 0,000 mm 0,6 UV-I 88 W/m² 7,0 °C 8,7 °C 3,2 km/h (1 Bft)
20.09.2017 16:10 8,7 °C 8,7 °C 89 % 1021,4 hPa 0,0 mm 0,0 km/h (0 Bft) W-SW 258 ° 0 min 0,000 mm 0,6 UV-I 90 W/m² 7,0 °C 8,7 °C 0,0 km/h (0 Bft)
20.09.2017 16:11 8,7 °C 8,7 °C 88 % 1021,5 hPa 0,0 mm 0,4 km/h (0 Bft) W-SW 251 ° 0 min 0,000 mm 0,6 UV-I 93 W/m² 6,8 °C 8,7 °C 1,6 km/h (1 Bft)
20.09.2017 16:12 8,6 °C 8,7 °C 88 % 1021,5 hPa 0,0 mm 0,0 km/h (0 Bft) W-SW 251 ° 0 min 0,000 mm 0,6 UV-I 97 W/m² 6,7 °C 8,6 °C 0,0 km/h (0 Bft)
20.09.2017 16:13 8,6 °C 8,6 °C 87 % 1021,4 hPa 0,0 mm 0,3 km/h (0 Bft) W-SW 251 ° 0 min 0,000 mm 0,6 UV-I 98 W/m² 6,6 °C 8,6 °C 3,2 km/h (1 Bft)
20.09.2017 16:14 8,7 °C 8,7 °C 87 % 1021,4 hPa 0,0 mm 4,5 km/h (1 Bft) W-SW 252 ° 0 min 0,000 mm 0,7 UV-I 102 W/m² 6,7 °C 8,7 °C 6,4 km/h (2 Bft)
20.09.2017 16:15 8,7 °C 8,7 °C 87 % 1021,4 hPa 0,0 mm 1,4 km/h (1 Bft) W-SW 252 ° 0 min 0,000 mm 0,7 UV-I 105 W/m² 6,7 °C 8,7 °C 3,2 km/h (1 Bft)
20.09.2017 16:16 8,7 °C 8,7 °C 87 % 1021,4 hPa 0,0 mm 2,0 km/h (1 Bft) W-SW 252 ° 0 min 0,000 mm 0,7 UV-I 107 W/m² 6,7 °C 8,7 °C 3,2 km/h (1 Bft)
20.09.2017 16:17 8,7 °C 8,7 °C 87 % 1021,4 hPa 0,0 mm 1,0 km/h (0 Bft) W-SW 252 ° 0 min 0,000 mm 0,7 UV-I 111 W/m² 6,7 °C 8,7 °C 3,2 km/h (1 Bft)
20.09.2017 16:18 8,7 °C 8,7 °C 87 % 1021,4 hPa 0,0 mm 0,0 km/h (0 Bft) W-SW 252 ° 0 min 0,000 mm 0,7 UV-I 114 W/m² 6,7 °C 8,7 °C 0,0 km/h (0 Bft)
20.09.2017 16:19 8,7 °C 8,7 °C 87 % 1021,4 hPa 0,0 mm 0,0 km/h (0 Bft) W-SW 252 ° 0 min 0,000 mm 0,7 UV-I 116 W/m² 6,7 °C 8,7 °C 0,0 km/h (0 Bft)
20.09.2017 16:20 8,8 °C 8,8 °C 88 % 1021,4 hPa 0,0 mm 0,0 km/h (0 Bft) W-SW 252 ° 0 min 0,000 mm 0,7 UV-I 120 W/m² 6,9 °C 8,8 °C 0,0 km/h (0 Bft)
20.09.2017 16:21 8,7 °C 8,8 °C 87 % 1021,3 hPa 0,0 mm 0,0 km/h (0 Bft) W-SW 252 ° 0 min 0,000 mm 0,8 UV-I 125 W/m² 6,7 °C 8,7 °C 0,0 km/h (0 Bft)
20.09.2017 16:22 8,7 °C 8,7 °C 87 % 1021,3 hPa 0,0 mm 0,0 km/h (0 Bft) W-SW 252 ° 0 min 0,000 mm 0,8 UV-I 127 W/m² 6,7 °C 8,7 °C 0,0 km/h (0 Bft)
20.09.2017 16:23 8,7 °C 8,7 °C 89 % 1021,3 hPa 0,0 mm 1,7 km/h (1 Bft) W-SW 255 ° 0 min 0,000 mm 0,8 UV-I 130 W/m² 7,0 °C 8,7 °C 6,4 km/h (2 Bft)
20.09.2017 16:24 8,8 °C 8,8 °C 90 % 1021,3 hPa 0,0 mm 4,2 km/h (1 Bft) W 272 ° 0 min 0,000 mm 0,8 UV-I 130 W/m² 7,3 °C 8,8 °C 6,4 km/h (2 Bft)
20.09.2017 16:25 8,8 °C 8,8 °C 90 % 1021,3 hPa 0,0 mm 0,1 km/h (0 Bft) W 272 ° 0 min 0,000 mm 0,8 UV-I 130 W/m² 7,3 °C 8,8 °C 1,6 km/h (1 Bft)
20.09.2017 16:26 8,8 °C 8,8 °C 90 % 1021,3 hPa 0,0 mm 1,7 km/h (1 Bft) W 272 ° 0 min 0,000 mm 0,8 UV-I 128 W/m² 7,3 °C 8,8 °C 3,2 km/h (1 Bft)
20.09.2017 16:27 8,8 °C 8,8 °C 90 % 1021,3 hPa 0,0 mm 0,7 km/h (0 Bft) W 272 ° 0 min 0,000 mm 0,8 UV-I 128 W/m² 7,3 °C 8,8 °C 3,2 km/h (1 Bft)
20.09.2017 16:29 8,9 °C 8,9 °C 89 % 1021,3 hPa 0,0 mm 1,9 km/h (1 Bft) W 268 ° 0 min 0,000 mm 0,8 UV-I 123 W/m² 7,2 °C 8,9 °C 3,2 km/h (1 Bft)
20.09.2017 16:30 8,9 °C 8,9 °C 88 % 1021,3 hPa 0,0 mm 0,8 km/h (0 Bft) W 268 ° 0 min 0,000 mm 0,8 UV-I 120 W/m² 7,0 °C 8,9 °C 3,2 km/h (1 Bft)
20.09.2017 16:31 8,9 °C 8,9 °C 87 % 1021,3 hPa 0,0 mm 5,0 km/h (1 Bft) W 268 ° 0 min 0,000 mm 0,8 UV-I 116 W/m² 6,9 °C 8,5 °C 9,7 km/h (2 Bft)
20.09.2017 16:32 8,9 °C 8,9 °C 87 % 1021,3 hPa 0,0 mm 2,1 km/h (1 Bft) W 268 ° 0 min 0,000 mm 0,8 UV-I 113 W/m² 6,9 °C 8,9 °C 4,8 km/h (1 Bft)
20.09.2017 16:33 8,9 °C 9,0 °C 86 % 1021,4 hPa 0,0 mm 1,7 km/h (1 Bft) W 267 ° 0 min 0,000 mm 0,7 UV-I 109 W/m² 6,7 °C 8,9 °C 3,2 km/h (1 Bft)
20.09.2017 16:34 9,0 °C 9,0 °C 86 % 1021,3 hPa 0,0 mm 2,6 km/h (1 Bft) W-SW 240 ° 0 min 0,000 mm 0,7 UV-I 104 W/m² 6,8 °C 9,0 °C 6,4 km/h (2 Bft)
20.09.2017 16:35 9,0 °C 9,0 °C 87 % 1021,3 hPa 0,0 mm 2,2 km/h (1 Bft) W-SW 240 ° 0 min 0,000 mm 0,7 UV-I 95 W/m² 7,0 °C 9,0 °C 4,8 km/h (1 Bft)
20.09.2017 16:36 9,0 °C 9,1 °C 86 % 1021,3 hPa 0,0 mm 1,4 km/h (1 Bft) W-SW 240 ° 0 min 0,000 mm 0,6 UV-I 91 W/m² 6,8 °C 9,0 °C 3,2 km/h (1 Bft)
20.09.2017 16:37 9,0 °C 9,1 °C 86 % 1021,3 hPa 0,0 mm 1,5 km/h (1 Bft) W-SW 245 ° 0 min 0,000 mm 0,6 UV-I 88 W/m² 6,8 °C 9,0 °C 3,2 km/h (1 Bft)
20.09.2017 16:38 9,0 °C 9,0 °C 86 % 1021,3 hPa 0,0 mm 2,1 km/h (1 Bft) W-SW 238 ° 0 min 0,000 mm 0,6 UV-I 84 W/m² 6,8 °C 9,0 °C 3,2 km/h (1 Bft)
20.09.2017 16:39 9,0 °C 9,0 °C 86 % 1021,4 hPa 0,0 mm 2,5 km/h (1 Bft) W-SW 248 ° 0 min 0,000 mm 0,5 UV-I 83 W/m² 6,8 °C 9,0 °C 4,8 km/h (1 Bft)
20.09.2017 16:40 8,9 °C 9,0 °C 86 % 1021,4 hPa 0,0 mm 3,8 km/h (1 Bft) SW 215 ° 0 min 0,000 mm 0,5 UV-I 79 W/m² 6,7 °C 8,9 °C 6,4 km/h (2 Bft)
20.09.2017 16:41 8,9 °C 9,0 °C 86 % 1021,4 hPa 0,0 mm 3,0 km/h (1 Bft) W 259 ° 0 min 0,000 mm 0,5 UV-I 79 W/m² 6,7 °C 8,9 °C 4,8 km/h (1 Bft)
20.09.2017 16:42 8,9 °C 8,9 °C 86 % 1021,4 hPa 0,0 mm 3,0 km/h (1 Bft) SW 227 ° 0 min 0,000 mm 0,5 UV-I 79 W/m² 6,7 °C 8,9 °C 4,8 km/h (1 Bft)
20.09.2017 16:43 8,9 °C 9,0 °C 86 % 1021,3 hPa 0,0 mm 1,2 km/h (1 Bft) SW 227 ° 0 min 0,000 mm 0,5 UV-I 79 W/m² 6,7 °C 8,9 °C 3,2 km/h (1 Bft)
20.09.2017 16:44 8,9 °C 8,9 °C 86 % 1021,4 hPa 0,0 mm 0,4 km/h (0 Bft) SW 227 ° 0 min 0,000 mm 0,5 UV-I 81 W/m² 6,7 °C 8,9 °C 1,6 km/h (1 Bft)
20.09.2017 16:45 8,9 °C 8,9 °C 85 % 1021,4 hPa 0,0 mm 1,4 km/h (1 Bft) SW 214 ° 0 min 0,000 mm 0,6 UV-I 83 W/m² 6,5 °C 8,9 °C 3,2 km/h (1 Bft)
20.09.2017 16:46 8,9 °C 8,9 °C 85 % 1021,4 hPa 0,0 mm 1,7 km/h (1 Bft) SW 221 ° 0 min 0,000 mm 0,6 UV-I 88 W/m² 6,5 °C 8,9 °C 3,2 km/h (1 Bft)
20.09.2017 16:47 8,9 °C 8,9 °C 85 % 1021,4 hPa 0,0 mm 3,4 km/h (1 Bft) W 264 ° 0 min 0,000 mm 0,6 UV-I 90 W/m² 6,5 °C 8,9 °C 4,8 km/h (1 Bft)
20.09.2017 16:48 8,9 °C 8,9 °C 86 % 1021,4 hPa 0,0 mm 2,7 km/h (1 Bft) W-SW 237 ° 0 min 0,000 mm 0,6 UV-I 91 W/m² 6,7 °C 8,9 °C 4,8 km/h (1 Bft)
20.09.2017 16:49 8,9 °C 8,9 °C 87 % 1021,4 hPa 0,0 mm 2,5 km/h (1 Bft) W-SW 241 ° 0 min 0,000 mm 0,7 UV-I 95 W/m² 6,9 °C 8,9 °C 4,8 km/h (1 Bft)
20.09.2017 16:50 8,9 °C 8,9 °C 86 % 1021,4 hPa 0,0 mm 1,3 km/h (1 Bft) W-SW 241 ° 0 min 0,000 mm 0,7 UV-I 97 W/m² 6,7 °C 8,9 °C 3,2 km/h (1 Bft)
20.09.2017 16:51 8,9 °C 8,9 °C 86 % 1021,3 hPa 0,0 mm 1,1 km/h (1 Bft) SW 232 ° 0 min 0,000 mm 0,7 UV-I 98 W/m² 6,7 °C 8,9 °C 3,2 km/h (1 Bft)
20.09.2017 16:52 8,9 °C 8,9 °C 87 % 1021,4 hPa 0,0 mm 1,4 km/h (1 Bft) SW 226 ° 0 min 0,000 mm 0,7 UV-I 98 W/m² 6,9 °C 8,9 °C 4,8 km/h (1 Bft)
20.09.2017 16:53 8,9 °C 8,9 °C 86 % 1021,3 hPa 0,0 mm 2,8 km/h (1 Bft) SW 232 ° 0 min 0,000 mm 0,7 UV-I 97 W/m² 6,7 °C 8,9 °C 4,8 km/h (1 Bft)
20.09.2017 16:54 8,9 °C 8,9 °C 86 % 1021,3 hPa 0,0 mm 3,6 km/h (1 Bft) W-SW 240 ° 0 min 0,000 mm 0,7 UV-I 95 W/m² 6,7 °C 8,9 °C 6,4 km/h (2 Bft)
20.09.2017 16:55 8,9 °C 9,0 °C 85 % 1021,4 hPa 0,0 mm 2,9 km/h (1 Bft) SW 233 ° 0 min 0,000 mm 0,7 UV-I 95 W/m² 6,5 °C 8,9 °C 4,8 km/h (1 Bft)
20.09.2017 16:56 8,9 °C 9,0 °C 85 % 1021,3 hPa 0,0 mm 2,7 km/h (1 Bft) SW 234 ° 0 min 0,000 mm 0,7 UV-I 93 W/m² 6,5 °C 8,9 °C 4,8 km/h (1 Bft)
20.09.2017 16:57 9,0 °C 9,0 °C 85 % 1021,3 hPa 0,0 mm 1,9 km/h (1 Bft) W-SW 243 ° 0 min 0,000 mm 0,7 UV-I 93 W/m² 6,6 °C 9,0 °C 4,8 km/h (1 Bft)
20.09.2017 16:59 9,0 °C 9,0 °C 85 % 1021,3 hPa 0,0 mm 1,9 km/h (1 Bft) SW 223 ° 0 min 0,000 mm 0,7 UV-I 93 W/m² 6,6 °C 9,0 °C 6,4 km/h (2 Bft)
20.09.2017 17:00 9,0 °C 9,0 °C 84 % 1021,3 hPa 0,0 mm 0,0 km/h (0 Bft) SW 223 ° 0 min 0,000 mm 0,7 UV-I 91 W/m² 6,4 °C 9,0 °C 0,0 km/h (0 Bft)
20.09.2017 17:01 9,0 °C 9,1 °C 84 % 1021,3 hPa 0,0 mm 0,3 km/h (0 Bft) SW 223 ° 0 min 0,051 mm 0,7 UV-I 91 W/m² 6,4 °C 9,0 °C 1,6 km/h (1 Bft)
20.09.2017 17:02 9,0 °C 9,0 °C 85 % 1021,3 hPa 0,0 mm 0,0 km/h (0 Bft) SW 223 ° 0 min 0,000 mm 0,7 UV-I 90 W/m² 6,6 °C 9,0 °C 0,0 km/h (0 Bft)
20.09.2017 17:03 9,0 °C 9,0 °C 84 % 1021,2 hPa 0,0 mm 1,0 km/h (0 Bft) W 265 ° 0 min 0,000 mm 0,7 UV-I 88 W/m² 6,4 °C 9,0 °C 3,2 km/h (1 Bft)
20.09.2017 17:04 9,0 °C 9,0 °C 85 % 1021,2 hPa 0,0 mm 1,0 km/h (0 Bft) W-SW 239 ° 0 min 0,000 mm 0,7 UV-I 86 W/m² 6,6 °C 9,0 °C 1,6 km/h (1 Bft)
20.09.2017 17:05 8,9 °C 9,0 °C 84 % 1021,2 hPa 0,0 mm 2,1 km/h (1 Bft) S 186 ° 0 min 0,000 mm 0,6 UV-I 84 W/m² 6,3 °C 8,9 °C 4,8 km/h (1 Bft)
20.09.2017 17:06 8,9 °C 8,9 °C 83 % 1021,2 hPa 0,0 mm 3,6 km/h (1 Bft) S-SW 196 ° 0 min 0,000 mm 0,6 UV-I 84 W/m² 6,2 °C 8,9 °C 4,8 km/h (1 Bft)
20.09.2017 17:07 8,9 °C 8,9 °C 86 % 1021,2 hPa 0,0 mm 1,9 km/h (1 Bft) SW 221 ° 0 min 0,000 mm 0,6 UV-I 83 W/m² 6,7 °C 8,9 °C 4,8 km/h (1 Bft)
20.09.2017 17:08 8,9 °C 8,9 °C 86 % 1021,2 hPa 0,0 mm 1,2 km/h (1 Bft) SW 221 ° 0 min 0,000 mm 0,6 UV-I 84 W/m² 6,7 °C 8,9 °C 1,6 km/h (1 Bft)
20.09.2017 17:09 8,9 °C 8,9 °C 87 % 1021,2 hPa 0,0 mm 0,7 km/h (0 Bft) SW 221 ° 0 min 0,000 mm 0,6 UV-I 84 W/m² 6,9 °C 8,9 °C 1,6 km/h (1 Bft)
20.09.2017 17:10 8,8 °C 8,9 °C 88 % 1021,2 hPa 0,0 mm 0,0 km/h (0 Bft) SW 221 ° 0 min 0,000 mm 0,6 UV-I 86 W/m² 6,9 °C 8,8 °C 0,0 km/h (0 Bft)
20.09.2017 17:11 8,6 °C 8,8 °C 88 % 1021,1 hPa 0,0 mm 0,0 km/h (0 Bft) SW 221 ° 0 min 0,000 mm 0,6 UV-I 86 W/m² 6,7 °C 8,6 °C 0,0 km/h (0 Bft)
20.09.2017 17:12 8,5 °C 8,6 °C 88 % 1021,1 hPa 0,0 mm 0,0 km/h (0 Bft) SW 221 ° 0 min 0,000 mm 0,6 UV-I 88 W/m² 6,6 °C 8,5 °C 0,0 km/h (0 Bft)
20.09.2017 17:13 8,4 °C 8,5 °C 89 % 1021,1 hPa 0,0 mm 0,0 km/h (0 Bft) SW 221 ° 0 min 0,000 mm 0,6 UV-I 90 W/m² 6,7 °C 8,4 °C 0,0 km/h (0 Bft)
20.09.2017 17:14 8,4 °C 8,4 °C 89 % 1021,1 hPa 0,0 mm 0,3 km/h (0 Bft) SW 215 ° 0 min 0,000 mm 0,6 UV-I 91 W/m² 6,7 °C 8,4 °C 3,2 km/h (1 Bft)
20.09.2017 17:15 8,6 °C 8,6 °C 90 % 1021,1 hPa 0,0 mm 0,0 km/h (0 Bft) SW 215 ° 0 min 0,000 mm 0,6 UV-I 95 W/m² 7,1 °C 8,6 °C 0,0 km/h (0 Bft)
20.09.2017 17:16 8,7 °C 8,7 °C 88 % 1021,1 hPa 0,0 mm 0,0 km/h (0 Bft) SW 215 ° 0 min 0,000 mm 0,6 UV-I 100 W/m² 6,8 °C 8,7 °C 0,0 km/h (0 Bft)
20.09.2017 17:17 8,8 °C 8,8 °C 87 % 1021,1 hPa 0,0 mm 1,6 km/h (1 Bft) SW 215 ° 0 min 0,000 mm 0,6 UV-I 102 W/m² 6,8 °C 8,8 °C 4,8 km/h (1 Bft)
20.09.2017 17:18 8,8 °C 8,8 °C 86 % 1021,1 hPa 0,0 mm 0,4 km/h (0 Bft) SW 215 ° 0 min 0,000 mm 0,6 UV-I 102 W/m² 6,6 °C 8,8 °C 1,6 km/h (1 Bft)
20.09.2017 17:19 8,9 °C 8,9 °C 85 % 1021,1 hPa 0,0 mm 1,6 km/h (1 Bft) W-SW 255 ° 0 min 0,000 mm 0,6 UV-I 102 W/m² 6,5 °C 8,9 °C 4,8 km/h (1 Bft)
20.09.2017 17:20 8,9 °C 8,9 °C 85 % 1021,1 hPa 0,0 mm 1,5 km/h (1 Bft) W-SW 255 ° 0 min 0,000 mm 0,6 UV-I 100 W/m² 6,5 °C 8,9 °C 1,6 km/h (1 Bft)
20.09.2017 17:21 9,1 °C 9,1 °C 85 % 1021,1 hPa 0,0 mm 0,8 km/h (0 Bft) W-SW 249 ° 0 min 0,000 mm 0,6 UV-I 98 W/m² 6,7 °C 9,1 °C 1,6 km/h (1 Bft)
20.09.2017 17:22 9,1 °C 9,1 °C 85 % 1021,1 hPa 0,0 mm 0,8 km/h (0 Bft) SW 229 ° 0 min 0,000 mm 0,6 UV-I 95 W/m² 6,7 °C 9,1 °C 1,6 km/h (1 Bft)
20.09.2017 17:24 9,1 °C 9,1 °C 84 % 1021,1 hPa 0,0 mm 1,0 km/h (0 Bft) SW 229 ° 0 min 0,000 mm 0,6 UV-I 93 W/m² 6,5 °C 9,1 °C 3,2 km/h (1 Bft)
20.09.2017 17:25 9,1 °C 9,1 °C 84 % 1021,1 hPa 0,0 mm 2,0 km/h (1 Bft) SW 234 ° 0 min 0,000 mm 0,6 UV-I 93 W/m² 6,5 °C 9,1 °C 4,8 km/h (1 Bft)
20.09.2017 17:26 9,1 °C 9,1 °C 85 % 1021,0 hPa 0,0 mm 2,7 km/h (1 Bft) SW 236 ° 0 min 0,000 mm 0,6 UV-I 88 W/m² 6,7 °C 9,1 °C 4,8 km/h (1 Bft)
20.09.2017 17:27 9,1 °C 9,1 °C 85 % 1021,0 hPa 0,0 mm 0,4 km/h (0 Bft) SW 236 ° 0 min 0,000 mm 0,5 UV-I 83 W/m² 6,7 °C 9,1 °C 1,6 km/h (1 Bft)
20.09.2017 17:28 9,1 °C 9,1 °C 87 % 1021,0 hPa 0,0 mm 0,4 km/h (0 Bft) SW 236 ° 0 min 0,000 mm 0,5 UV-I 81 W/m² 7,1 °C 9,1 °C 1,6 km/h (1 Bft)
20.09.2017 17:29 9,2 °C 9,2 °C 87 % 1021,0 hPa 0,0 mm 1,6 km/h (1 Bft) SW 236 ° 0 min 0,000 mm 0,5 UV-I 81 W/m² 7,2 °C 9,2 °C 3,2 km/h (1 Bft)
20.09.2017 17:30 9,2 °C 9,2 °C 86 % 1021,0 hPa 0,0 mm 2,9 km/h (1 Bft) W-SW 250 ° 0 min 0,000 mm 0,5 UV-I 81 W/m² 7,0 °C 9,2 °C 4,8 km/h (1 Bft)
20.09.2017 17:31 9,2 °C 9,2 °C 84 % 1020,9 hPa 0,0 mm 0,4 km/h (0 Bft) W-SW 250 ° 0 min 0,000 mm 0,5 UV-I 84 W/m² 6,6 °C 9,2 °C 3,2 km/h (1 Bft)
20.09.2017 17:32 9,3 °C 9,3 °C 84 % 1021,0 hPa 0,0 mm 0,1 km/h (0 Bft) W-SW 250 ° 0 min 0,000 mm 0,5 UV-I 83 W/m² 6,7 °C 9,3 °C 1,6 km/h (1 Bft)
20.09.2017 17:33 9,3 °C 9,3 °C 84 % 1020,9 hPa 0,0 mm 1,1 km/h (1 Bft) W-SW 250 ° 0 min 0,000 mm 0,5 UV-I 77 W/m² 6,7 °C 9,3 °C 3,2 km/h (1 Bft)
20.09.2017 17:34 9,3 °C 9,3 °C 82 % 1020,9 hPa 0,0 mm 0,9 km/h (0 Bft) W-SW 250 ° 0 min 0,000 mm 0,5 UV-I 77 W/m² 6,4 °C 9,3 °C 1,6 km/h (1 Bft)
20.09.2017 17:35 9,4 °C 9,4 °C 83 % 1020,9 hPa 0,0 mm 0,0 km/h (0 Bft) W-SW 250 ° 0 min 0,000 mm 0,5 UV-I 79 W/m² 6,7 °C 9,4 °C 0,0 km/h (0 Bft)
20.09.2017 17:36 9,4 °C 9,4 °C 84 % 1021,0 hPa 0,0 mm 2,4 km/h (1 Bft) W 275 ° 0 min 0,000 mm 0,5 UV-I 79 W/m² 6,8 °C 9,4 °C 6,4 km/h (2 Bft)
20.09.2017 17:37 9,5 °C 9,5 °C 85 % 1021,0 hPa 0,0 mm 4,8 km/h (1 Bft) W-SW 247 ° 0 min 0,000 mm 0,5 UV-I 77 W/m² 7,1 °C 9,3 °C 8,0 km/h (2 Bft)
20.09.2017 17:38 9,5 °C 9,5 °C 85 % 1021,0 hPa 0,0 mm 4,3 km/h (1 Bft) W-SW 257 ° 0 min 0,000 mm 0,5 UV-I 77 W/m² 7,1 °C 9,5 °C 6,4 km/h (2 Bft)
20.09.2017 17:39 9,5 °C 9,5 °C 84 % 1020,9 hPa 0,0 mm 2,8 km/h (1 Bft) W-SW 241 ° 0 min 0,000 mm 0,5 UV-I 76 W/m² 6,9 °C 9,5 °C 4,8 km/h (1 Bft)
20.09.2017 17:40 9,4 °C 9,5 °C 86 % 1021,0 hPa 0,0 mm 2,4 km/h (1 Bft) W-SW 254 ° 0 min 0,000 mm 0,5 UV-I 74 W/m² 7,2 °C 9,4 °C 8,0 km/h (2 Bft)
20.09.2017 17:41 9,4 °C 9,4 °C 85 % 1020,9 hPa 0,0 mm 7,5 km/h (2 Bft) W 276 ° 0 min 0,000 mm 0,5 UV-I 72 W/m² 7,0 °C 8,4 °C 11,3 km/h (2 Bft)
20.09.2017 17:42 9,4 °C 9,4 °C 84 % 1020,9 hPa 0,0 mm 5,7 km/h (1 Bft) W 266 ° 0 min 0,000 mm 0,5 UV-I 72 W/m² 6,8 °C 8,9 °C 9,7 km/h (2 Bft)
20.09.2017 17:43 9,4 °C 9,4 °C 85 % 1021,0 hPa 0,0 mm 2,9 km/h (1 Bft) W 266 ° 0 min 0,000 mm 0,5 UV-I 72 W/m² 7,0 °C 9,4 °C 3,2 km/h (1 Bft)
20.09.2017 17:44 9,2 °C 9,4 °C 86 % 1021,0 hPa 0,0 mm 3,3 km/h (1 Bft) W-SW 250 ° 0 min 0,000 mm 0,5 UV-I 70 W/m² 7,0 °C 9,2 °C 8,0 km/h (2 Bft)
20.09.2017 17:45 9,1 °C 9,2 °C 87 % 1021,0 hPa 0,0 mm 5,1 km/h (1 Bft) W-SW 246 ° 0 min 0,000 mm 0,5 UV-I 69 W/m² 7,1 °C 8,7 °C 8,0 km/h (2 Bft)
20.09.2017 17:46 9,1 °C 9,1 °C 87 % 1021,0 hPa 0,0 mm 2,5 km/h (1 Bft) W-SW 251 ° 0 min 0,000 mm 0,5 UV-I 69 W/m² 7,1 °C 9,1 °C 4,8 km/h (1 Bft)
20.09.2017 17:47 8,9 °C 9,1 °C 88 % 1021,0 hPa 0,0 mm 3,2 km/h (1 Bft) W-SW 251 ° 0 min 0,000 mm 0,5 UV-I 67 W/m² 7,0 °C 8,9 °C 4,8 km/h (1 Bft)
20.09.2017 17:48 8,9 °C 8,9 °C 88 % 1021,0 hPa 0,0 mm 4,1 km/h (1 Bft) W 273 ° 0 min 0,000 mm 0,5 UV-I 67 W/m² 7,0 °C 8,9 °C 8,0 km/h (2 Bft)
20.09.2017 17:49 8,9 °C 8,9 °C 88 % 1021,0 hPa 0,0 mm 5,7 km/h (1 Bft) W 280 ° 0 min 0,000 mm 0,5 UV-I 67 W/m² 7,0 °C 8,3 °C 9,7 km/h (2 Bft)
20.09.2017 17:50 9,0 °C 9,0 °C 87 % 1021,0 hPa 0,0 mm 3,8 km/h (1 Bft) W 279 ° 0 min 0,000 mm 0,5 UV-I 69 W/m² 7,0 °C 9,0 °C 4,8 km/h (1 Bft)
20.09.2017 17:51 9,1 °C 9,1 °C 86 % 1021,0 hPa 0,0 mm 4,8 km/h (1 Bft) W 270 ° 0 min 0,000 mm 0,0 UV-I 67 W/m² 6,9 °C 8,8 °C 9,7 km/h (2 Bft)
20.09.2017 17:52 9,2 °C 9,2 °C 85 % 1021,0 hPa 0,0 mm 6,3 km/h (2 Bft) W 281 ° 0 min 0,000 mm 0,0 UV-I 69 W/m² 6,8 °C 8,5 °C 9,7 km/h (2 Bft)
20.09.2017 17:53 9,2 °C 9,2 °C 83 % 1021,0 hPa 0,0 mm 4,0 km/h (1 Bft) W-SW 256 ° 0 min 0,000 mm 0,0 UV-I 70 W/m² 6,5 °C 9,2 °C 6,4 km/h (2 Bft)
20.09.2017 17:54 9,3 °C 9,3 °C 83 % 1021,0 hPa 0,0 mm 4,0 km/h (1 Bft) W 269 ° 0 min 0,000 mm 0,0 UV-I 72 W/m² 6,6 °C 9,3 °C 6,4 km/h (2 Bft)
20.09.2017 17:55 9,3 °C 9,3 °C 83 % 1021,1 hPa 0,0 mm 5,6 km/h (1 Bft) W-SW 255 ° 0 min 0,000 mm 0,0 UV-I 74 W/m² 6,6 °C 8,8 °C 9,7 km/h (2 Bft)
20.09.2017 17:56 9,3 °C 9,4 °C 82 % 1021,1 hPa 0,0 mm 5,4 km/h (1 Bft) W-NW 284 ° 0 min 0,000 mm 0,0 UV-I 81 W/m² 6,4 °C 8,8 °C 9,7 km/h (2 Bft)
20.09.2017 17:57 9,4 °C 9,4 °C 82 % 1021,1 hPa 0,0 mm 5,4 km/h (1 Bft) NW 316 ° 0 min 0,000 mm 0,0 UV-I 84 W/m² 6,5 °C 9,0 °C 9,7 km/h (2 Bft)
20.09.2017 17:58 9,4 °C 9,4 °C 81 % 1021,1 hPa 0,0 mm 5,7 km/h (1 Bft) W 274 ° 0 min 0,000 mm 0,0 UV-I 84 W/m² 6,3 °C 8,9 °C 11,3 km/h (2 Bft)
20.09.2017 17:59 9,4 °C 9,4 °C 81 % 1021,1 hPa 0,0 mm 4,8 km/h (1 Bft) W 269 ° 0 min 0,000 mm 0,0 UV-I 84 W/m² 6,3 °C 9,1 °C 9,7 km/h (2 Bft)
20.09.2017 18:00 9,4 °C 9,4 °C 81 % 1021,1 hPa 0,0 mm 7,7 km/h (2 Bft) W-SW 241 ° 0 min 0,000 mm 0,0 UV-I 88 W/m² 6,3 °C 8,4 °C 11,3 km/h (2 Bft)
20.09.2017 18:01 9,4 °C 9,4 °C 82 % 1021,1 hPa 0,0 mm 6,0 km/h (2 Bft) W 275 ° 0 min 0,051 mm 0,0 UV-I 88 W/m² 6,5 °C 8,8 °C 12,9 km/h (3 Bft)
20.09.2017 18:02 9,4 °C 9,4 °C 81 % 1021,1 hPa 0,0 mm 5,9 km/h (2 Bft) W 260 ° 0 min 0,000 mm 0,0 UV-I 81 W/m² 6,3 °C 8,8 °C 9,7 km/h (2 Bft)
20.09.2017 18:03 9,4 °C 9,4 °C 82 % 1021,1 hPa 0,0 mm 8,9 km/h (2 Bft) W-NW 300 ° 0 min 0,000 mm 0,0 UV-I 77 W/m² 6,5 °C 8,1 °C 12,9 km/h (3 Bft)
20.09.2017 18:04 9,4 °C 9,4 °C 82 % 1021,1 hPa 0,0 mm 4,5 km/h (1 Bft) W-SW 252 ° 0 min 0,000 mm 0,0 UV-I 74 W/m² 6,5 °C 9,4 °C 6,4 km/h (2 Bft)
20.09.2017 18:05 9,4 °C 9,4 °C 83 % 1021,1 hPa 0,0 mm 5,4 km/h (1 Bft) W-SW 250 ° 0 min 0,000 mm 0,0 UV-I 70 W/m² 6,7 °C 9,0 °C 11,3 km/h (2 Bft)
20.09.2017 18:06 9,4 °C 9,4 °C 83 % 1021,1 hPa 0,0 mm 6,6 km/h (2 Bft) W-NW 282 ° 0 min 0,000 mm 0,0 UV-I 67 W/m² 6,7 °C 8,6 °C 11,3 km/h (2 Bft)
20.09.2017 18:07 9,4 °C 9,4 °C 83 % 1021,1 hPa 0,0 mm 7,6 km/h (2 Bft) W-SW 252 ° 0 min 0,000 mm 0,0 UV-I 67 W/m² 6,7 °C 8,4 °C 14,5 km/h (3 Bft)
20.09.2017 18:08 9,4 °C 9,4 °C 82 % 1021,1 hPa 0,0 mm 8,5 km/h (2 Bft) W 263 ° 0 min 0,000 mm 0,0 UV-I 60 W/m² 6,5 °C 8,2 °C 12,9 km/h (3 Bft)
20.09.2017 18:09 9,4 °C 9,4 °C 82 % 1021,1 hPa 0,0 mm 5,6 km/h (1 Bft) W-NW 288 ° 0 min 0,000 mm 0,0 UV-I 54 W/m² 6,5 °C 8,9 °C 9,7 km/h (2 Bft)
20.09.2017 18:10 9,3 °C 9,4 °C 82 % 1021,1 hPa 0,0 mm 3,2 km/h (1 Bft) W 271 ° 0 min 0,000 mm 0,0 UV-I 51 W/m² 6,4 °C 9,3 °C 6,4 km/h (2 Bft)
20.09.2017 18:11 9,3 °C 9,3 °C 82 % 1021,0 hPa 0,0 mm 6,2 km/h (2 Bft) W-SW 257 ° 0 min 0,000 mm 0,0 UV-I 47 W/m² 6,4 °C 8,6 °C 12,9 km/h (3 Bft)
20.09.2017 18:12 9,2 °C 9,3 °C 83 % 1021,0 hPa 0,0 mm 8,9 km/h (2 Bft) W 264 ° 0 min 0,000 mm 0,0 UV-I 44 W/m² 6,5 °C 7,9 °C 11,3 km/h (2 Bft)
20.09.2017 18:13 9,2 °C 9,2 °C 82 % 1021,1 hPa 0,0 mm 6,5 km/h (2 Bft) W 266 ° 0 min 0,000 mm 0,0 UV-I 42 W/m² 6,3 °C 8,4 °C 11,3 km/h (2 Bft)
20.09.2017 18:14 9,1 °C 9,2 °C 83 % 1021,0 hPa 0,0 mm 4,1 km/h (1 Bft) W-SW 252 ° 0 min 0,000 mm 0,0 UV-I 42 W/m² 6,4 °C 9,1 °C 4,8 km/h (1 Bft)
20.09.2017 18:15 9,1 °C 9,1 °C 83 % 1021,1 hPa 0,0 mm 2,7 km/h (1 Bft) SW 223 ° 0 min 0,000 mm 0,0 UV-I 39 W/m² 6,4 °C 9,1 °C 6,4 km/h (2 Bft)
20.09.2017 18:16 9,0 °C 9,1 °C 83 % 1021,0 hPa 0,0 mm 4,6 km/h (1 Bft) W 263 ° 0 min 0,000 mm 0,0 UV-I 39 W/m² 6,3 °C 8,8 °C 9,7 km/h (2 Bft)
20.09.2017 18:17 8,9 °C 9,0 °C 84 % 1021,1 hPa 0,0 mm 5,2 km/h (1 Bft) W-SW 246 ° 0 min 0,000 mm 0,0 UV-I 39 W/m² 6,3 °C 8,4 °C 9,7 km/h (2 Bft)
20.09.2017 18:18 8,9 °C 8,9 °C 85 % 1021,1 hPa 0,0 mm 2,6 km/h (1 Bft) W-SW 246 ° 0 min 0,000 mm 0,0 UV-I 39 W/m² 6,5 °C 8,9 °C 4,8 km/h (1 Bft)
20.09.2017 18:19 8,8 °C 8,9 °C 85 % 1021,1 hPa 0,0 mm 2,2 km/h (1 Bft) W-SW 240 ° 0 min 0,000 mm 0,0 UV-I 37 W/m² 6,4 °C 8,8 °C 4,8 km/h (1 Bft)
20.09.2017 18:20 8,7 °C 8,8 °C 85 % 1021,1 hPa 0,0 mm 4,7 km/h (1 Bft) W 269 ° 0 min 0,000 mm 0,0 UV-I 37 W/m² 6,3 °C 8,4 °C 6,4 km/h (2 Bft)
20.09.2017 18:21 8,6 °C 8,7 °C 84 % 1021,1 hPa 0,0 mm 2,6 km/h (1 Bft) W 269 ° 0 min 0,000 mm 0,0 UV-I 37 W/m² 6,1 °C 8,6 °C 3,2 km/h (1 Bft)
20.09.2017 18:22 8,6 °C 8,6 °C 84 % 1021,1 hPa 0,0 mm 1,3 km/h (1 Bft) W 269 ° 0 min 0,000 mm 0,0 UV-I 37 W/m² 6,1 °C 8,6 °C 4,8 km/h (1 Bft)
20.09.2017 18:23 8,5 °C 8,6 °C 84 % 1021,1 hPa 0,0 mm 2,4 km/h (1 Bft) W 269 ° 0 min 0,000 mm 0,0 UV-I 35 W/m² 6,0 °C 8,5 °C 3,2 km/h (1 Bft)
20.09.2017 18:24 8,4 °C 8,5 °C 85 % 1021,1 hPa 0,0 mm 0,2 km/h (0 Bft) W 269 ° 0 min 0,000 mm 0,0 UV-I 35 W/m² 6,0 °C 8,4 °C 1,6 km/h (1 Bft)
20.09.2017 18:25 8,4 °C 8,4 °C 85 % 1021,1 hPa 0,0 mm 1,8 km/h (1 Bft) W 269 ° 0 min 0,000 mm 0,0 UV-I 35 W/m² 6,0 °C 8,4 °C 6,4 km/h (2 Bft)
20.09.2017 18:26 8,4 °C 8,4 °C 84 % 1021,1 hPa 0,0 mm 2,9 km/h (1 Bft) W 269 ° 0 min 0,000 mm 0,0 UV-I 33 W/m² 5,9 °C 8,4 °C 4,8 km/h (1 Bft)
20.09.2017 18:27 8,3 °C 8,4 °C 85 % 1021,1 hPa 0,0 mm 1,0 km/h (0 Bft) W 269 ° 0 min 0,000 mm 0,0 UV-I 32 W/m² 5,9 °C 8,3 °C 3,2 km/h (1 Bft)
20.09.2017 18:28 8,3 °C 8,3 °C 85 % 1021,1 hPa 0,0 mm 1,2 km/h (1 Bft) W 269 ° 0 min 0,000 mm 0,0 UV-I 32 W/m² 5,9 °C 8,3 °C 4,8 km/h (1 Bft)
20.09.2017 18:29 8,2 °C 8,3 °C 85 % 1021,0 hPa 0,0 mm 1,8 km/h (1 Bft) W 269 ° 0 min 0,000 mm 0,0 UV-I 32 W/m² 5,8 °C 8,2 °C 4,8 km/h (1 Bft)
20.09.2017 18:30 8,2 °C 8,2 °C 85 % 1021,1 hPa 0,0 mm 1,9 km/h (1 Bft) W 269 ° 0 min 0,000 mm 0,0 UV-I 32 W/m² 5,8 °C 8,2 °C 3,2 km/h (1 Bft)
20.09.2017 18:31 8,1 °C 8,2 °C 87 % 1021,1 hPa 0,0 mm 0,4 km/h (0 Bft) W 269 ° 0 min 0,000 mm 0,0 UV-I 30 W/m² 6,1 °C 8,1 °C 1,6 km/h (1 Bft)
20.09.2017 18:32 8,1 °C 8,1 °C 87 % 1021,0 hPa 0,0 mm 0,6 km/h (0 Bft) W 269 ° 0 min 0,000 mm 0,0 UV-I 28 W/m² 6,1 °C 8,1 °C 1,6 km/h (1 Bft)
20.09.2017 18:33 8,0 °C 8,1 °C 88 % 1021,1 hPa 0,0 mm 0,1 km/h (0 Bft) W 269 ° 0 min 0,000 mm 0,0 UV-I 26 W/m² 6,1 °C 8,0 °C 1,6 km/h (1 Bft)
20.09.2017 18:34 7,9 °C 8,0 °C 87 % 1021,1 hPa 0,0 mm 0,8 km/h (0 Bft) W 269 ° 0 min 0,000 mm 0,0 UV-I 25 W/m² 5,9 °C 7,9 °C 1,6 km/h (1 Bft)
20.09.2017 18:35 7,9 °C 7,9 °C 87 % 1021,1 hPa 0,0 mm 1,1 km/h (1 Bft) W 269 ° 0 min 0,000 mm 0,0 UV-I 25 W/m² 5,9 °C 7,9 °C 3,2 km/h (1 Bft)
20.09.2017 18:36 7,8 °C 7,9 °C 87 % 1021,0 hPa 0,0 mm 0,0 km/h (0 Bft) W 269 ° 0 min 0,000 mm 0,0 UV-I 25 W/m² 5,8 °C 7,8 °C 0,0 km/h (0 Bft)
20.09.2017 18:37 7,8 °C 7,8 °C 88 % 1021,0 hPa 0,0 mm 0,0 km/h (0 Bft) W 269 ° 0 min 0,000 mm 0,0 UV-I 23 W/m² 5,9 °C 7,8 °C 0,0 km/h (0 Bft)
20.09.2017 18:38 7,7 °C 7,8 °C 88 % 1021,1 hPa 0,0 mm 0,0 km/h (0 Bft) W 269 ° 0 min 0,000 mm 0,0 UV-I 23 W/m² 5,8 °C 7,7 °C 0,0 km/h (0 Bft)
20.09.2017 18:39 7,7 °C 7,7 °C 87 % 1021,1 hPa 0,0 mm 1,1 km/h (1 Bft) W 269 ° 0 min 0,000 mm 0,0 UV-I 23 W/m² 5,7 °C 7,7 °C 1,6 km/h (1 Bft)
20.09.2017 18:40 7,8 °C 7,8 °C 87 % 1021,1 hPa 0,0 mm 0,2 km/h (0 Bft) W 269 ° 0 min 0,000 mm 0,0 UV-I 23 W/m² 5,8 °C 7,8 °C 1,6 km/h (1 Bft)
20.09.2017 18:41 7,8 °C 7,8 °C 87 % 1021,1 hPa 0,0 mm 0,4 km/h (0 Bft) W 269 ° 0 min 0,000 mm 0,0 UV-I 21 W/m² 5,8 °C 7,8 °C 1,6 km/h (1 Bft)
20.09.2017 18:42 7,8 °C 7,8 °C 87 % 1021,2 hPa 0,0 mm 0,0 km/h (0 Bft) W 269 ° 0 min 0,000 mm 0,0 UV-I 21 W/m² 5,8 °C 7,8 °C 0,0 km/h (0 Bft)
20.09.2017 18:43 7,8 °C 7,8 °C 88 % 1021,1 hPa 0,0 mm 0,0 km/h (0 Bft) W 269 ° 0 min 0,000 mm 0,0 UV-I 19 W/m² 5,9 °C 7,8 °C 0,0 km/h (0 Bft)
20.09.2017 18:44 7,7 °C 7,8 °C 89 % 1021,1 hPa 0,0 mm 0,3 km/h (0 Bft) W 269 ° 0 min 0,000 mm 0,0 UV-I 19 W/m² 6,0 °C 7,7 °C 1,6 km/h (1 Bft)
20.09.2017 18:45 7,7 °C 7,7 °C 89 % 1021,2 hPa 0,0 mm 0,3 km/h (0 Bft) W 269 ° 0 min 0,000 mm 0,0 UV-I 18 W/m² 6,0 °C 7,7 °C 1,6 km/h (1 Bft)
20.09.2017 18:46 7,6 °C 7,7 °C 89 % 1021,2 hPa 0,0 mm 0,4 km/h (0 Bft) W 269 ° 0 min 0,000 mm 0,0 UV-I 18 W/m² 5,9 °C 7,6 °C 1,6 km/h (1 Bft)
20.09.2017 18:47 7,6 °C 7,6 °C 89 % 1021,2 hPa 0,0 mm 0,3 km/h (0 Bft) W 269 ° 0 min 0,000 mm 0,0 UV-I 18 W/m² 5,9 °C 7,6 °C 1,6 km/h (1 Bft)
20.09.2017 18:48 7,5 °C 7,6 °C 90 % 1021,2 hPa 0,0 mm 1,4 km/h (1 Bft) W 269 ° 0 min 0,000 mm 0,0 UV-I 18 W/m² 6,0 °C 7,5 °C 3,2 km/h (1 Bft)
20.09.2017 18:49 7,4 °C 7,5 °C 90 % 1021,2 hPa 0,0 mm 0,7 km/h (0 Bft) W 269 ° 0 min 0,000 mm 0,0 UV-I 18 W/m² 5,9 °C 7,4 °C 1,6 km/h (1 Bft)
20.09.2017 18:50 7,4 °C 7,4 °C 90 % 1021,2 hPa 0,0 mm 0,0 km/h (0 Bft) W 269 ° 0 min 0,000 mm 0,0 UV-I 18 W/m² 5,9 °C 7,4 °C 0,0 km/h (0 Bft)
20.09.2017 18:51 7,3 °C 7,4 °C 90 % 1021,2 hPa 0,0 mm 0,2 km/h (0 Bft) W 269 ° 0 min 0,000 mm 0,0 UV-I 18 W/m² 5,8 °C 7,3 °C 1,6 km/h (1 Bft)
20.09.2017 18:52 7,3 °C 7,3 °C 90 % 1021,2 hPa 0,0 mm 0,0 km/h (0 Bft) W 269 ° 0 min 0,000 mm 0,0 UV-I 18 W/m² 5,8 °C 7,3 °C 0,0 km/h (0 Bft)
20.09.2017 18:53 7,2 °C 7,3 °C 90 % 1021,2 hPa 0,0 mm 0,0 km/h (0 Bft) W 269 ° 0 min 0,000 mm 0,0 UV-I 18 W/m² 5,7 °C 7,2 °C 0,0 km/h (0 Bft)
20.09.2017 18:54 7,2 °C 7,2 °C 90 % 1021,3 hPa 0,0 mm 0,0 km/h (0 Bft) W 269 ° 0 min 0,000 mm 0,0 UV-I 18 W/m² 5,7 °C 7,2 °C 0,0 km/h (0 Bft)
20.09.2017 18:55 7,1 °C 7,2 °C 90 % 1021,3 hPa 0,0 mm 0,0 km/h (0 Bft) W 269 ° 0 min 0,000 mm 0,0 UV-I 16 W/m² 5,6 °C 7,1 °C 0,0 km/h (0 Bft)
20.09.2017 18:56 7,1 °C 7,1 °C 90 % 1021,3 hPa 0,0 mm 0,0 km/h (0 Bft) W 269 ° 0 min 0,000 mm 0,0 UV-I 16 W/m² 5,6 °C 7,1 °C 0,0 km/h (0 Bft)
20.09.2017 18:57 7,0 °C 7,1 °C 90 % 1021,3 hPa 0,0 mm 0,0 km/h (0 Bft) W 269 ° 0 min 0,000 mm 0,0 UV-I 16 W/m² 5,5 °C 7,0 °C 0,0 km/h (0 Bft)
20.09.2017 18:58 6,9 °C 7,0 °C 91 % 1021,3 hPa 0,0 mm 0,2 km/h (0 Bft) W 269 ° 0 min 0,000 mm 0,0 UV-I 16 W/m² 5,5 °C 6,9 °C 1,6 km/h (1 Bft)
20.09.2017 18:59 6,9 °C 6,9 °C 90 % 1021,3 hPa 0,0 mm 0,0 km/h (0 Bft) W 269 ° 0 min 0,000 mm 0,0 UV-I 14 W/m² 5,4 °C 6,9 °C 0,0 km/h (0 Bft)
20.09.2017 19:00 6,9 °C 6,9 °C 91 % 1021,3 hPa 0,0 mm 0,2 km/h (0 Bft) W 269 ° 0 min 0,000 mm 0,0 UV-I 14 W/m² 5,5 °C 6,9 °C 1,6 km/h (1 Bft)
20.09.2017 19:01 6,9 °C 6,9 °C 91 % 1021,4 hPa 0,0 mm 0,0 km/h (0 Bft) W 269 ° 0 min 0,025 mm 0,0 UV-I 12 W/m² 5,5 °C 6,9 °C 0,0 km/h (0 Bft)
20.09.2017 19:02 6,9 °C 6,9 °C 91 % 1021,4 hPa 0,0 mm 0,0 km/h (0 Bft) W 269 ° 0 min 0,000 mm 0,0 UV-I 12 W/m² 5,5 °C 6,9 °C 0,0 km/h (0 Bft)
20.09.2017 19:03 6,9 °C 6,9 °C 91 % 1021,4 hPa 0,0 mm 0,0 km/h (0 Bft) W 269 ° 0 min 0,000 mm 0,0 UV-I 11 W/m² 5,5 °C 6,9 °C 0,0 km/h (0 Bft)
20.09.2017 19:04 6,8 °C 6,9 °C 91 % 1021,4 hPa 0,0 mm 0,0 km/h (0 Bft) W 269 ° 0 min 0,000 mm 0,0 UV-I 11 W/m² 5,4 °C 6,8 °C 0,0 km/h (0 Bft)
20.09.2017 19:05 6,8 °C 6,8 °C 90 % 1021,4 hPa 0,0 mm 0,0 km/h (0 Bft) W 269 ° 0 min 0,000 mm 0,0 UV-I 11 W/m² 5,3 °C 6,8 °C 0,0 km/h (0 Bft)
20.09.2017 19:06 6,8 °C 6,8 °C 91 % 1021,5 hPa 0,0 mm 0,0 km/h (0 Bft) W 269 ° 0 min 0,000 mm 0,0 UV-I 11 W/m² 5,4 °C 6,8 °C 0,0 km/h (0 Bft)
20.09.2017 19:07 6,8 °C 6,8 °C 91 % 1021,5 hPa 0,0 mm 0,0 km/h (0 Bft) W 269 ° 0 min 0,000 mm 0,0 UV-I 11 W/m² 5,4 °C 6,8 °C 0,0 km/h (0 Bft)
20.09.2017 19:08 6,8 °C 6,8 °C 91 % 1021,4 hPa 0,0 mm 0,0 km/h (0 Bft) W 269 ° 0 min 0,000 mm 0,0 UV-I 11 W/m² 5,4 °C 6,8 °C 0,0 km/h (0 Bft)
20.09.2017 19:09 6,8 °C 6,8 °C 91 % 1021,5 hPa 0,0 mm 0,1 km/h (0 Bft) W 269 ° 0 min 0,000 mm 0,0 UV-I 11 W/m² 5,4 °C 6,8 °C 1,6 km/h (1 Bft)
20.09.2017 19:10 6,8 °C 6,8 °C 91 % 1021,5 hPa 0,0 mm 0,0 km/h (0 Bft) W 269 ° 0 min 0,000 mm 0,0 UV-I 9 W/m² 5,4 °C 6,8 °C 0,0 km/h (0 Bft)
20.09.2017 19:11 6,8 °C 6,8 °C 91 % 1021,5 hPa 0,0 mm 0,0 km/h (0 Bft) W 269 ° 0 min 0,000 mm 0,0 UV-I 9 W/m² 5,4 °C 6,8 °C 0,0 km/h (0 Bft)
20.09.2017 19:12 6,8 °C 6,8 °C 92 % 1021,5 hPa 0,0 mm 1,3 km/h (1 Bft) W 269 ° 0 min 0,000 mm 0,0 UV-I 9 W/m² 5,6 °C 6,8 °C 1,6 km/h (1 Bft)
20.09.2017 19:13 6,8 °C 6,9 °C 92 % 1021,5 hPa 0,0 mm 1,1 km/h (1 Bft) W 269 ° 0 min 0,000 mm 0,0 UV-I 7 W/m² 5,6 °C 6,8 °C 1,6 km/h (1 Bft)
20.09.2017 19:14 6,8 °C 6,8 °C 92 % 1021,5 hPa 0,0 mm 0,1 km/h (0 Bft) W 269 ° 0 min 0,000 mm 0,0 UV-I 5 W/m² 5,6 °C 6,8 °C 1,6 km/h (1 Bft)
20.09.2017 19:15 6,8 °C 6,9 °C 92 % 1021,5 hPa 0,0 mm 0,0 km/h (0 Bft) W 269 ° 0 min 0,000 mm 0,0 UV-I 5 W/m² 5,6 °C 6,8 °C 0,0 km/h (0 Bft)
20.09.2017 19:16 6,8 °C 6,8 °C 92 % 1021,6 hPa 0,0 mm 0,0 km/h (0 Bft) W 269 ° 0 min 0,000 mm 0,0 UV-I 5 W/m² 5,6 °C 6,8 °C 0,0 km/h (0 Bft)
20.09.2017 19:17 6,8 °C 6,8 °C 92 % 1021,5 hPa 0,0 mm 1,5 km/h (1 Bft) W 269 ° 0 min 0,000 mm 0,0 UV-I 5 W/m² 5,6 °C 6,8 °C 3,2 km/h (1 Bft)
20.09.2017 19:18 6,8 °C 6,8 °C 91 % 1021,5 hPa 0,0 mm 0,4 km/h (0 Bft) W 269 ° 0 min 0,000 mm 0,0 UV-I 0 W/m² 5,4 °C 6,8 °C 1,6 km/h (1 Bft)
20.09.2017 19:19 6,9 °C 6,9 °C 92 % 1021,5 hPa 0,0 mm 2,1 km/h (1 Bft) W 269 ° 0 min 0,000 mm 0,0 UV-I 0 W/m² 5,7 °C 6,9 °C 3,2 km/h (1 Bft)
20.09.2017 19:20 6,8 °C 6,9 °C 91 % 1021,5 hPa 0,0 mm 1,7 km/h (1 Bft) W 269 ° 0 min 0,000 mm 0,0 UV-I 0 W/m² 5,4 °C 6,8 °C 3,2 km/h (1 Bft)
20.09.2017 19:21 6,9 °C 6,9 °C 91 % 1021,6 hPa 0,0 mm 1,0 km/h (0 Bft) W 269 ° 0 min 0,000 mm 0,0 UV-I 0 W/m² 5,5 °C 6,9 °C 3,2 km/h (1 Bft)
20.09.2017 19:22 6,8 °C 6,9 °C 91 % 1021,6 hPa 0,0 mm 1,4 km/h (1 Bft) W 269 ° 0 min 0,000 mm 0,0 UV-I 0 W/m² 5,4 °C 6,8 °C 3,2 km/h (1 Bft)
20.09.2017 19:23 6,9 °C 6,9 °C 91 % 1021,7 hPa 0,0 mm 1,9 km/h (1 Bft) W 269 ° 0 min 0,000 mm 0,0 UV-I 0 W/m² 5,5 °C 6,9 °C 3,2 km/h (1 Bft)
20.09.2017 19:24 6,8 °C 6,9 °C 91 % 1021,7 hPa 0,0 mm 1,5 km/h (1 Bft) W 269 ° 0 min 0,000 mm 0,0 UV-I 0 W/m² 5,4 °C 6,8 °C 3,2 km/h (1 Bft)
20.09.2017 19:25 6,8 °C 6,9 °C 91 % 1021,7 hPa 0,0 mm 1,3 km/h (1 Bft) W 269 ° 0 min 0,000 mm 0,0 UV-I 0 W/m² 5,4 °C 6,8 °C 1,6 km/h (1 Bft)
20.09.2017 19:26 6,8 °C 6,8 °C 91 % 1021,7 hPa 0,0 mm 1,5 km/h (1 Bft) W 269 ° 0 min 0,000 mm 0,0 UV-I 0 W/m² 5,4 °C 6,8 °C 3,2 km/h (1 Bft)
20.09.2017 19:27 6,9 °C 6,9 °C 91 % 1021,7 hPa 0,0 mm 0,3 km/h (0 Bft) W 269 ° 0 min 0,000 mm 0,0 UV-I 0 W/m² 5,5 °C 6,9 °C 1,6 km/h (1 Bft)
20.09.2017 19:28 6,8 °C 6,9 °C 91 % 1021,7 hPa 0,0 mm 1,9 km/h (1 Bft) W 269 ° 0 min 0,000 mm 0,0 UV-I 0 W/m² 5,4 °C 6,8 °C 3,2 km/h (1 Bft)
20.09.2017 19:29 6,8 °C 6,8 °C 91 % 1021,7 hPa 0,0 mm 1,1 km/h (1 Bft) W 269 ° 0 min 0,000 mm 0,0 UV-I 0 W/m² 5,4 °C 6,8 °C 1,6 km/h (1 Bft)
20.09.2017 19:30 6,8 °C 6,8 °C 91 % 1021,7 hPa 0,0 mm 1,4 km/h (1 Bft) W 269 ° 0 min 0,000 mm 0,0 UV-I 0 W/m² 5,4 °C 6,8 °C 1,6 km/h (1 Bft)
20.09.2017 19:31 6,8 °C 6,8 °C 91 % 1021,7 hPa 0,0 mm 1,5 km/h (1 Bft) W 269 ° 0 min 0,000 mm 0,0 UV-I 0 W/m² 5,4 °C 6,8 °C 1,6 km/h (1 Bft)
20.09.2017 19:32 6,7 °C 6,8 °C 91 % 1021,7 hPa 0,0 mm 0,8 km/h (0 Bft) W 269 ° 0 min 0,000 mm 0,0 UV-I 0 W/m² 5,3 °C 6,7 °C 1,6 km/h (1 Bft)
20.09.2017 19:33 6,7 °C 6,7 °C 91 % 1021,8 hPa 0,0 mm 0,8 km/h (0 Bft) W 269 ° 0 min 0,000 mm 0,0 UV-I 0 W/m² 5,3 °C 6,7 °C 1,6 km/h (1 Bft)
20.09.2017 19:34 6,7 °C 6,7 °C 91 % 1021,8 hPa 0,0 mm 0,7 km/h (0 Bft) W 269 ° 0 min 0,000 mm 0,0 UV-I 0 W/m² 5,3 °C 6,7 °C 3,2 km/h (1 Bft)
20.09.2017 19:35 6,6 °C 6,7 °C 91 % 1021,8 hPa 0,0 mm 0,9 km/h (0 Bft) W 269 ° 0 min 0,000 mm 0,0 UV-I 0 W/m² 5,2 °C 6,6 °C 1,6 km/h (1 Bft)
20.09.2017 19:36 6,6 °C 6,6 °C 91 % 1021,8 hPa 0,0 mm 0,0 km/h (0 Bft) W 269 ° 0 min 0,000 mm 0,0 UV-I 0 W/m² 5,2 °C 6,6 °C 0,0 km/h (0 Bft)
20.09.2017 19:37 6,6 °C 6,6 °C 91 % 1021,8 hPa 0,0 mm 0,0 km/h (0 Bft) W 269 ° 0 min 0,000 mm 0,0 UV-I 0 W/m² 5,2 °C 6,6 °C 0,0 km/h (0 Bft)
20.09.2017 19:38 6,5 °C 6,6 °C 91 % 1021,8 hPa 0,0 mm 0,0 km/h (0 Bft) W 269 ° 0 min 0,000 mm 0,0 UV-I 0 W/m² 5,1 °C 6,5 °C 0,0 km/h (0 Bft)
20.09.2017 19:39 6,4 °C 6,5 °C 91 % 1021,8 hPa 0,0 mm 0,5 km/h (0 Bft) W 269 ° 0 min 0,000 mm 0,0 UV-I 0 W/m² 5,0 °C 6,4 °C 1,6 km/h (1 Bft)
20.09.2017 19:40 6,4 °C 6,4 °C 91 % 1021,8 hPa 0,0 mm 0,0 km/h (0 Bft) W 269 ° 0 min 0,000 mm 0,0 UV-I 0 W/m² 5,0 °C 6,4 °C 0,0 km/h (0 Bft)
20.09.2017 19:41 6,3 °C 6,4 °C 91 % 1021,8 hPa 0,0 mm 0,2 km/h (0 Bft) W 269 ° 0 min 0,000 mm 0,0 UV-I 0 W/m² 4,9 °C 6,3 °C 1,6 km/h (1 Bft)
20.09.2017 19:42 6,3 °C 6,3 °C 91 % 1021,9 hPa 0,0 mm 0,0 km/h (0 Bft) W 269 ° 0 min 0,000 mm 0,0 UV-I 0 W/m² 4,9 °C 6,3 °C 0,0 km/h (0 Bft)
20.09.2017 19:43 6,3 °C 6,3 °C 91 % 1021,9 hPa 0,0 mm 0,0 km/h (0 Bft) W 269 ° 0 min 0,000 mm 0,0 UV-I 0 W/m² 4,9 °C 6,3 °C 0,0 km/h (0 Bft)
20.09.2017 19:44 6,3 °C 6,3 °C 92 % 1021,9 hPa 0,0 mm 0,3 km/h (0 Bft) W 269 ° 0 min 0,000 mm 0,0 UV-I 0 W/m² 5,1 °C 6,3 °C 1,6 km/h (1 Bft)
20.09.2017 19:45 6,3 °C 6,3 °C 92 % 1021,9 hPa 0,0 mm 0,0 km/h (0 Bft) W 269 ° 0 min 0,000 mm 0,0 UV-I 0 W/m² 5,1 °C 6,3 °C 0,0 km/h (0 Bft)
20.09.2017 19:46 6,3 °C 6,3 °C 92 % 1021,9 hPa 0,0 mm 0,0 km/h (0 Bft) W 269 ° 0 min 0,000 mm 0,0 UV-I 0 W/m² 5,1 °C 6,3 °C 0,0 km/h (0 Bft)
20.09.2017 19:47 6,2 °C 6,3 °C 92 % 1021,9 hPa 0,0 mm 0,0 km/h (0 Bft) W 269 ° 0 min 0,000 mm 0,0 UV-I 0 W/m² 5,0 °C 6,2 °C 0,0 km/h (0 Bft)
20.09.2017 19:48 6,2 °C 6,2 °C 92 % 1022,0 hPa 0,0 mm 0,0 km/h (0 Bft) W 269 ° 0 min 0,000 mm 0,0 UV-I 0 W/m² 5,0 °C 6,2 °C 0,0 km/h (0 Bft)
20.09.2017 19:49 6,3 °C 6,3 °C 92 % 1022,0 hPa 0,0 mm 0,0 km/h (0 Bft) W 269 ° 0 min 0,000 mm 0,0 UV-I 0 W/m² 5,1 °C 6,3 °C 0,0 km/h (0 Bft)
20.09.2017 19:50 6,3 °C 6,3 °C 92 % 1022,0 hPa 0,0 mm 0,0 km/h (0 Bft) W 269 ° 0 min 0,000 mm 0,0 UV-I 0 W/m² 5,1 °C 6,3 °C 0,0 km/h (0 Bft)
20.09.2017 19:51 6,3 °C 6,3 °C 92 % 1022,0 hPa 0,0 mm 0,0 km/h (0 Bft) W 269 ° 0 min 0,000 mm 0,0 UV-I 0 W/m² 5,1 °C 6,3 °C 0,0 km/h (0 Bft)
20.09.2017 19:52 6,3 °C 6,3 °C 93 % 1022,0 hPa 0,0 mm 0,0 km/h (0 Bft) W 269 ° 0 min 0,000 mm 0,0 UV-I 0 W/m² 5,3 °C 6,3 °C 0,0 km/h (0 Bft)
20.09.2017 19:53 6,4 °C 6,4 °C 93 % 1022,0 hPa 0,0 mm 0,0 km/h (0 Bft) W 269 ° 0 min 0,000 mm 0,0 UV-I 0 W/m² 5,4 °C 6,4 °C 0,0 km/h (0 Bft)
20.09.2017 19:54 6,3 °C 6,4 °C 93 % 1022,0 hPa 0,0 mm 0,0 km/h (0 Bft) W 269 ° 0 min 0,000 mm 0,0 UV-I 0 W/m² 5,3 °C 6,3 °C 0,0 km/h (0 Bft)
20.09.2017 19:55 6,4 °C 6,4 °C 93 % 1022,0 hPa 0,0 mm 0,0 km/h (0 Bft) W 269 ° 0 min 0,000 mm 0,0 UV-I 0 W/m² 5,4 °C 6,4 °C 0,0 km/h (0 Bft)
20.09.2017 19:56 6,4 °C 6,4 °C 93 % 1022,0 hPa 0,0 mm 0,0 km/h (0 Bft) W 269 ° 0 min 0,000 mm 0,0 UV-I 0 W/m² 5,4 °C 6,4 °C 0,0 km/h (0 Bft)
20.09.2017 19:57 6,4 °C 6,4 °C 93 % 1022,0 hPa 0,0 mm 0,0 km/h (0 Bft) W 269 ° 0 min 0,000 mm 0,0 UV-I 0 W/m² 5,4 °C 6,4 °C 0,0 km/h (0 Bft)
20.09.2017 19:58 6,4 °C 6,4 °C 93 % 1022,0 hPa 0,0 mm 0,0 km/h (0 Bft) W 269 ° 0 min 0,000 mm 0,0 UV-I 0 W/m² 5,4 °C 6,4 °C 0,0 km/h (0 Bft)
20.09.2017 19:59 6,4 °C 6,4 °C 93 % 1022,1 hPa 0,0 mm 0,0 km/h (0 Bft) W 269 ° 0 min 0,000 mm 0,0 UV-I 0 W/m² 5,4 °C 6,4 °C 0,0 km/h (0 Bft)
20.09.2017 20:00 6,5 °C 6,5 °C 93 % 1022,0 hPa 0,0 mm 0,0 km/h (0 Bft) W 269 ° 0 min 0,000 mm 0,0 UV-I 0 W/m² 5,5 °C 6,5 °C 0,0 km/h (0 Bft)
20.09.2017 20:01 6,5 °C 6,5 °C 93 % 1022,1 hPa 0,0 mm 0,0 km/h (0 Bft) W 269 ° 0 min 0,000 mm 0,0 UV-I 0 W/m² 5,5 °C 6,5 °C 0,0 km/h (0 Bft)
20.09.2017 20:02 6,6 °C 6,6 °C 93 % 1022,1 hPa 0,0 mm 0,0 km/h (0 Bft) W 269 ° 0 min 0,000 mm 0,0 UV-I 0 W/m² 5,6 °C 6,6 °C 0,0 km/h (0 Bft)
20.09.2017 20:03 6,6 °C 6,6 °C 93 % 1022,1 hPa 0,0 mm 0,0 km/h (0 Bft) W 269 ° 0 min 0,000 mm 0,0 UV-I 0 W/m² 5,6 °C 6,6 °C 0,0 km/h (0 Bft)
20.09.2017 20:04 6,6 °C 6,6 °C 92 % 1022,1 hPa 0,0 mm 0,0 km/h (0 Bft) W 269 ° 0 min 0,000 mm 0,0 UV-I 0 W/m² 5,4 °C 6,6 °C 0,0 km/h (0 Bft)
20.09.2017 20:05 6,7 °C 6,7 °C 92 % 1022,2 hPa 0,0 mm 0,0 km/h (0 Bft) W 269 ° 0 min 0,000 mm 0,0 UV-I 0 W/m² 5,5 °C 6,7 °C 0,0 km/h (0 Bft)
20.09.2017 20:06 6,7 °C 6,7 °C 92 % 1022,1 hPa 0,0 mm 0,2 km/h (0 Bft) W 269 ° 0 min 0,000 mm 0,0 UV-I 0 W/m² 5,5 °C 6,7 °C 1,6 km/h (1 Bft)
20.09.2017 20:07 6,7 °C 6,7 °C 92 % 1022,2 hPa 0,0 mm 0,0 km/h (0 Bft) W 269 ° 0 min 0,000 mm 0,0 UV-I 0 W/m² 5,5 °C 6,7 °C 0,0 km/h (0 Bft)
20.09.2017 20:08 6,8 °C 6,8 °C 93 % 1022,2 hPa 0,0 mm 0,0 km/h (0 Bft) W 269 ° 0 min 0,000 mm 0,0 UV-I 0 W/m² 5,7 °C 6,8 °C 0,0 km/h (0 Bft)
20.09.2017 20:09 6,7 °C 6,8 °C 92 % 1022,2 hPa 0,0 mm 0,0 km/h (0 Bft) W 269 ° 0 min 0,000 mm 0,0 UV-I 0 W/m² 5,5 °C 6,7 °C 0,0 km/h (0 Bft)
20.09.2017 20:10 6,7 °C 6,7 °C 92 % 1022,2 hPa 0,0 mm 0,0 km/h (0 Bft) W 269 ° 0 min 0,000 mm 0,0 UV-I 0 W/m² 5,5 °C 6,7 °C 0,0 km/h (0 Bft)
20.09.2017 20:11 6,7 °C 6,7 °C 92 % 1022,2 hPa 0,0 mm 0,0 km/h (0 Bft) W 269 ° 0 min 0,000 mm 0,0 UV-I 0 W/m² 5,5 °C 6,7 °C 0,0 km/h (0 Bft)
20.09.2017 20:12 6,7 °C 6,7 °C 93 % 1022,2 hPa 0,0 mm 0,0 km/h (0 Bft) W 269 ° 0 min 0,000 mm 0,0 UV-I 0 W/m² 5,6 °C 6,7 °C 0,0 km/h (0 Bft)
20.09.2017 20:13 6,7 °C 6,7 °C 93 % 1022,3 hPa 0,0 mm 0,0 km/h (0 Bft) W 269 ° 0 min 0,000 mm 0,0 UV-I 0 W/m² 5,6 °C 6,7 °C 0,0 km/h (0 Bft)
20.09.2017 20:14 6,7 °C 6,7 °C 93 % 1022,2 hPa 0,0 mm 0,0 km/h (0 Bft) W 269 ° 0 min 0,000 mm 0,0 UV-I 0 W/m² 5,6 °C 6,7 °C 0,0 km/h (0 Bft)
20.09.2017 20:15 6,7 °C 6,7 °C 93 % 1022,3 hPa 0,0 mm 0,0 km/h (0 Bft) W 269 ° 0 min 0,000 mm 0,0 UV-I 0 W/m² 5,6 °C 6,7 °C 0,0 km/h (0 Bft)
20.09.2017 20:16 6,8 °C 6,8 °C 93 % 1022,3 hPa 0,0 mm 0,0 km/h (0 Bft) W 269 ° 0 min 0,000 mm 0,0 UV-I 0 W/m² 5,7 °C 6,8 °C 0,0 km/h (0 Bft)
20.09.2017 20:17 6,8 °C 6,8 °C 93 % 1022,3 hPa 0,0 mm 0,0 km/h (0 Bft) W 269 ° 0 min 0,000 mm 0,0 UV-I 0 W/m² 5,7 °C 6,8 °C 0,0 km/h (0 Bft)
20.09.2017 20:18 6,8 °C 6,8 °C 93 % 1022,3 hPa 0,0 mm 0,0 km/h (0 Bft) W 269 ° 0 min 0,000 mm 0,0 UV-I 0 W/m² 5,7 °C 6,8 °C 0,0 km/h (0 Bft)
20.09.2017 20:19 6,8 °C 6,8 °C 93 % 1022,4 hPa 0,0 mm 0,1 km/h (0 Bft) W 269 ° 0 min 0,000 mm 0,0 UV-I 0 W/m² 5,7 °C 6,8 °C 1,6 km/h (1 Bft)
20.09.2017 20:20 6,8 °C 6,8 °C 93 % 1022,3 hPa 0,0 mm 0,1 km/h (0 Bft) W 269 ° 0 min 0,000 mm 0,0 UV-I 0 W/m² 5,7 °C 6,8 °C 1,6 km/h (1 Bft)
20.09.2017 20:21 6,8 °C 6,8 °C 93 % 1022,3 hPa 0,0 mm 0,0 km/h (0 Bft) W 269 ° 0 min 0,000 mm 0,0 UV-I 0 W/m² 5,7 °C 6,8 °C 0,0 km/h (0 Bft)
20.09.2017 20:22 6,8 °C 6,8 °C 92 % 1022,3 hPa 0,0 mm 0,0 km/h (0 Bft) W 269 ° 0 min 0,000 mm 0,0 UV-I 0 W/m² 5,6 °C 6,8 °C 0,0 km/h (0 Bft)
20.09.2017 20:23 6,8 °C 6,8 °C 92 % 1022,4 hPa 0,0 mm 0,4 km/h (0 Bft) W 269 ° 0 min 0,000 mm 0,0 UV-I 0 W/m² 5,6 °C 6,8 °C 1,6 km/h (1 Bft)
20.09.2017 20:24 6,8 °C 6,8 °C 92 % 1022,3 hPa 0,0 mm 0,0 km/h (0 Bft) W 269 ° 0 min 0,000 mm 0,0 UV-I 0 W/m² 5,6 °C 6,8 °C 0,0 km/h (0 Bft)
20.09.2017 20:25 6,8 °C 6,8 °C 92 % 1022,4 hPa 0,0 mm 0,0 km/h (0 Bft) W 269 ° 0 min 0,000 mm 0,0 UV-I 0 W/m² 5,6 °C 6,8 °C 0,0 km/h (0 Bft)
20.09.2017 20:26 6,8 °C 6,8 °C 92 % 1022,4 hPa 0,0 mm 0,0 km/h (0 Bft) W 269 ° 0 min 0,000 mm 0,0 UV-I 0 W/m² 5,6 °C 6,8 °C 0,0 km/h (0 Bft)
20.09.2017 20:27 6,8 °C 6,8 °C 93 % 1022,4 hPa 0,0 mm 0,0 km/h (0 Bft) W 269 ° 0 min 0,000 mm 0,0 UV-I 0 W/m² 5,7 °C 6,8 °C 0,0 km/h (0 Bft)
20.09.2017 20:28 6,8 °C 6,8 °C 93 % 1022,4 hPa 0,0 mm 0,0 km/h (0 Bft) W 269 ° 0 min 0,000 mm 0,0 UV-I 0 W/m² 5,7 °C 6,8 °C 0,0 km/h (0 Bft)
20.09.2017 20:29 6,8 °C 6,8 °C 93 % 1022,4 hPa 0,0 mm 0,0 km/h (0 Bft) W 269 ° 0 min 0,000 mm 0,0 UV-I 0 W/m² 5,7 °C 6,8 °C 0,0 km/h (0 Bft)
20.09.2017 20:30 6,8 °C 6,8 °C 93 % 1022,4 hPa 0,0 mm 0,0 km/h (0 Bft) W 269 ° 0 min 0,000 mm 0,0 UV-I 0 W/m² 5,7 °C 6,8 °C 0,0 km/h (0 Bft)
20.09.2017 20:31 6,8 °C 6,8 °C 93 % 1022,5 hPa 0,0 mm 0,0 km/h (0 Bft) W 269 ° 0 min 0,000 mm 0,0 UV-I 0 W/m² 5,7 °C 6,8 °C 0,0 km/h (0 Bft)
20.09.2017 20:32 6,8 °C 6,8 °C 93 % 1022,5 hPa 0,0 mm 0,0 km/h (0 Bft) W 269 ° 0 min 0,000 mm 0,0 UV-I 0 W/m² 5,7 °C 6,8 °C 0,0 km/h (0 Bft)
20.09.2017 20:33 6,8 °C 6,8 °C 93 % 1022,5 hPa 0,0 mm 0,0 km/h (0 Bft) W 269 ° 0 min 0,000 mm 0,0 UV-I 0 W/m² 5,7 °C 6,8 °C 0,0 km/h (0 Bft)
20.09.2017 20:34 6,8 °C 6,8 °C 93 % 1022,5 hPa 0,0 mm 0,0 km/h (0 Bft) W 269 ° 0 min 0,000 mm 0,0 UV-I 0 W/m² 5,7 °C 6,8 °C 0,0 km/h (0 Bft)
20.09.2017 20:35 6,8 °C 6,8 °C 93 % 1022,5 hPa 0,0 mm 0,7 km/h (0 Bft) W 269 ° 0 min 0,000 mm 0,0 UV-I 0 W/m² 5,7 °C 6,8 °C 3,2 km/h (1 Bft)
20.09.2017 20:36 6,8 °C 6,8 °C 93 % 1022,5 hPa 0,0 mm 1,4 km/h (1 Bft) W 269 ° 0 min 0,000 mm 0,0 UV-I 0 W/m² 5,7 °C 6,8 °C 3,2 km/h (1 Bft)
20.09.2017 20:37 6,7 °C 6,8 °C 93 % 1022,5 hPa 0,0 mm 0,4 km/h (0 Bft) W 269 ° 0 min 0,000 mm 0,0 UV-I 0 W/m² 5,6 °C 6,7 °C 1,6 km/h (1 Bft)
20.09.2017 20:38 6,7 °C 6,7 °C 93 % 1022,5 hPa 0,0 mm 1,4 km/h (1 Bft) W 269 ° 0 min 0,000 mm 0,0 UV-I 0 W/m² 5,6 °C 6,7 °C 3,2 km/h (1 Bft)
20.09.2017 20:39 6,7 °C 6,7 °C 93 % 1022,5 hPa 0,0 mm 0,2 km/h (0 Bft) W 269 ° 0 min 0,000 mm 0,0 UV-I 0 W/m² 5,6 °C 6,7 °C 1,6 km/h (1 Bft)
20.09.2017 20:40 6,7 °C 6,7 °C 93 % 1022,5 hPa 0,0 mm 2,6 km/h (1 Bft) NO 54 ° 0 min 0,000 mm 0,0 UV-I 0 W/m² 5,6 °C 6,7 °C 3,2 km/h (1 Bft)
20.09.2017 20:41 6,7 °C 6,7 °C 93 % 1022,5 hPa 0,0 mm 4,4 km/h (1 Bft) O-NO 77 ° 0 min 0,000 mm 0,0 UV-I 0 W/m² 5,6 °C 6,7 °C 6,4 km/h (2 Bft)
20.09.2017 20:42 6,7 °C 6,7 °C 93 % 1022,6 hPa 0,0 mm 2,8 km/h (1 Bft) O-NO 76 ° 0 min 0,000 mm 0,0 UV-I 0 W/m² 5,6 °C 6,7 °C 4,8 km/h (1 Bft)
20.09.2017 20:43 6,7 °C 6,7 °C 93 % 1022,6 hPa 0,0 mm 2,7 km/h (1 Bft) O-NO 76 ° 0 min 0,000 mm 0,0 UV-I 0 W/m² 5,6 °C 6,7 °C 4,8 km/h (1 Bft)
20.09.2017 20:44 6,7 °C 6,7 °C 93 % 1022,6 hPa 0,0 mm 1,7 km/h (1 Bft) O 81 ° 0 min 0,000 mm 0,0 UV-I 0 W/m² 5,6 °C 6,7 °C 3,2 km/h (1 Bft)
20.09.2017 20:45 6,7 °C 6,7 °C 93 % 1022,6 hPa 0,0 mm 2,2 km/h (1 Bft) O 79 ° 0 min 0,000 mm 0,0 UV-I 0 W/m² 5,6 °C 6,7 °C 4,8 km/h (1 Bft)
20.09.2017 20:46 6,7 °C 6,8 °C 93 % 1022,5 hPa 0,0 mm 1,0 km/h (0 Bft) O 79 ° 0 min 0,000 mm 0,0 UV-I 0 W/m² 5,6 °C 6,7 °C 3,2 km/h (1 Bft)
20.09.2017 20:47 6,7 °C 6,7 °C 93 % 1022,6 hPa 0,0 mm 0,0 km/h (0 Bft) O 79 ° 0 min 0,000 mm 0,0 UV-I 0 W/m² 5,6 °C 6,7 °C 0,0 km/h (0 Bft)
20.09.2017 20:48 6,7 °C 6,7 °C 92 % 1022,6 hPa 0,0 mm 0,3 km/h (0 Bft) O 79 ° 0 min 0,000 mm 0,0 UV-I 0 W/m² 5,5 °C 6,7 °C 3,2 km/h (1 Bft)
20.09.2017 20:49 6,7 °C 6,7 °C 92 % 1022,6 hPa 0,0 mm 0,2 km/h (0 Bft) O 80 ° 0 min 0,000 mm 0,0 UV-I 0 W/m² 5,5 °C 6,7 °C 1,6 km/h (1 Bft)
20.09.2017 20:50 6,7 °C 6,8 °C 92 % 1022,6 hPa 0,0 mm 1,9 km/h (1 Bft) O 80 ° 0 min 0,000 mm 0,0 UV-I 0 W/m² 5,5 °C 6,7 °C 3,2 km/h (1 Bft)
20.09.2017 20:51 6,8 °C 6,8 °C 92 % 1022,5 hPa 0,0 mm 3,2 km/h (1 Bft) SO 141 ° 0 min 0,000 mm 0,0 UV-I 0 W/m² 5,6 °C 6,8 °C 4,8 km/h (1 Bft)
20.09.2017 20:52 6,8 °C 6,8 °C 92 % 1022,5 hPa 0,0 mm 3,3 km/h (1 Bft) SO 143 ° 0 min 0,000 mm 0,0 UV-I 0 W/m² 5,6 °C 6,8 °C 4,8 km/h (1 Bft)
20.09.2017 20:53 6,8 °C 6,8 °C 92 % 1022,6 hPa 0,0 mm 2,0 km/h (1 Bft) SO 143 ° 0 min 0,000 mm 0,0 UV-I 0 W/m² 5,6 °C 6,8 °C 3,2 km/h (1 Bft)
20.09.2017 20:54 6,8 °C 6,8 °C 92 % 1022,5 hPa 0,0 mm 1,9 km/h (1 Bft) SO 143 ° 0 min 0,000 mm 0,0 UV-I 0 W/m² 5,6 °C 6,8 °C 3,2 km/h (1 Bft)
20.09.2017 20:55 6,8 °C 6,8 °C 92 % 1022,5 hPa 0,0 mm 0,1 km/h (0 Bft) SO 143 ° 0 min 0,000 mm 0,0 UV-I 0 W/m² 5,6 °C 6,8 °C 1,6 km/h (1 Bft)
20.09.2017 20:56 6,9 °C 6,9 °C 91 % 1022,5 hPa 0,0 mm 0,3 km/h (0 Bft) SO 143 ° 0 min 0,000 mm 0,0 UV-I 0 W/m² 5,5 °C 6,9 °C 1,6 km/h (1 Bft)
20.09.2017 20:57 6,9 °C 6,9 °C 91 % 1022,5 hPa 0,0 mm 0,0 km/h (0 Bft) SO 143 ° 0 min 0,000 mm 0,0 UV-I 0 W/m² 5,5 °C 6,9 °C 0,0 km/h (0 Bft)
20.09.2017 20:58 6,9 °C 6,9 °C 91 % 1022,5 hPa 0,0 mm 0,0 km/h (0 Bft) SO 143 ° 0 min 0,000 mm 0,0 UV-I 0 W/m² 5,5 °C 6,9 °C 0,0 km/h (0 Bft)
20.09.2017 20:59 6,9 °C 6,9 °C 91 % 1022,6 hPa 0,0 mm 0,0 km/h (0 Bft) SO 143 ° 0 min 0,000 mm 0,0 UV-I 0 W/m² 5,5 °C 6,9 °C 0,0 km/h (0 Bft)
20.09.2017 21:00 6,8 °C 6,9 °C 91 % 1022,5 hPa 0,0 mm 0,0 km/h (0 Bft) SO 143 ° 0 min 0,000 mm 0,0 UV-I 0 W/m² 5,4 °C 6,8 °C 0,0 km/h (0 Bft)
20.09.2017 21:01 6,8 °C 6,8 °C 91 % 1022,5 hPa 0,0 mm 0,0 km/h (0 Bft) SO 143 ° 0 min 0,000 mm 0,0 UV-I 0 W/m² 5,4 °C 6,8 °C 0,0 km/h (0 Bft)
20.09.2017 21:02 6,8 °C 6,8 °C 92 % 1022,5 hPa 0,0 mm 0,0 km/h (0 Bft) SO 143 ° 0 min 0,000 mm 0,0 UV-I 0 W/m² 5,6 °C 6,8 °C 0,0 km/h (0 Bft)
20.09.2017 21:03 6,8 °C 6,8 °C 92 % 1022,5 hPa 0,0 mm 0,0 km/h (0 Bft) SO 143 ° 0 min 0,000 mm 0,0 UV-I 0 W/m² 5,6 °C 6,8 °C 0,0 km/h (0 Bft)
20.09.2017 21:04 6,8 °C 6,8 °C 92 % 1022,5 hPa 0,0 mm 0,0 km/h (0 Bft) SO 143 ° 0 min 0,000 mm 0,0 UV-I 0 W/m² 5,6 °C 6,8 °C 0,0 km/h (0 Bft)
20.09.2017 21:05 6,7 °C 6,8 °C 92 % 1022,5 hPa 0,0 mm 0,0 km/h (0 Bft) SO 143 ° 0 min 0,000 mm 0,0 UV-I 0 W/m² 5,5 °C 6,7 °C 0,0 km/h (0 Bft)
20.09.2017 21:06 6,7 °C 6,7 °C 92 % 1022,5 hPa 0,0 mm 0,0 km/h (0 Bft) SO 143 ° 0 min 0,000 mm 0,0 UV-I 0 W/m² 5,5 °C 6,7 °C 0,0 km/h (0 Bft)
20.09.2017 21:07 6,7 °C 6,7 °C 92 % 1022,5 hPa 0,0 mm 0,0 km/h (0 Bft) SO 143 ° 0 min 0,000 mm 0,0 UV-I 0 W/m² 5,5 °C 6,7 °C 0,0 km/h (0 Bft)
20.09.2017 21:08 6,6 °C 6,7 °C 92 % 1022,5 hPa 0,0 mm 0,0 km/h (0 Bft) SO 143 ° 0 min 0,000 mm 0,0 UV-I 0 W/m² 5,4 °C 6,6 °C 0,0 km/h (0 Bft)
20.09.2017 21:09 6,6 °C 6,6 °C 92 % 1022,5 hPa 0,0 mm 0,0 km/h (0 Bft) SO 143 ° 0 min 0,000 mm 0,0 UV-I 0 W/m² 5,4 °C 6,6 °C 0,0 km/h (0 Bft)
20.09.2017 21:10 6,6 °C 6,6 °C 92 % 1022,5 hPa 0,0 mm 0,0 km/h (0 Bft) SO 143 ° 0 min 0,000 mm 0,0 UV-I 0 W/m² 5,4 °C 6,6 °C 0,0 km/h (0 Bft)
20.09.2017 21:11 6,6 °C 6,6 °C 92 % 1022,4 hPa 0,0 mm 0,0 km/h (0 Bft) SO 143 ° 0 min 0,000 mm 0,0 UV-I 0 W/m² 5,4 °C 6,6 °C 0,0 km/h (0 Bft)
20.09.2017 21:12 6,6 °C 6,6 °C 92 % 1022,5 hPa 0,0 mm 0,0 km/h (0 Bft) SO 143 ° 0 min 0,000 mm 0,0 UV-I 0 W/m² 5,4 °C 6,6 °C 0,0 km/h (0 Bft)
20.09.2017 21:14 6,6 °C 6,6 °C 92 % 1022,5 hPa 0,0 mm 0,0 km/h (0 Bft) SO 143 ° 0 min 0,000 mm 0,0 UV-I 0 W/m² 5,4 °C 6,6 °C 0,0 km/h (0 Bft)
20.09.2017 21:15 6,6 °C 6,6 °C 92 % 1022,5 hPa 0,0 mm 0,0 km/h (0 Bft) SO 143 ° 0 min 0,000 mm 0,0 UV-I 0 W/m² 5,4 °C 6,6 °C 0,0 km/h (0 Bft)
20.09.2017 21:16 6,6 °C 6,6 °C 92 % 1022,5 hPa 0,0 mm 0,0 km/h (0 Bft) SO 143 ° 0 min 0,000 mm 0,0 UV-I 0 W/m² 5,4 °C 6,6 °C 0,0 km/h (0 Bft)
20.09.2017 21:17 6,5 °C 6,6 °C 92 % 1022,5 hPa 0,0 mm 0,0 km/h (0 Bft) SO 143 ° 0 min 0,000 mm 0,0 UV-I 0 W/m² 5,3 °C 6,5 °C 0,0 km/h (0 Bft)
20.09.2017 21:18 6,5 °C 6,5 °C 93 % 1022,5 hPa 0,0 mm 0,0 km/h (0 Bft) SO 143 ° 0 min 0,000 mm 0,0 UV-I 0 W/m² 5,5 °C 6,5 °C 0,0 km/h (0 Bft)
20.09.2017 21:19 6,5 °C 6,5 °C 93 % 1022,5 hPa 0,0 mm 0,0 km/h (0 Bft) SO 143 ° 0 min 0,000 mm 0,0 UV-I 0 W/m² 5,5 °C 6,5 °C 0,0 km/h (0 Bft)
20.09.2017 21:20 6,4 °C 6,5 °C 93 % 1022,5 hPa 0,0 mm 0,0 km/h (0 Bft) SO 143 ° 0 min 0,000 mm 0,0 UV-I 0 W/m² 5,4 °C 6,4 °C 0,0 km/h (0 Bft)
20.09.2017 21:21 6,4 °C 6,4 °C 93 % 1022,5 hPa 0,0 mm 0,0 km/h (0 Bft) SO 143 ° 0 min 0,000 mm 0,0 UV-I 0 W/m² 5,4 °C 6,4 °C 0,0 km/h (0 Bft)
20.09.2017 21:22 6,4 °C 6,4 °C 93 % 1022,5 hPa 0,0 mm 0,0 km/h (0 Bft) SO 143 ° 0 min 0,000 mm 0,0 UV-I 0 W/m² 5,4 °C 6,4 °C 0,0 km/h (0 Bft)
20.09.2017 21:23 6,4 °C 6,4 °C 93 % 1022,5 hPa 0,0 mm 0,0 km/h (0 Bft) SO 143 ° 0 min 0,000 mm 0,0 UV-I 0 W/m² 5,4 °C 6,4 °C 0,0 km/h (0 Bft)
20.09.2017 21:24 6,4 °C 6,4 °C 93 % 1022,5 hPa 0,0 mm 0,0 km/h (0 Bft) SO 143 ° 0 min 0,000 mm 0,0 UV-I 0 W/m² 5,4 °C 6,4 °C 0,0 km/h (0 Bft)
20.09.2017 21:25 6,4 °C 6,4 °C 93 % 1022,5 hPa 0,0 mm 0,0 km/h (0 Bft) SO 143 ° 0 min 0,000 mm 0,0 UV-I 0 W/m² 5,4 °C 6,4 °C 0,0 km/h (0 Bft)
20.09.2017 21:26 6,4 °C 6,4 °C 93 % 1022,5 hPa 0,0 mm 0,0 km/h (0 Bft) SO 143 ° 0 min 0,000 mm 0,0 UV-I 0 W/m² 5,4 °C 6,4 °C 0,0 km/h (0 Bft)
20.09.2017 21:27 6,5 °C 6,5 °C 93 % 1022,5 hPa 0,0 mm 0,0 km/h (0 Bft) SO 143 ° 0 min 0,000 mm 0,0 UV-I 0 W/m² 5,5 °C 6,5 °C 0,0 km/h (0 Bft)
20.09.2017 21:28 6,5 °C 6,5 °C 93 % 1022,5 hPa 0,0 mm 0,0 km/h (0 Bft) SO 143 ° 0 min 0,000 mm 0,0 UV-I 0 W/m² 5,5 °C 6,5 °C 0,0 km/h (0 Bft)
20.09.2017 21:29 6,5 °C 6,5 °C 93 % 1022,5 hPa 0,0 mm 0,0 km/h (0 Bft) SO 143 ° 0 min 0,000 mm 0,0 UV-I 0 W/m² 5,5 °C 6,5 °C 0,0 km/h (0 Bft)
20.09.2017 21:30 6,4 °C 6,5 °C 93 % 1022,4 hPa 0,0 mm 0,0 km/h (0 Bft) SO 143 ° 0 min 0,000 mm 0,0 UV-I 0 W/m² 5,4 °C 6,4 °C 0,0 km/h (0 Bft)
20.09.2017 21:31 6,4 °C 6,5 °C 93 % 1022,4 hPa 0,0 mm 0,0 km/h (0 Bft) SO 143 ° 0 min 0,000 mm 0,0 UV-I 0 W/m² 5,4 °C 6,4 °C 0,0 km/h (0 Bft)
20.09.2017 21:32 6,5 °C 6,5 °C 93 % 1022,5 hPa 0,0 mm 0,0 km/h (0 Bft) SO 143 ° 0 min 0,000 mm 0,0 UV-I 0 W/m² 5,5 °C 6,5 °C 0,0 km/h (0 Bft)
20.09.2017 21:33 6,5 °C 6,5 °C 93 % 1022,5 hPa 0,0 mm 0,0 km/h (0 Bft) SO 143 ° 0 min 0,000 mm 0,0 UV-I 0 W/m² 5,5 °C 6,5 °C 0,0 km/h (0 Bft)
20.09.2017 21:34 6,5 °C 6,5 °C 93 % 1022,4 hPa 0,0 mm 0,0 km/h (0 Bft) SO 143 ° 0 min 0,000 mm 0,0 UV-I 0 W/m² 5,5 °C 6,5 °C 0,0 km/h (0 Bft)
20.09.2017 21:35 6,5 °C 6,5 °C 93 % 1022,5 hPa 0,0 mm 0,0 km/h (0 Bft) SO 143 ° 0 min 0,000 mm 0,0 UV-I 0 W/m² 5,5 °C 6,5 °C 0,0 km/h (0 Bft)
20.09.2017 21:36 6,5 °C 6,6 °C 93 % 1022,5 hPa 0,0 mm 0,0 km/h (0 Bft) SO 143 ° 0 min 0,000 mm 0,0 UV-I 0 W/m² 5,5 °C 6,5 °C 0,0 km/h (0 Bft)
20.09.2017 21:37 6,5 °C 6,5 °C 93 % 1022,5 hPa 0,0 mm 0,0 km/h (0 Bft) SO 143 ° 0 min 0,000 mm 0,0 UV-I 0 W/m² 5,5 °C 6,5 °C 0,0 km/h (0 Bft)
20.09.2017 21:38 6,5 °C 6,6 °C 93 % 1022,5 hPa 0,0 mm 0,0 km/h (0 Bft) SO 143 ° 0 min 0,000 mm 0,0 UV-I 0 W/m² 5,5 °C 6,5 °C 0,0 km/h (0 Bft)
20.09.2017 21:39 6,5 °C 6,5 °C 93 % 1022,5 hPa 0,0 mm 0,0 km/h (0 Bft) SO 143 ° 0 min 0,000 mm 0,0 UV-I 0 W/m² 5,5 °C 6,5 °C 0,0 km/h (0 Bft)
20.09.2017 21:40 6,6 °C 6,6 °C 93 % 1022,5 hPa 0,0 mm 0,0 km/h (0 Bft) SO 143 ° 0 min 0,000 mm 0,0 UV-I 0 W/m² 5,6 °C 6,6 °C 0,0 km/h (0 Bft)
20.09.2017 21:41 6,5 °C 6,6 °C 93 % 1022,4 hPa 0,0 mm 0,0 km/h (0 Bft) SO 143 ° 0 min 0,000 mm 0,0 UV-I 0 W/m² 5,5 °C 6,5 °C 0,0 km/h (0 Bft)
20.09.2017 21:42 6,5 °C 6,5 °C 93 % 1022,5 hPa 0,0 mm 0,0 km/h (0 Bft) SO 143 ° 0 min 0,000 mm 0,0 UV-I 0 W/m² 5,5 °C 6,5 °C 0,0 km/h (0 Bft)
20.09.2017 21:43 6,5 °C 6,5 °C 93 % 1022,5 hPa 0,0 mm 0,0 km/h (0 Bft) SO 143 ° 0 min 0,000 mm 0,0 UV-I 0 W/m² 5,5 °C 6,5 °C 0,0 km/h (0 Bft)
20.09.2017 21:44 6,4 °C 6,5 °C 93 % 1022,5 hPa 0,0 mm 0,0 km/h (0 Bft) SO 143 ° 0 min 0,000 mm 0,0 UV-I 0 W/m² 5,4 °C 6,4 °C 0,0 km/h (0 Bft)
20.09.2017 21:45 6,4 °C 6,5 °C 93 % 1022,5 hPa 0,0 mm 0,0 km/h (0 Bft) SO 143 ° 0 min 0,000 mm 0,0 UV-I 0 W/m² 5,4 °C 6,4 °C 0,0 km/h (0 Bft)
20.09.2017 21:46 6,5 °C 6,5 °C 93 % 1022,4 hPa 0,0 mm 0,0 km/h (0 Bft) SO 143 ° 0 min 0,000 mm 0,0 UV-I 0 W/m² 5,5 °C 6,5 °C 0,0 km/h (0 Bft)
20.09.2017 21:47 6,5 °C 6,5 °C 93 % 1022,4 hPa 0,0 mm 0,0 km/h (0 Bft) SO 143 ° 0 min 0,000 mm 0,0 UV-I 0 W/m² 5,5 °C 6,5 °C 0,0 km/h (0 Bft)
20.09.2017 21:48 6,5 °C 6,5 °C 93 % 1022,4 hPa 0,0 mm 0,0 km/h (0 Bft) SO 143 ° 0 min 0,000 mm 0,0 UV-I 0 W/m² 5,5 °C 6,5 °C 0,0 km/h (0 Bft)
20.09.2017 21:49 6,5 °C 6,5 °C 93 % 1022,4 hPa 0,0 mm 0,0 km/h (0 Bft) SO 143 ° 0 min 0,000 mm 0,0 UV-I 0 W/m² 5,5 °C 6,5 °C 0,0 km/h (0 Bft)
20.09.2017 21:50 6,5 °C 6,5 °C 93 % 1022,5 hPa 0,0 mm 0,0 km/h (0 Bft) SO 143 ° 0 min 0,000 mm 0,0 UV-I 0 W/m² 5,5 °C 6,5 °C 0,0 km/h (0 Bft)
20.09.2017 21:51 6,5 °C 6,5 °C 93 % 1022,5 hPa 0,0 mm 0,0 km/h (0 Bft) SO 143 ° 0 min 0,000 mm 0,0 UV-I 0 W/m² 5,5 °C 6,5 °C 0,0 km/h (0 Bft)
20.09.2017 21:52 6,5 °C 6,5 °C 93 % 1022,5 hPa 0,0 mm 0,0 km/h (0 Bft) SO 143 ° 0 min 0,000 mm 0,0 UV-I 0 W/m² 5,5 °C 6,5 °C 0,0 km/h (0 Bft)
20.09.2017 21:53 6,5 °C 6,5 °C 93 % 1022,5 hPa 0,0 mm 0,0 km/h (0 Bft) SO 143 ° 0 min 0,000 mm 0,0 UV-I 0 W/m² 5,5 °C 6,5 °C 0,0 km/h (0 Bft)
20.09.2017 21:54 6,6 °C 6,6 °C 93 % 1022,5 hPa 0,0 mm 0,0 km/h (0 Bft) SO 143 ° 0 min 0,000 mm 0,0 UV-I 0 W/m² 5,6 °C 6,6 °C 0,0 km/h (0 Bft)
20.09.2017 21:55 6,6 °C 6,6 °C 93 % 1022,5 hPa 0,0 mm 0,3 km/h (0 Bft) SO 143 ° 0 min 0,000 mm 0,0 UV-I 0 W/m² 5,6 °C 6,6 °C 1,6 km/h (1 Bft)
20.09.2017 21:56 6,6 °C 6,6 °C 92 % 1022,5 hPa 0,0 mm 0,1 km/h (0 Bft) SO 143 ° 0 min 0,000 mm 0,0 UV-I 0 W/m² 5,4 °C 6,6 °C 1,6 km/h (1 Bft)
20.09.2017 21:57 6,6 °C 6,6 °C 92 % 1022,6 hPa 0,0 mm 0,3 km/h (0 Bft) SO 143 ° 0 min 0,000 mm 0,0 UV-I 0 W/m² 5,4 °C 6,6 °C 1,6 km/h (1 Bft)
20.09.2017 21:58 6,6 °C 6,6 °C 92 % 1022,5 hPa 0,0 mm 0,0 km/h (0 Bft) SO 143 ° 0 min 0,000 mm 0,0 UV-I 0 W/m² 5,4 °C 6,6 °C 0,0 km/h (0 Bft)
20.09.2017 21:59 6,7 °C 6,7 °C 92 % 1022,5 hPa 0,0 mm 0,0 km/h (0 Bft) SO 143 ° 0 min 0,000 mm 0,0 UV-I 0 W/m² 5,5 °C 6,7 °C 0,0 km/h (0 Bft)
20.09.2017 22:00 6,7 °C 6,7 °C 92 % 1022,5 hPa 0,0 mm 0,0 km/h (0 Bft) SO 143 ° 0 min 0,000 mm 0,0 UV-I 0 W/m² 5,5 °C 6,7 °C 0,0 km/h (0 Bft)
20.09.2017 22:01 6,7 °C 6,7 °C 92 % 1022,5 hPa 0,0 mm 0,0 km/h (0 Bft) SO 143 ° 0 min 0,000 mm 0,0 UV-I 0 W/m² 5,5 °C 6,7 °C 0,0 km/h (0 Bft)
20.09.2017 22:02 6,7 °C 6,7 °C 92 % 1022,5 hPa 0,0 mm 0,0 km/h (0 Bft) SO 143 ° 0 min 0,000 mm 0,0 UV-I 0 W/m² 5,5 °C 6,7 °C 0,0 km/h (0 Bft)
20.09.2017 22:03 6,7 °C 6,7 °C 92 % 1022,5 hPa 0,0 mm 0,0 km/h (0 Bft) SO 143 ° 0 min 0,000 mm 0,0 UV-I 0 W/m² 5,5 °C 6,7 °C 0,0 km/h (0 Bft)
20.09.2017 22:04 6,7 °C 6,7 °C 92 % 1022,5 hPa 0,0 mm 0,1 km/h (0 Bft) SO 143 ° 0 min 0,000 mm 0,0 UV-I 0 W/m² 5,5 °C 6,7 °C 1,6 km/h (1 Bft)
20.09.2017 22:05 6,6 °C 6,7 °C 92 % 1022,5 hPa 0,0 mm 0,2 km/h (0 Bft) SO 143 ° 0 min 0,000 mm 0,0 UV-I 0 W/m² 5,4 °C 6,6 °C 1,6 km/h (1 Bft)
20.09.2017 22:06 6,6 °C 6,6 °C 92 % 1022,5 hPa 0,0 mm 0,0 km/h (0 Bft) SO 143 ° 0 min 0,000 mm 0,0 UV-I 0 W/m² 5,4 °C 6,6 °C 0,0 km/h (0 Bft)
20.09.2017 22:07 6,6 °C 6,6 °C 92 % 1022,5 hPa 0,0 mm 0,0 km/h (0 Bft) SO 143 ° 0 min 0,000 mm 0,0 UV-I 0 W/m² 5,4 °C 6,6 °C 0,0 km/h (0 Bft)
20.09.2017 22:08 6,6 °C 6,6 °C 92 % 1022,5 hPa 0,0 mm 0,0 km/h (0 Bft) SO 143 ° 0 min 0,000 mm 0,0 UV-I 0 W/m² 5,4 °C 6,6 °C 0,0 km/h (0 Bft)
20.09.2017 22:09 6,6 °C 6,6 °C 92 % 1022,5 hPa 0,0 mm 0,4 km/h (0 Bft) SO 143 ° 0 min 0,000 mm 0,0 UV-I 0 W/m² 5,4 °C 6,6 °C 1,6 km/h (1 Bft)
20.09.2017 22:10 6,6 °C 6,6 °C 92 % 1022,5 hPa 0,0 mm 0,0 km/h (0 Bft) SO 143 ° 0 min 0,000 mm 0,0 UV-I 0 W/m² 5,4 °C 6,6 °C 0,0 km/h (0 Bft)
20.09.2017 22:11 6,6 °C 6,6 °C 92 % 1022,5 hPa 0,0 mm 0,0 km/h (0 Bft) SO 143 ° 0 min 0,000 mm 0,0 UV-I 0 W/m² 5,4 °C 6,6 °C 0,0 km/h (0 Bft)
20.09.2017 22:12 6,7 °C 6,7 °C 92 % 1022,5 hPa 0,0 mm 0,0 km/h (0 Bft) SO 143 ° 0 min 0,000 mm 0,0 UV-I 0 W/m² 5,5 °C 6,7 °C 0,0 km/h (0 Bft)
20.09.2017 22:13 6,7 °C 6,7 °C 92 % 1022,5 hPa 0,0 mm 0,0 km/h (0 Bft) SO 143 ° 0 min 0,000 mm 0,0 UV-I 0 W/m² 5,5 °C 6,7 °C 0,0 km/h (0 Bft)
20.09.2017 22:14 6,7 °C 6,7 °C 92 % 1022,5 hPa 0,0 mm 0,0 km/h (0 Bft) SO 143 ° 0 min 0,000 mm 0,0 UV-I 0 W/m² 5,5 °C 6,7 °C 0,0 km/h (0 Bft)
20.09.2017 22:15 6,7 °C 6,7 °C 92 % 1022,5 hPa 0,0 mm 0,0 km/h (0 Bft) SO 143 ° 0 min 0,000 mm 0,0 UV-I 0 W/m² 5,5 °C 6,7 °C 0,0 km/h (0 Bft)
20.09.2017 22:16 6,7 °C 6,7 °C 92 % 1022,5 hPa 0,0 mm 1,5 km/h (1 Bft) SO 143 ° 0 min 0,000 mm 0,0 UV-I 0 W/m² 5,5 °C 6,7 °C 1,6 km/h (1 Bft)
20.09.2017 22:17 6,7 °C 6,7 °C 92 % 1022,5 hPa 0,0 mm 0,9 km/h (0 Bft) SO 143 ° 0 min 0,000 mm 0,0 UV-I 0 W/m² 5,5 °C 6,7 °C 3,2 km/h (1 Bft)
20.09.2017 22:18 6,7 °C 6,7 °C 92 % 1022,5 hPa 0,0 mm 0,0 km/h (0 Bft) SO 143 ° 0 min 0,000 mm 0,0 UV-I 0 W/m² 5,5 °C 6,7 °C 0,0 km/h (0 Bft)
20.09.2017 22:19 6,7 °C 6,7 °C 92 % 1022,4 hPa 0,0 mm 0,0 km/h (0 Bft) SO 143 ° 0 min 0,000 mm 0,0 UV-I 0 W/m² 5,5 °C 6,7 °C 0,0 km/h (0 Bft)
20.09.2017 22:20 6,7 °C 6,7 °C 92 % 1022,5 hPa 0,0 mm 0,0 km/h (0 Bft) SO 143 ° 0 min 0,000 mm 0,0 UV-I 0 W/m² 5,5 °C 6,7 °C 0,0 km/h (0 Bft)
20.09.2017 22:21 6,7 °C 6,7 °C 92 % 1022,4 hPa 0,0 mm 0,0 km/h (0 Bft) SO 143 ° 0 min 0,000 mm 0,0 UV-I 0 W/m² 5,5 °C 6,7 °C 0,0 km/h (0 Bft)
20.09.2017 22:22 6,8 °C 6,8 °C 92 % 1022,5 hPa 0,0 mm 0,0 km/h (0 Bft) SO 143 ° 0 min 0,000 mm 0,0 UV-I 0 W/m² 5,6 °C 6,8 °C 0,0 km/h (0 Bft)
20.09.2017 22:23 6,8 °C 6,8 °C 92 % 1022,5 hPa 0,0 mm 0,0 km/h (0 Bft) SO 143 ° 0 min 0,000 mm 0,0 UV-I 0 W/m² 5,6 °C 6,8 °C 0,0 km/h (0 Bft)
20.09.2017 22:24 6,8 °C 6,8 °C 92 % 1022,5 hPa 0,0 mm 0,0 km/h (0 Bft) SO 143 ° 0 min 0,000 mm 0,0 UV-I 0 W/m² 5,6 °C 6,8 °C 0,0 km/h (0 Bft)
20.09.2017 22:25 6,8 °C 6,8 °C 92 % 1022,5 hPa 0,0 mm 0,0 km/h (0 Bft) SO 143 ° 0 min 0,000 mm 0,0 UV-I 0 W/m² 5,6 °C 6,8 °C 0,0 km/h (0 Bft)
20.09.2017 22:26 6,7 °C 6,8 °C 92 % 1022,5 hPa 0,0 mm 0,0 km/h (0 Bft) SO 143 ° 0 min 0,000 mm 0,0 UV-I 0 W/m² 5,5 °C 6,7 °C 0,0 km/h (0 Bft)
20.09.2017 22:27 6,7 °C 6,8 °C 92 % 1022,5 hPa 0,0 mm 0,0 km/h (0 Bft) SO 143 ° 0 min 0,000 mm 0,0 UV-I 0 W/m² 5,5 °C 6,7 °C 0,0 km/h (0 Bft)
20.09.2017 22:28 6,7 °C 6,7 °C 92 % 1022,5 hPa 0,0 mm 0,0 km/h (0 Bft) SO 143 ° 0 min 0,000 mm 0,0 UV-I 0 W/m² 5,5 °C 6,7 °C 0,0 km/h (0 Bft)
20.09.2017 22:29 6,7 °C 6,7 °C 92 % 1022,5 hPa 0,0 mm 0,0 km/h (0 Bft) SO 143 ° 0 min 0,000 mm 0,0 UV-I 0 W/m² 5,5 °C 6,7 °C 0,0 km/h (0 Bft)
20.09.2017 22:30 6,7 °C 6,7 °C 92 % 1022,5 hPa 0,0 mm 0,0 km/h (0 Bft) SO 143 ° 0 min 0,000 mm 0,0 UV-I 0 W/m² 5,5 °C 6,7 °C 0,0 km/h (0 Bft)
20.09.2017 22:31 6,7 °C 6,7 °C 92 % 1022,5 hPa 0,0 mm 0,0 km/h (0 Bft) SO 143 ° 0 min 0,000 mm 0,0 UV-I 0 W/m² 5,5 °C 6,7 °C 0,0 km/h (0 Bft)
20.09.2017 22:32 6,7 °C 6,7 °C 92 % 1022,5 hPa 0,0 mm 0,0 km/h (0 Bft) SO 143 ° 0 min 0,000 mm 0,0 UV-I 0 W/m² 5,5 °C 6,7 °C 0,0 km/h (0 Bft)
20.09.2017 22:33 6,7 °C 6,7 °C 92 % 1022,5 hPa 0,0 mm 0,0 km/h (0 Bft) SO 143 ° 0 min 0,000 mm 0,0 UV-I 0 W/m² 5,5 °C 6,7 °C 0,0 km/h (0 Bft)
20.09.2017 22:34 6,7 °C 6,7 °C 92 % 1022,5 hPa 0,0 mm 0,0 km/h (0 Bft) SO 143 ° 0 min 0,000 mm 0,0 UV-I 0 W/m² 5,5 °C 6,7 °C 0,0 km/h (0 Bft)
20.09.2017 22:35 6,7 °C 6,7 °C 92 % 1022,5 hPa 0,0 mm 0,2 km/h (0 Bft) SO 143 ° 0 min 0,000 mm 0,0 UV-I 0 W/m² 5,5 °C 6,7 °C 1,6 km/h (1 Bft)
20.09.2017 22:36 6,7 °C 6,7 °C 92 % 1022,5 hPa 0,0 mm 0,0 km/h (0 Bft) SO 143 ° 0 min 0,000 mm 0,0 UV-I 0 W/m² 5,5 °C 6,7 °C 0,0 km/h (0 Bft)
20.09.2017 22:37 6,7 °C 6,7 °C 92 % 1022,4 hPa 0,0 mm 0,0 km/h (0 Bft) SO 143 ° 0 min 0,000 mm 0,0 UV-I 0 W/m² 5,5 °C 6,7 °C 0,0 km/h (0 Bft)
20.09.2017 22:38 6,7 °C 6,7 °C 92 % 1022,5 hPa 0,0 mm 0,0 km/h (0 Bft) SO 143 ° 0 min 0,000 mm 0,0 UV-I 0 W/m² 5,5 °C 6,7 °C 0,0 km/h (0 Bft)
20.09.2017 22:39 6,7 °C 6,7 °C 92 % 1022,4 hPa 0,0 mm 0,0 km/h (0 Bft) SO 143 ° 0 min 0,000 mm 0,0 UV-I 0 W/m² 5,5 °C 6,7 °C 0,0 km/h (0 Bft)
20.09.2017 22:40 6,7 °C 6,7 °C 92 % 1022,5 hPa 0,0 mm 0,0 km/h (0 Bft) SO 143 ° 0 min 0,000 mm 0,0 UV-I 0 W/m² 5,5 °C 6,7 °C 0,0 km/h (0 Bft)
20.09.2017 22:41 6,7 °C 6,8 °C 92 % 1022,5 hPa 0,0 mm 0,0 km/h (0 Bft) SO 143 ° 0 min 0,000 mm 0,0 UV-I 0 W/m² 5,5 °C 6,7 °C 0,0 km/h (0 Bft)
20.09.2017 22:42 6,7 °C 6,7 °C 92 % 1022,5 hPa 0,0 mm 0,3 km/h (0 Bft) SO 143 ° 0 min 0,000 mm 0,0 UV-I 0 W/m² 5,5 °C 6,7 °C 1,6 km/h (1 Bft)
20.09.2017 22:43 6,8 °C 6,8 °C 92 % 1022,4 hPa 0,0 mm 0,0 km/h (0 Bft) SO 143 ° 0 min 0,000 mm 0,0 UV-I 0 W/m² 5,6 °C 6,8 °C 0,0 km/h (0 Bft)
20.09.2017 22:44 6,8 °C 6,8 °C 92 % 1022,4 hPa 0,0 mm 0,0 km/h (0 Bft) SO 143 ° 0 min 0,000 mm 0,0 UV-I 0 W/m² 5,6 °C 6,8 °C 0,0 km/h (0 Bft)
20.09.2017 22:45 6,7 °C 6,8 °C 92 % 1022,4 hPa 0,0 mm 0,0 km/h (0 Bft) SO 143 ° 0 min 0,000 mm 0,0 UV-I 0 W/m² 5,5 °C 6,7 °C 0,0 km/h (0 Bft)
20.09.2017 22:46 6,8 °C 6,8 °C 91 % 1022,4 hPa 0,0 mm 0,3 km/h (0 Bft) SO 143 ° 0 min 0,000 mm 0,0 UV-I 0 W/m² 5,4 °C 6,8 °C 1,6 km/h (1 Bft)
20.09.2017 22:47 6,8 °C 6,8 °C 91 % 1022,4 hPa 0,0 mm 0,5 km/h (0 Bft) SO 143 ° 0 min 0,000 mm 0,0 UV-I 0 W/m² 5,4 °C 6,8 °C 3,2 km/h (1 Bft)
20.09.2017 22:48 6,8 °C 6,8 °C 91 % 1022,5 hPa 0,0 mm 0,5 km/h (0 Bft) SO 143 ° 0 min 0,000 mm 0,0 UV-I 0 W/m² 5,4 °C 6,8 °C 1,6 km/h (1 Bft)
20.09.2017 22:49 6,8 °C 6,8 °C 91 % 1022,5 hPa 0,0 mm 1,5 km/h (1 Bft) S-SW 204 ° 0 min 0,000 mm 0,0 UV-I 0 W/m² 5,4 °C 6,8 °C 3,2 km/h (1 Bft)
20.09.2017 22:50 6,8 °C 6,8 °C 91 % 1022,5 hPa 0,0 mm 0,7 km/h (0 Bft) S-SW 204 ° 0 min 0,000 mm 0,0 UV-I 0 W/m² 5,4 °C 6,8 °C 1,6 km/h (1 Bft)
20.09.2017 22:51 6,8 °C 6,8 °C 91 % 1022,5 hPa 0,0 mm 1,3 km/h (1 Bft) S-SW 204 ° 0 min 0,000 mm 0,0 UV-I 0 W/m² 5,4 °C 6,8 °C 3,2 km/h (1 Bft)
20.09.2017 22:52 6,8 °C 6,8 °C 91 % 1022,5 hPa 0,0 mm 3,5 km/h (1 Bft) SW 234 ° 0 min 0,000 mm 0,0 UV-I 0 W/m² 5,4 °C 6,8 °C 4,8 km/h (1 Bft)
20.09.2017 22:53 6,8 °C 6,8 °C 91 % 1022,6 hPa 0,0 mm 3,0 km/h (1 Bft) SW 234 ° 0 min 0,000 mm 0,0 UV-I 0 W/m² 5,4 °C 6,8 °C 4,8 km/h (1 Bft)
20.09.2017 22:54 6,8 °C 6,8 °C 91 % 1022,5 hPa 0,0 mm 1,9 km/h (1 Bft) SW 236 ° 0 min 0,000 mm 0,0 UV-I 0 W/m² 5,4 °C 6,8 °C 4,8 km/h (1 Bft)
20.09.2017 22:55 6,8 °C 6,8 °C 91 % 1022,5 hPa 0,0 mm 3,0 km/h (1 Bft) SW 236 ° 0 min 0,000 mm 0,0 UV-I 0 W/m² 5,4 °C 6,8 °C 4,8 km/h (1 Bft)
20.09.2017 22:56 6,9 °C 6,9 °C 91 % 1022,6 hPa 0,0 mm 2,2 km/h (1 Bft) SW 236 ° 0 min 0,000 mm 0,0 UV-I 0 W/m² 5,5 °C 6,9 °C 3,2 km/h (1 Bft)
20.09.2017 22:57 6,9 °C 6,9 °C 90 % 1022,5 hPa 0,0 mm 2,0 km/h (1 Bft) SW 236 ° 0 min 0,000 mm 0,0 UV-I 0 W/m² 5,4 °C 6,9 °C 3,2 km/h (1 Bft)
20.09.2017 22:58 6,9 °C 6,9 °C 90 % 1022,5 hPa 0,0 mm 0,1 km/h (0 Bft) SW 236 ° 0 min 0,000 mm 0,0 UV-I 0 W/m² 5,4 °C 6,9 °C 1,6 km/h (1 Bft)
20.09.2017 22:59 6,9 °C 6,9 °C 90 % 1022,5 hPa 0,0 mm 2,0 km/h (1 Bft) SW 232 ° 0 min 0,000 mm 0,0 UV-I 0 W/m² 5,4 °C 6,9 °C 3,2 km/h (1 Bft)
20.09.2017 23:00 6,9 °C 6,9 °C 90 % 1022,6 hPa 0,0 mm 4,6 km/h (1 Bft) S 191 ° 0 min 0,000 mm 0,0 UV-I 0 W/m² 5,4 °C 6,4 °C 9,7 km/h (2 Bft)
20.09.2017 23:01 6,9 °C 6,9 °C 90 % 1022,5 hPa 0,0 mm 4,2 km/h (1 Bft) S-SW 207 ° 0 min 0,000 mm 0,0 UV-I 0 W/m² 5,4 °C 6,9 °C 9,7 km/h (2 Bft)
20.09.2017 23:02 6,9 °C 6,9 °C 90 % 1022,5 hPa 0,0 mm 1,8 km/h (1 Bft) S-SW 201 ° 0 min 0,000 mm 0,0 UV-I 0 W/m² 5,4 °C 6,9 °C 4,8 km/h (1 Bft)
20.09.2017 23:03 6,9 °C 6,9 °C 90 % 1022,5 hPa 0,0 mm 0,3 km/h (0 Bft) S-SW 201 ° 0 min 0,000 mm 0,0 UV-I 0 W/m² 5,4 °C 6,9 °C 1,6 km/h (1 Bft)
20.09.2017 23:04 6,9 °C 6,9 °C 90 % 1022,5 hPa 0,0 mm 0,3 km/h (0 Bft) S-SW 201 ° 0 min 0,000 mm 0,0 UV-I 0 W/m² 5,4 °C 6,9 °C 1,6 km/h (1 Bft)
20.09.2017 23:05 6,8 °C 6,9 °C 91 % 1022,5 hPa 0,0 mm 0,0 km/h (0 Bft) S-SW 201 ° 0 min 0,000 mm 0,0 UV-I 0 W/m² 5,4 °C 6,8 °C 0,0 km/h (0 Bft)
20.09.2017 23:06 6,8 °C 6,8 °C 91 % 1022,5 hPa 0,0 mm 0,0 km/h (0 Bft) S-SW 201 ° 0 min 0,000 mm 0,0 UV-I 0 W/m² 5,4 °C 6,8 °C 0,0 km/h (0 Bft)
20.09.2017 23:07 6,8 °C 6,8 °C 90 % 1022,5 hPa 0,0 mm 1,6 km/h (1 Bft) SW 217 ° 0 min 0,000 mm 0,0 UV-I 0 W/m² 5,3 °C 6,8 °C 3,2 km/h (1 Bft)
20.09.2017 23:08 6,8 °C 6,8 °C 90 % 1022,5 hPa 0,0 mm 4,0 km/h (1 Bft) S-SW 197 ° 0 min 0,000 mm 0,0 UV-I 0 W/m² 5,3 °C 6,8 °C 8,0 km/h (2 Bft)
20.09.2017 23:09 6,8 °C 6,8 °C 90 % 1022,5 hPa 0,0 mm 5,6 km/h (1 Bft) S 189 ° 0 min 0,000 mm 0,0 UV-I 0 W/m² 5,3 °C 5,9 °C 8,0 km/h (2 Bft)
20.09.2017 23:10 6,8 °C 6,9 °C 90 % 1022,5 hPa 0,0 mm 1,8 km/h (1 Bft) S 190 ° 0 min 0,000 mm 0,0 UV-I 0 W/m² 5,3 °C 6,8 °C 4,8 km/h (1 Bft)
20.09.2017 23:11 6,9 °C 6,9 °C 90 % 1022,4 hPa 0,0 mm 0,9 km/h (0 Bft) SW 215 ° 0 min 0,000 mm 0,0 UV-I 0 W/m² 5,4 °C 6,9 °C 3,2 km/h (1 Bft)
20.09.2017 23:12 6,9 °C 6,9 °C 90 % 1022,5 hPa 0,0 mm 1,3 km/h (1 Bft) S-SW 212 ° 0 min 0,000 mm 0,0 UV-I 0 W/m² 5,4 °C 6,9 °C 3,2 km/h (1 Bft)
20.09.2017 23:13 6,9 °C 6,9 °C 90 % 1022,4 hPa 0,0 mm 2,8 km/h (1 Bft) S-SW 213 ° 0 min 0,000 mm 0,0 UV-I 0 W/m² 5,4 °C 6,9 °C 3,2 km/h (1 Bft)
20.09.2017 23:14 6,9 °C 6,9 °C 90 % 1022,4 hPa 0,0 mm 2,4 km/h (1 Bft) S-SW 213 ° 0 min 0,000 mm 0,0 UV-I 0 W/m² 5,4 °C 6,9 °C 3,2 km/h (1 Bft)
20.09.2017 23:15 6,9 °C 6,9 °C 90 % 1022,4 hPa 0,0 mm 1,2 km/h (1 Bft) S-SW 213 ° 0 min 0,000 mm 0,0 UV-I 0 W/m² 5,4 °C 6,9 °C 1,6 km/h (1 Bft)
20.09.2017 23:16 6,9 °C 6,9 °C 90 % 1022,4 hPa 0,0 mm 0,4 km/h (0 Bft) S-SW 213 ° 0 min 0,000 mm 0,0 UV-I 0 W/m² 5,4 °C 6,9 °C 1,6 km/h (1 Bft)
20.09.2017 23:17 6,9 °C 6,9 °C 90 % 1022,5 hPa 0,0 mm 0,9 km/h (0 Bft) S-SW 213 ° 0 min 0,000 mm 0,0 UV-I 0 W/m² 5,4 °C 6,9 °C 3,2 km/h (1 Bft)
20.09.2017 23:18 6,9 °C 6,9 °C 90 % 1022,4 hPa 0,0 mm 0,0 km/h (0 Bft) S-SW 213 ° 0 min 0,000 mm 0,0 UV-I 0 W/m² 5,4 °C 6,9 °C 0,0 km/h (0 Bft)
20.09.2017 23:19 6,8 °C 6,9 °C 90 % 1022,5 hPa 0,0 mm 0,0 km/h (0 Bft) S-SW 213 ° 0 min 0,000 mm 0,0 UV-I 0 W/m² 5,3 °C 6,8 °C 0,0 km/h (0 Bft)
20.09.2017 23:20 6,8 °C 6,8 °C 91 % 1022,4 hPa 0,0 mm 0,0 km/h (0 Bft) S-SW 213 ° 0 min 0,000 mm 0,0 UV-I 0 W/m² 5,4 °C 6,8 °C 0,0 km/h (0 Bft)
20.09.2017 23:21 6,8 °C 6,8 °C 91 % 1022,5 hPa 0,0 mm 0,0 km/h (0 Bft) S-SW 213 ° 0 min 0,000 mm 0,0 UV-I 0 W/m² 5,4 °C 6,8 °C 0,0 km/h (0 Bft)
20.09.2017 23:22 6,7 °C 6,8 °C 91 % 1022,5 hPa 0,0 mm 0,0 km/h (0 Bft) S-SW 213 ° 0 min 0,000 mm 0,0 UV-I 0 W/m² 5,3 °C 6,7 °C 0,0 km/h (0 Bft)
20.09.2017 23:23 6,7 °C 6,7 °C 91 % 1022,5 hPa 0,0 mm 0,0 km/h (0 Bft) S-SW 213 ° 0 min 0,000 mm 0,0 UV-I 0 W/m² 5,3 °C 6,7 °C 0,0 km/h (0 Bft)
20.09.2017 23:24 6,7 °C 6,7 °C 92 % 1022,5 hPa 0,0 mm 0,0 km/h (0 Bft) S-SW 213 ° 0 min 0,000 mm 0,0 UV-I 0 W/m² 5,5 °C 6,7 °C 0,0 km/h (0 Bft)
20.09.2017 23:25 6,7 °C 6,7 °C 91 % 1022,5 hPa 0,0 mm 0,0 km/h (0 Bft) S-SW 213 ° 0 min 0,000 mm 0,0 UV-I 0 W/m² 5,3 °C 6,7 °C 0,0 km/h (0 Bft)
20.09.2017 23:26 6,7 °C 6,7 °C 91 % 1022,5 hPa 0,0 mm 0,0 km/h (0 Bft) S-SW 213 ° 0 min 0,000 mm 0,0 UV-I 0 W/m² 5,3 °C 6,7 °C 0,0 km/h (0 Bft)
20.09.2017 23:27 6,7 °C 6,7 °C 91 % 1022,6 hPa 0,0 mm 0,0 km/h (0 Bft) S-SW 213 ° 0 min 0,000 mm 0,0 UV-I 0 W/m² 5,3 °C 6,7 °C 0,0 km/h (0 Bft)
20.09.2017 23:28 6,7 °C 6,7 °C 91 % 1022,5 hPa 0,0 mm 0,0 km/h (0 Bft) S-SW 213 ° 0 min 0,000 mm 0,0 UV-I 0 W/m² 5,3 °C 6,7 °C 0,0 km/h (0 Bft)
20.09.2017 23:29 6,7 °C 6,7 °C 91 % 1022,6 hPa 0,0 mm 0,0 km/h (0 Bft) S-SW 213 ° 0 min 0,000 mm 0,0 UV-I 0 W/m² 5,3 °C 6,7 °C 0,0 km/h (0 Bft)
20.09.2017 23:30 6,7 °C 6,7 °C 91 % 1022,6 hPa 0,0 mm 0,0 km/h (0 Bft) S-SW 213 ° 0 min 0,000 mm 0,0 UV-I 0 W/m² 5,3 °C 6,7 °C 0,0 km/h (0 Bft)
20.09.2017 23:31 6,7 °C 6,7 °C 91 % 1022,5 hPa 0,0 mm 0,0 km/h (0 Bft) S-SW 213 ° 0 min 0,000 mm 0,0 UV-I 0 W/m² 5,3 °C 6,7 °C 0,0 km/h (0 Bft)
20.09.2017 23:32 6,6 °C 6,7 °C 91 % 1022,5 hPa 0,0 mm 0,0 km/h (0 Bft) S-SW 213 ° 0 min 0,000 mm 0,0 UV-I 0 W/m² 5,2 °C 6,6 °C 0,0 km/h (0 Bft)
20.09.2017 23:33 6,7 °C 6,7 °C 91 % 1022,5 hPa 0,0 mm 0,2 km/h (0 Bft) S-SW 213 ° 0 min 0,000 mm 0,0 UV-I 0 W/m² 5,3 °C 6,7 °C 1,6 km/h (1 Bft)
20.09.2017 23:34 6,7 °C 6,7 °C 91 % 1022,6 hPa 0,0 mm 0,0 km/h (0 Bft) S-SW 213 ° 0 min 0,000 mm 0,0 UV-I 0 W/m² 5,3 °C 6,7 °C 0,0 km/h (0 Bft)
20.09.2017 23:35 6,7 °C 6,7 °C 91 % 1022,5 hPa 0,0 mm 0,0 km/h (0 Bft) S-SW 213 ° 0 min 0,000 mm 0,0 UV-I 0 W/m² 5,3 °C 6,7 °C 0,0 km/h (0 Bft)
20.09.2017 23:36 6,7 °C 6,7 °C 91 % 1022,5 hPa 0,0 mm 0,6 km/h (0 Bft) S-SW 213 ° 0 min 0,000 mm 0,0 UV-I 0 W/m² 5,3 °C 6,7 °C 1,6 km/h (1 Bft)
20.09.2017 23:37 6,7 °C 6,7 °C 91 % 1022,5 hPa 0,0 mm 0,3 km/h (0 Bft) S-SW 213 ° 0 min 0,000 mm 0,0 UV-I 0 W/m² 5,3 °C 6,7 °C 1,6 km/h (1 Bft)
20.09.2017 23:38 6,7 °C 6,7 °C 91 % 1022,5 hPa 0,0 mm 0,0 km/h (0 Bft) S-SW 213 ° 0 min 0,000 mm 0,0 UV-I 0 W/m² 5,3 °C 6,7 °C 0,0 km/h (0 Bft)
20.09.2017 23:39 6,7 °C 6,7 °C 91 % 1022,5 hPa 0,0 mm 0,0 km/h (0 Bft) S-SW 213 ° 0 min 0,000 mm 0,0 UV-I 0 W/m² 5,3 °C 6,7 °C 0,0 km/h (0 Bft)
20.09.2017 23:40 6,7 °C 6,7 °C 91 % 1022,5 hPa 0,0 mm 0,0 km/h (0 Bft) S-SW 213 ° 0 min 0,000 mm 0,0 UV-I 0 W/m² 5,3 °C 6,7 °C 0,0 km/h (0 Bft)
20.09.2017 23:41 6,7 °C 6,7 °C 91 % 1022,5 hPa 0,0 mm 0,0 km/h (0 Bft) S-SW 213 ° 0 min 0,000 mm 0,0 UV-I 0 W/m² 5,3 °C 6,7 °C 0,0 km/h (0 Bft)
20.09.2017 23:42 6,7 °C 6,7 °C 91 % 1022,5 hPa 0,0 mm 0,0 km/h (0 Bft) S-SW 213 ° 0 min 0,000 mm 0,0 UV-I 0 W/m² 5,3 °C 6,7 °C 0,0 km/h (0 Bft)
20.09.2017 23:43 6,6 °C 6,7 °C 91 % 1022,4 hPa 0,0 mm 0,0 km/h (0 Bft) S-SW 213 ° 0 min 0,000 mm 0,0 UV-I 0 W/m² 5,2 °C 6,6 °C 0,0 km/h (0 Bft)
20.09.2017 23:44 6,6 °C 6,6 °C 92 % 1022,5 hPa 0,0 mm 0,0 km/h (0 Bft) S-SW 213 ° 0 min 0,000 mm 0,0 UV-I 0 W/m² 5,4 °C 6,6 °C 0,0 km/h (0 Bft)
20.09.2017 23:45 6,6 °C 6,6 °C 92 % 1022,5 hPa 0,0 mm 0,0 km/h (0 Bft) S-SW 213 ° 0 min 0,000 mm 0,0 UV-I 0 W/m² 5,4 °C 6,6 °C 0,0 km/h (0 Bft)
20.09.2017 23:46 6,5 °C 6,6 °C 92 % 1022,4 hPa 0,0 mm 1,6 km/h (1 Bft) S-SW 213 ° 0 min 0,000 mm 0,0 UV-I 0 W/m² 5,3 °C 6,5 °C 3,2 km/h (1 Bft)
20.09.2017 23:47 6,6 °C 6,6 °C 92 % 1022,5 hPa 0,0 mm 2,8 km/h (1 Bft) S-SW 192 ° 0 min 0,000 mm 0,0 UV-I 0 W/m² 5,4 °C 6,6 °C 4,8 km/h (1 Bft)
20.09.2017 23:48 6,6 °C 6,6 °C 92 % 1022,4 hPa 0,0 mm 2,7 km/h (1 Bft) S 177 ° 0 min 0,000 mm 0,0 UV-I 0 W/m² 5,4 °C 6,6 °C 4,8 km/h (1 Bft)
20.09.2017 23:49 6,5 °C 6,6 °C 92 % 1022,4 hPa 0,0 mm 0,4 km/h (0 Bft) S 177 ° 0 min 0,000 mm 0,0 UV-I 0 W/m² 5,3 °C 6,5 °C 1,6 km/h (1 Bft)
20.09.2017 23:50 6,5 °C 6,5 °C 92 % 1022,5 hPa 0,0 mm 0,0 km/h (0 Bft) S 177 ° 0 min 0,000 mm 0,0 UV-I 0 W/m² 5,3 °C 6,5 °C 0,0 km/h (0 Bft)
20.09.2017 23:51 6,5 °C 6,5 °C 92 % 1022,4 hPa 0,0 mm 0,0 km/h (0 Bft) S 177 ° 0 min 0,000 mm 0,0 UV-I 0 W/m² 5,3 °C 6,5 °C 0,0 km/h (0 Bft)
20.09.2017 23:52 6,5 °C 6,5 °C 92 % 1022,4 hPa 0,0 mm 0,4 km/h (0 Bft) S 177 ° 0 min 0,000 mm 0,0 UV-I 0 W/m² 5,3 °C 6,5 °C 1,6 km/h (1 Bft)
20.09.2017 23:53 6,5 °C 6,5 °C 92 % 1022,4 hPa 0,0 mm 0,2 km/h (0 Bft) S 177 ° 0 min 0,000 mm 0,0 UV-I 0 W/m² 5,3 °C 6,5 °C 1,6 km/h (1 Bft)
20.09.2017 23:54 6,5 °C 6,6 °C 92 % 1022,4 hPa 0,0 mm 0,0 km/h (0 Bft) S 177 ° 0 min 0,000 mm 0,0 UV-I 0 W/m² 5,3 °C 6,5 °C 0,0 km/h (0 Bft)
20.09.2017 23:55 6,6 °C 6,6 °C 92 % 1022,4 hPa 0,0 mm 0,0 km/h (0 Bft) S 177 ° 0 min 0,000 mm 0,0 UV-I 0 W/m² 5,4 °C 6,6 °C 0,0 km/h (0 Bft)
20.09.2017 23:56 6,6 °C 6,6 °C 92 % 1022,4 hPa 0,0 mm 0,0 km/h (0 Bft) S 177 ° 0 min 0,000 mm 0,0 UV-I 0 W/m² 5,4 °C 6,6 °C 0,0 km/h (0 Bft)
20.09.2017 23:57 6,6 °C 6,6 °C 92 % 1022,4 hPa 0,0 mm 0,1 km/h (0 Bft) S 177 ° 0 min 0,000 mm 0,0 UV-I 0 W/m² 5,4 °C 6,6 °C 1,6 km/h (1 Bft)
20.09.2017 23:58 6,6 °C 6,6 °C 92 % 1022,4 hPa 0,0 mm 0,0 km/h (0 Bft) S 177 ° 0 min 0,000 mm 0,0 UV-I 0 W/m² 5,4 °C 6,6 °C 0,0 km/h (0 Bft)
20.09.2017 23:59 6,6 °C 6,6 °C 92 % 1022,4 hPa 0,0 mm 0,0 km/h (0 Bft) S 177 ° 0 min 0,000 mm 0,0 UV-I 0 W/m² 5,4 °C 6,6 °C 0,0 km/h (0 Bft)
_ Min-Zeit 14:33 14:33 14:10 02:29 - 23:59 - - - - - - 14:22 04:14 23:59
Minimum _ 6,1 °C 6,1 °C 76 % 1019,8 hPa - 0,0 km/h (0 Bft) - - - - - - 4,3 °C 4,4 °C 0,0 km/h (0 Bft)
_ Max-Zeit 13:43 13:44 06:11 23:34 14:38 14:07 - - 13:52 14:00 13:39 13:40 13:39 13:43 14:07
Maximum _ 10,6 °C 10,6 °C 94 % 1022,6 hPa 0,2 mm 21,3 km/h
W (4 Bft)
- - 1 min 0,178 mm 4,9 UV-I 960 W/m² 7,9 °C 10,6 °C 29,0 km/h
NW (5 Bft)
Durchschnitt _ 7,4 °C 7,4 °C 90 % 1021,2 hPa #3,2 mm 2,9 km/h (1 Bft) W - #34 min. #0,762 mm 1,2 UV-I 63 W/m² 6,0 °C 7,2 °C 5,3 km/h (1 Bft)